<?xml version="1.0" encoding="UTF-8" standalone="no" ?>
<gpx xmlns="http://www.topografix.com/GPX/1/1" xmlns:xsi="http://www.w3.org/2001/XMLSchema-instance" xsi:schemaLocation="http://www.topografix.com/GPX/1/1 http://www.topografix.com/GPX/1/1/gpx.xsd" version="1.1" creator="VisuGPX - https://www.visugpx.com">
  <metadata>
    <name>BARRETINA MARATO</name>
    <desc><![CDATA[Marato a la Vall D`EN BAS, Sant Esteve- Sant Miquel i pujar i baixar per diferents corriols.]]></desc>
  </metadata>
  <trk>
    <name><![CDATA[Barretina Trail-- Part 1- Marato on GPSies.com]]></name>
    <trkseg>
      <trkpt lat="42.1181" lon="2.45898">
        <ele>513</ele>
        <time>2010-01-01T00:00:00Z</time>
      </trkpt>
      <trkpt lat="42.11806" lon="2.45897">
        <ele>512</ele>
        <time>2010-01-01T00:00:01Z</time>
      </trkpt>
      <trkpt lat="42.11804" lon="2.45895">
        <ele>512</ele>
        <time>2010-01-01T00:00:02Z</time>
      </trkpt>
      <trkpt lat="42.11803" lon="2.45883">
        <ele>511</ele>
        <time>2010-01-01T00:00:05Z</time>
      </trkpt>
      <trkpt lat="42.11804" lon="2.4588">
        <ele>510</ele>
        <time>2010-01-01T00:00:07Z</time>
      </trkpt>
      <trkpt lat="42.11811" lon="2.45872">
        <ele>510</ele>
        <time>2010-01-01T00:00:10Z</time>
      </trkpt>
      <trkpt lat="42.11802" lon="2.45854">
        <ele>507</ele>
        <time>2010-01-01T00:00:17Z</time>
      </trkpt>
      <trkpt lat="42.11791" lon="2.45856">
        <ele>506</ele>
        <time>2010-01-01T00:00:21Z</time>
      </trkpt>
      <trkpt lat="42.11779" lon="2.45864">
        <ele>506</ele>
        <time>2010-01-01T00:00:26Z</time>
      </trkpt>
      <trkpt lat="42.1177" lon="2.45867">
        <ele>506</ele>
        <time>2010-01-01T00:00:30Z</time>
      </trkpt>
      <trkpt lat="42.11769" lon="2.45864">
        <ele>506</ele>
        <time>2010-01-01T00:00:31Z</time>
      </trkpt>
      <trkpt lat="42.11764" lon="2.45862">
        <ele>505</ele>
        <time>2010-01-01T00:00:33Z</time>
      </trkpt>
      <trkpt lat="42.11739" lon="2.45842">
        <ele>502</ele>
        <time>2010-01-01T00:00:45Z</time>
      </trkpt>
      <trkpt lat="42.11729" lon="2.45837">
        <ele>501</ele>
        <time>2010-01-01T00:00:49Z</time>
      </trkpt>
      <trkpt lat="42.11721" lon="2.4583">
        <ele>500</ele>
        <time>2010-01-01T00:00:53Z</time>
      </trkpt>
      <trkpt lat="42.11705" lon="2.4582">
        <ele>497</ele>
        <time>2010-01-01T00:01:00Z</time>
      </trkpt>
      <trkpt lat="42.11701" lon="2.45815">
        <ele>497</ele>
        <time>2010-01-01T00:01:02Z</time>
      </trkpt>
      <trkpt lat="42.11699" lon="2.45804">
        <ele>496</ele>
        <time>2010-01-01T00:01:05Z</time>
      </trkpt>
      <trkpt lat="42.11701" lon="2.45792">
        <ele>495</ele>
        <time>2010-01-01T00:01:09Z</time>
      </trkpt>
      <trkpt lat="42.11691" lon="2.45768">
        <ele>493</ele>
        <time>2010-01-01T00:01:17Z</time>
      </trkpt>
      <trkpt lat="42.11685" lon="2.45759">
        <ele>492</ele>
        <time>2010-01-01T00:01:21Z</time>
      </trkpt>
      <trkpt lat="42.11681" lon="2.45721">
        <ele>490</ele>
        <time>2010-01-01T00:01:32Z</time>
      </trkpt>
      <trkpt lat="42.11677" lon="2.45709">
        <ele>489</ele>
        <time>2010-01-01T00:01:36Z</time>
      </trkpt>
      <trkpt lat="42.1168" lon="2.45684">
        <ele>487</ele>
        <time>2010-01-01T00:01:43Z</time>
      </trkpt>
      <trkpt lat="42.11679" lon="2.4567">
        <ele>486</ele>
        <time>2010-01-01T00:01:48Z</time>
      </trkpt>
      <trkpt lat="42.11656" lon="2.45646">
        <ele>484</ele>
        <time>2010-01-01T00:01:59Z</time>
      </trkpt>
      <trkpt lat="42.11649" lon="2.45636">
        <ele>484</ele>
        <time>2010-01-01T00:02:03Z</time>
      </trkpt>
      <trkpt lat="42.11606" lon="2.4554">
        <ele>482</ele>
        <time>2010-01-01T00:02:37Z</time>
      </trkpt>
      <trkpt lat="42.11593" lon="2.45514">
        <ele>481</ele>
        <time>2010-01-01T00:02:46Z</time>
      </trkpt>
      <trkpt lat="42.1156" lon="2.45469">
        <ele>481</ele>
        <time>2010-01-01T00:03:05Z</time>
      </trkpt>
      <trkpt lat="42.11529" lon="2.45419">
        <ele>481</ele>
        <time>2010-01-01T00:03:24Z</time>
      </trkpt>
      <trkpt lat="42.11482" lon="2.45353">
        <ele>478</ele>
        <time>2010-01-01T00:03:51Z</time>
      </trkpt>
      <trkpt lat="42.11451" lon="2.45295">
        <ele>477</ele>
        <time>2010-01-01T00:04:12Z</time>
      </trkpt>
      <trkpt lat="42.1143" lon="2.45211">
        <ele>479</ele>
        <time>2010-01-01T00:04:39Z</time>
      </trkpt>
      <trkpt lat="42.1142" lon="2.45142">
        <ele>479</ele>
        <time>2010-01-01T00:05:00Z</time>
      </trkpt>
      <trkpt lat="42.11408" lon="2.45102">
        <ele>478</ele>
        <time>2010-01-01T00:05:12Z</time>
      </trkpt>
      <trkpt lat="42.11409" lon="2.45084">
        <ele>478</ele>
        <time>2010-01-01T00:05:18Z</time>
      </trkpt>
      <trkpt lat="42.11416" lon="2.45042">
        <ele>477</ele>
        <time>2010-01-01T00:05:31Z</time>
      </trkpt>
      <trkpt lat="42.11423" lon="2.45009">
        <ele>477</ele>
        <time>2010-01-01T00:05:41Z</time>
      </trkpt>
      <trkpt lat="42.11433" lon="2.4493">
        <ele>478</ele>
        <time>2010-01-01T00:06:05Z</time>
      </trkpt>
      <trkpt lat="42.11434" lon="2.44927">
        <ele>478</ele>
        <time>2010-01-01T00:06:06Z</time>
      </trkpt>
      <trkpt lat="42.11437" lon="2.44927">
        <ele>478</ele>
        <time>2010-01-01T00:06:07Z</time>
      </trkpt>
      <trkpt lat="42.1144" lon="2.44929">
        <ele>478</ele>
        <time>2010-01-01T00:06:08Z</time>
      </trkpt>
      <trkpt lat="42.11436" lon="2.44923">
        <ele>478</ele>
        <time>2010-01-01T00:06:10Z</time>
      </trkpt>
      <trkpt lat="42.11435" lon="2.4492">
        <ele>478</ele>
        <time>2010-01-01T00:06:11Z</time>
      </trkpt>
      <trkpt lat="42.11436" lon="2.44916">
        <ele>478</ele>
        <time>2010-01-01T00:06:13Z</time>
      </trkpt>
      <trkpt lat="42.1145" lon="2.44887">
        <ele>477</ele>
        <time>2010-01-01T00:06:23Z</time>
      </trkpt>
      <trkpt lat="42.11456" lon="2.44868">
        <ele>478</ele>
        <time>2010-01-01T00:06:29Z</time>
      </trkpt>
      <trkpt lat="42.11454" lon="2.44848">
        <ele>480</ele>
        <time>2010-01-01T00:06:35Z</time>
      </trkpt>
      <trkpt lat="42.11446" lon="2.44816">
        <ele>483</ele>
        <time>2010-01-01T00:06:45Z</time>
      </trkpt>
      <trkpt lat="42.11437" lon="2.44771">
        <ele>482</ele>
        <time>2010-01-01T00:06:59Z</time>
      </trkpt>
      <trkpt lat="42.11435" lon="2.44733">
        <ele>479</ele>
        <time>2010-01-01T00:07:10Z</time>
      </trkpt>
      <trkpt lat="42.1143" lon="2.44696">
        <ele>476</ele>
        <time>2010-01-01T00:07:21Z</time>
      </trkpt>
      <trkpt lat="42.11403" lon="2.44574">
        <ele>477</ele>
        <time>2010-01-01T00:07:59Z</time>
      </trkpt>
      <trkpt lat="42.11396" lon="2.4455">
        <ele>478</ele>
        <time>2010-01-01T00:08:07Z</time>
      </trkpt>
      <trkpt lat="42.11388" lon="2.44538">
        <ele>478</ele>
        <time>2010-01-01T00:08:11Z</time>
      </trkpt>
      <trkpt lat="42.11373" lon="2.44528">
        <ele>478</ele>
        <time>2010-01-01T00:08:18Z</time>
      </trkpt>
      <trkpt lat="42.11362" lon="2.44518">
        <ele>479</ele>
        <time>2010-01-01T00:08:23Z</time>
      </trkpt>
      <trkpt lat="42.11352" lon="2.44501">
        <ele>479</ele>
        <time>2010-01-01T00:08:30Z</time>
      </trkpt>
      <trkpt lat="42.11313" lon="2.44415">
        <ele>478</ele>
        <time>2010-01-01T00:09:00Z</time>
      </trkpt>
      <trkpt lat="42.113" lon="2.44391">
        <ele>478</ele>
        <time>2010-01-01T00:09:09Z</time>
      </trkpt>
      <trkpt lat="42.11265" lon="2.44294">
        <ele>480</ele>
        <time>2010-01-01T00:09:41Z</time>
      </trkpt>
      <trkpt lat="42.11266" lon="2.44286">
        <ele>480</ele>
        <time>2010-01-01T00:09:43Z</time>
      </trkpt>
      <trkpt lat="42.11267" lon="2.44282">
        <ele>480</ele>
        <time>2010-01-01T00:09:44Z</time>
      </trkpt>
      <trkpt lat="42.11287" lon="2.44263">
        <ele>481</ele>
        <time>2010-01-01T00:09:54Z</time>
      </trkpt>
      <trkpt lat="42.11316" lon="2.44239">
        <ele>481</ele>
        <time>2010-01-01T00:10:08Z</time>
      </trkpt>
      <trkpt lat="42.11348" lon="2.44217">
        <ele>479</ele>
        <time>2010-01-01T00:10:22Z</time>
      </trkpt>
      <trkpt lat="42.11368" lon="2.44205">
        <ele>479</ele>
        <time>2010-01-01T00:10:31Z</time>
      </trkpt>
      <trkpt lat="42.11381" lon="2.44203">
        <ele>480</ele>
        <time>2010-01-01T00:10:36Z</time>
      </trkpt>
      <trkpt lat="42.11402" lon="2.44203">
        <ele>480</ele>
        <time>2010-01-01T00:10:44Z</time>
      </trkpt>
      <trkpt lat="42.11455" lon="2.44205">
        <ele>480</ele>
        <time>2010-01-01T00:11:06Z</time>
      </trkpt>
      <trkpt lat="42.11486" lon="2.44208">
        <ele>480</ele>
        <time>2010-01-01T00:11:18Z</time>
      </trkpt>
      <trkpt lat="42.115" lon="2.44208">
        <ele>482</ele>
        <time>2010-01-01T00:11:24Z</time>
      </trkpt>
      <trkpt lat="42.11521" lon="2.44211">
        <ele>483</ele>
        <time>2010-01-01T00:11:32Z</time>
      </trkpt>
      <trkpt lat="42.11534" lon="2.44209">
        <ele>484</ele>
        <time>2010-01-01T00:11:37Z</time>
      </trkpt>
      <trkpt lat="42.11539" lon="2.44207">
        <ele>485</ele>
        <time>2010-01-01T00:11:39Z</time>
      </trkpt>
      <trkpt lat="42.11542" lon="2.44187">
        <ele>486</ele>
        <time>2010-01-01T00:11:46Z</time>
      </trkpt>
      <trkpt lat="42.11536" lon="2.44141">
        <ele>485</ele>
        <time>2010-01-01T00:11:59Z</time>
      </trkpt>
      <trkpt lat="42.11537" lon="2.44115">
        <ele>483</ele>
        <time>2010-01-01T00:12:07Z</time>
      </trkpt>
      <trkpt lat="42.11533" lon="2.44086">
        <ele>481</ele>
        <time>2010-01-01T00:12:16Z</time>
      </trkpt>
      <trkpt lat="42.11538" lon="2.44007">
        <ele>483</ele>
        <time>2010-01-01T00:12:39Z</time>
      </trkpt>
      <trkpt lat="42.11556" lon="2.43971">
        <ele>483</ele>
        <time>2010-01-01T00:12:52Z</time>
      </trkpt>
      <trkpt lat="42.11571" lon="2.43946">
        <ele>484</ele>
        <time>2010-01-01T00:13:02Z</time>
      </trkpt>
      <trkpt lat="42.11588" lon="2.43916">
        <ele>484</ele>
        <time>2010-01-01T00:13:13Z</time>
      </trkpt>
      <trkpt lat="42.11605" lon="2.43889">
        <ele>484</ele>
        <time>2010-01-01T00:13:23Z</time>
      </trkpt>
      <trkpt lat="42.11681" lon="2.43754">
        <ele>489</ele>
        <time>2010-01-01T00:14:14Z</time>
      </trkpt>
      <trkpt lat="42.11704" lon="2.43711">
        <ele>489</ele>
        <time>2010-01-01T00:14:29Z</time>
      </trkpt>
      <trkpt lat="42.11707" lon="2.43701">
        <ele>489</ele>
        <time>2010-01-01T00:14:33Z</time>
      </trkpt>
      <trkpt lat="42.11708" lon="2.43689">
        <ele>489</ele>
        <time>2010-01-01T00:14:36Z</time>
      </trkpt>
      <trkpt lat="42.11702" lon="2.43662">
        <ele>491</ele>
        <time>2010-01-01T00:14:45Z</time>
      </trkpt>
      <trkpt lat="42.11701" lon="2.43626">
        <ele>493</ele>
        <time>2010-01-01T00:14:55Z</time>
      </trkpt>
      <trkpt lat="42.11699" lon="2.4361">
        <ele>494</ele>
        <time>2010-01-01T00:15:00Z</time>
      </trkpt>
      <trkpt lat="42.11694" lon="2.43591">
        <ele>495</ele>
        <time>2010-01-01T00:15:06Z</time>
      </trkpt>
      <trkpt lat="42.11681" lon="2.43566">
        <ele>498</ele>
        <time>2010-01-01T00:15:15Z</time>
      </trkpt>
      <trkpt lat="42.11681" lon="2.43562">
        <ele>498</ele>
        <time>2010-01-01T00:15:16Z</time>
      </trkpt>
      <trkpt lat="42.11687" lon="2.43544">
        <ele>500</ele>
        <time>2010-01-01T00:15:22Z</time>
      </trkpt>
      <trkpt lat="42.11691" lon="2.43529">
        <ele>502</ele>
        <time>2010-01-01T00:15:27Z</time>
      </trkpt>
      <trkpt lat="42.11699" lon="2.4348">
        <ele>509</ele>
        <time>2010-01-01T00:15:42Z</time>
      </trkpt>
      <trkpt lat="42.117" lon="2.43476">
        <ele>509</ele>
        <time>2010-01-01T00:15:43Z</time>
      </trkpt>
      <trkpt lat="42.11708" lon="2.43469">
        <ele>507</ele>
        <time>2010-01-01T00:15:47Z</time>
      </trkpt>
      <trkpt lat="42.11711" lon="2.43465">
        <ele>507</ele>
        <time>2010-01-01T00:15:49Z</time>
      </trkpt>
      <trkpt lat="42.11712" lon="2.43459">
        <ele>507</ele>
        <time>2010-01-01T00:15:50Z</time>
      </trkpt>
      <trkpt lat="42.1171" lon="2.43432">
        <ele>509</ele>
        <time>2010-01-01T00:15:58Z</time>
      </trkpt>
      <trkpt lat="42.11706" lon="2.43412">
        <ele>511</ele>
        <time>2010-01-01T00:16:05Z</time>
      </trkpt>
      <trkpt lat="42.11704" lon="2.43392">
        <ele>511</ele>
        <time>2010-01-01T00:16:11Z</time>
      </trkpt>
      <trkpt lat="42.11698" lon="2.43372">
        <ele>511</ele>
        <time>2010-01-01T00:16:17Z</time>
      </trkpt>
      <trkpt lat="42.11698" lon="2.43359">
        <ele>510</ele>
        <time>2010-01-01T00:16:21Z</time>
      </trkpt>
      <trkpt lat="42.117" lon="2.43353">
        <ele>509</ele>
        <time>2010-01-01T00:16:23Z</time>
      </trkpt>
      <trkpt lat="42.117" lon="2.4335">
        <ele>510</ele>
        <time>2010-01-01T00:16:24Z</time>
      </trkpt>
      <trkpt lat="42.11686" lon="2.43336">
        <ele>518</ele>
        <time>2010-01-01T00:16:31Z</time>
      </trkpt>
      <trkpt lat="42.11679" lon="2.43331">
        <ele>523</ele>
        <time>2010-01-01T00:16:34Z</time>
      </trkpt>
      <trkpt lat="42.11674" lon="2.4332">
        <ele>527</ele>
        <time>2010-01-01T00:16:38Z</time>
      </trkpt>
      <trkpt lat="42.1168" lon="2.43284">
        <ele>525</ele>
        <time>2010-01-01T00:16:49Z</time>
      </trkpt>
      <trkpt lat="42.11679" lon="2.43257">
        <ele>529</ele>
        <time>2010-01-01T00:16:57Z</time>
      </trkpt>
      <trkpt lat="42.11674" lon="2.43246">
        <ele>534</ele>
        <time>2010-01-01T00:17:01Z</time>
      </trkpt>
      <trkpt lat="42.11673" lon="2.43235">
        <ele>534</ele>
        <time>2010-01-01T00:17:04Z</time>
      </trkpt>
      <trkpt lat="42.11666" lon="2.43216">
        <ele>539</ele>
        <time>2010-01-01T00:17:10Z</time>
      </trkpt>
      <trkpt lat="42.11665" lon="2.43205">
        <ele>539</ele>
        <time>2010-01-01T00:17:14Z</time>
      </trkpt>
      <trkpt lat="42.11658" lon="2.43197">
        <ele>542</ele>
        <time>2010-01-01T00:17:17Z</time>
      </trkpt>
      <trkpt lat="42.11658" lon="2.43184">
        <ele>539</ele>
        <time>2010-01-01T00:17:21Z</time>
      </trkpt>
      <trkpt lat="42.11655" lon="2.43165">
        <ele>536</ele>
        <time>2010-01-01T00:17:26Z</time>
      </trkpt>
      <trkpt lat="42.11648" lon="2.43155">
        <ele>541</ele>
        <time>2010-01-01T00:17:30Z</time>
      </trkpt>
      <trkpt lat="42.11651" lon="2.43149">
        <ele>538</ele>
        <time>2010-01-01T00:17:33Z</time>
      </trkpt>
      <trkpt lat="42.1165" lon="2.43146">
        <ele>538</ele>
        <time>2010-01-01T00:17:34Z</time>
      </trkpt>
      <trkpt lat="42.11608" lon="2.43057">
        <ele>551</ele>
        <time>2010-01-01T00:18:05Z</time>
      </trkpt>
      <trkpt lat="42.11607" lon="2.43045">
        <ele>550</ele>
        <time>2010-01-01T00:18:09Z</time>
      </trkpt>
      <trkpt lat="42.11603" lon="2.43033">
        <ele>550</ele>
        <time>2010-01-01T00:18:13Z</time>
      </trkpt>
      <trkpt lat="42.11604" lon="2.4302">
        <ele>548</ele>
        <time>2010-01-01T00:18:16Z</time>
      </trkpt>
      <trkpt lat="42.11602" lon="2.43007">
        <ele>548</ele>
        <time>2010-01-01T00:18:20Z</time>
      </trkpt>
      <trkpt lat="42.1161" lon="2.42953">
        <ele>550</ele>
        <time>2010-01-01T00:18:37Z</time>
      </trkpt>
      <trkpt lat="42.11613" lon="2.42948">
        <ele>550</ele>
        <time>2010-01-01T00:18:39Z</time>
      </trkpt>
      <trkpt lat="42.11621" lon="2.4294">
        <ele>548</ele>
        <time>2010-01-01T00:18:43Z</time>
      </trkpt>
      <trkpt lat="42.11626" lon="2.42931">
        <ele>549</ele>
        <time>2010-01-01T00:18:46Z</time>
      </trkpt>
      <trkpt lat="42.11642" lon="2.42921">
        <ele>545</ele>
        <time>2010-01-01T00:18:53Z</time>
      </trkpt>
      <trkpt lat="42.11645" lon="2.42917">
        <ele>545</ele>
        <time>2010-01-01T00:18:55Z</time>
      </trkpt>
      <trkpt lat="42.11648" lon="2.42902">
        <ele>546</ele>
        <time>2010-01-01T00:18:59Z</time>
      </trkpt>
      <trkpt lat="42.11646" lon="2.4289">
        <ele>548</ele>
        <time>2010-01-01T00:19:03Z</time>
      </trkpt>
      <trkpt lat="42.11638" lon="2.42874">
        <ele>554</ele>
        <time>2010-01-01T00:19:09Z</time>
      </trkpt>
      <trkpt lat="42.11638" lon="2.42872">
        <ele>554</ele>
        <time>2010-01-01T00:19:09Z</time>
      </trkpt>
      <trkpt lat="42.11636" lon="2.42871">
        <ele>555</ele>
        <time>2010-01-01T00:19:10Z</time>
      </trkpt>
      <trkpt lat="42.1162" lon="2.42852">
        <ele>563</ele>
        <time>2010-01-01T00:19:19Z</time>
      </trkpt>
      <trkpt lat="42.11605" lon="2.42842">
        <ele>569</ele>
        <time>2010-01-01T00:19:25Z</time>
      </trkpt>
      <trkpt lat="42.11603" lon="2.42834">
        <ele>571</ele>
        <time>2010-01-01T00:19:28Z</time>
      </trkpt>
      <trkpt lat="42.11604" lon="2.42819">
        <ele>572</ele>
        <time>2010-01-01T00:19:32Z</time>
      </trkpt>
      <trkpt lat="42.11606" lon="2.42806">
        <ele>571</ele>
        <time>2010-01-01T00:19:36Z</time>
      </trkpt>
      <trkpt lat="42.11612" lon="2.42797">
        <ele>569</ele>
        <time>2010-01-01T00:19:40Z</time>
      </trkpt>
      <trkpt lat="42.11617" lon="2.42769">
        <ele>570</ele>
        <time>2010-01-01T00:19:48Z</time>
      </trkpt>
      <trkpt lat="42.11616" lon="2.42755">
        <ele>571</ele>
        <time>2010-01-01T00:19:52Z</time>
      </trkpt>
      <trkpt lat="42.1161" lon="2.42726">
        <ele>575</ele>
        <time>2010-01-01T00:20:02Z</time>
      </trkpt>
      <trkpt lat="42.11613" lon="2.42713">
        <ele>576</ele>
        <time>2010-01-01T00:20:05Z</time>
      </trkpt>
      <trkpt lat="42.11609" lon="2.42697">
        <ele>580</ele>
        <time>2010-01-01T00:20:10Z</time>
      </trkpt>
      <trkpt lat="42.1161" lon="2.42684">
        <ele>582</ele>
        <time>2010-01-01T00:20:14Z</time>
      </trkpt>
      <trkpt lat="42.1162" lon="2.42654">
        <ele>586</ele>
        <time>2010-01-01T00:20:24Z</time>
      </trkpt>
      <trkpt lat="42.11624" lon="2.42647">
        <ele>586</ele>
        <time>2010-01-01T00:20:27Z</time>
      </trkpt>
      <trkpt lat="42.1164" lon="2.42575">
        <ele>595</ele>
        <time>2010-01-01T00:20:49Z</time>
      </trkpt>
      <trkpt lat="42.11644" lon="2.42568">
        <ele>594</ele>
        <time>2010-01-01T00:20:51Z</time>
      </trkpt>
      <trkpt lat="42.11656" lon="2.42558">
        <ele>591</ele>
        <time>2010-01-01T00:20:57Z</time>
      </trkpt>
      <trkpt lat="42.11663" lon="2.42548">
        <ele>591</ele>
        <time>2010-01-01T00:21:01Z</time>
      </trkpt>
      <trkpt lat="42.11664" lon="2.42527">
        <ele>593</ele>
        <time>2010-01-01T00:21:07Z</time>
      </trkpt>
      <trkpt lat="42.11655" lon="2.42535">
        <ele>594</ele>
        <time>2010-01-01T00:21:12Z</time>
      </trkpt>
      <trkpt lat="42.11642" lon="2.42538">
        <ele>597</ele>
        <time>2010-01-01T00:21:17Z</time>
      </trkpt>
      <trkpt lat="42.11628" lon="2.42544">
        <ele>600</ele>
        <time>2010-01-01T00:21:23Z</time>
      </trkpt>
      <trkpt lat="42.11617" lon="2.42544">
        <ele>603</ele>
        <time>2010-01-01T00:21:27Z</time>
      </trkpt>
      <trkpt lat="42.11605" lon="2.4253">
        <ele>605</ele>
        <time>2010-01-01T00:21:33Z</time>
      </trkpt>
      <trkpt lat="42.11598" lon="2.42529">
        <ele>607</ele>
        <time>2010-01-01T00:21:36Z</time>
      </trkpt>
      <trkpt lat="42.11596" lon="2.42531">
        <ele>608</ele>
        <time>2010-01-01T00:21:37Z</time>
      </trkpt>
      <trkpt lat="42.11595" lon="2.42533">
        <ele>608</ele>
        <time>2010-01-01T00:21:38Z</time>
      </trkpt>
      <trkpt lat="42.11595" lon="2.4254">
        <ele>608</ele>
        <time>2010-01-01T00:21:40Z</time>
      </trkpt>
      <trkpt lat="42.11588" lon="2.42566">
        <ele>609</ele>
        <time>2010-01-01T00:21:48Z</time>
      </trkpt>
      <trkpt lat="42.11578" lon="2.42583">
        <ele>614</ele>
        <time>2010-01-01T00:21:55Z</time>
      </trkpt>
      <trkpt lat="42.11568" lon="2.42614">
        <ele>614</ele>
        <time>2010-01-01T00:22:05Z</time>
      </trkpt>
      <trkpt lat="42.11556" lon="2.42643">
        <ele>615</ele>
        <time>2010-01-01T00:22:15Z</time>
      </trkpt>
      <trkpt lat="42.1155" lon="2.4265">
        <ele>618</ele>
        <time>2010-01-01T00:22:18Z</time>
      </trkpt>
      <trkpt lat="42.11546" lon="2.4266">
        <ele>620</ele>
        <time>2010-01-01T00:22:22Z</time>
      </trkpt>
      <trkpt lat="42.11528" lon="2.42685">
        <ele>625</ele>
        <time>2010-01-01T00:22:32Z</time>
      </trkpt>
      <trkpt lat="42.11514" lon="2.42697">
        <ele>630</ele>
        <time>2010-01-01T00:22:38Z</time>
      </trkpt>
      <trkpt lat="42.11506" lon="2.42706">
        <ele>631</ele>
        <time>2010-01-01T00:22:42Z</time>
      </trkpt>
      <trkpt lat="42.11502" lon="2.42709">
        <ele>632</ele>
        <time>2010-01-01T00:22:44Z</time>
      </trkpt>
      <trkpt lat="42.11498" lon="2.42714">
        <ele>632</ele>
        <time>2010-01-01T00:22:47Z</time>
      </trkpt>
      <trkpt lat="42.11486" lon="2.42721">
        <ele>635</ele>
        <time>2010-01-01T00:22:52Z</time>
      </trkpt>
      <trkpt lat="42.11472" lon="2.42736">
        <ele>638</ele>
        <time>2010-01-01T00:22:59Z</time>
      </trkpt>
      <trkpt lat="42.11463" lon="2.42758">
        <ele>638</ele>
        <time>2010-01-01T00:23:07Z</time>
      </trkpt>
      <trkpt lat="42.11456" lon="2.42765">
        <ele>640</ele>
        <time>2010-01-01T00:23:10Z</time>
      </trkpt>
      <trkpt lat="42.11454" lon="2.42771">
        <ele>639</ele>
        <time>2010-01-01T00:23:12Z</time>
      </trkpt>
      <trkpt lat="42.11446" lon="2.4278">
        <ele>641</ele>
        <time>2010-01-01T00:23:16Z</time>
      </trkpt>
      <trkpt lat="42.11439" lon="2.42795">
        <ele>643</ele>
        <time>2010-01-01T00:23:21Z</time>
      </trkpt>
      <trkpt lat="42.1143" lon="2.42805">
        <ele>647</ele>
        <time>2010-01-01T00:23:26Z</time>
      </trkpt>
      <trkpt lat="42.11431" lon="2.42814">
        <ele>645</ele>
        <time>2010-01-01T00:23:29Z</time>
      </trkpt>
      <trkpt lat="42.11428" lon="2.42823">
        <ele>646</ele>
        <time>2010-01-01T00:23:32Z</time>
      </trkpt>
      <trkpt lat="42.1141" lon="2.42836">
        <ele>655</ele>
        <time>2010-01-01T00:23:40Z</time>
      </trkpt>
      <trkpt lat="42.114" lon="2.42847">
        <ele>659</ele>
        <time>2010-01-01T00:23:45Z</time>
      </trkpt>
      <trkpt lat="42.11396" lon="2.42849">
        <ele>661</ele>
        <time>2010-01-01T00:23:47Z</time>
      </trkpt>
      <trkpt lat="42.11393" lon="2.42857">
        <ele>661</ele>
        <time>2010-01-01T00:23:49Z</time>
      </trkpt>
      <trkpt lat="42.11385" lon="2.42863">
        <ele>665</ele>
        <time>2010-01-01T00:23:53Z</time>
      </trkpt>
      <trkpt lat="42.1138" lon="2.42875">
        <ele>667</ele>
        <time>2010-01-01T00:23:57Z</time>
      </trkpt>
      <trkpt lat="42.11373" lon="2.42882">
        <ele>670</ele>
        <time>2010-01-01T00:24:01Z</time>
      </trkpt>
      <trkpt lat="42.11372" lon="2.4289">
        <ele>671</ele>
        <time>2010-01-01T00:24:03Z</time>
      </trkpt>
      <trkpt lat="42.11367" lon="2.42896">
        <ele>673</ele>
        <time>2010-01-01T00:24:06Z</time>
      </trkpt>
      <trkpt lat="42.11359" lon="2.42912">
        <ele>675</ele>
        <time>2010-01-01T00:24:11Z</time>
      </trkpt>
      <trkpt lat="42.11356" lon="2.42931">
        <ele>674</ele>
        <time>2010-01-01T00:24:17Z</time>
      </trkpt>
      <trkpt lat="42.11351" lon="2.42941">
        <ele>676</ele>
        <time>2010-01-01T00:24:21Z</time>
      </trkpt>
      <trkpt lat="42.1134" lon="2.42954">
        <ele>679</ele>
        <time>2010-01-01T00:24:27Z</time>
      </trkpt>
      <trkpt lat="42.1133" lon="2.42946">
        <ele>685</ele>
        <time>2010-01-01T00:24:31Z</time>
      </trkpt>
      <trkpt lat="42.11325" lon="2.42936">
        <ele>689</ele>
        <time>2010-01-01T00:24:35Z</time>
      </trkpt>
      <trkpt lat="42.11321" lon="2.42934">
        <ele>691</ele>
        <time>2010-01-01T00:24:37Z</time>
      </trkpt>
      <trkpt lat="42.11319" lon="2.42931">
        <ele>692</ele>
        <time>2010-01-01T00:24:38Z</time>
      </trkpt>
      <trkpt lat="42.11315" lon="2.42931">
        <ele>694</ele>
        <time>2010-01-01T00:24:40Z</time>
      </trkpt>
      <trkpt lat="42.11309" lon="2.42923">
        <ele>698</ele>
        <time>2010-01-01T00:24:43Z</time>
      </trkpt>
      <trkpt lat="42.11301" lon="2.4292">
        <ele>701</ele>
        <time>2010-01-01T00:24:46Z</time>
      </trkpt>
      <trkpt lat="42.11298" lon="2.42911">
        <ele>703</ele>
        <time>2010-01-01T00:24:49Z</time>
      </trkpt>
      <trkpt lat="42.11295" lon="2.42908">
        <ele>704</ele>
        <time>2010-01-01T00:24:51Z</time>
      </trkpt>
      <trkpt lat="42.11287" lon="2.42907">
        <ele>707</ele>
        <time>2010-01-01T00:24:54Z</time>
      </trkpt>
      <trkpt lat="42.11279" lon="2.42895">
        <ele>712</ele>
        <time>2010-01-01T00:24:59Z</time>
      </trkpt>
      <trkpt lat="42.11271" lon="2.42897">
        <ele>713</ele>
        <time>2010-01-01T00:25:02Z</time>
      </trkpt>
      <trkpt lat="42.11266" lon="2.42892">
        <ele>715</ele>
        <time>2010-01-01T00:25:04Z</time>
      </trkpt>
      <trkpt lat="42.11262" lon="2.42885">
        <ele>717</ele>
        <time>2010-01-01T00:25:07Z</time>
      </trkpt>
      <trkpt lat="42.11262" lon="2.4288">
        <ele>718</ele>
        <time>2010-01-01T00:25:09Z</time>
      </trkpt>
      <trkpt lat="42.11259" lon="2.4287">
        <ele>721</ele>
        <time>2010-01-01T00:25:11Z</time>
      </trkpt>
      <trkpt lat="42.11261" lon="2.42861">
        <ele>722</ele>
        <time>2010-01-01T00:25:14Z</time>
      </trkpt>
      <trkpt lat="42.11258" lon="2.42857">
        <ele>724</ele>
        <time>2010-01-01T00:25:16Z</time>
      </trkpt>
      <trkpt lat="42.11256" lon="2.42857">
        <ele>725</ele>
        <time>2010-01-01T00:25:17Z</time>
      </trkpt>
      <trkpt lat="42.11256" lon="2.42845">
        <ele>728</ele>
        <time>2010-01-01T00:25:20Z</time>
      </trkpt>
      <trkpt lat="42.11255" lon="2.42842">
        <ele>728</ele>
        <time>2010-01-01T00:25:21Z</time>
      </trkpt>
      <trkpt lat="42.11248" lon="2.42847">
        <ele>729</ele>
        <time>2010-01-01T00:25:25Z</time>
      </trkpt>
      <trkpt lat="42.11246" lon="2.42843">
        <ele>731</ele>
        <time>2010-01-01T00:25:26Z</time>
      </trkpt>
      <trkpt lat="42.11248" lon="2.42829">
        <ele>733</ele>
        <time>2010-01-01T00:25:30Z</time>
      </trkpt>
      <trkpt lat="42.11247" lon="2.42805">
        <ele>737</ele>
        <time>2010-01-01T00:25:37Z</time>
      </trkpt>
      <trkpt lat="42.11252" lon="2.42795">
        <ele>737</ele>
        <time>2010-01-01T00:25:41Z</time>
      </trkpt>
      <trkpt lat="42.11251" lon="2.42793">
        <ele>738</ele>
        <time>2010-01-01T00:25:42Z</time>
      </trkpt>
      <trkpt lat="42.11249" lon="2.42794">
        <ele>739</ele>
        <time>2010-01-01T00:25:43Z</time>
      </trkpt>
      <trkpt lat="42.11245" lon="2.42794">
        <ele>740</ele>
        <time>2010-01-01T00:25:44Z</time>
      </trkpt>
      <trkpt lat="42.11243" lon="2.42796">
        <ele>740</ele>
        <time>2010-01-01T00:25:45Z</time>
      </trkpt>
      <trkpt lat="42.11241" lon="2.428">
        <ele>740</ele>
        <time>2010-01-01T00:25:47Z</time>
      </trkpt>
      <trkpt lat="42.11239" lon="2.428">
        <ele>741</ele>
        <time>2010-01-01T00:25:48Z</time>
      </trkpt>
      <trkpt lat="42.11237" lon="2.42796">
        <ele>743</ele>
        <time>2010-01-01T00:25:49Z</time>
      </trkpt>
      <trkpt lat="42.11237" lon="2.42778">
        <ele>748</ele>
        <time>2010-01-01T00:25:55Z</time>
      </trkpt>
      <trkpt lat="42.11239" lon="2.42769">
        <ele>749</ele>
        <time>2010-01-01T00:25:57Z</time>
      </trkpt>
      <trkpt lat="42.11238" lon="2.42765">
        <ele>750</ele>
        <time>2010-01-01T00:25:59Z</time>
      </trkpt>
      <trkpt lat="42.11244" lon="2.42753">
        <ele>750</ele>
        <time>2010-01-01T00:26:03Z</time>
      </trkpt>
      <trkpt lat="42.11245" lon="2.4275">
        <ele>750</ele>
        <time>2010-01-01T00:26:04Z</time>
      </trkpt>
      <trkpt lat="42.11243" lon="2.42736">
        <ele>754</ele>
        <time>2010-01-01T00:26:08Z</time>
      </trkpt>
      <trkpt lat="42.11243" lon="2.42721">
        <ele>757</ele>
        <time>2010-01-01T00:26:13Z</time>
      </trkpt>
      <trkpt lat="42.11241" lon="2.42717">
        <ele>759</ele>
        <time>2010-01-01T00:26:14Z</time>
      </trkpt>
      <trkpt lat="42.11239" lon="2.42708">
        <ele>762</ele>
        <time>2010-01-01T00:26:17Z</time>
      </trkpt>
      <trkpt lat="42.11245" lon="2.4267">
        <ele>766</ele>
        <time>2010-01-01T00:26:28Z</time>
      </trkpt>
      <trkpt lat="42.11241" lon="2.42648">
        <ele>768</ele>
        <time>2010-01-01T00:26:35Z</time>
      </trkpt>
      <trkpt lat="42.11238" lon="2.42651">
        <ele>769</ele>
        <time>2010-01-01T00:26:37Z</time>
      </trkpt>
      <trkpt lat="42.11234" lon="2.42652">
        <ele>771</ele>
        <time>2010-01-01T00:26:38Z</time>
      </trkpt>
      <trkpt lat="42.1123" lon="2.42661">
        <ele>772</ele>
        <time>2010-01-01T00:26:42Z</time>
      </trkpt>
      <trkpt lat="42.11223" lon="2.42669">
        <ele>775</ele>
        <time>2010-01-01T00:26:45Z</time>
      </trkpt>
      <trkpt lat="42.11212" lon="2.42679">
        <ele>779</ele>
        <time>2010-01-01T00:26:50Z</time>
      </trkpt>
      <trkpt lat="42.11212" lon="2.42684">
        <ele>779</ele>
        <time>2010-01-01T00:26:52Z</time>
      </trkpt>
      <trkpt lat="42.11206" lon="2.42692">
        <ele>782</ele>
        <time>2010-01-01T00:26:56Z</time>
      </trkpt>
      <trkpt lat="42.11205" lon="2.42701">
        <ele>781</ele>
        <time>2010-01-01T00:26:58Z</time>
      </trkpt>
      <trkpt lat="42.11199" lon="2.42717">
        <ele>781</ele>
        <time>2010-01-01T00:27:03Z</time>
      </trkpt>
      <trkpt lat="42.11193" lon="2.42725">
        <ele>782</ele>
        <time>2010-01-01T00:27:07Z</time>
      </trkpt>
      <trkpt lat="42.11175" lon="2.42738">
        <ele>782</ele>
        <time>2010-01-01T00:27:15Z</time>
      </trkpt>
      <trkpt lat="42.11161" lon="2.42742">
        <ele>783</ele>
        <time>2010-01-01T00:27:21Z</time>
      </trkpt>
      <trkpt lat="42.11148" lon="2.4274">
        <ele>786</ele>
        <time>2010-01-01T00:27:26Z</time>
      </trkpt>
      <trkpt lat="42.11131" lon="2.42743">
        <ele>788</ele>
        <time>2010-01-01T00:27:33Z</time>
      </trkpt>
      <trkpt lat="42.11118" lon="2.42743">
        <ele>790</ele>
        <time>2010-01-01T00:27:38Z</time>
      </trkpt>
      <trkpt lat="42.11084" lon="2.42747">
        <ele>793</ele>
        <time>2010-01-01T00:27:52Z</time>
      </trkpt>
      <trkpt lat="42.11057" lon="2.42739">
        <ele>797</ele>
        <time>2010-01-01T00:28:03Z</time>
      </trkpt>
      <trkpt lat="42.11047" lon="2.42734">
        <ele>798</ele>
        <time>2010-01-01T00:28:07Z</time>
      </trkpt>
      <trkpt lat="42.11032" lon="2.42731">
        <ele>797</ele>
        <time>2010-01-01T00:28:13Z</time>
      </trkpt>
      <trkpt lat="42.10999" lon="2.42715">
        <ele>801</ele>
        <time>2010-01-01T00:28:27Z</time>
      </trkpt>
      <trkpt lat="42.10985" lon="2.42715">
        <ele>802</ele>
        <time>2010-01-01T00:28:33Z</time>
      </trkpt>
      <trkpt lat="42.10972" lon="2.42708">
        <ele>805</ele>
        <time>2010-01-01T00:28:39Z</time>
      </trkpt>
      <trkpt lat="42.10967" lon="2.42707">
        <ele>806</ele>
        <time>2010-01-01T00:28:41Z</time>
      </trkpt>
      <trkpt lat="42.10956" lon="2.42709">
        <ele>807</ele>
        <time>2010-01-01T00:28:45Z</time>
      </trkpt>
      <trkpt lat="42.10942" lon="2.42708">
        <ele>809</ele>
        <time>2010-01-01T00:28:51Z</time>
      </trkpt>
      <trkpt lat="42.1093" lon="2.42718">
        <ele>807</ele>
        <time>2010-01-01T00:28:56Z</time>
      </trkpt>
      <trkpt lat="42.10918" lon="2.42726">
        <ele>806</ele>
        <time>2010-01-01T00:29:02Z</time>
      </trkpt>
      <trkpt lat="42.10902" lon="2.42732">
        <ele>806</ele>
        <time>2010-01-01T00:29:08Z</time>
      </trkpt>
      <trkpt lat="42.10888" lon="2.42734">
        <ele>807</ele>
        <time>2010-01-01T00:29:14Z</time>
      </trkpt>
      <trkpt lat="42.10858" lon="2.42734">
        <ele>806</ele>
        <time>2010-01-01T00:29:26Z</time>
      </trkpt>
      <trkpt lat="42.10852" lon="2.42733">
        <ele>806</ele>
        <time>2010-01-01T00:29:28Z</time>
      </trkpt>
      <trkpt lat="42.10846" lon="2.42728">
        <ele>807</ele>
        <time>2010-01-01T00:29:31Z</time>
      </trkpt>
      <trkpt lat="42.10843" lon="2.42722">
        <ele>808</ele>
        <time>2010-01-01T00:29:33Z</time>
      </trkpt>
      <trkpt lat="42.10837" lon="2.42716">
        <ele>810</ele>
        <time>2010-01-01T00:29:36Z</time>
      </trkpt>
      <trkpt lat="42.10828" lon="2.42694">
        <ele>816</ele>
        <time>2010-01-01T00:29:43Z</time>
      </trkpt>
      <trkpt lat="42.10821" lon="2.42686">
        <ele>818</ele>
        <time>2010-01-01T00:29:47Z</time>
      </trkpt>
      <trkpt lat="42.10817" lon="2.42684">
        <ele>819</ele>
        <time>2010-01-01T00:29:49Z</time>
      </trkpt>
      <trkpt lat="42.10799" lon="2.42681">
        <ele>821</ele>
        <time>2010-01-01T00:29:56Z</time>
      </trkpt>
      <trkpt lat="42.10791" lon="2.42678">
        <ele>823</ele>
        <time>2010-01-01T00:29:59Z</time>
      </trkpt>
      <trkpt lat="42.10783" lon="2.42682">
        <ele>823</ele>
        <time>2010-01-01T00:30:03Z</time>
      </trkpt>
      <trkpt lat="42.10772" lon="2.42694">
        <ele>821</ele>
        <time>2010-01-01T00:30:08Z</time>
      </trkpt>
      <trkpt lat="42.10756" lon="2.42692">
        <ele>823</ele>
        <time>2010-01-01T00:30:15Z</time>
      </trkpt>
      <trkpt lat="42.10742" lon="2.42698">
        <ele>823</ele>
        <time>2010-01-01T00:30:21Z</time>
      </trkpt>
      <trkpt lat="42.10725" lon="2.42698">
        <ele>825</ele>
        <time>2010-01-01T00:30:28Z</time>
      </trkpt>
      <trkpt lat="42.10711" lon="2.42701">
        <ele>827</ele>
        <time>2010-01-01T00:30:33Z</time>
      </trkpt>
      <trkpt lat="42.10698" lon="2.42698">
        <ele>830</ele>
        <time>2010-01-01T00:30:38Z</time>
      </trkpt>
      <trkpt lat="42.10686" lon="2.42703">
        <ele>832</ele>
        <time>2010-01-01T00:30:43Z</time>
      </trkpt>
      <trkpt lat="42.10679" lon="2.42708">
        <ele>833</ele>
        <time>2010-01-01T00:30:47Z</time>
      </trkpt>
      <trkpt lat="42.10677" lon="2.42707">
        <ele>834</ele>
        <time>2010-01-01T00:30:48Z</time>
      </trkpt>
      <trkpt lat="42.10676" lon="2.42705">
        <ele>835</ele>
        <time>2010-01-01T00:30:49Z</time>
      </trkpt>
      <trkpt lat="42.10674" lon="2.42705">
        <ele>835</ele>
        <time>2010-01-01T00:30:49Z</time>
      </trkpt>
      <trkpt lat="42.10668" lon="2.42698">
        <ele>839</ele>
        <time>2010-01-01T00:30:53Z</time>
      </trkpt>
      <trkpt lat="42.10668" lon="2.42693">
        <ele>840</ele>
        <time>2010-01-01T00:30:54Z</time>
      </trkpt>
      <trkpt lat="42.10666" lon="2.42688">
        <ele>842</ele>
        <time>2010-01-01T00:30:56Z</time>
      </trkpt>
      <trkpt lat="42.10659" lon="2.42677">
        <ele>844</ele>
        <time>2010-01-01T00:31:00Z</time>
      </trkpt>
      <trkpt lat="42.10652" lon="2.42673">
        <ele>846</ele>
        <time>2010-01-01T00:31:03Z</time>
      </trkpt>
      <trkpt lat="42.1064" lon="2.42659">
        <ele>850</ele>
        <time>2010-01-01T00:31:10Z</time>
      </trkpt>
      <trkpt lat="42.10634" lon="2.4264">
        <ele>854</ele>
        <time>2010-01-01T00:31:16Z</time>
      </trkpt>
      <trkpt lat="42.10632" lon="2.42638">
        <ele>854</ele>
        <time>2010-01-01T00:31:17Z</time>
      </trkpt>
      <trkpt lat="42.10623" lon="2.42638">
        <ele>852</ele>
        <time>2010-01-01T00:31:20Z</time>
      </trkpt>
      <trkpt lat="42.10621" lon="2.42637">
        <ele>853</ele>
        <time>2010-01-01T00:31:21Z</time>
      </trkpt>
      <trkpt lat="42.10615" lon="2.42629">
        <ele>855</ele>
        <time>2010-01-01T00:31:25Z</time>
      </trkpt>
      <trkpt lat="42.10614" lon="2.42623">
        <ele>857</ele>
        <time>2010-01-01T00:31:26Z</time>
      </trkpt>
      <trkpt lat="42.10607" lon="2.42621">
        <ele>856</ele>
        <time>2010-01-01T00:31:29Z</time>
      </trkpt>
      <trkpt lat="42.10591" lon="2.42604">
        <ele>860</ele>
        <time>2010-01-01T00:31:37Z</time>
      </trkpt>
      <trkpt lat="42.10579" lon="2.42579">
        <ele>868</ele>
        <time>2010-01-01T00:31:46Z</time>
      </trkpt>
      <trkpt lat="42.10574" lon="2.42576">
        <ele>868</ele>
        <time>2010-01-01T00:31:49Z</time>
      </trkpt>
      <trkpt lat="42.10564" lon="2.42576">
        <ele>866</ele>
        <time>2010-01-01T00:31:53Z</time>
      </trkpt>
      <trkpt lat="42.10552" lon="2.42564">
        <ele>868</ele>
        <time>2010-01-01T00:31:58Z</time>
      </trkpt>
      <trkpt lat="42.10545" lon="2.42561">
        <ele>867</ele>
        <time>2010-01-01T00:32:01Z</time>
      </trkpt>
      <trkpt lat="42.10535" lon="2.42548">
        <ele>870</ele>
        <time>2010-01-01T00:32:07Z</time>
      </trkpt>
      <trkpt lat="42.10528" lon="2.42545">
        <ele>869</ele>
        <time>2010-01-01T00:32:10Z</time>
      </trkpt>
      <trkpt lat="42.10522" lon="2.4254">
        <ele>870</ele>
        <time>2010-01-01T00:32:13Z</time>
      </trkpt>
      <trkpt lat="42.10517" lon="2.42534">
        <ele>871</ele>
        <time>2010-01-01T00:32:16Z</time>
      </trkpt>
      <trkpt lat="42.10508" lon="2.4253">
        <ele>870</ele>
        <time>2010-01-01T00:32:19Z</time>
      </trkpt>
      <trkpt lat="42.10502" lon="2.42511">
        <ele>876</ele>
        <time>2010-01-01T00:32:25Z</time>
      </trkpt>
      <trkpt lat="42.10496" lon="2.42504">
        <ele>878</ele>
        <time>2010-01-01T00:32:29Z</time>
      </trkpt>
      <trkpt lat="42.10491" lon="2.42501">
        <ele>879</ele>
        <time>2010-01-01T00:32:31Z</time>
      </trkpt>
      <trkpt lat="42.10483" lon="2.42495">
        <ele>881</ele>
        <time>2010-01-01T00:32:34Z</time>
      </trkpt>
      <trkpt lat="42.1048" lon="2.42487">
        <ele>883</ele>
        <time>2010-01-01T00:32:37Z</time>
      </trkpt>
      <trkpt lat="42.10477" lon="2.42484">
        <ele>884</ele>
        <time>2010-01-01T00:32:39Z</time>
      </trkpt>
      <trkpt lat="42.10472" lon="2.42483">
        <ele>884</ele>
        <time>2010-01-01T00:32:41Z</time>
      </trkpt>
      <trkpt lat="42.10468" lon="2.4248">
        <ele>884</ele>
        <time>2010-01-01T00:32:42Z</time>
      </trkpt>
      <trkpt lat="42.1046" lon="2.42481">
        <ele>884</ele>
        <time>2010-01-01T00:32:45Z</time>
      </trkpt>
      <trkpt lat="42.10448" lon="2.42477">
        <ele>885</ele>
        <time>2010-01-01T00:32:51Z</time>
      </trkpt>
      <trkpt lat="42.10446" lon="2.42475">
        <ele>885</ele>
        <time>2010-01-01T00:32:51Z</time>
      </trkpt>
      <trkpt lat="42.10434" lon="2.42473">
        <ele>886</ele>
        <time>2010-01-01T00:32:56Z</time>
      </trkpt>
      <trkpt lat="42.10423" lon="2.42463">
        <ele>890</ele>
        <time>2010-01-01T00:33:01Z</time>
      </trkpt>
      <trkpt lat="42.10416" lon="2.4246">
        <ele>891</ele>
        <time>2010-01-01T00:33:05Z</time>
      </trkpt>
      <trkpt lat="42.10406" lon="2.42467">
        <ele>892</ele>
        <time>2010-01-01T00:33:09Z</time>
      </trkpt>
      <trkpt lat="42.10393" lon="2.42471">
        <ele>893</ele>
        <time>2010-01-01T00:33:14Z</time>
      </trkpt>
      <trkpt lat="42.10388" lon="2.42477">
        <ele>893</ele>
        <time>2010-01-01T00:33:17Z</time>
      </trkpt>
      <trkpt lat="42.10381" lon="2.42489">
        <ele>893</ele>
        <time>2010-01-01T00:33:22Z</time>
      </trkpt>
      <trkpt lat="42.10376" lon="2.42493">
        <ele>895</ele>
        <time>2010-01-01T00:33:24Z</time>
      </trkpt>
      <trkpt lat="42.10374" lon="2.42495">
        <ele>895</ele>
        <time>2010-01-01T00:33:25Z</time>
      </trkpt>
      <trkpt lat="42.10363" lon="2.42501">
        <ele>899</ele>
        <time>2010-01-01T00:33:30Z</time>
      </trkpt>
      <trkpt lat="42.10352" lon="2.42519">
        <ele>898</ele>
        <time>2010-01-01T00:33:37Z</time>
      </trkpt>
      <trkpt lat="42.10349" lon="2.42534">
        <ele>895</ele>
        <time>2010-01-01T00:33:41Z</time>
      </trkpt>
      <trkpt lat="42.10342" lon="2.42544">
        <ele>896</ele>
        <time>2010-01-01T00:33:45Z</time>
      </trkpt>
      <trkpt lat="42.10334" lon="2.4255">
        <ele>899</ele>
        <time>2010-01-01T00:33:49Z</time>
      </trkpt>
      <trkpt lat="42.10328" lon="2.42559">
        <ele>901</ele>
        <time>2010-01-01T00:33:53Z</time>
      </trkpt>
      <trkpt lat="42.10318" lon="2.4258">
        <ele>904</ele>
        <time>2010-01-01T00:34:00Z</time>
      </trkpt>
      <trkpt lat="42.10305" lon="2.42591">
        <ele>913</ele>
        <time>2010-01-01T00:34:06Z</time>
      </trkpt>
      <trkpt lat="42.10301" lon="2.42598">
        <ele>915</ele>
        <time>2010-01-01T00:34:09Z</time>
      </trkpt>
      <trkpt lat="42.10296" lon="2.42603">
        <ele>919</ele>
        <time>2010-01-01T00:34:11Z</time>
      </trkpt>
      <trkpt lat="42.10296" lon="2.42612">
        <ele>919</ele>
        <time>2010-01-01T00:34:14Z</time>
      </trkpt>
      <trkpt lat="42.10295" lon="2.42618">
        <ele>918</ele>
        <time>2010-01-01T00:34:16Z</time>
      </trkpt>
      <trkpt lat="42.10292" lon="2.42622">
        <ele>919</ele>
        <time>2010-01-01T00:34:17Z</time>
      </trkpt>
      <trkpt lat="42.10292" lon="2.42628">
        <ele>918</ele>
        <time>2010-01-01T00:34:19Z</time>
      </trkpt>
      <trkpt lat="42.10288" lon="2.42635">
        <ele>921</ele>
        <time>2010-01-01T00:34:22Z</time>
      </trkpt>
      <trkpt lat="42.10284" lon="2.42638">
        <ele>925</ele>
        <time>2010-01-01T00:34:24Z</time>
      </trkpt>
      <trkpt lat="42.10282" lon="2.42644">
        <ele>927</ele>
        <time>2010-01-01T00:34:26Z</time>
      </trkpt>
      <trkpt lat="42.10278" lon="2.42647">
        <ele>932</ele>
        <time>2010-01-01T00:34:28Z</time>
      </trkpt>
      <trkpt lat="42.10279" lon="2.42652">
        <ele>930</ele>
        <time>2010-01-01T00:34:29Z</time>
      </trkpt>
      <trkpt lat="42.10271" lon="2.42663">
        <ele>941</ele>
        <time>2010-01-01T00:34:34Z</time>
      </trkpt>
      <trkpt lat="42.10271" lon="2.4267">
        <ele>938</ele>
        <time>2010-01-01T00:34:36Z</time>
      </trkpt>
      <trkpt lat="42.10268" lon="2.42675">
        <ele>940</ele>
        <time>2010-01-01T00:34:38Z</time>
      </trkpt>
      <trkpt lat="42.10263" lon="2.42697">
        <ele>938</ele>
        <time>2010-01-01T00:34:45Z</time>
      </trkpt>
      <trkpt lat="42.10258" lon="2.42705">
        <ele>940</ele>
        <time>2010-01-01T00:34:48Z</time>
      </trkpt>
      <trkpt lat="42.10256" lon="2.42717">
        <ele>937</ele>
        <time>2010-01-01T00:34:51Z</time>
      </trkpt>
      <trkpt lat="42.10256" lon="2.42733">
        <ele>928</ele>
        <time>2010-01-01T00:34:56Z</time>
      </trkpt>
      <trkpt lat="42.10255" lon="2.42741">
        <ele>927</ele>
        <time>2010-01-01T00:34:59Z</time>
      </trkpt>
      <trkpt lat="42.10247" lon="2.42751">
        <ele>933</ele>
        <time>2010-01-01T00:35:03Z</time>
      </trkpt>
      <trkpt lat="42.10244" lon="2.42763">
        <ele>932</ele>
        <time>2010-01-01T00:35:07Z</time>
      </trkpt>
      <trkpt lat="42.10239" lon="2.42775">
        <ele>934</ele>
        <time>2010-01-01T00:35:11Z</time>
      </trkpt>
      <trkpt lat="42.10242" lon="2.42805">
        <ele>927</ele>
        <time>2010-01-01T00:35:20Z</time>
      </trkpt>
      <trkpt lat="42.10238" lon="2.42828">
        <ele>926</ele>
        <time>2010-01-01T00:35:27Z</time>
      </trkpt>
      <trkpt lat="42.10239" lon="2.42836">
        <ele>923</ele>
        <time>2010-01-01T00:35:29Z</time>
      </trkpt>
      <trkpt lat="42.10236" lon="2.42869">
        <ele>920</ele>
        <time>2010-01-01T00:35:39Z</time>
      </trkpt>
      <trkpt lat="42.10234" lon="2.42879">
        <ele>920</ele>
        <time>2010-01-01T00:35:42Z</time>
      </trkpt>
      <trkpt lat="42.10234" lon="2.42888">
        <ele>918</ele>
        <time>2010-01-01T00:35:45Z</time>
      </trkpt>
      <trkpt lat="42.10237" lon="2.42894">
        <ele>916</ele>
        <time>2010-01-01T00:35:47Z</time>
      </trkpt>
      <trkpt lat="42.10235" lon="2.42901">
        <ele>917</ele>
        <time>2010-01-01T00:35:49Z</time>
      </trkpt>
      <trkpt lat="42.10236" lon="2.42908">
        <ele>916</ele>
        <time>2010-01-01T00:35:51Z</time>
      </trkpt>
      <trkpt lat="42.10235" lon="2.42913">
        <ele>917</ele>
        <time>2010-01-01T00:35:53Z</time>
      </trkpt>
      <trkpt lat="42.10237" lon="2.42919">
        <ele>915</ele>
        <time>2010-01-01T00:35:55Z</time>
      </trkpt>
      <trkpt lat="42.10228" lon="2.42938">
        <ele>930</ele>
        <time>2010-01-01T00:36:01Z</time>
      </trkpt>
      <trkpt lat="42.10228" lon="2.42942">
        <ele>931</ele>
        <time>2010-01-01T00:36:02Z</time>
      </trkpt>
      <trkpt lat="42.10225" lon="2.42947">
        <ele>934</ele>
        <time>2010-01-01T00:36:04Z</time>
      </trkpt>
      <trkpt lat="42.10222" lon="2.42956">
        <ele>937</ele>
        <time>2010-01-01T00:36:07Z</time>
      </trkpt>
      <trkpt lat="42.10218" lon="2.42977">
        <ele>940</ele>
        <time>2010-01-01T00:36:14Z</time>
      </trkpt>
      <trkpt lat="42.10216" lon="2.42995">
        <ele>942</ele>
        <time>2010-01-01T00:36:19Z</time>
      </trkpt>
      <trkpt lat="42.10204" lon="2.43022">
        <ele>945</ele>
        <time>2010-01-01T00:36:28Z</time>
      </trkpt>
      <trkpt lat="42.10199" lon="2.43048">
        <ele>942</ele>
        <time>2010-01-01T00:36:36Z</time>
      </trkpt>
      <trkpt lat="42.10202" lon="2.43062">
        <ele>939</ele>
        <time>2010-01-01T00:36:41Z</time>
      </trkpt>
      <trkpt lat="42.10201" lon="2.43067">
        <ele>938</ele>
        <time>2010-01-01T00:36:42Z</time>
      </trkpt>
      <trkpt lat="42.10207" lon="2.43074">
        <ele>936</ele>
        <time>2010-01-01T00:36:45Z</time>
      </trkpt>
      <trkpt lat="42.1021" lon="2.43076">
        <ele>935</ele>
        <time>2010-01-01T00:36:47Z</time>
      </trkpt>
      <trkpt lat="42.10219" lon="2.43077">
        <ele>933</ele>
        <time>2010-01-01T00:36:51Z</time>
      </trkpt>
      <trkpt lat="42.10231" lon="2.43083">
        <ele>922</ele>
        <time>2010-01-01T00:36:56Z</time>
      </trkpt>
      <trkpt lat="42.10235" lon="2.43082">
        <ele>918</ele>
        <time>2010-01-01T00:36:57Z</time>
      </trkpt>
      <trkpt lat="42.10241" lon="2.43085">
        <ele>913</ele>
        <time>2010-01-01T00:37:00Z</time>
      </trkpt>
      <trkpt lat="42.10245" lon="2.43084">
        <ele>909</ele>
        <time>2010-01-01T00:37:01Z</time>
      </trkpt>
      <trkpt lat="42.10238" lon="2.43083">
        <ele>916</ele>
        <time>2010-01-01T00:37:04Z</time>
      </trkpt>
      <trkpt lat="42.10237" lon="2.43082">
        <ele>917</ele>
        <time>2010-01-01T00:37:05Z</time>
      </trkpt>
      <trkpt lat="42.10226" lon="2.43079">
        <ele>927</ele>
        <time>2010-01-01T00:37:09Z</time>
      </trkpt>
      <trkpt lat="42.10225" lon="2.43069">
        <ele>929</ele>
        <time>2010-01-01T00:37:12Z</time>
      </trkpt>
      <trkpt lat="42.10223" lon="2.43068">
        <ele>931</ele>
        <time>2010-01-01T00:37:13Z</time>
      </trkpt>
      <trkpt lat="42.10225" lon="2.43054">
        <ele>930</ele>
        <time>2010-01-01T00:37:17Z</time>
      </trkpt>
      <trkpt lat="42.10224" lon="2.43049">
        <ele>931</ele>
        <time>2010-01-01T00:37:19Z</time>
      </trkpt>
      <trkpt lat="42.10229" lon="2.4305">
        <ele>926</ele>
        <time>2010-01-01T00:37:20Z</time>
      </trkpt>
      <trkpt lat="42.10234" lon="2.43039">
        <ele>920</ele>
        <time>2010-01-01T00:37:24Z</time>
      </trkpt>
      <trkpt lat="42.10241" lon="2.43049">
        <ele>912</ele>
        <time>2010-01-01T00:37:28Z</time>
      </trkpt>
      <trkpt lat="42.10242" lon="2.43046">
        <ele>911</ele>
        <time>2010-01-01T00:37:29Z</time>
      </trkpt>
      <trkpt lat="42.10243" lon="2.43031">
        <ele>909</ele>
        <time>2010-01-01T00:37:34Z</time>
      </trkpt>
      <trkpt lat="42.10241" lon="2.43023">
        <ele>911</ele>
        <time>2010-01-01T00:37:36Z</time>
      </trkpt>
      <trkpt lat="42.10245" lon="2.43035">
        <ele>906</ele>
        <time>2010-01-01T00:37:40Z</time>
      </trkpt>
      <trkpt lat="42.10257" lon="2.43049">
        <ele>893</ele>
        <time>2010-01-01T00:37:47Z</time>
      </trkpt>
      <trkpt lat="42.10262" lon="2.43063">
        <ele>887</ele>
        <time>2010-01-01T00:37:51Z</time>
      </trkpt>
      <trkpt lat="42.10262" lon="2.43054">
        <ele>887</ele>
        <time>2010-01-01T00:37:54Z</time>
      </trkpt>
      <trkpt lat="42.10265" lon="2.4305">
        <ele>883</ele>
        <time>2010-01-01T00:37:55Z</time>
      </trkpt>
      <trkpt lat="42.10273" lon="2.43056">
        <ele>872</ele>
        <time>2010-01-01T00:37:59Z</time>
      </trkpt>
      <trkpt lat="42.10275" lon="2.43062">
        <ele>871</ele>
        <time>2010-01-01T00:38:01Z</time>
      </trkpt>
      <trkpt lat="42.10279" lon="2.43065">
        <ele>866</ele>
        <time>2010-01-01T00:38:03Z</time>
      </trkpt>
      <trkpt lat="42.10281" lon="2.43069">
        <ele>865</ele>
        <time>2010-01-01T00:38:04Z</time>
      </trkpt>
      <trkpt lat="42.10287" lon="2.43073">
        <ele>859</ele>
        <time>2010-01-01T00:38:07Z</time>
      </trkpt>
      <trkpt lat="42.10288" lon="2.4308">
        <ele>857</ele>
        <time>2010-01-01T00:38:09Z</time>
      </trkpt>
      <trkpt lat="42.10297" lon="2.43088">
        <ele>847</ele>
        <time>2010-01-01T00:38:13Z</time>
      </trkpt>
      <trkpt lat="42.103" lon="2.43099">
        <ele>844</ele>
        <time>2010-01-01T00:38:17Z</time>
      </trkpt>
      <trkpt lat="42.10308" lon="2.43107">
        <ele>837</ele>
        <time>2010-01-01T00:38:21Z</time>
      </trkpt>
      <trkpt lat="42.10324" lon="2.43146">
        <ele>826</ele>
        <time>2010-01-01T00:38:34Z</time>
      </trkpt>
      <trkpt lat="42.10327" lon="2.43148">
        <ele>824</ele>
        <time>2010-01-01T00:38:35Z</time>
      </trkpt>
      <trkpt lat="42.10329" lon="2.43162">
        <ele>825</ele>
        <time>2010-01-01T00:38:39Z</time>
      </trkpt>
      <trkpt lat="42.10332" lon="2.43169">
        <ele>823</ele>
        <time>2010-01-01T00:38:42Z</time>
      </trkpt>
      <trkpt lat="42.10334" lon="2.43177">
        <ele>823</ele>
        <time>2010-01-01T00:38:44Z</time>
      </trkpt>
      <trkpt lat="42.10337" lon="2.4318">
        <ele>821</ele>
        <time>2010-01-01T00:38:46Z</time>
      </trkpt>
      <trkpt lat="42.10337" lon="2.43185">
        <ele>821</ele>
        <time>2010-01-01T00:38:48Z</time>
      </trkpt>
      <trkpt lat="42.10339" lon="2.4319">
        <ele>821</ele>
        <time>2010-01-01T00:38:49Z</time>
      </trkpt>
      <trkpt lat="42.10341" lon="2.43189">
        <ele>819</ele>
        <time>2010-01-01T00:38:50Z</time>
      </trkpt>
      <trkpt lat="42.10341" lon="2.43187">
        <ele>819</ele>
        <time>2010-01-01T00:38:51Z</time>
      </trkpt>
      <trkpt lat="42.10342" lon="2.43189">
        <ele>818</ele>
        <time>2010-01-01T00:38:51Z</time>
      </trkpt>
      <trkpt lat="42.10345" lon="2.43194">
        <ele>817</ele>
        <time>2010-01-01T00:38:53Z</time>
      </trkpt>
      <trkpt lat="42.10349" lon="2.4319">
        <ele>813</ele>
        <time>2010-01-01T00:38:55Z</time>
      </trkpt>
      <trkpt lat="42.10356" lon="2.43173">
        <ele>804</ele>
        <time>2010-01-01T00:39:01Z</time>
      </trkpt>
      <trkpt lat="42.10356" lon="2.43164">
        <ele>804</ele>
        <time>2010-01-01T00:39:04Z</time>
      </trkpt>
      <trkpt lat="42.10362" lon="2.43173">
        <ele>801</ele>
        <time>2010-01-01T00:39:07Z</time>
      </trkpt>
      <trkpt lat="42.10364" lon="2.43172">
        <ele>800</ele>
        <time>2010-01-01T00:39:08Z</time>
      </trkpt>
      <trkpt lat="42.1037" lon="2.43178">
        <ele>798</ele>
        <time>2010-01-01T00:39:11Z</time>
      </trkpt>
      <trkpt lat="42.10372" lon="2.43182">
        <ele>798</ele>
        <time>2010-01-01T00:39:12Z</time>
      </trkpt>
      <trkpt lat="42.10374" lon="2.43188">
        <ele>798</ele>
        <time>2010-01-01T00:39:14Z</time>
      </trkpt>
      <trkpt lat="42.10373" lon="2.43205">
        <ele>797</ele>
        <time>2010-01-01T00:39:20Z</time>
      </trkpt>
      <trkpt lat="42.10381" lon="2.43203">
        <ele>794</ele>
        <time>2010-01-01T00:39:23Z</time>
      </trkpt>
      <trkpt lat="42.10386" lon="2.43208">
        <ele>790</ele>
        <time>2010-01-01T00:39:25Z</time>
      </trkpt>
      <trkpt lat="42.1039" lon="2.43216">
        <ele>787</ele>
        <time>2010-01-01T00:39:28Z</time>
      </trkpt>
      <trkpt lat="42.10389" lon="2.43248">
        <ele>787</ele>
        <time>2010-01-01T00:39:38Z</time>
      </trkpt>
      <trkpt lat="42.10394" lon="2.43266">
        <ele>781</ele>
        <time>2010-01-01T00:39:43Z</time>
      </trkpt>
      <trkpt lat="42.10393" lon="2.43268">
        <ele>781</ele>
        <time>2010-01-01T00:39:44Z</time>
      </trkpt>
      <trkpt lat="42.10394" lon="2.43278">
        <ele>780</ele>
        <time>2010-01-01T00:39:47Z</time>
      </trkpt>
      <trkpt lat="42.1039" lon="2.43291">
        <ele>779</ele>
        <time>2010-01-01T00:39:51Z</time>
      </trkpt>
      <trkpt lat="42.1039" lon="2.43296">
        <ele>778</ele>
        <time>2010-01-01T00:39:53Z</time>
      </trkpt>
      <trkpt lat="42.10392" lon="2.43297">
        <ele>777</ele>
        <time>2010-01-01T00:39:54Z</time>
      </trkpt>
      <trkpt lat="42.10394" lon="2.43295">
        <ele>776</ele>
        <time>2010-01-01T00:39:54Z</time>
      </trkpt>
      <trkpt lat="42.10397" lon="2.43288">
        <ele>776</ele>
        <time>2010-01-01T00:39:57Z</time>
      </trkpt>
      <trkpt lat="42.10403" lon="2.43281">
        <ele>773</ele>
        <time>2010-01-01T00:40:00Z</time>
      </trkpt>
      <trkpt lat="42.10408" lon="2.4329">
        <ele>769</ele>
        <time>2010-01-01T00:40:03Z</time>
      </trkpt>
      <trkpt lat="42.10412" lon="2.43289">
        <ele>767</ele>
        <time>2010-01-01T00:40:05Z</time>
      </trkpt>
      <trkpt lat="42.10414" lon="2.43289">
        <ele>766</ele>
        <time>2010-01-01T00:40:06Z</time>
      </trkpt>
      <trkpt lat="42.10419" lon="2.43294">
        <ele>762</ele>
        <time>2010-01-01T00:40:08Z</time>
      </trkpt>
      <trkpt lat="42.10425" lon="2.43316">
        <ele>758</ele>
        <time>2010-01-01T00:40:15Z</time>
      </trkpt>
      <trkpt lat="42.10425" lon="2.43322">
        <ele>757</ele>
        <time>2010-01-01T00:40:17Z</time>
      </trkpt>
      <trkpt lat="42.10439" lon="2.43326">
        <ele>752</ele>
        <time>2010-01-01T00:40:23Z</time>
      </trkpt>
      <trkpt lat="42.10445" lon="2.43338">
        <ele>749</ele>
        <time>2010-01-01T00:40:27Z</time>
      </trkpt>
      <trkpt lat="42.1044" lon="2.43349">
        <ele>749</ele>
        <time>2010-01-01T00:40:31Z</time>
      </trkpt>
      <trkpt lat="42.10441" lon="2.43358">
        <ele>748</ele>
        <time>2010-01-01T00:40:33Z</time>
      </trkpt>
      <trkpt lat="42.1044" lon="2.43364">
        <ele>748</ele>
        <time>2010-01-01T00:40:35Z</time>
      </trkpt>
      <trkpt lat="42.10441" lon="2.43373">
        <ele>746</ele>
        <time>2010-01-01T00:40:38Z</time>
      </trkpt>
      <trkpt lat="42.10443" lon="2.43374">
        <ele>745</ele>
        <time>2010-01-01T00:40:38Z</time>
      </trkpt>
      <trkpt lat="42.10445" lon="2.43368">
        <ele>745</ele>
        <time>2010-01-01T00:40:40Z</time>
      </trkpt>
      <trkpt lat="42.10452" lon="2.43369">
        <ele>742</ele>
        <time>2010-01-01T00:40:43Z</time>
      </trkpt>
      <trkpt lat="42.10454" lon="2.43375">
        <ele>741</ele>
        <time>2010-01-01T00:40:45Z</time>
      </trkpt>
      <trkpt lat="42.10459" lon="2.4338">
        <ele>738</ele>
        <time>2010-01-01T00:40:48Z</time>
      </trkpt>
      <trkpt lat="42.10461" lon="2.43383">
        <ele>737</ele>
        <time>2010-01-01T00:40:49Z</time>
      </trkpt>
      <trkpt lat="42.10462" lon="2.43388">
        <ele>736</ele>
        <time>2010-01-01T00:40:51Z</time>
      </trkpt>
      <trkpt lat="42.10461" lon="2.43394">
        <ele>736</ele>
        <time>2010-01-01T00:40:52Z</time>
      </trkpt>
      <trkpt lat="42.10464" lon="2.43397">
        <ele>735</ele>
        <time>2010-01-01T00:40:54Z</time>
      </trkpt>
      <trkpt lat="42.10465" lon="2.434">
        <ele>734</ele>
        <time>2010-01-01T00:40:55Z</time>
      </trkpt>
      <trkpt lat="42.10467" lon="2.43401">
        <ele>733</ele>
        <time>2010-01-01T00:40:56Z</time>
      </trkpt>
      <trkpt lat="42.10468" lon="2.43401">
        <ele>733</ele>
        <time>2010-01-01T00:40:56Z</time>
      </trkpt>
      <trkpt lat="42.10474" lon="2.43394">
        <ele>731</ele>
        <time>2010-01-01T00:40:59Z</time>
      </trkpt>
      <trkpt lat="42.10475" lon="2.43397">
        <ele>731</ele>
        <time>2010-01-01T00:41:00Z</time>
      </trkpt>
      <trkpt lat="42.10476" lon="2.43415">
        <ele>729</ele>
        <time>2010-01-01T00:41:06Z</time>
      </trkpt>
      <trkpt lat="42.10479" lon="2.43424">
        <ele>726</ele>
        <time>2010-01-01T00:41:08Z</time>
      </trkpt>
      <trkpt lat="42.10481" lon="2.43451">
        <ele>720</ele>
        <time>2010-01-01T00:41:17Z</time>
      </trkpt>
      <trkpt lat="42.10491" lon="2.43473">
        <ele>712</ele>
        <time>2010-01-01T00:41:24Z</time>
      </trkpt>
      <trkpt lat="42.10496" lon="2.43481">
        <ele>710</ele>
        <time>2010-01-01T00:41:27Z</time>
      </trkpt>
      <trkpt lat="42.10496" lon="2.43489">
        <ele>708</ele>
        <time>2010-01-01T00:41:30Z</time>
      </trkpt>
      <trkpt lat="42.105" lon="2.4349">
        <ele>707</ele>
        <time>2010-01-01T00:41:31Z</time>
      </trkpt>
      <trkpt lat="42.10504" lon="2.43487">
        <ele>707</ele>
        <time>2010-01-01T00:41:33Z</time>
      </trkpt>
      <trkpt lat="42.10508" lon="2.43496">
        <ele>704</ele>
        <time>2010-01-01T00:41:36Z</time>
      </trkpt>
      <trkpt lat="42.10504" lon="2.43502">
        <ele>704</ele>
        <time>2010-01-01T00:41:38Z</time>
      </trkpt>
      <trkpt lat="42.10495" lon="2.43531">
        <ele>700</ele>
        <time>2010-01-01T00:41:48Z</time>
      </trkpt>
      <trkpt lat="42.10491" lon="2.43547">
        <ele>697</ele>
        <time>2010-01-01T00:41:53Z</time>
      </trkpt>
      <trkpt lat="42.10482" lon="2.43557">
        <ele>697</ele>
        <time>2010-01-01T00:41:57Z</time>
      </trkpt>
      <trkpt lat="42.10473" lon="2.43575">
        <ele>693</ele>
        <time>2010-01-01T00:42:04Z</time>
      </trkpt>
      <trkpt lat="42.10468" lon="2.43579">
        <ele>693</ele>
        <time>2010-01-01T00:42:06Z</time>
      </trkpt>
      <trkpt lat="42.10466" lon="2.43584">
        <ele>692</ele>
        <time>2010-01-01T00:42:08Z</time>
      </trkpt>
      <trkpt lat="42.10466" lon="2.43591">
        <ele>689</ele>
        <time>2010-01-01T00:42:10Z</time>
      </trkpt>
      <trkpt lat="42.10461" lon="2.43599">
        <ele>687</ele>
        <time>2010-01-01T00:42:13Z</time>
      </trkpt>
      <trkpt lat="42.10457" lon="2.43613">
        <ele>683</ele>
        <time>2010-01-01T00:42:18Z</time>
      </trkpt>
      <trkpt lat="42.1046" lon="2.4363">
        <ele>678</ele>
        <time>2010-01-01T00:42:23Z</time>
      </trkpt>
      <trkpt lat="42.10454" lon="2.4364">
        <ele>676</ele>
        <time>2010-01-01T00:42:26Z</time>
      </trkpt>
      <trkpt lat="42.10454" lon="2.43643">
        <ele>676</ele>
        <time>2010-01-01T00:42:27Z</time>
      </trkpt>
      <trkpt lat="42.10456" lon="2.43647">
        <ele>674</ele>
        <time>2010-01-01T00:42:29Z</time>
      </trkpt>
      <trkpt lat="42.1045" lon="2.43655">
        <ele>674</ele>
        <time>2010-01-01T00:42:32Z</time>
      </trkpt>
      <trkpt lat="42.10447" lon="2.43664">
        <ele>673</ele>
        <time>2010-01-01T00:42:35Z</time>
      </trkpt>
      <trkpt lat="42.10447" lon="2.43683">
        <ele>668</ele>
        <time>2010-01-01T00:42:41Z</time>
      </trkpt>
      <trkpt lat="42.10444" lon="2.43688">
        <ele>668</ele>
        <time>2010-01-01T00:42:43Z</time>
      </trkpt>
      <trkpt lat="42.10441" lon="2.43696">
        <ele>667</ele>
        <time>2010-01-01T00:42:45Z</time>
      </trkpt>
      <trkpt lat="42.10443" lon="2.43708">
        <ele>663</ele>
        <time>2010-01-01T00:42:49Z</time>
      </trkpt>
      <trkpt lat="42.10445" lon="2.43712">
        <ele>661</ele>
        <time>2010-01-01T00:42:50Z</time>
      </trkpt>
      <trkpt lat="42.1045" lon="2.43728">
        <ele>655</ele>
        <time>2010-01-01T00:42:56Z</time>
      </trkpt>
      <trkpt lat="42.10441" lon="2.43742">
        <ele>655</ele>
        <time>2010-01-01T00:43:01Z</time>
      </trkpt>
      <trkpt lat="42.1044" lon="2.43748">
        <ele>654</ele>
        <time>2010-01-01T00:43:03Z</time>
      </trkpt>
      <trkpt lat="42.10442" lon="2.43748">
        <ele>653</ele>
        <time>2010-01-01T00:43:04Z</time>
      </trkpt>
      <trkpt lat="42.10446" lon="2.43751">
        <ele>651</ele>
        <time>2010-01-01T00:43:06Z</time>
      </trkpt>
      <trkpt lat="42.10444" lon="2.43757">
        <ele>650</ele>
        <time>2010-01-01T00:43:07Z</time>
      </trkpt>
      <trkpt lat="42.10447" lon="2.43757">
        <ele>650</ele>
        <time>2010-01-01T00:43:08Z</time>
      </trkpt>
      <trkpt lat="42.10447" lon="2.43777">
        <ele>645</ele>
        <time>2010-01-01T00:43:14Z</time>
      </trkpt>
      <trkpt lat="42.10431" lon="2.43804">
        <ele>642</ele>
        <time>2010-01-01T00:43:25Z</time>
      </trkpt>
      <trkpt lat="42.10431" lon="2.43807">
        <ele>641</ele>
        <time>2010-01-01T00:43:25Z</time>
      </trkpt>
      <trkpt lat="42.10433" lon="2.43809">
        <ele>640</ele>
        <time>2010-01-01T00:43:26Z</time>
      </trkpt>
      <trkpt lat="42.10434" lon="2.4382">
        <ele>637</ele>
        <time>2010-01-01T00:43:30Z</time>
      </trkpt>
      <trkpt lat="42.1043" lon="2.4383">
        <ele>635</ele>
        <time>2010-01-01T00:43:33Z</time>
      </trkpt>
      <trkpt lat="42.10429" lon="2.43839">
        <ele>634</ele>
        <time>2010-01-01T00:43:36Z</time>
      </trkpt>
      <trkpt lat="42.10425" lon="2.43847">
        <ele>632</ele>
        <time>2010-01-01T00:43:39Z</time>
      </trkpt>
      <trkpt lat="42.10425" lon="2.43859">
        <ele>630</ele>
        <time>2010-01-01T00:43:42Z</time>
      </trkpt>
      <trkpt lat="42.10427" lon="2.43867">
        <ele>628</ele>
        <time>2010-01-01T00:43:45Z</time>
      </trkpt>
      <trkpt lat="42.10427" lon="2.43877">
        <ele>625</ele>
        <time>2010-01-01T00:43:48Z</time>
      </trkpt>
      <trkpt lat="42.10425" lon="2.43883">
        <ele>624</ele>
        <time>2010-01-01T00:43:50Z</time>
      </trkpt>
      <trkpt lat="42.10419" lon="2.43895">
        <ele>621</ele>
        <time>2010-01-01T00:43:54Z</time>
      </trkpt>
      <trkpt lat="42.10419" lon="2.43899">
        <ele>620</ele>
        <time>2010-01-01T00:43:55Z</time>
      </trkpt>
      <trkpt lat="42.10421" lon="2.43901">
        <ele>619</ele>
        <time>2010-01-01T00:43:56Z</time>
      </trkpt>
      <trkpt lat="42.10423" lon="2.43901">
        <ele>619</ele>
        <time>2010-01-01T00:43:57Z</time>
      </trkpt>
      <trkpt lat="42.10427" lon="2.43897">
        <ele>620</ele>
        <time>2010-01-01T00:43:59Z</time>
      </trkpt>
      <trkpt lat="42.10435" lon="2.43894">
        <ele>620</ele>
        <time>2010-01-01T00:44:02Z</time>
      </trkpt>
      <trkpt lat="42.10438" lon="2.43895">
        <ele>620</ele>
        <time>2010-01-01T00:44:03Z</time>
      </trkpt>
      <trkpt lat="42.10439" lon="2.43897">
        <ele>619</ele>
        <time>2010-01-01T00:44:04Z</time>
      </trkpt>
      <trkpt lat="42.10436" lon="2.43909">
        <ele>615</ele>
        <time>2010-01-01T00:44:08Z</time>
      </trkpt>
      <trkpt lat="42.10436" lon="2.43915">
        <ele>614</ele>
        <time>2010-01-01T00:44:10Z</time>
      </trkpt>
      <trkpt lat="42.10439" lon="2.43922">
        <ele>611</ele>
        <time>2010-01-01T00:44:12Z</time>
      </trkpt>
      <trkpt lat="42.10439" lon="2.43935">
        <ele>606</ele>
        <time>2010-01-01T00:44:16Z</time>
      </trkpt>
      <trkpt lat="42.10443" lon="2.43944">
        <ele>604</ele>
        <time>2010-01-01T00:44:19Z</time>
      </trkpt>
      <trkpt lat="42.10442" lon="2.43951">
        <ele>601</ele>
        <time>2010-01-01T00:44:21Z</time>
      </trkpt>
      <trkpt lat="42.10445" lon="2.43965">
        <ele>596</ele>
        <time>2010-01-01T00:44:26Z</time>
      </trkpt>
      <trkpt lat="42.10444" lon="2.4398">
        <ele>591</ele>
        <time>2010-01-01T00:44:30Z</time>
      </trkpt>
      <trkpt lat="42.10448" lon="2.43987">
        <ele>588</ele>
        <time>2010-01-01T00:44:33Z</time>
      </trkpt>
      <trkpt lat="42.10451" lon="2.44004">
        <ele>584</ele>
        <time>2010-01-01T00:44:38Z</time>
      </trkpt>
      <trkpt lat="42.10458" lon="2.44025">
        <ele>580</ele>
        <time>2010-01-01T00:44:45Z</time>
      </trkpt>
      <trkpt lat="42.10456" lon="2.44039">
        <ele>578</ele>
        <time>2010-01-01T00:44:49Z</time>
      </trkpt>
      <trkpt lat="42.10453" lon="2.44046">
        <ele>578</ele>
        <time>2010-01-01T00:44:51Z</time>
      </trkpt>
      <trkpt lat="42.10452" lon="2.44059">
        <ele>576</ele>
        <time>2010-01-01T00:44:55Z</time>
      </trkpt>
      <trkpt lat="42.10445" lon="2.4407">
        <ele>575</ele>
        <time>2010-01-01T00:45:00Z</time>
      </trkpt>
      <trkpt lat="42.10443" lon="2.44079">
        <ele>574</ele>
        <time>2010-01-01T00:45:02Z</time>
      </trkpt>
      <trkpt lat="42.10445" lon="2.44084">
        <ele>573</ele>
        <time>2010-01-01T00:45:04Z</time>
      </trkpt>
      <trkpt lat="42.10444" lon="2.44097">
        <ele>571</ele>
        <time>2010-01-01T00:45:08Z</time>
      </trkpt>
      <trkpt lat="42.10439" lon="2.44108">
        <ele>569</ele>
        <time>2010-01-01T00:45:12Z</time>
      </trkpt>
      <trkpt lat="42.10438" lon="2.44116">
        <ele>567</ele>
        <time>2010-01-01T00:45:14Z</time>
      </trkpt>
      <trkpt lat="42.1043" lon="2.44119">
        <ele>565</ele>
        <time>2010-01-01T00:45:18Z</time>
      </trkpt>
      <trkpt lat="42.10414" lon="2.44116">
        <ele>562</ele>
        <time>2010-01-01T00:45:24Z</time>
      </trkpt>
      <trkpt lat="42.10408" lon="2.44134">
        <ele>557</ele>
        <time>2010-01-01T00:45:30Z</time>
      </trkpt>
      <trkpt lat="42.10401" lon="2.44133">
        <ele>555</ele>
        <time>2010-01-01T00:45:33Z</time>
      </trkpt>
      <trkpt lat="42.10391" lon="2.44136">
        <ele>552</ele>
        <time>2010-01-01T00:45:37Z</time>
      </trkpt>
      <trkpt lat="42.10387" lon="2.44134">
        <ele>551</ele>
        <time>2010-01-01T00:45:38Z</time>
      </trkpt>
      <trkpt lat="42.10381" lon="2.44134">
        <ele>550</ele>
        <time>2010-01-01T00:45:41Z</time>
      </trkpt>
      <trkpt lat="42.10378" lon="2.44137">
        <ele>549</ele>
        <time>2010-01-01T00:45:42Z</time>
      </trkpt>
      <trkpt lat="42.10369" lon="2.44132">
        <ele>549</ele>
        <time>2010-01-01T00:45:46Z</time>
      </trkpt>
      <trkpt lat="42.10363" lon="2.44138">
        <ele>546</ele>
        <time>2010-01-01T00:45:49Z</time>
      </trkpt>
      <trkpt lat="42.10355" lon="2.44136">
        <ele>546</ele>
        <time>2010-01-01T00:45:53Z</time>
      </trkpt>
      <trkpt lat="42.10355" lon="2.44142">
        <ele>545</ele>
        <time>2010-01-01T00:45:54Z</time>
      </trkpt>
      <trkpt lat="42.1035" lon="2.44148">
        <ele>544</ele>
        <time>2010-01-01T00:45:57Z</time>
      </trkpt>
      <trkpt lat="42.10349" lon="2.44155">
        <ele>542</ele>
        <time>2010-01-01T00:45:59Z</time>
      </trkpt>
      <trkpt lat="42.10337" lon="2.4418">
        <ele>536</ele>
        <time>2010-01-01T00:46:08Z</time>
      </trkpt>
      <trkpt lat="42.10335" lon="2.44198">
        <ele>533</ele>
        <time>2010-01-01T00:46:13Z</time>
      </trkpt>
      <trkpt lat="42.10339" lon="2.44217">
        <ele>532</ele>
        <time>2010-01-01T00:46:19Z</time>
      </trkpt>
      <trkpt lat="42.10334" lon="2.44229">
        <ele>530</ele>
        <time>2010-01-01T00:46:23Z</time>
      </trkpt>
      <trkpt lat="42.10337" lon="2.44242">
        <ele>528</ele>
        <time>2010-01-01T00:46:27Z</time>
      </trkpt>
      <trkpt lat="42.10336" lon="2.44251">
        <ele>526</ele>
        <time>2010-01-01T00:46:30Z</time>
      </trkpt>
      <trkpt lat="42.10322" lon="2.44268">
        <ele>524</ele>
        <time>2010-01-01T00:46:38Z</time>
      </trkpt>
      <trkpt lat="42.10321" lon="2.44274">
        <ele>523</ele>
        <time>2010-01-01T00:46:39Z</time>
      </trkpt>
      <trkpt lat="42.10321" lon="2.44281">
        <ele>522</ele>
        <time>2010-01-01T00:46:42Z</time>
      </trkpt>
      <trkpt lat="42.10323" lon="2.44293">
        <ele>520</ele>
        <time>2010-01-01T00:46:45Z</time>
      </trkpt>
      <trkpt lat="42.1033" lon="2.44309">
        <ele>518</ele>
        <time>2010-01-01T00:46:51Z</time>
      </trkpt>
      <trkpt lat="42.10333" lon="2.44321">
        <ele>518</ele>
        <time>2010-01-01T00:46:55Z</time>
      </trkpt>
      <trkpt lat="42.10335" lon="2.44333">
        <ele>517</ele>
        <time>2010-01-01T00:46:58Z</time>
      </trkpt>
      <trkpt lat="42.10334" lon="2.44337">
        <ele>517</ele>
        <time>2010-01-01T00:46:59Z</time>
      </trkpt>
      <trkpt lat="42.10332" lon="2.44345">
        <ele>516</ele>
        <time>2010-01-01T00:47:02Z</time>
      </trkpt>
      <trkpt lat="42.10329" lon="2.44351">
        <ele>516</ele>
        <time>2010-01-01T00:47:04Z</time>
      </trkpt>
      <trkpt lat="42.10304" lon="2.44375">
        <ele>515</ele>
        <time>2010-01-01T00:47:16Z</time>
      </trkpt>
      <trkpt lat="42.103" lon="2.4438">
        <ele>514</ele>
        <time>2010-01-01T00:47:18Z</time>
      </trkpt>
      <trkpt lat="42.10298" lon="2.44387">
        <ele>513</ele>
        <time>2010-01-01T00:47:21Z</time>
      </trkpt>
      <trkpt lat="42.103" lon="2.44408">
        <ele>511</ele>
        <time>2010-01-01T00:47:27Z</time>
      </trkpt>
      <trkpt lat="42.10288" lon="2.44442">
        <ele>509</ele>
        <time>2010-01-01T00:47:38Z</time>
      </trkpt>
      <trkpt lat="42.10286" lon="2.44442">
        <ele>509</ele>
        <time>2010-01-01T00:47:39Z</time>
      </trkpt>
      <trkpt lat="42.10274" lon="2.44435">
        <ele>511</ele>
        <time>2010-01-01T00:47:44Z</time>
      </trkpt>
      <trkpt lat="42.10243" lon="2.44413">
        <ele>514</ele>
        <time>2010-01-01T00:47:58Z</time>
      </trkpt>
      <trkpt lat="42.10229" lon="2.44401">
        <ele>516</ele>
        <time>2010-01-01T00:48:05Z</time>
      </trkpt>
      <trkpt lat="42.10206" lon="2.44377">
        <ele>518</ele>
        <time>2010-01-01T00:48:17Z</time>
      </trkpt>
      <trkpt lat="42.10199" lon="2.44365">
        <ele>519</ele>
        <time>2010-01-01T00:48:21Z</time>
      </trkpt>
      <trkpt lat="42.10198" lon="2.44358">
        <ele>519</ele>
        <time>2010-01-01T00:48:23Z</time>
      </trkpt>
      <trkpt lat="42.10199" lon="2.44348">
        <ele>519</ele>
        <time>2010-01-01T00:48:26Z</time>
      </trkpt>
      <trkpt lat="42.10202" lon="2.44339">
        <ele>520</ele>
        <time>2010-01-01T00:48:29Z</time>
      </trkpt>
      <trkpt lat="42.10211" lon="2.44327">
        <ele>521</ele>
        <time>2010-01-01T00:48:34Z</time>
      </trkpt>
      <trkpt lat="42.10212" lon="2.44318">
        <ele>522</ele>
        <time>2010-01-01T00:48:37Z</time>
      </trkpt>
      <trkpt lat="42.1021" lon="2.44305">
        <ele>523</ele>
        <time>2010-01-01T00:48:41Z</time>
      </trkpt>
      <trkpt lat="42.10199" lon="2.44281">
        <ele>524</ele>
        <time>2010-01-01T00:48:49Z</time>
      </trkpt>
      <trkpt lat="42.10191" lon="2.44258">
        <ele>528</ele>
        <time>2010-01-01T00:48:57Z</time>
      </trkpt>
      <trkpt lat="42.1019" lon="2.44239">
        <ele>532</ele>
        <time>2010-01-01T00:49:02Z</time>
      </trkpt>
      <trkpt lat="42.10187" lon="2.44222">
        <ele>534</ele>
        <time>2010-01-01T00:49:08Z</time>
      </trkpt>
      <trkpt lat="42.10186" lon="2.4419">
        <ele>540</ele>
        <time>2010-01-01T00:49:17Z</time>
      </trkpt>
      <trkpt lat="42.10187" lon="2.4418">
        <ele>541</ele>
        <time>2010-01-01T00:49:20Z</time>
      </trkpt>
      <trkpt lat="42.10194" lon="2.44163">
        <ele>544</ele>
        <time>2010-01-01T00:49:26Z</time>
      </trkpt>
      <trkpt lat="42.10194" lon="2.44157">
        <ele>545</ele>
        <time>2010-01-01T00:49:28Z</time>
      </trkpt>
      <trkpt lat="42.10188" lon="2.44147">
        <ele>546</ele>
        <time>2010-01-01T00:49:31Z</time>
      </trkpt>
      <trkpt lat="42.10175" lon="2.44134">
        <ele>547</ele>
        <time>2010-01-01T00:49:38Z</time>
      </trkpt>
      <trkpt lat="42.1017" lon="2.44116">
        <ele>549</ele>
        <time>2010-01-01T00:49:44Z</time>
      </trkpt>
      <trkpt lat="42.10159" lon="2.44091">
        <ele>555</ele>
        <time>2010-01-01T00:49:52Z</time>
      </trkpt>
      <trkpt lat="42.10154" lon="2.44087">
        <ele>555</ele>
        <time>2010-01-01T00:49:54Z</time>
      </trkpt>
      <trkpt lat="42.10148" lon="2.44088">
        <ele>555</ele>
        <time>2010-01-01T00:49:57Z</time>
      </trkpt>
      <trkpt lat="42.10146" lon="2.44086">
        <ele>555</ele>
        <time>2010-01-01T00:49:58Z</time>
      </trkpt>
      <trkpt lat="42.1014" lon="2.44072">
        <ele>558</ele>
        <time>2010-01-01T00:50:03Z</time>
      </trkpt>
      <trkpt lat="42.10133" lon="2.44059">
        <ele>561</ele>
        <time>2010-01-01T00:50:07Z</time>
      </trkpt>
      <trkpt lat="42.10131" lon="2.44053">
        <ele>562</ele>
        <time>2010-01-01T00:50:09Z</time>
      </trkpt>
      <trkpt lat="42.1012" lon="2.44039">
        <ele>565</ele>
        <time>2010-01-01T00:50:16Z</time>
      </trkpt>
      <trkpt lat="42.10115" lon="2.44031">
        <ele>567</ele>
        <time>2010-01-01T00:50:19Z</time>
      </trkpt>
      <trkpt lat="42.10106" lon="2.43999">
        <ele>571</ele>
        <time>2010-01-01T00:50:29Z</time>
      </trkpt>
      <trkpt lat="42.10104" lon="2.43978">
        <ele>575</ele>
        <time>2010-01-01T00:50:35Z</time>
      </trkpt>
      <trkpt lat="42.10098" lon="2.4396">
        <ele>580</ele>
        <time>2010-01-01T00:50:41Z</time>
      </trkpt>
      <trkpt lat="42.10096" lon="2.43948">
        <ele>584</ele>
        <time>2010-01-01T00:50:44Z</time>
      </trkpt>
      <trkpt lat="42.10093" lon="2.43904">
        <ele>590</ele>
        <time>2010-01-01T00:50:58Z</time>
      </trkpt>
      <trkpt lat="42.10087" lon="2.43891">
        <ele>592</ele>
        <time>2010-01-01T00:51:02Z</time>
      </trkpt>
      <trkpt lat="42.10083" lon="2.43887">
        <ele>593</ele>
        <time>2010-01-01T00:51:04Z</time>
      </trkpt>
      <trkpt lat="42.10083" lon="2.43885">
        <ele>593</ele>
        <time>2010-01-01T00:51:05Z</time>
      </trkpt>
      <trkpt lat="42.10081" lon="2.43883">
        <ele>594</ele>
        <time>2010-01-01T00:51:06Z</time>
      </trkpt>
      <trkpt lat="42.10084" lon="2.43878">
        <ele>593</ele>
        <time>2010-01-01T00:51:08Z</time>
      </trkpt>
      <trkpt lat="42.10083" lon="2.43876">
        <ele>593</ele>
        <time>2010-01-01T00:51:09Z</time>
      </trkpt>
      <trkpt lat="42.10064" lon="2.43853">
        <ele>601</ele>
        <time>2010-01-01T00:51:19Z</time>
      </trkpt>
      <trkpt lat="42.10052" lon="2.43833">
        <ele>607</ele>
        <time>2010-01-01T00:51:26Z</time>
      </trkpt>
      <trkpt lat="42.10042" lon="2.43794">
        <ele>616</ele>
        <time>2010-01-01T00:51:39Z</time>
      </trkpt>
      <trkpt lat="42.1004" lon="2.43765">
        <ele>620</ele>
        <time>2010-01-01T00:51:47Z</time>
      </trkpt>
      <trkpt lat="42.10036" lon="2.43739">
        <ele>625</ele>
        <time>2010-01-01T00:51:55Z</time>
      </trkpt>
      <trkpt lat="42.10036" lon="2.43713">
        <ele>627</ele>
        <time>2010-01-01T00:52:03Z</time>
      </trkpt>
      <trkpt lat="42.10041" lon="2.43689">
        <ele>627</ele>
        <time>2010-01-01T00:52:10Z</time>
      </trkpt>
      <trkpt lat="42.10042" lon="2.43676">
        <ele>630</ele>
        <time>2010-01-01T00:52:14Z</time>
      </trkpt>
      <trkpt lat="42.10038" lon="2.43664">
        <ele>632</ele>
        <time>2010-01-01T00:52:18Z</time>
      </trkpt>
      <trkpt lat="42.10037" lon="2.43652">
        <ele>634</ele>
        <time>2010-01-01T00:52:22Z</time>
      </trkpt>
      <trkpt lat="42.10045" lon="2.43646">
        <ele>633</ele>
        <time>2010-01-01T00:52:25Z</time>
      </trkpt>
      <trkpt lat="42.10048" lon="2.43636">
        <ele>634</ele>
        <time>2010-01-01T00:52:28Z</time>
      </trkpt>
      <trkpt lat="42.1004" lon="2.4363">
        <ele>636</ele>
        <time>2010-01-01T00:52:32Z</time>
      </trkpt>
      <trkpt lat="42.10038" lon="2.43618">
        <ele>638</ele>
        <time>2010-01-01T00:52:36Z</time>
      </trkpt>
      <trkpt lat="42.10037" lon="2.43616">
        <ele>638</ele>
        <time>2010-01-01T00:52:37Z</time>
      </trkpt>
      <trkpt lat="42.10038" lon="2.43604">
        <ele>640</ele>
        <time>2010-01-01T00:52:40Z</time>
      </trkpt>
      <trkpt lat="42.10036" lon="2.43591">
        <ele>642</ele>
        <time>2010-01-01T00:52:44Z</time>
      </trkpt>
      <trkpt lat="42.1003" lon="2.43581">
        <ele>643</ele>
        <time>2010-01-01T00:52:48Z</time>
      </trkpt>
      <trkpt lat="42.10022" lon="2.4357">
        <ele>647</ele>
        <time>2010-01-01T00:52:52Z</time>
      </trkpt>
      <trkpt lat="42.10014" lon="2.43565">
        <ele>649</ele>
        <time>2010-01-01T00:52:56Z</time>
      </trkpt>
      <trkpt lat="42.10009" lon="2.43554">
        <ele>650</ele>
        <time>2010-01-01T00:53:00Z</time>
      </trkpt>
      <trkpt lat="42.10008" lon="2.4354">
        <ele>652</ele>
        <time>2010-01-01T00:53:04Z</time>
      </trkpt>
      <trkpt lat="42.09998" lon="2.43519">
        <ele>656</ele>
        <time>2010-01-01T00:53:11Z</time>
      </trkpt>
      <trkpt lat="42.09994" lon="2.43507">
        <ele>659</ele>
        <time>2010-01-01T00:53:15Z</time>
      </trkpt>
      <trkpt lat="42.09988" lon="2.43499">
        <ele>662</ele>
        <time>2010-01-01T00:53:19Z</time>
      </trkpt>
      <trkpt lat="42.09983" lon="2.43488">
        <ele>667</ele>
        <time>2010-01-01T00:53:22Z</time>
      </trkpt>
      <trkpt lat="42.09984" lon="2.43449">
        <ele>675</ele>
        <time>2010-01-01T00:53:34Z</time>
      </trkpt>
      <trkpt lat="42.09975" lon="2.43427">
        <ele>681</ele>
        <time>2010-01-01T00:53:41Z</time>
      </trkpt>
      <trkpt lat="42.09969" lon="2.43417">
        <ele>683</ele>
        <time>2010-01-01T00:53:45Z</time>
      </trkpt>
      <trkpt lat="42.09972" lon="2.43405">
        <ele>688</ele>
        <time>2010-01-01T00:53:49Z</time>
      </trkpt>
      <trkpt lat="42.09966" lon="2.43395">
        <ele>693</ele>
        <time>2010-01-01T00:53:53Z</time>
      </trkpt>
      <trkpt lat="42.09969" lon="2.43382">
        <ele>697</ele>
        <time>2010-01-01T00:53:57Z</time>
      </trkpt>
      <trkpt lat="42.09962" lon="2.43372">
        <ele>701</ele>
        <time>2010-01-01T00:54:01Z</time>
      </trkpt>
      <trkpt lat="42.09953" lon="2.43349">
        <ele>707</ele>
        <time>2010-01-01T00:54:09Z</time>
      </trkpt>
      <trkpt lat="42.09951" lon="2.43337">
        <ele>710</ele>
        <time>2010-01-01T00:54:12Z</time>
      </trkpt>
      <trkpt lat="42.09953" lon="2.43325">
        <ele>713</ele>
        <time>2010-01-01T00:54:16Z</time>
      </trkpt>
      <trkpt lat="42.09956" lon="2.43287">
        <ele>728</ele>
        <time>2010-01-01T00:54:27Z</time>
      </trkpt>
      <trkpt lat="42.09949" lon="2.43279">
        <ele>730</ele>
        <time>2010-01-01T00:54:31Z</time>
      </trkpt>
      <trkpt lat="42.09945" lon="2.43268">
        <ele>733</ele>
        <time>2010-01-01T00:54:35Z</time>
      </trkpt>
      <trkpt lat="42.09944" lon="2.43255">
        <ele>737</ele>
        <time>2010-01-01T00:54:38Z</time>
      </trkpt>
      <trkpt lat="42.09938" lon="2.43247">
        <ele>741</ele>
        <time>2010-01-01T00:54:42Z</time>
      </trkpt>
      <trkpt lat="42.09929" lon="2.43241">
        <ele>744</ele>
        <time>2010-01-01T00:54:46Z</time>
      </trkpt>
      <trkpt lat="42.09923" lon="2.43231">
        <ele>747</ele>
        <time>2010-01-01T00:54:50Z</time>
      </trkpt>
      <trkpt lat="42.09922" lon="2.43219">
        <ele>751</ele>
        <time>2010-01-01T00:54:53Z</time>
      </trkpt>
      <trkpt lat="42.09916" lon="2.43208">
        <ele>755</ele>
        <time>2010-01-01T00:54:57Z</time>
      </trkpt>
      <trkpt lat="42.09914" lon="2.43196">
        <ele>760</ele>
        <time>2010-01-01T00:55:01Z</time>
      </trkpt>
      <trkpt lat="42.09914" lon="2.43182">
        <ele>765</ele>
        <time>2010-01-01T00:55:05Z</time>
      </trkpt>
      <trkpt lat="42.09909" lon="2.4317">
        <ele>768</ele>
        <time>2010-01-01T00:55:09Z</time>
      </trkpt>
      <trkpt lat="42.09915" lon="2.43161">
        <ele>773</ele>
        <time>2010-01-01T00:55:13Z</time>
      </trkpt>
      <trkpt lat="42.09907" lon="2.43154">
        <ele>777</ele>
        <time>2010-01-01T00:55:17Z</time>
      </trkpt>
      <trkpt lat="42.09901" lon="2.43144">
        <ele>783</ele>
        <time>2010-01-01T00:55:20Z</time>
      </trkpt>
      <trkpt lat="42.09896" lon="2.43133">
        <ele>791</ele>
        <time>2010-01-01T00:55:24Z</time>
      </trkpt>
      <trkpt lat="42.09902" lon="2.43122">
        <ele>800</ele>
        <time>2010-01-01T00:55:28Z</time>
      </trkpt>
      <trkpt lat="42.09911" lon="2.43119">
        <ele>802</ele>
        <time>2010-01-01T00:55:32Z</time>
      </trkpt>
      <trkpt lat="42.09907" lon="2.43108">
        <ele>811</ele>
        <time>2010-01-01T00:55:36Z</time>
      </trkpt>
      <trkpt lat="42.09912" lon="2.43098">
        <ele>818</ele>
        <time>2010-01-01T00:55:39Z</time>
      </trkpt>
      <trkpt lat="42.09922" lon="2.431">
        <ele>817</ele>
        <time>2010-01-01T00:55:43Z</time>
      </trkpt>
      <trkpt lat="42.09931" lon="2.43104">
        <ele>813</ele>
        <time>2010-01-01T00:55:47Z</time>
      </trkpt>
      <trkpt lat="42.09941" lon="2.43104">
        <ele>813</ele>
        <time>2010-01-01T00:55:51Z</time>
      </trkpt>
      <trkpt lat="42.0995" lon="2.43109">
        <ele>810</ele>
        <time>2010-01-01T00:55:55Z</time>
      </trkpt>
      <trkpt lat="42.09956" lon="2.43109">
        <ele>812</ele>
        <time>2010-01-01T00:55:57Z</time>
      </trkpt>
      <trkpt lat="42.0996" lon="2.43107">
        <ele>815</ele>
        <time>2010-01-01T00:55:59Z</time>
      </trkpt>
      <trkpt lat="42.09966" lon="2.43102">
        <ele>822</ele>
        <time>2010-01-01T00:56:02Z</time>
      </trkpt>
      <trkpt lat="42.09974" lon="2.43098">
        <ele>829</ele>
        <time>2010-01-01T00:56:05Z</time>
      </trkpt>
      <trkpt lat="42.09993" lon="2.43103">
        <ele>830</ele>
        <time>2010-01-01T00:56:13Z</time>
      </trkpt>
      <trkpt lat="42.10005" lon="2.43109">
        <ele>830</ele>
        <time>2010-01-01T00:56:18Z</time>
      </trkpt>
      <trkpt lat="42.10011" lon="2.43108">
        <ele>834</ele>
        <time>2010-01-01T00:56:21Z</time>
      </trkpt>
      <trkpt lat="42.10019" lon="2.43113">
        <ele>834</ele>
        <time>2010-01-01T00:56:24Z</time>
      </trkpt>
      <trkpt lat="42.10027" lon="2.4312">
        <ele>835</ele>
        <time>2010-01-01T00:56:28Z</time>
      </trkpt>
      <trkpt lat="42.10059" lon="2.43127">
        <ele>853</ele>
        <time>2010-01-01T00:56:41Z</time>
      </trkpt>
      <trkpt lat="42.10067" lon="2.43133">
        <ele>854</ele>
        <time>2010-01-01T00:56:45Z</time>
      </trkpt>
      <trkpt lat="42.10074" lon="2.43156">
        <ele>843</ele>
        <time>2010-01-01T00:56:52Z</time>
      </trkpt>
      <trkpt lat="42.10079" lon="2.43159">
        <ele>845</ele>
        <time>2010-01-01T00:56:55Z</time>
      </trkpt>
      <trkpt lat="42.1009" lon="2.43155">
        <ele>853</ele>
        <time>2010-01-01T00:56:59Z</time>
      </trkpt>
      <trkpt lat="42.10092" lon="2.4315">
        <ele>856</ele>
        <time>2010-01-01T00:57:01Z</time>
      </trkpt>
      <trkpt lat="42.10093" lon="2.43136">
        <ele>865</ele>
        <time>2010-01-01T00:57:05Z</time>
      </trkpt>
      <trkpt lat="42.10092" lon="2.43129">
        <ele>870</ele>
        <time>2010-01-01T00:57:07Z</time>
      </trkpt>
      <trkpt lat="42.10095" lon="2.43125">
        <ele>876</ele>
        <time>2010-01-01T00:57:08Z</time>
      </trkpt>
      <trkpt lat="42.10095" lon="2.4312">
        <ele>881</ele>
        <time>2010-01-01T00:57:10Z</time>
      </trkpt>
      <trkpt lat="42.10101" lon="2.43128">
        <ele>877</ele>
        <time>2010-01-01T00:57:13Z</time>
      </trkpt>
      <trkpt lat="42.10102" lon="2.43126">
        <ele>879</ele>
        <time>2010-01-01T00:57:14Z</time>
      </trkpt>
      <trkpt lat="42.10104" lon="2.4312">
        <ele>887</ele>
        <time>2010-01-01T00:57:16Z</time>
      </trkpt>
      <trkpt lat="42.10106" lon="2.4312">
        <ele>889</ele>
        <time>2010-01-01T00:57:17Z</time>
      </trkpt>
      <trkpt lat="42.10108" lon="2.43111">
        <ele>899</ele>
        <time>2010-01-01T00:57:20Z</time>
      </trkpt>
      <trkpt lat="42.10116" lon="2.43104">
        <ele>909</ele>
        <time>2010-01-01T00:57:23Z</time>
      </trkpt>
      <trkpt lat="42.10125" lon="2.43107">
        <ele>914</ele>
        <time>2010-01-01T00:57:27Z</time>
      </trkpt>
      <trkpt lat="42.10126" lon="2.43103">
        <ele>916</ele>
        <time>2010-01-01T00:57:28Z</time>
      </trkpt>
      <trkpt lat="42.10121" lon="2.43118">
        <ele>902</ele>
        <time>2010-01-01T00:57:33Z</time>
      </trkpt>
      <trkpt lat="42.10122" lon="2.43125">
        <ele>897</ele>
        <time>2010-01-01T00:57:35Z</time>
      </trkpt>
      <trkpt lat="42.10125" lon="2.4313">
        <ele>895</ele>
        <time>2010-01-01T00:57:37Z</time>
      </trkpt>
      <trkpt lat="42.10132" lon="2.43133">
        <ele>900</ele>
        <time>2010-01-01T00:57:40Z</time>
      </trkpt>
      <trkpt lat="42.10136" lon="2.43133">
        <ele>904</ele>
        <time>2010-01-01T00:57:41Z</time>
      </trkpt>
      <trkpt lat="42.10138" lon="2.43131">
        <ele>907</ele>
        <time>2010-01-01T00:57:42Z</time>
      </trkpt>
      <trkpt lat="42.10135" lon="2.43128">
        <ele>908</ele>
        <time>2010-01-01T00:57:44Z</time>
      </trkpt>
      <trkpt lat="42.10133" lon="2.43117">
        <ele>914</ele>
        <time>2010-01-01T00:57:47Z</time>
      </trkpt>
      <trkpt lat="42.10138" lon="2.43114">
        <ele>920</ele>
        <time>2010-01-01T00:57:49Z</time>
      </trkpt>
      <trkpt lat="42.10139" lon="2.43107">
        <ele>925</ele>
        <time>2010-01-01T00:57:51Z</time>
      </trkpt>
      <trkpt lat="42.10141" lon="2.43109">
        <ele>924</ele>
        <time>2010-01-01T00:57:52Z</time>
      </trkpt>
      <trkpt lat="42.10142" lon="2.43101">
        <ele>927</ele>
        <time>2010-01-01T00:57:54Z</time>
      </trkpt>
      <trkpt lat="42.1015" lon="2.43101">
        <ele>929</ele>
        <time>2010-01-01T00:57:58Z</time>
      </trkpt>
      <trkpt lat="42.1015" lon="2.43089">
        <ele>931</ele>
        <time>2010-01-01T00:58:01Z</time>
      </trkpt>
      <trkpt lat="42.10155" lon="2.4308">
        <ele>934</ele>
        <time>2010-01-01T00:58:04Z</time>
      </trkpt>
      <trkpt lat="42.10156" lon="2.43081">
        <ele>934</ele>
        <time>2010-01-01T00:58:05Z</time>
      </trkpt>
      <trkpt lat="42.10157" lon="2.43079">
        <ele>934</ele>
        <time>2010-01-01T00:58:06Z</time>
      </trkpt>
      <trkpt lat="42.10159" lon="2.43079">
        <ele>935</ele>
        <time>2010-01-01T00:58:07Z</time>
      </trkpt>
      <trkpt lat="42.1016" lon="2.43077">
        <ele>936</ele>
        <time>2010-01-01T00:58:08Z</time>
      </trkpt>
      <trkpt lat="42.10156" lon="2.43074">
        <ele>935</ele>
        <time>2010-01-01T00:58:09Z</time>
      </trkpt>
      <trkpt lat="42.10151" lon="2.43073">
        <ele>935</ele>
        <time>2010-01-01T00:58:11Z</time>
      </trkpt>
      <trkpt lat="42.10146" lon="2.43074">
        <ele>933</ele>
        <time>2010-01-01T00:58:13Z</time>
      </trkpt>
      <trkpt lat="42.10127" lon="2.43071">
        <ele>929</ele>
        <time>2010-01-01T00:58:21Z</time>
      </trkpt>
      <trkpt lat="42.10115" lon="2.43068">
        <ele>926</ele>
        <time>2010-01-01T00:58:26Z</time>
      </trkpt>
      <trkpt lat="42.10113" lon="2.43066">
        <ele>927</ele>
        <time>2010-01-01T00:58:27Z</time>
      </trkpt>
      <trkpt lat="42.10112" lon="2.43053">
        <ele>931</ele>
        <time>2010-01-01T00:58:31Z</time>
      </trkpt>
      <trkpt lat="42.1011" lon="2.4305">
        <ele>932</ele>
        <time>2010-01-01T00:58:32Z</time>
      </trkpt>
      <trkpt lat="42.10101" lon="2.43041">
        <ele>931</ele>
        <time>2010-01-01T00:58:36Z</time>
      </trkpt>
      <trkpt lat="42.10093" lon="2.43039">
        <ele>929</ele>
        <time>2010-01-01T00:58:40Z</time>
      </trkpt>
      <trkpt lat="42.10081" lon="2.43027">
        <ele>929</ele>
        <time>2010-01-01T00:58:46Z</time>
      </trkpt>
      <trkpt lat="42.10075" lon="2.43014">
        <ele>929</ele>
        <time>2010-01-01T00:58:50Z</time>
      </trkpt>
      <trkpt lat="42.10073" lon="2.43001">
        <ele>931</ele>
        <time>2010-01-01T00:58:54Z</time>
      </trkpt>
      <trkpt lat="42.10067" lon="2.42982">
        <ele>932</ele>
        <time>2010-01-01T00:59:00Z</time>
      </trkpt>
      <trkpt lat="42.1006" lon="2.42974">
        <ele>930</ele>
        <time>2010-01-01T00:59:04Z</time>
      </trkpt>
      <trkpt lat="42.10059" lon="2.42971">
        <ele>930</ele>
        <time>2010-01-01T00:59:05Z</time>
      </trkpt>
      <trkpt lat="42.10053" lon="2.42967">
        <ele>928</ele>
        <time>2010-01-01T00:59:08Z</time>
      </trkpt>
      <trkpt lat="42.10051" lon="2.42964">
        <ele>927</ele>
        <time>2010-01-01T00:59:09Z</time>
      </trkpt>
      <trkpt lat="42.10046" lon="2.4295">
        <ele>926</ele>
        <time>2010-01-01T00:59:13Z</time>
      </trkpt>
      <trkpt lat="42.10043" lon="2.42921">
        <ele>927</ele>
        <time>2010-01-01T00:59:22Z</time>
      </trkpt>
      <trkpt lat="42.10043" lon="2.4288">
        <ele>927</ele>
        <time>2010-01-01T00:59:34Z</time>
      </trkpt>
      <trkpt lat="42.10041" lon="2.42858">
        <ele>927</ele>
        <time>2010-01-01T00:59:41Z</time>
      </trkpt>
      <trkpt lat="42.10041" lon="2.42832">
        <ele>933</ele>
        <time>2010-01-01T00:59:48Z</time>
      </trkpt>
      <trkpt lat="42.10038" lon="2.42822">
        <ele>933</ele>
        <time>2010-01-01T00:59:52Z</time>
      </trkpt>
      <trkpt lat="42.10036" lon="2.42819">
        <ele>933</ele>
        <time>2010-01-01T00:59:53Z</time>
      </trkpt>
      <trkpt lat="42.1002" lon="2.4282">
        <ele>928</ele>
        <time>2010-01-01T00:59:59Z</time>
      </trkpt>
      <trkpt lat="42.10002" lon="2.42829">
        <ele>922</ele>
        <time>2010-01-01T01:00:07Z</time>
      </trkpt>
      <trkpt lat="42.1" lon="2.42829">
        <ele>921</ele>
        <time>2010-01-01T01:00:08Z</time>
      </trkpt>
      <trkpt lat="42.09994" lon="2.42825">
        <ele>920</ele>
        <time>2010-01-01T01:00:11Z</time>
      </trkpt>
      <trkpt lat="42.09986" lon="2.42816">
        <ele>919</ele>
        <time>2010-01-01T01:00:15Z</time>
      </trkpt>
      <trkpt lat="42.09983" lon="2.42808">
        <ele>919</ele>
        <time>2010-01-01T01:00:17Z</time>
      </trkpt>
      <trkpt lat="42.09982" lon="2.42799">
        <ele>919</ele>
        <time>2010-01-01T01:00:20Z</time>
      </trkpt>
      <trkpt lat="42.09983" lon="2.42782">
        <ele>918</ele>
        <time>2010-01-01T01:00:25Z</time>
      </trkpt>
      <trkpt lat="42.09999" lon="2.42737">
        <ele>922</ele>
        <time>2010-01-01T01:00:40Z</time>
      </trkpt>
      <trkpt lat="42.10007" lon="2.42719">
        <ele>925</ele>
        <time>2010-01-01T01:00:46Z</time>
      </trkpt>
      <trkpt lat="42.10009" lon="2.42707">
        <ele>928</ele>
        <time>2010-01-01T01:00:50Z</time>
      </trkpt>
      <trkpt lat="42.10005" lon="2.42702">
        <ele>927</ele>
        <time>2010-01-01T01:00:52Z</time>
      </trkpt>
      <trkpt lat="42.09994" lon="2.42703">
        <ele>924</ele>
        <time>2010-01-01T01:00:56Z</time>
      </trkpt>
      <trkpt lat="42.09989" lon="2.42705">
        <ele>923</ele>
        <time>2010-01-01T01:00:58Z</time>
      </trkpt>
      <trkpt lat="42.09975" lon="2.42716">
        <ele>918</ele>
        <time>2010-01-01T01:01:05Z</time>
      </trkpt>
      <trkpt lat="42.09965" lon="2.4273">
        <ele>915</ele>
        <time>2010-01-01T01:01:11Z</time>
      </trkpt>
      <trkpt lat="42.09956" lon="2.42738">
        <ele>913</ele>
        <time>2010-01-01T01:01:15Z</time>
      </trkpt>
      <trkpt lat="42.09943" lon="2.42739">
        <ele>911</ele>
        <time>2010-01-01T01:01:20Z</time>
      </trkpt>
      <trkpt lat="42.0992" lon="2.42737">
        <ele>912</ele>
        <time>2010-01-01T01:01:30Z</time>
      </trkpt>
      <trkpt lat="42.09914" lon="2.42739">
        <ele>912</ele>
        <time>2010-01-01T01:01:32Z</time>
      </trkpt>
      <trkpt lat="42.09894" lon="2.42768">
        <ele>910</ele>
        <time>2010-01-01T01:01:44Z</time>
      </trkpt>
      <trkpt lat="42.09887" lon="2.42777">
        <ele>909</ele>
        <time>2010-01-01T01:01:48Z</time>
      </trkpt>
      <trkpt lat="42.0988" lon="2.42783">
        <ele>908</ele>
        <time>2010-01-01T01:01:51Z</time>
      </trkpt>
      <trkpt lat="42.09866" lon="2.42786">
        <ele>908</ele>
        <time>2010-01-01T01:01:56Z</time>
      </trkpt>
      <trkpt lat="42.09853" lon="2.42783">
        <ele>910</ele>
        <time>2010-01-01T01:02:02Z</time>
      </trkpt>
      <trkpt lat="42.09843" lon="2.42778">
        <ele>912</ele>
        <time>2010-01-01T01:02:06Z</time>
      </trkpt>
      <trkpt lat="42.09838" lon="2.4278">
        <ele>912</ele>
        <time>2010-01-01T01:02:08Z</time>
      </trkpt>
      <trkpt lat="42.09833" lon="2.42784">
        <ele>912</ele>
        <time>2010-01-01T01:02:10Z</time>
      </trkpt>
      <trkpt lat="42.09831" lon="2.4279">
        <ele>913</ele>
        <time>2010-01-01T01:02:12Z</time>
      </trkpt>
      <trkpt lat="42.09835" lon="2.42821">
        <ele>907</ele>
        <time>2010-01-01T01:02:22Z</time>
      </trkpt>
      <trkpt lat="42.09831" lon="2.42837">
        <ele>906</ele>
        <time>2010-01-01T01:02:27Z</time>
      </trkpt>
      <trkpt lat="42.0983" lon="2.42854">
        <ele>904</ele>
        <time>2010-01-01T01:02:32Z</time>
      </trkpt>
      <trkpt lat="42.09821" lon="2.4289">
        <ele>900</ele>
        <time>2010-01-01T01:02:43Z</time>
      </trkpt>
      <trkpt lat="42.09814" lon="2.42904">
        <ele>900</ele>
        <time>2010-01-01T01:02:48Z</time>
      </trkpt>
      <trkpt lat="42.0981" lon="2.4291">
        <ele>900</ele>
        <time>2010-01-01T01:02:50Z</time>
      </trkpt>
      <trkpt lat="42.09805" lon="2.42914">
        <ele>901</ele>
        <time>2010-01-01T01:02:53Z</time>
      </trkpt>
      <trkpt lat="42.09792" lon="2.42918">
        <ele>907</ele>
        <time>2010-01-01T01:02:58Z</time>
      </trkpt>
      <trkpt lat="42.09788" lon="2.42925">
        <ele>909</ele>
        <time>2010-01-01T01:03:01Z</time>
      </trkpt>
      <trkpt lat="42.09786" lon="2.42933">
        <ele>910</ele>
        <time>2010-01-01T01:03:03Z</time>
      </trkpt>
      <trkpt lat="42.09788" lon="2.42954">
        <ele>909</ele>
        <time>2010-01-01T01:03:10Z</time>
      </trkpt>
      <trkpt lat="42.09786" lon="2.42966">
        <ele>910</ele>
        <time>2010-01-01T01:03:13Z</time>
      </trkpt>
      <trkpt lat="42.09767" lon="2.43051">
        <ele>909</ele>
        <time>2010-01-01T01:03:40Z</time>
      </trkpt>
      <trkpt lat="42.0976" lon="2.43069">
        <ele>906</ele>
        <time>2010-01-01T01:03:45Z</time>
      </trkpt>
      <trkpt lat="42.09756" lon="2.43078">
        <ele>905</ele>
        <time>2010-01-01T01:03:49Z</time>
      </trkpt>
      <trkpt lat="42.09734" lon="2.43111">
        <ele>906</ele>
        <time>2010-01-01T01:04:02Z</time>
      </trkpt>
      <trkpt lat="42.09725" lon="2.4312">
        <ele>908</ele>
        <time>2010-01-01T01:04:06Z</time>
      </trkpt>
      <trkpt lat="42.09714" lon="2.43124">
        <ele>909</ele>
        <time>2010-01-01T01:04:11Z</time>
      </trkpt>
      <trkpt lat="42.09707" lon="2.43125">
        <ele>909</ele>
        <time>2010-01-01T01:04:14Z</time>
      </trkpt>
      <trkpt lat="42.09704" lon="2.43124">
        <ele>910</ele>
        <time>2010-01-01T01:04:15Z</time>
      </trkpt>
      <trkpt lat="42.09698" lon="2.43114">
        <ele>911</ele>
        <time>2010-01-01T01:04:19Z</time>
      </trkpt>
      <trkpt lat="42.09691" lon="2.43095">
        <ele>914</ele>
        <time>2010-01-01T01:04:25Z</time>
      </trkpt>
      <trkpt lat="42.09683" lon="2.43088">
        <ele>914</ele>
        <time>2010-01-01T01:04:29Z</time>
      </trkpt>
      <trkpt lat="42.09677" lon="2.43089">
        <ele>914</ele>
        <time>2010-01-01T01:04:31Z</time>
      </trkpt>
      <trkpt lat="42.09652" lon="2.43111">
        <ele>911</ele>
        <time>2010-01-01T01:04:43Z</time>
      </trkpt>
      <trkpt lat="42.09643" lon="2.43125">
        <ele>910</ele>
        <time>2010-01-01T01:04:49Z</time>
      </trkpt>
      <trkpt lat="42.0962" lon="2.43171">
        <ele>906</ele>
        <time>2010-01-01T01:05:05Z</time>
      </trkpt>
      <trkpt lat="42.09604" lon="2.43187">
        <ele>904</ele>
        <time>2010-01-01T01:05:13Z</time>
      </trkpt>
      <trkpt lat="42.09601" lon="2.43188">
        <ele>904</ele>
        <time>2010-01-01T01:05:14Z</time>
      </trkpt>
      <trkpt lat="42.09591" lon="2.43184">
        <ele>903</ele>
        <time>2010-01-01T01:05:18Z</time>
      </trkpt>
      <trkpt lat="42.09563" lon="2.43162">
        <ele>903</ele>
        <time>2010-01-01T01:05:31Z</time>
      </trkpt>
      <trkpt lat="42.0956" lon="2.43156">
        <ele>903</ele>
        <time>2010-01-01T01:05:34Z</time>
      </trkpt>
      <trkpt lat="42.09546" lon="2.4314">
        <ele>901</ele>
        <time>2010-01-01T01:05:41Z</time>
      </trkpt>
      <trkpt lat="42.09529" lon="2.43117">
        <ele>899</ele>
        <time>2010-01-01T01:05:51Z</time>
      </trkpt>
      <trkpt lat="42.09498" lon="2.43082">
        <ele>891</ele>
        <time>2010-01-01T01:06:07Z</time>
      </trkpt>
      <trkpt lat="42.09489" lon="2.43076">
        <ele>891</ele>
        <time>2010-01-01T01:06:11Z</time>
      </trkpt>
      <trkpt lat="42.09486" lon="2.43075">
        <ele>890</ele>
        <time>2010-01-01T01:06:12Z</time>
      </trkpt>
      <trkpt lat="42.0948" lon="2.43076">
        <ele>889</ele>
        <time>2010-01-01T01:06:15Z</time>
      </trkpt>
      <trkpt lat="42.09475" lon="2.43081">
        <ele>888</ele>
        <time>2010-01-01T01:06:17Z</time>
      </trkpt>
      <trkpt lat="42.09472" lon="2.43089">
        <ele>887</ele>
        <time>2010-01-01T01:06:20Z</time>
      </trkpt>
      <trkpt lat="42.09471" lon="2.43107">
        <ele>887</ele>
        <time>2010-01-01T01:06:25Z</time>
      </trkpt>
      <trkpt lat="42.09469" lon="2.43121">
        <ele>887</ele>
        <time>2010-01-01T01:06:29Z</time>
      </trkpt>
      <trkpt lat="42.09467" lon="2.43125">
        <ele>887</ele>
        <time>2010-01-01T01:06:31Z</time>
      </trkpt>
      <trkpt lat="42.09462" lon="2.43129">
        <ele>887</ele>
        <time>2010-01-01T01:06:33Z</time>
      </trkpt>
      <trkpt lat="42.09459" lon="2.4313">
        <ele>887</ele>
        <time>2010-01-01T01:06:34Z</time>
      </trkpt>
      <trkpt lat="42.09449" lon="2.43129">
        <ele>887</ele>
        <time>2010-01-01T01:06:39Z</time>
      </trkpt>
      <trkpt lat="42.09443" lon="2.43124">
        <ele>887</ele>
        <time>2010-01-01T01:06:41Z</time>
      </trkpt>
      <trkpt lat="42.09434" lon="2.43107">
        <ele>888</ele>
        <time>2010-01-01T01:06:47Z</time>
      </trkpt>
      <trkpt lat="42.09429" lon="2.43105">
        <ele>889</ele>
        <time>2010-01-01T01:06:50Z</time>
      </trkpt>
      <trkpt lat="42.09426" lon="2.43105">
        <ele>890</ele>
        <time>2010-01-01T01:06:51Z</time>
      </trkpt>
      <trkpt lat="42.09424" lon="2.43108">
        <ele>890</ele>
        <time>2010-01-01T01:06:52Z</time>
      </trkpt>
      <trkpt lat="42.09421" lon="2.43115">
        <ele>891</ele>
        <time>2010-01-01T01:06:55Z</time>
      </trkpt>
      <trkpt lat="42.0942" lon="2.43175">
        <ele>887</ele>
        <time>2010-01-01T01:07:12Z</time>
      </trkpt>
      <trkpt lat="42.09417" lon="2.43191">
        <ele>886</ele>
        <time>2010-01-01T01:07:17Z</time>
      </trkpt>
      <trkpt lat="42.09405" lon="2.43205">
        <ele>885</ele>
        <time>2010-01-01T01:07:23Z</time>
      </trkpt>
      <trkpt lat="42.09399" lon="2.43208">
        <ele>886</ele>
        <time>2010-01-01T01:07:26Z</time>
      </trkpt>
      <trkpt lat="42.09392" lon="2.43206">
        <ele>886</ele>
        <time>2010-01-01T01:07:29Z</time>
      </trkpt>
      <trkpt lat="42.09377" lon="2.43198">
        <ele>889</ele>
        <time>2010-01-01T01:07:35Z</time>
      </trkpt>
      <trkpt lat="42.09371" lon="2.43198">
        <ele>890</ele>
        <time>2010-01-01T01:07:38Z</time>
      </trkpt>
      <trkpt lat="42.09366" lon="2.43203">
        <ele>890</ele>
        <time>2010-01-01T01:07:40Z</time>
      </trkpt>
      <trkpt lat="42.0936" lon="2.43213">
        <ele>889</ele>
        <time>2010-01-01T01:07:44Z</time>
      </trkpt>
      <trkpt lat="42.09345" lon="2.43226">
        <ele>889</ele>
        <time>2010-01-01T01:07:51Z</time>
      </trkpt>
      <trkpt lat="42.09342" lon="2.43234">
        <ele>889</ele>
        <time>2010-01-01T01:07:54Z</time>
      </trkpt>
      <trkpt lat="42.09342" lon="2.43242">
        <ele>887</ele>
        <time>2010-01-01T01:07:56Z</time>
      </trkpt>
      <trkpt lat="42.09346" lon="2.43258">
        <ele>884</ele>
        <time>2010-01-01T01:08:01Z</time>
      </trkpt>
      <trkpt lat="42.09345" lon="2.43267">
        <ele>884</ele>
        <time>2010-01-01T01:08:04Z</time>
      </trkpt>
      <trkpt lat="42.09337" lon="2.43291">
        <ele>885</ele>
        <time>2010-01-01T01:08:12Z</time>
      </trkpt>
      <trkpt lat="42.09327" lon="2.43331">
        <ele>888</ele>
        <time>2010-01-01T01:08:24Z</time>
      </trkpt>
      <trkpt lat="42.09317" lon="2.43356">
        <ele>890</ele>
        <time>2010-01-01T01:08:33Z</time>
      </trkpt>
      <trkpt lat="42.09325" lon="2.43392">
        <ele>888</ele>
        <time>2010-01-01T01:08:44Z</time>
      </trkpt>
      <trkpt lat="42.09325" lon="2.43436">
        <ele>889</ele>
        <time>2010-01-01T01:08:57Z</time>
      </trkpt>
      <trkpt lat="42.09324" lon="2.43489">
        <ele>890</ele>
        <time>2010-01-01T01:09:12Z</time>
      </trkpt>
      <trkpt lat="42.09322" lon="2.43505">
        <ele>891</ele>
        <time>2010-01-01T01:09:17Z</time>
      </trkpt>
      <trkpt lat="42.09319" lon="2.43515">
        <ele>893</ele>
        <time>2010-01-01T01:09:20Z</time>
      </trkpt>
      <trkpt lat="42.09307" lon="2.4353">
        <ele>894</ele>
        <time>2010-01-01T01:09:27Z</time>
      </trkpt>
      <trkpt lat="42.09298" lon="2.43533">
        <ele>896</ele>
        <time>2010-01-01T01:09:31Z</time>
      </trkpt>
      <trkpt lat="42.0929" lon="2.4353">
        <ele>897</ele>
        <time>2010-01-01T01:09:34Z</time>
      </trkpt>
      <trkpt lat="42.09272" lon="2.43527">
        <ele>900</ele>
        <time>2010-01-01T01:09:41Z</time>
      </trkpt>
      <trkpt lat="42.09257" lon="2.43526">
        <ele>902</ele>
        <time>2010-01-01T01:09:47Z</time>
      </trkpt>
      <trkpt lat="42.09233" lon="2.43521">
        <ele>905</ele>
        <time>2010-01-01T01:09:57Z</time>
      </trkpt>
      <trkpt lat="42.0922" lon="2.43518">
        <ele>906</ele>
        <time>2010-01-01T01:10:02Z</time>
      </trkpt>
      <trkpt lat="42.09147" lon="2.43488">
        <ele>899</ele>
        <time>2010-01-01T01:10:33Z</time>
      </trkpt>
      <trkpt lat="42.09115" lon="2.43479">
        <ele>894</ele>
        <time>2010-01-01T01:10:46Z</time>
      </trkpt>
      <trkpt lat="42.09107" lon="2.43477">
        <ele>892</ele>
        <time>2010-01-01T01:10:49Z</time>
      </trkpt>
      <trkpt lat="42.09097" lon="2.43478">
        <ele>892</ele>
        <time>2010-01-01T01:10:53Z</time>
      </trkpt>
      <trkpt lat="42.09064" lon="2.43491">
        <ele>891</ele>
        <time>2010-01-01T01:11:07Z</time>
      </trkpt>
      <trkpt lat="42.09043" lon="2.43492">
        <ele>893</ele>
        <time>2010-01-01T01:11:15Z</time>
      </trkpt>
      <trkpt lat="42.09017" lon="2.43499">
        <ele>896</ele>
        <time>2010-01-01T01:11:26Z</time>
      </trkpt>
      <trkpt lat="42.09001" lon="2.43514">
        <ele>898</ele>
        <time>2010-01-01T01:11:34Z</time>
      </trkpt>
      <trkpt lat="42.08978" lon="2.43544">
        <ele>901</ele>
        <time>2010-01-01T01:11:47Z</time>
      </trkpt>
      <trkpt lat="42.08966" lon="2.43553">
        <ele>902</ele>
        <time>2010-01-01T01:11:52Z</time>
      </trkpt>
      <trkpt lat="42.08959" lon="2.43556">
        <ele>903</ele>
        <time>2010-01-01T01:11:55Z</time>
      </trkpt>
      <trkpt lat="42.08948" lon="2.43565">
        <ele>904</ele>
        <time>2010-01-01T01:12:00Z</time>
      </trkpt>
      <trkpt lat="42.08943" lon="2.43573">
        <ele>905</ele>
        <time>2010-01-01T01:12:03Z</time>
      </trkpt>
      <trkpt lat="42.08938" lon="2.43589">
        <ele>907</ele>
        <time>2010-01-01T01:12:09Z</time>
      </trkpt>
      <trkpt lat="42.08923" lon="2.43646">
        <ele>912</ele>
        <time>2010-01-01T01:12:26Z</time>
      </trkpt>
      <trkpt lat="42.08917" lon="2.43657">
        <ele>914</ele>
        <time>2010-01-01T01:12:31Z</time>
      </trkpt>
      <trkpt lat="42.08906" lon="2.43666">
        <ele>917</ele>
        <time>2010-01-01T01:12:36Z</time>
      </trkpt>
      <trkpt lat="42.08887" lon="2.43669">
        <ele>922</ele>
        <time>2010-01-01T01:12:43Z</time>
      </trkpt>
      <trkpt lat="42.08861" lon="2.43667">
        <ele>928</ele>
        <time>2010-01-01T01:12:54Z</time>
      </trkpt>
      <trkpt lat="42.08844" lon="2.43661">
        <ele>929</ele>
        <time>2010-01-01T01:13:01Z</time>
      </trkpt>
      <trkpt lat="42.08834" lon="2.43653">
        <ele>929</ele>
        <time>2010-01-01T01:13:05Z</time>
      </trkpt>
      <trkpt lat="42.08823" lon="2.4365">
        <ele>928</ele>
        <time>2010-01-01T01:13:10Z</time>
      </trkpt>
      <trkpt lat="42.0881" lon="2.43651">
        <ele>928</ele>
        <time>2010-01-01T01:13:15Z</time>
      </trkpt>
      <trkpt lat="42.08781" lon="2.43657">
        <ele>930</ele>
        <time>2010-01-01T01:13:27Z</time>
      </trkpt>
      <trkpt lat="42.08769" lon="2.43654">
        <ele>930</ele>
        <time>2010-01-01T01:13:32Z</time>
      </trkpt>
      <trkpt lat="42.08753" lon="2.43653">
        <ele>931</ele>
        <time>2010-01-01T01:13:38Z</time>
      </trkpt>
      <trkpt lat="42.08741" lon="2.43657">
        <ele>931</ele>
        <time>2010-01-01T01:13:43Z</time>
      </trkpt>
      <trkpt lat="42.08728" lon="2.43663">
        <ele>931</ele>
        <time>2010-01-01T01:13:48Z</time>
      </trkpt>
      <trkpt lat="42.08726" lon="2.43665">
        <ele>931</ele>
        <time>2010-01-01T01:13:49Z</time>
      </trkpt>
      <trkpt lat="42.08719" lon="2.43683">
        <ele>933</ele>
        <time>2010-01-01T01:13:56Z</time>
      </trkpt>
      <trkpt lat="42.08718" lon="2.43694">
        <ele>934</ele>
        <time>2010-01-01T01:13:59Z</time>
      </trkpt>
      <trkpt lat="42.08726" lon="2.4371">
        <ele>935</ele>
        <time>2010-01-01T01:14:05Z</time>
      </trkpt>
      <trkpt lat="42.08738" lon="2.43728">
        <ele>934</ele>
        <time>2010-01-01T01:14:12Z</time>
      </trkpt>
      <trkpt lat="42.08752" lon="2.43745">
        <ele>932</ele>
        <time>2010-01-01T01:14:20Z</time>
      </trkpt>
      <trkpt lat="42.08762" lon="2.43761">
        <ele>932</ele>
        <time>2010-01-01T01:14:26Z</time>
      </trkpt>
      <trkpt lat="42.08763" lon="2.43768">
        <ele>932</ele>
        <time>2010-01-01T01:14:28Z</time>
      </trkpt>
      <trkpt lat="42.08772" lon="2.43792">
        <ele>933</ele>
        <time>2010-01-01T01:14:36Z</time>
      </trkpt>
      <trkpt lat="42.08775" lon="2.43807">
        <ele>934</ele>
        <time>2010-01-01T01:14:40Z</time>
      </trkpt>
      <trkpt lat="42.08774" lon="2.43817">
        <ele>934</ele>
        <time>2010-01-01T01:14:43Z</time>
      </trkpt>
      <trkpt lat="42.08767" lon="2.43832">
        <ele>935</ele>
        <time>2010-01-01T01:14:49Z</time>
      </trkpt>
      <trkpt lat="42.08768" lon="2.43836">
        <ele>935</ele>
        <time>2010-01-01T01:14:50Z</time>
      </trkpt>
      <trkpt lat="42.08771" lon="2.43843">
        <ele>936</ele>
        <time>2010-01-01T01:14:52Z</time>
      </trkpt>
      <trkpt lat="42.08776" lon="2.43846">
        <ele>936</ele>
        <time>2010-01-01T01:14:54Z</time>
      </trkpt>
      <trkpt lat="42.08783" lon="2.43856">
        <ele>935</ele>
        <time>2010-01-01T01:14:58Z</time>
      </trkpt>
      <trkpt lat="42.08825" lon="2.4394">
        <ele>938</ele>
        <time>2010-01-01T01:15:29Z</time>
      </trkpt>
      <trkpt lat="42.08829" lon="2.43962">
        <ele>939</ele>
        <time>2010-01-01T01:15:35Z</time>
      </trkpt>
      <trkpt lat="42.08831" lon="2.43995">
        <ele>937</ele>
        <time>2010-01-01T01:15:45Z</time>
      </trkpt>
      <trkpt lat="42.08836" lon="2.4401">
        <ele>935</ele>
        <time>2010-01-01T01:15:50Z</time>
      </trkpt>
      <trkpt lat="42.08842" lon="2.44019">
        <ele>933</ele>
        <time>2010-01-01T01:15:54Z</time>
      </trkpt>
      <trkpt lat="42.08855" lon="2.44045">
        <ele>930</ele>
        <time>2010-01-01T01:16:03Z</time>
      </trkpt>
      <trkpt lat="42.08867" lon="2.44063">
        <ele>928</ele>
        <time>2010-01-01T01:16:10Z</time>
      </trkpt>
      <trkpt lat="42.0888" lon="2.44078">
        <ele>926</ele>
        <time>2010-01-01T01:16:17Z</time>
      </trkpt>
      <trkpt lat="42.08897" lon="2.44105">
        <ele>925</ele>
        <time>2010-01-01T01:16:27Z</time>
      </trkpt>
      <trkpt lat="42.08907" lon="2.44113">
        <ele>920</ele>
        <time>2010-01-01T01:16:32Z</time>
      </trkpt>
      <trkpt lat="42.08937" lon="2.44131">
        <ele>889</ele>
        <time>2010-01-01T01:16:45Z</time>
      </trkpt>
      <trkpt lat="42.08941" lon="2.44135">
        <ele>885</ele>
        <time>2010-01-01T01:16:47Z</time>
      </trkpt>
      <trkpt lat="42.08944" lon="2.44141">
        <ele>883</ele>
        <time>2010-01-01T01:16:49Z</time>
      </trkpt>
      <trkpt lat="42.08944" lon="2.44144">
        <ele>883</ele>
        <time>2010-01-01T01:16:50Z</time>
      </trkpt>
      <trkpt lat="42.08942" lon="2.4415">
        <ele>887</ele>
        <time>2010-01-01T01:16:52Z</time>
      </trkpt>
      <trkpt lat="42.08927" lon="2.44163">
        <ele>906</ele>
        <time>2010-01-01T01:16:59Z</time>
      </trkpt>
      <trkpt lat="42.08909" lon="2.44189">
        <ele>917</ele>
        <time>2010-01-01T01:17:10Z</time>
      </trkpt>
      <trkpt lat="42.08895" lon="2.44203">
        <ele>915</ele>
        <time>2010-01-01T01:17:17Z</time>
      </trkpt>
      <trkpt lat="42.08886" lon="2.4421">
        <ele>914</ele>
        <time>2010-01-01T01:17:21Z</time>
      </trkpt>
      <trkpt lat="42.08872" lon="2.44216">
        <ele>914</ele>
        <time>2010-01-01T01:17:27Z</time>
      </trkpt>
      <trkpt lat="42.0882" lon="2.44234">
        <ele>914</ele>
        <time>2010-01-01T01:17:49Z</time>
      </trkpt>
      <trkpt lat="42.08804" lon="2.44236">
        <ele>916</ele>
        <time>2010-01-01T01:17:55Z</time>
      </trkpt>
      <trkpt lat="42.08795" lon="2.44235">
        <ele>921</ele>
        <time>2010-01-01T01:17:59Z</time>
      </trkpt>
      <trkpt lat="42.08783" lon="2.44236">
        <ele>923</ele>
        <time>2010-01-01T01:18:03Z</time>
      </trkpt>
      <trkpt lat="42.08769" lon="2.44235">
        <ele>929</ele>
        <time>2010-01-01T01:18:09Z</time>
      </trkpt>
      <trkpt lat="42.08762" lon="2.44238">
        <ele>925</ele>
        <time>2010-01-01T01:18:12Z</time>
      </trkpt>
      <trkpt lat="42.0876" lon="2.44242">
        <ele>918</ele>
        <time>2010-01-01T01:18:13Z</time>
      </trkpt>
      <trkpt lat="42.08762" lon="2.44246">
        <ele>912</ele>
        <time>2010-01-01T01:18:15Z</time>
      </trkpt>
      <trkpt lat="42.0879" lon="2.4425">
        <ele>905</ele>
        <time>2010-01-01T01:18:26Z</time>
      </trkpt>
      <trkpt lat="42.08808" lon="2.44254">
        <ele>897</ele>
        <time>2010-01-01T01:18:33Z</time>
      </trkpt>
      <trkpt lat="42.08818" lon="2.44259">
        <ele>890</ele>
        <time>2010-01-01T01:18:38Z</time>
      </trkpt>
      <trkpt lat="42.08837" lon="2.44261">
        <ele>887</ele>
        <time>2010-01-01T01:18:45Z</time>
      </trkpt>
      <trkpt lat="42.08857" lon="2.44255">
        <ele>888</ele>
        <time>2010-01-01T01:18:53Z</time>
      </trkpt>
      <trkpt lat="42.08867" lon="2.44256">
        <ele>885</ele>
        <time>2010-01-01T01:18:58Z</time>
      </trkpt>
      <trkpt lat="42.08877" lon="2.44258">
        <ele>880</ele>
        <time>2010-01-01T01:19:02Z</time>
      </trkpt>
      <trkpt lat="42.08888" lon="2.44259">
        <ele>876</ele>
        <time>2010-01-01T01:19:06Z</time>
      </trkpt>
      <trkpt lat="42.08897" lon="2.44257">
        <ele>875</ele>
        <time>2010-01-01T01:19:09Z</time>
      </trkpt>
      <trkpt lat="42.08913" lon="2.44256">
        <ele>872</ele>
        <time>2010-01-01T01:19:16Z</time>
      </trkpt>
      <trkpt lat="42.08922" lon="2.44252">
        <ele>872</ele>
        <time>2010-01-01T01:19:20Z</time>
      </trkpt>
      <trkpt lat="42.08936" lon="2.44239">
        <ele>875</ele>
        <time>2010-01-01T01:19:27Z</time>
      </trkpt>
      <trkpt lat="42.0894" lon="2.44237">
        <ele>875</ele>
        <time>2010-01-01T01:19:28Z</time>
      </trkpt>
      <trkpt lat="42.08945" lon="2.44237">
        <ele>873</ele>
        <time>2010-01-01T01:19:30Z</time>
      </trkpt>
      <trkpt lat="42.08954" lon="2.44245">
        <ele>868</ele>
        <time>2010-01-01T01:19:34Z</time>
      </trkpt>
      <trkpt lat="42.08958" lon="2.44259">
        <ele>864</ele>
        <time>2010-01-01T01:19:39Z</time>
      </trkpt>
      <trkpt lat="42.08958" lon="2.44263">
        <ele>863</ele>
        <time>2010-01-01T01:19:40Z</time>
      </trkpt>
      <trkpt lat="42.08942" lon="2.443">
        <ele>858</ele>
        <time>2010-01-01T01:19:53Z</time>
      </trkpt>
      <trkpt lat="42.08936" lon="2.44308">
        <ele>856</ele>
        <time>2010-01-01T01:19:57Z</time>
      </trkpt>
      <trkpt lat="42.08943" lon="2.44301">
        <ele>857</ele>
        <time>2010-01-01T01:20:00Z</time>
      </trkpt>
      <trkpt lat="42.08952" lon="2.443">
        <ele>857</ele>
        <time>2010-01-01T01:20:04Z</time>
      </trkpt>
      <trkpt lat="42.08955" lon="2.44297">
        <ele>857</ele>
        <time>2010-01-01T01:20:05Z</time>
      </trkpt>
      <trkpt lat="42.08962" lon="2.443">
        <ele>855</ele>
        <time>2010-01-01T01:20:08Z</time>
      </trkpt>
      <trkpt lat="42.08966" lon="2.443">
        <ele>855</ele>
        <time>2010-01-01T01:20:10Z</time>
      </trkpt>
      <trkpt lat="42.08971" lon="2.44308">
        <ele>853</ele>
        <time>2010-01-01T01:20:13Z</time>
      </trkpt>
      <trkpt lat="42.08973" lon="2.44308">
        <ele>853</ele>
        <time>2010-01-01T01:20:14Z</time>
      </trkpt>
      <trkpt lat="42.08978" lon="2.44306">
        <ele>851</ele>
        <time>2010-01-01T01:20:16Z</time>
      </trkpt>
      <trkpt lat="42.08986" lon="2.44298">
        <ele>850</ele>
        <time>2010-01-01T01:20:20Z</time>
      </trkpt>
      <trkpt lat="42.08995" lon="2.44306">
        <ele>846</ele>
        <time>2010-01-01T01:20:24Z</time>
      </trkpt>
      <trkpt lat="42.08998" lon="2.44311">
        <ele>845</ele>
        <time>2010-01-01T01:20:26Z</time>
      </trkpt>
      <trkpt lat="42.09002" lon="2.44312">
        <ele>843</ele>
        <time>2010-01-01T01:20:28Z</time>
      </trkpt>
      <trkpt lat="42.09012" lon="2.4432">
        <ele>837</ele>
        <time>2010-01-01T01:20:32Z</time>
      </trkpt>
      <trkpt lat="42.09015" lon="2.44325">
        <ele>836</ele>
        <time>2010-01-01T01:20:34Z</time>
      </trkpt>
      <trkpt lat="42.09022" lon="2.44334">
        <ele>832</ele>
        <time>2010-01-01T01:20:38Z</time>
      </trkpt>
      <trkpt lat="42.09032" lon="2.44338">
        <ele>828</ele>
        <time>2010-01-01T01:20:42Z</time>
      </trkpt>
      <trkpt lat="42.09038" lon="2.44342">
        <ele>826</ele>
        <time>2010-01-01T01:20:45Z</time>
      </trkpt>
      <trkpt lat="42.09046" lon="2.44343">
        <ele>823</ele>
        <time>2010-01-01T01:20:48Z</time>
      </trkpt>
      <trkpt lat="42.09055" lon="2.44341">
        <ele>821</ele>
        <time>2010-01-01T01:20:52Z</time>
      </trkpt>
      <trkpt lat="42.09063" lon="2.44332">
        <ele>819</ele>
        <time>2010-01-01T01:20:56Z</time>
      </trkpt>
      <trkpt lat="42.09072" lon="2.44328">
        <ele>816</ele>
        <time>2010-01-01T01:21:00Z</time>
      </trkpt>
      <trkpt lat="42.0909" lon="2.44337">
        <ele>811</ele>
        <time>2010-01-01T01:21:08Z</time>
      </trkpt>
      <trkpt lat="42.09096" lon="2.44341">
        <ele>809</ele>
        <time>2010-01-01T01:21:10Z</time>
      </trkpt>
      <trkpt lat="42.091" lon="2.44341">
        <ele>807</ele>
        <time>2010-01-01T01:21:12Z</time>
      </trkpt>
      <trkpt lat="42.09107" lon="2.44346">
        <ele>805</ele>
        <time>2010-01-01T01:21:15Z</time>
      </trkpt>
      <trkpt lat="42.09111" lon="2.44351">
        <ele>803</ele>
        <time>2010-01-01T01:21:17Z</time>
      </trkpt>
      <trkpt lat="42.09117" lon="2.44363">
        <ele>800</ele>
        <time>2010-01-01T01:21:21Z</time>
      </trkpt>
      <trkpt lat="42.09128" lon="2.44358">
        <ele>794</ele>
        <time>2010-01-01T01:21:26Z</time>
      </trkpt>
      <trkpt lat="42.09139" lon="2.4436">
        <ele>789</ele>
        <time>2010-01-01T01:21:31Z</time>
      </trkpt>
      <trkpt lat="42.09144" lon="2.44355">
        <ele>787</ele>
        <time>2010-01-01T01:21:33Z</time>
      </trkpt>
      <trkpt lat="42.09152" lon="2.44367">
        <ele>783</ele>
        <time>2010-01-01T01:21:38Z</time>
      </trkpt>
      <trkpt lat="42.09154" lon="2.44367">
        <ele>782</ele>
        <time>2010-01-01T01:21:39Z</time>
      </trkpt>
      <trkpt lat="42.09154" lon="2.4436">
        <ele>782</ele>
        <time>2010-01-01T01:21:41Z</time>
      </trkpt>
      <trkpt lat="42.09156" lon="2.44359">
        <ele>781</ele>
        <time>2010-01-01T01:21:41Z</time>
      </trkpt>
      <trkpt lat="42.09156" lon="2.44355">
        <ele>780</ele>
        <time>2010-01-01T01:21:42Z</time>
      </trkpt>
      <trkpt lat="42.09161" lon="2.44351">
        <ele>778</ele>
        <time>2010-01-01T01:21:45Z</time>
      </trkpt>
      <trkpt lat="42.09187" lon="2.44383">
        <ele>769</ele>
        <time>2010-01-01T01:21:59Z</time>
      </trkpt>
      <trkpt lat="42.09197" lon="2.44388">
        <ele>765</ele>
        <time>2010-01-01T01:22:03Z</time>
      </trkpt>
      <trkpt lat="42.09205" lon="2.44386">
        <ele>762</ele>
        <time>2010-01-01T01:22:06Z</time>
      </trkpt>
      <trkpt lat="42.0921" lon="2.4438">
        <ele>760</ele>
        <time>2010-01-01T01:22:09Z</time>
      </trkpt>
      <trkpt lat="42.09215" lon="2.44367">
        <ele>755</ele>
        <time>2010-01-01T01:22:13Z</time>
      </trkpt>
      <trkpt lat="42.09221" lon="2.44366">
        <ele>753</ele>
        <time>2010-01-01T01:22:16Z</time>
      </trkpt>
      <trkpt lat="42.09225" lon="2.44363">
        <ele>751</ele>
        <time>2010-01-01T01:22:18Z</time>
      </trkpt>
      <trkpt lat="42.09236" lon="2.4436">
        <ele>748</ele>
        <time>2010-01-01T01:22:22Z</time>
      </trkpt>
      <trkpt lat="42.09242" lon="2.44358">
        <ele>746</ele>
        <time>2010-01-01T01:22:24Z</time>
      </trkpt>
      <trkpt lat="42.09249" lon="2.44359">
        <ele>744</ele>
        <time>2010-01-01T01:22:27Z</time>
      </trkpt>
      <trkpt lat="42.09253" lon="2.44356">
        <ele>743</ele>
        <time>2010-01-01T01:22:29Z</time>
      </trkpt>
      <trkpt lat="42.09258" lon="2.44355">
        <ele>740</ele>
        <time>2010-01-01T01:22:31Z</time>
      </trkpt>
      <trkpt lat="42.09272" lon="2.44356">
        <ele>736</ele>
        <time>2010-01-01T01:22:37Z</time>
      </trkpt>
      <trkpt lat="42.09276" lon="2.44351">
        <ele>733</ele>
        <time>2010-01-01T01:22:39Z</time>
      </trkpt>
      <trkpt lat="42.09286" lon="2.44355">
        <ele>730</ele>
        <time>2010-01-01T01:22:43Z</time>
      </trkpt>
      <trkpt lat="42.0929" lon="2.44354">
        <ele>727</ele>
        <time>2010-01-01T01:22:45Z</time>
      </trkpt>
      <trkpt lat="42.09294" lon="2.44356">
        <ele>725</ele>
        <time>2010-01-01T01:22:47Z</time>
      </trkpt>
      <trkpt lat="42.09301" lon="2.44355">
        <ele>722</ele>
        <time>2010-01-01T01:22:49Z</time>
      </trkpt>
      <trkpt lat="42.09313" lon="2.4435">
        <ele>716</ele>
        <time>2010-01-01T01:22:54Z</time>
      </trkpt>
      <trkpt lat="42.09319" lon="2.4435">
        <ele>713</ele>
        <time>2010-01-01T01:22:56Z</time>
      </trkpt>
      <trkpt lat="42.09332" lon="2.4434">
        <ele>706</ele>
        <time>2010-01-01T01:23:03Z</time>
      </trkpt>
      <trkpt lat="42.09335" lon="2.44334">
        <ele>704</ele>
        <time>2010-01-01T01:23:05Z</time>
      </trkpt>
      <trkpt lat="42.09346" lon="2.44331">
        <ele>698</ele>
        <time>2010-01-01T01:23:09Z</time>
      </trkpt>
      <trkpt lat="42.09355" lon="2.44336">
        <ele>694</ele>
        <time>2010-01-01T01:23:13Z</time>
      </trkpt>
      <trkpt lat="42.09374" lon="2.44336">
        <ele>681</ele>
        <time>2010-01-01T01:23:21Z</time>
      </trkpt>
      <trkpt lat="42.09378" lon="2.44335">
        <ele>679</ele>
        <time>2010-01-01T01:23:22Z</time>
      </trkpt>
      <trkpt lat="42.09381" lon="2.44332">
        <ele>676</ele>
        <time>2010-01-01T01:23:24Z</time>
      </trkpt>
      <trkpt lat="42.09393" lon="2.44335">
        <ele>668</ele>
        <time>2010-01-01T01:23:29Z</time>
      </trkpt>
      <trkpt lat="42.09403" lon="2.44333">
        <ele>660</ele>
        <time>2010-01-01T01:23:33Z</time>
      </trkpt>
      <trkpt lat="42.09408" lon="2.44343">
        <ele>656</ele>
        <time>2010-01-01T01:23:36Z</time>
      </trkpt>
      <trkpt lat="42.09408" lon="2.44346">
        <ele>656</ele>
        <time>2010-01-01T01:23:37Z</time>
      </trkpt>
      <trkpt lat="42.0941" lon="2.44346">
        <ele>655</ele>
        <time>2010-01-01T01:23:38Z</time>
      </trkpt>
      <trkpt lat="42.09412" lon="2.44353">
        <ele>653</ele>
        <time>2010-01-01T01:23:40Z</time>
      </trkpt>
      <trkpt lat="42.09415" lon="2.44353">
        <ele>651</ele>
        <time>2010-01-01T01:23:41Z</time>
      </trkpt>
      <trkpt lat="42.09417" lon="2.44361">
        <ele>649</ele>
        <time>2010-01-01T01:23:44Z</time>
      </trkpt>
      <trkpt lat="42.09419" lon="2.44361">
        <ele>648</ele>
        <time>2010-01-01T01:23:44Z</time>
      </trkpt>
      <trkpt lat="42.0942" lon="2.44367">
        <ele>646</ele>
        <time>2010-01-01T01:23:46Z</time>
      </trkpt>
      <trkpt lat="42.09425" lon="2.44374">
        <ele>642</ele>
        <time>2010-01-01T01:23:49Z</time>
      </trkpt>
      <trkpt lat="42.09435" lon="2.44371">
        <ele>636</ele>
        <time>2010-01-01T01:23:53Z</time>
      </trkpt>
      <trkpt lat="42.09437" lon="2.44372">
        <ele>635</ele>
        <time>2010-01-01T01:23:54Z</time>
      </trkpt>
      <trkpt lat="42.09441" lon="2.44367">
        <ele>632</ele>
        <time>2010-01-01T01:23:56Z</time>
      </trkpt>
      <trkpt lat="42.09441" lon="2.44364">
        <ele>632</ele>
        <time>2010-01-01T01:23:57Z</time>
      </trkpt>
      <trkpt lat="42.09446" lon="2.44366">
        <ele>629</ele>
        <time>2010-01-01T01:23:59Z</time>
      </trkpt>
      <trkpt lat="42.0945" lon="2.44363">
        <ele>627</ele>
        <time>2010-01-01T01:24:01Z</time>
      </trkpt>
      <trkpt lat="42.09453" lon="2.44364">
        <ele>626</ele>
        <time>2010-01-01T01:24:02Z</time>
      </trkpt>
      <trkpt lat="42.09454" lon="2.44367">
        <ele>625</ele>
        <time>2010-01-01T01:24:03Z</time>
      </trkpt>
      <trkpt lat="42.09454" lon="2.44378">
        <ele>624</ele>
        <time>2010-01-01T01:24:07Z</time>
      </trkpt>
      <trkpt lat="42.09457" lon="2.44388">
        <ele>622</ele>
        <time>2010-01-01T01:24:10Z</time>
      </trkpt>
      <trkpt lat="42.09453" lon="2.44397">
        <ele>622</ele>
        <time>2010-01-01T01:24:13Z</time>
      </trkpt>
      <trkpt lat="42.09457" lon="2.44407">
        <ele>617</ele>
        <time>2010-01-01T01:24:16Z</time>
      </trkpt>
      <trkpt lat="42.09456" lon="2.44409">
        <ele>617</ele>
        <time>2010-01-01T01:24:17Z</time>
      </trkpt>
      <trkpt lat="42.09458" lon="2.44414">
        <ele>615</ele>
        <time>2010-01-01T01:24:19Z</time>
      </trkpt>
      <trkpt lat="42.09455" lon="2.44428">
        <ele>612</ele>
        <time>2010-01-01T01:24:23Z</time>
      </trkpt>
      <trkpt lat="42.09455" lon="2.44442">
        <ele>608</ele>
        <time>2010-01-01T01:24:27Z</time>
      </trkpt>
      <trkpt lat="42.09453" lon="2.44447">
        <ele>608</ele>
        <time>2010-01-01T01:24:29Z</time>
      </trkpt>
      <trkpt lat="42.09454" lon="2.44454">
        <ele>606</ele>
        <time>2010-01-01T01:24:31Z</time>
      </trkpt>
      <trkpt lat="42.0946" lon="2.44467">
        <ele>602</ele>
        <time>2010-01-01T01:24:35Z</time>
      </trkpt>
      <trkpt lat="42.09462" lon="2.4447">
        <ele>600</ele>
        <time>2010-01-01T01:24:37Z</time>
      </trkpt>
      <trkpt lat="42.09467" lon="2.44457">
        <ele>600</ele>
        <time>2010-01-01T01:24:41Z</time>
      </trkpt>
      <trkpt lat="42.09475" lon="2.44453">
        <ele>598</ele>
        <time>2010-01-01T01:24:44Z</time>
      </trkpt>
      <trkpt lat="42.0948" lon="2.44452">
        <ele>596</ele>
        <time>2010-01-01T01:24:47Z</time>
      </trkpt>
      <trkpt lat="42.09489" lon="2.44455">
        <ele>593</ele>
        <time>2010-01-01T01:24:50Z</time>
      </trkpt>
      <trkpt lat="42.09492" lon="2.44462">
        <ele>590</ele>
        <time>2010-01-01T01:24:53Z</time>
      </trkpt>
      <trkpt lat="42.0949" lon="2.44478">
        <ele>588</ele>
        <time>2010-01-01T01:24:58Z</time>
      </trkpt>
      <trkpt lat="42.0949" lon="2.44496">
        <ele>586</ele>
        <time>2010-01-01T01:25:03Z</time>
      </trkpt>
      <trkpt lat="42.09491" lon="2.44499">
        <ele>585</ele>
        <time>2010-01-01T01:25:04Z</time>
      </trkpt>
      <trkpt lat="42.09496" lon="2.44497">
        <ele>583</ele>
        <time>2010-01-01T01:25:06Z</time>
      </trkpt>
      <trkpt lat="42.09503" lon="2.44493">
        <ele>582</ele>
        <time>2010-01-01T01:25:09Z</time>
      </trkpt>
      <trkpt lat="42.09511" lon="2.44491">
        <ele>580</ele>
        <time>2010-01-01T01:25:12Z</time>
      </trkpt>
      <trkpt lat="42.09514" lon="2.44488">
        <ele>579</ele>
        <time>2010-01-01T01:25:14Z</time>
      </trkpt>
      <trkpt lat="42.09519" lon="2.4448">
        <ele>578</ele>
        <time>2010-01-01T01:25:17Z</time>
      </trkpt>
      <trkpt lat="42.09526" lon="2.44481">
        <ele>575</ele>
        <time>2010-01-01T01:25:20Z</time>
      </trkpt>
      <trkpt lat="42.09528" lon="2.44483">
        <ele>574</ele>
        <time>2010-01-01T01:25:21Z</time>
      </trkpt>
      <trkpt lat="42.09534" lon="2.44484">
        <ele>572</ele>
        <time>2010-01-01T01:25:23Z</time>
      </trkpt>
      <trkpt lat="42.09539" lon="2.44475">
        <ele>570</ele>
        <time>2010-01-01T01:25:26Z</time>
      </trkpt>
      <trkpt lat="42.09546" lon="2.44471">
        <ele>568</ele>
        <time>2010-01-01T01:25:29Z</time>
      </trkpt>
      <trkpt lat="42.09553" lon="2.44476">
        <ele>564</ele>
        <time>2010-01-01T01:25:33Z</time>
      </trkpt>
      <trkpt lat="42.09556" lon="2.44475">
        <ele>563</ele>
        <time>2010-01-01T01:25:34Z</time>
      </trkpt>
      <trkpt lat="42.09563" lon="2.44481">
        <ele>561</ele>
        <time>2010-01-01T01:25:37Z</time>
      </trkpt>
      <trkpt lat="42.09565" lon="2.44479">
        <ele>561</ele>
        <time>2010-01-01T01:25:38Z</time>
      </trkpt>
      <trkpt lat="42.09565" lon="2.44476">
        <ele>561</ele>
        <time>2010-01-01T01:25:39Z</time>
      </trkpt>
      <trkpt lat="42.09567" lon="2.44476">
        <ele>560</ele>
        <time>2010-01-01T01:25:40Z</time>
      </trkpt>
      <trkpt lat="42.09569" lon="2.44479">
        <ele>560</ele>
        <time>2010-01-01T01:25:41Z</time>
      </trkpt>
      <trkpt lat="42.09571" lon="2.44477">
        <ele>559</ele>
        <time>2010-01-01T01:25:42Z</time>
      </trkpt>
      <trkpt lat="42.09573" lon="2.44477">
        <ele>559</ele>
        <time>2010-01-01T01:25:43Z</time>
      </trkpt>
      <trkpt lat="42.09572" lon="2.44483">
        <ele>558</ele>
        <time>2010-01-01T01:25:45Z</time>
      </trkpt>
      <trkpt lat="42.0958" lon="2.44476">
        <ele>557</ele>
        <time>2010-01-01T01:25:48Z</time>
      </trkpt>
      <trkpt lat="42.09589" lon="2.44482">
        <ele>553</ele>
        <time>2010-01-01T01:25:52Z</time>
      </trkpt>
      <trkpt lat="42.09591" lon="2.44481">
        <ele>551</ele>
        <time>2010-01-01T01:25:53Z</time>
      </trkpt>
      <trkpt lat="42.09593" lon="2.44472">
        <ele>551</ele>
        <time>2010-01-01T01:25:56Z</time>
      </trkpt>
      <trkpt lat="42.09592" lon="2.44463">
        <ele>552</ele>
        <time>2010-01-01T01:25:59Z</time>
      </trkpt>
      <trkpt lat="42.0961" lon="2.44459">
        <ele>543</ele>
        <time>2010-01-01T01:26:06Z</time>
      </trkpt>
      <trkpt lat="42.09612" lon="2.4446">
        <ele>542</ele>
        <time>2010-01-01T01:26:07Z</time>
      </trkpt>
      <trkpt lat="42.09615" lon="2.44466">
        <ele>540</ele>
        <time>2010-01-01T01:26:09Z</time>
      </trkpt>
      <trkpt lat="42.09617" lon="2.44471">
        <ele>539</ele>
        <time>2010-01-01T01:26:10Z</time>
      </trkpt>
      <trkpt lat="42.09616" lon="2.4448">
        <ele>539</ele>
        <time>2010-01-01T01:26:13Z</time>
      </trkpt>
      <trkpt lat="42.0962" lon="2.44482">
        <ele>537</ele>
        <time>2010-01-01T01:26:15Z</time>
      </trkpt>
      <trkpt lat="42.09623" lon="2.44478">
        <ele>536</ele>
        <time>2010-01-01T01:26:17Z</time>
      </trkpt>
      <trkpt lat="42.09628" lon="2.4446">
        <ele>535</ele>
        <time>2010-01-01T01:26:22Z</time>
      </trkpt>
      <trkpt lat="42.09631" lon="2.44459">
        <ele>535</ele>
        <time>2010-01-01T01:26:23Z</time>
      </trkpt>
      <trkpt lat="42.09635" lon="2.44462">
        <ele>533</ele>
        <time>2010-01-01T01:26:25Z</time>
      </trkpt>
      <trkpt lat="42.0964" lon="2.44475">
        <ele>530</ele>
        <time>2010-01-01T01:26:30Z</time>
      </trkpt>
      <trkpt lat="42.09645" lon="2.44477">
        <ele>530</ele>
        <time>2010-01-01T01:26:32Z</time>
      </trkpt>
      <trkpt lat="42.09651" lon="2.44492">
        <ele>529</ele>
        <time>2010-01-01T01:26:37Z</time>
      </trkpt>
      <trkpt lat="42.0966" lon="2.44499">
        <ele>528</ele>
        <time>2010-01-01T01:26:41Z</time>
      </trkpt>
      <trkpt lat="42.09667" lon="2.445">
        <ele>527</ele>
        <time>2010-01-01T01:26:43Z</time>
      </trkpt>
      <trkpt lat="42.09672" lon="2.44504">
        <ele>527</ele>
        <time>2010-01-01T01:26:46Z</time>
      </trkpt>
      <trkpt lat="42.09679" lon="2.44512">
        <ele>526</ele>
        <time>2010-01-01T01:26:50Z</time>
      </trkpt>
      <trkpt lat="42.09687" lon="2.44517">
        <ele>525</ele>
        <time>2010-01-01T01:26:53Z</time>
      </trkpt>
      <trkpt lat="42.09692" lon="2.44517">
        <ele>524</ele>
        <time>2010-01-01T01:26:55Z</time>
      </trkpt>
      <trkpt lat="42.09704" lon="2.44512">
        <ele>523</ele>
        <time>2010-01-01T01:27:00Z</time>
      </trkpt>
      <trkpt lat="42.09707" lon="2.44512">
        <ele>523</ele>
        <time>2010-01-01T01:27:01Z</time>
      </trkpt>
      <trkpt lat="42.09716" lon="2.4452">
        <ele>520</ele>
        <time>2010-01-01T01:27:06Z</time>
      </trkpt>
      <trkpt lat="42.09723" lon="2.4452">
        <ele>519</ele>
        <time>2010-01-01T01:27:08Z</time>
      </trkpt>
      <trkpt lat="42.09729" lon="2.44516">
        <ele>519</ele>
        <time>2010-01-01T01:27:11Z</time>
      </trkpt>
      <trkpt lat="42.0974" lon="2.44516">
        <ele>518</ele>
        <time>2010-01-01T01:27:16Z</time>
      </trkpt>
      <trkpt lat="42.09755" lon="2.44507">
        <ele>518</ele>
        <time>2010-01-01T01:27:22Z</time>
      </trkpt>
      <trkpt lat="42.09762" lon="2.44505">
        <ele>518</ele>
        <time>2010-01-01T01:27:25Z</time>
      </trkpt>
      <trkpt lat="42.09773" lon="2.44502">
        <ele>518</ele>
        <time>2010-01-01T01:27:29Z</time>
      </trkpt>
      <trkpt lat="42.09782" lon="2.44506">
        <ele>517</ele>
        <time>2010-01-01T01:27:33Z</time>
      </trkpt>
      <trkpt lat="42.0979" lon="2.44514">
        <ele>517</ele>
        <time>2010-01-01T01:27:37Z</time>
      </trkpt>
      <trkpt lat="42.09801" lon="2.44531">
        <ele>516</ele>
        <time>2010-01-01T01:27:44Z</time>
      </trkpt>
      <trkpt lat="42.09816" lon="2.44548">
        <ele>513</ele>
        <time>2010-01-01T01:27:52Z</time>
      </trkpt>
      <trkpt lat="42.0982" lon="2.44554">
        <ele>512</ele>
        <time>2010-01-01T01:27:54Z</time>
      </trkpt>
      <trkpt lat="42.09827" lon="2.4458">
        <ele>509</ele>
        <time>2010-01-01T01:28:02Z</time>
      </trkpt>
      <trkpt lat="42.09844" lon="2.44617">
        <ele>508</ele>
        <time>2010-01-01T01:28:15Z</time>
      </trkpt>
      <trkpt lat="42.09845" lon="2.44622">
        <ele>508</ele>
        <time>2010-01-01T01:28:17Z</time>
      </trkpt>
      <trkpt lat="42.09836" lon="2.44636">
        <ele>509</ele>
        <time>2010-01-01T01:28:22Z</time>
      </trkpt>
      <trkpt lat="42.09836" lon="2.44641">
        <ele>509</ele>
        <time>2010-01-01T01:28:24Z</time>
      </trkpt>
      <trkpt lat="42.09837" lon="2.44634">
        <ele>509</ele>
        <time>2010-01-01T01:28:26Z</time>
      </trkpt>
      <trkpt lat="42.09846" lon="2.44623">
        <ele>508</ele>
        <time>2010-01-01T01:28:31Z</time>
      </trkpt>
      <trkpt lat="42.09849" lon="2.44622">
        <ele>508</ele>
        <time>2010-01-01T01:28:32Z</time>
      </trkpt>
      <trkpt lat="42.09857" lon="2.44624">
        <ele>507</ele>
        <time>2010-01-01T01:28:35Z</time>
      </trkpt>
      <trkpt lat="42.09896" lon="2.44647">
        <ele>503</ele>
        <time>2010-01-01T01:28:52Z</time>
      </trkpt>
      <trkpt lat="42.09919" lon="2.44686">
        <ele>499</ele>
        <time>2010-01-01T01:29:07Z</time>
      </trkpt>
      <trkpt lat="42.09944" lon="2.44732">
        <ele>497</ele>
        <time>2010-01-01T01:29:24Z</time>
      </trkpt>
      <trkpt lat="42.10058" lon="2.44985">
        <ele>495</ele>
        <time>2010-01-01T01:30:52Z</time>
      </trkpt>
      <trkpt lat="42.10078" lon="2.45025">
        <ele>496</ele>
        <time>2010-01-01T01:31:06Z</time>
      </trkpt>
      <trkpt lat="42.10088" lon="2.45041">
        <ele>495</ele>
        <time>2010-01-01T01:31:12Z</time>
      </trkpt>
      <trkpt lat="42.1009" lon="2.45045">
        <ele>495</ele>
        <time>2010-01-01T01:31:14Z</time>
      </trkpt>
      <trkpt lat="42.10088" lon="2.4505">
        <ele>495</ele>
        <time>2010-01-01T01:31:15Z</time>
      </trkpt>
      <trkpt lat="42.10079" lon="2.45063">
        <ele>494</ele>
        <time>2010-01-01T01:31:20Z</time>
      </trkpt>
      <trkpt lat="42.10053" lon="2.45089">
        <ele>494</ele>
        <time>2010-01-01T01:31:33Z</time>
      </trkpt>
      <trkpt lat="42.10009" lon="2.4513">
        <ele>492</ele>
        <time>2010-01-01T01:31:55Z</time>
      </trkpt>
      <trkpt lat="42.09992" lon="2.45143">
        <ele>492</ele>
        <time>2010-01-01T01:32:03Z</time>
      </trkpt>
      <trkpt lat="42.09977" lon="2.4515">
        <ele>492</ele>
        <time>2010-01-01T01:32:09Z</time>
      </trkpt>
      <trkpt lat="42.09878" lon="2.45183">
        <ele>495</ele>
        <time>2010-01-01T01:32:50Z</time>
      </trkpt>
      <trkpt lat="42.09866" lon="2.45189">
        <ele>495</ele>
        <time>2010-01-01T01:32:55Z</time>
      </trkpt>
      <trkpt lat="42.09834" lon="2.45211">
        <ele>494</ele>
        <time>2010-01-01T01:33:09Z</time>
      </trkpt>
      <trkpt lat="42.09793" lon="2.45245">
        <ele>494</ele>
        <time>2010-01-01T01:33:29Z</time>
      </trkpt>
      <trkpt lat="42.09773" lon="2.45264">
        <ele>494</ele>
        <time>2010-01-01T01:33:39Z</time>
      </trkpt>
      <trkpt lat="42.09707" lon="2.45321">
        <ele>492</ele>
        <time>2010-01-01T01:34:10Z</time>
      </trkpt>
      <trkpt lat="42.09698" lon="2.45333">
        <ele>492</ele>
        <time>2010-01-01T01:34:15Z</time>
      </trkpt>
      <trkpt lat="42.09681" lon="2.45363">
        <ele>494</ele>
        <time>2010-01-01T01:34:26Z</time>
      </trkpt>
      <trkpt lat="42.09678" lon="2.45364">
        <ele>494</ele>
        <time>2010-01-01T01:34:27Z</time>
      </trkpt>
      <trkpt lat="42.09675" lon="2.45364">
        <ele>494</ele>
        <time>2010-01-01T01:34:29Z</time>
      </trkpt>
      <trkpt lat="42.09668" lon="2.45356">
        <ele>494</ele>
        <time>2010-01-01T01:34:32Z</time>
      </trkpt>
      <trkpt lat="42.09629" lon="2.45276">
        <ele>497</ele>
        <time>2010-01-01T01:35:00Z</time>
      </trkpt>
      <trkpt lat="42.09614" lon="2.45247">
        <ele>499</ele>
        <time>2010-01-01T01:35:11Z</time>
      </trkpt>
      <trkpt lat="42.09602" lon="2.45219">
        <ele>501</ele>
        <time>2010-01-01T01:35:21Z</time>
      </trkpt>
      <trkpt lat="42.09596" lon="2.45197">
        <ele>504</ele>
        <time>2010-01-01T01:35:28Z</time>
      </trkpt>
      <trkpt lat="42.09595" lon="2.45171">
        <ele>507</ele>
        <time>2010-01-01T01:35:35Z</time>
      </trkpt>
      <trkpt lat="42.09576" lon="2.45081">
        <ele>513</ele>
        <time>2010-01-01T01:36:03Z</time>
      </trkpt>
      <trkpt lat="42.09572" lon="2.45072">
        <ele>515</ele>
        <time>2010-01-01T01:36:06Z</time>
      </trkpt>
      <trkpt lat="42.0957" lon="2.45071">
        <ele>516</ele>
        <time>2010-01-01T01:36:07Z</time>
      </trkpt>
      <trkpt lat="42.09569" lon="2.45074">
        <ele>517</ele>
        <time>2010-01-01T01:36:08Z</time>
      </trkpt>
      <trkpt lat="42.09567" lon="2.45095">
        <ele>517</ele>
        <time>2010-01-01T01:36:14Z</time>
      </trkpt>
      <trkpt lat="42.09557" lon="2.45113">
        <ele>521</ele>
        <time>2010-01-01T01:36:21Z</time>
      </trkpt>
      <trkpt lat="42.09543" lon="2.4512">
        <ele>525</ele>
        <time>2010-01-01T01:36:27Z</time>
      </trkpt>
      <trkpt lat="42.09537" lon="2.45121">
        <ele>526</ele>
        <time>2010-01-01T01:36:30Z</time>
      </trkpt>
      <trkpt lat="42.09525" lon="2.45117">
        <ele>530</ele>
        <time>2010-01-01T01:36:35Z</time>
      </trkpt>
      <trkpt lat="42.09524" lon="2.45119">
        <ele>530</ele>
        <time>2010-01-01T01:36:35Z</time>
      </trkpt>
      <trkpt lat="42.09521" lon="2.45124">
        <ele>531</ele>
        <time>2010-01-01T01:36:37Z</time>
      </trkpt>
      <trkpt lat="42.09505" lon="2.45128">
        <ele>534</ele>
        <time>2010-01-01T01:36:44Z</time>
      </trkpt>
      <trkpt lat="42.09498" lon="2.45132">
        <ele>536</ele>
        <time>2010-01-01T01:36:47Z</time>
      </trkpt>
      <trkpt lat="42.09495" lon="2.45139">
        <ele>536</ele>
        <time>2010-01-01T01:36:49Z</time>
      </trkpt>
      <trkpt lat="42.09487" lon="2.45149">
        <ele>536</ele>
        <time>2010-01-01T01:36:54Z</time>
      </trkpt>
      <trkpt lat="42.09464" lon="2.45151">
        <ele>540</ele>
        <time>2010-01-01T01:37:03Z</time>
      </trkpt>
      <trkpt lat="42.09457" lon="2.45151">
        <ele>541</ele>
        <time>2010-01-01T01:37:06Z</time>
      </trkpt>
      <trkpt lat="42.09425" lon="2.45158">
        <ele>538</ele>
        <time>2010-01-01T01:37:19Z</time>
      </trkpt>
      <trkpt lat="42.0942" lon="2.45155">
        <ele>539</ele>
        <time>2010-01-01T01:37:21Z</time>
      </trkpt>
      <trkpt lat="42.09412" lon="2.45148">
        <ele>540</ele>
        <time>2010-01-01T01:37:25Z</time>
      </trkpt>
      <trkpt lat="42.094" lon="2.4513">
        <ele>542</ele>
        <time>2010-01-01T01:37:32Z</time>
      </trkpt>
      <trkpt lat="42.09397" lon="2.45125">
        <ele>543</ele>
        <time>2010-01-01T01:37:34Z</time>
      </trkpt>
      <trkpt lat="42.0939" lon="2.45105">
        <ele>547</ele>
        <time>2010-01-01T01:37:40Z</time>
      </trkpt>
      <trkpt lat="42.09374" lon="2.45089">
        <ele>550</ele>
        <time>2010-01-01T01:37:48Z</time>
      </trkpt>
      <trkpt lat="42.09369" lon="2.45074">
        <ele>552</ele>
        <time>2010-01-01T01:37:53Z</time>
      </trkpt>
      <trkpt lat="42.0935" lon="2.45048">
        <ele>556</ele>
        <time>2010-01-01T01:38:04Z</time>
      </trkpt>
      <trkpt lat="42.09337" lon="2.45038">
        <ele>558</ele>
        <time>2010-01-01T01:38:10Z</time>
      </trkpt>
      <trkpt lat="42.09324" lon="2.45022">
        <ele>564</ele>
        <time>2010-01-01T01:38:17Z</time>
      </trkpt>
      <trkpt lat="42.09316" lon="2.45016">
        <ele>566</ele>
        <time>2010-01-01T01:38:21Z</time>
      </trkpt>
      <trkpt lat="42.09296" lon="2.45008">
        <ele>571</ele>
        <time>2010-01-01T01:38:29Z</time>
      </trkpt>
      <trkpt lat="42.09288" lon="2.4501">
        <ele>574</ele>
        <time>2010-01-01T01:38:32Z</time>
      </trkpt>
      <trkpt lat="42.09282" lon="2.45017">
        <ele>575</ele>
        <time>2010-01-01T01:38:36Z</time>
      </trkpt>
      <trkpt lat="42.0928" lon="2.45025">
        <ele>575</ele>
        <time>2010-01-01T01:38:38Z</time>
      </trkpt>
      <trkpt lat="42.09276" lon="2.45031">
        <ele>576</ele>
        <time>2010-01-01T01:38:40Z</time>
      </trkpt>
      <trkpt lat="42.09275" lon="2.45034">
        <ele>576</ele>
        <time>2010-01-01T01:38:41Z</time>
      </trkpt>
      <trkpt lat="42.09266" lon="2.45049">
        <ele>577</ele>
        <time>2010-01-01T01:38:47Z</time>
      </trkpt>
      <trkpt lat="42.09256" lon="2.4506">
        <ele>579</ele>
        <time>2010-01-01T01:38:52Z</time>
      </trkpt>
      <trkpt lat="42.09251" lon="2.45069">
        <ele>580</ele>
        <time>2010-01-01T01:38:56Z</time>
      </trkpt>
      <trkpt lat="42.09245" lon="2.45071">
        <ele>580</ele>
        <time>2010-01-01T01:38:58Z</time>
      </trkpt>
      <trkpt lat="42.09241" lon="2.45069">
        <ele>580</ele>
        <time>2010-01-01T01:39:00Z</time>
      </trkpt>
      <trkpt lat="42.0923" lon="2.45072">
        <ele>580</ele>
        <time>2010-01-01T01:39:04Z</time>
      </trkpt>
      <trkpt lat="42.09224" lon="2.45077">
        <ele>579</ele>
        <time>2010-01-01T01:39:07Z</time>
      </trkpt>
      <trkpt lat="42.09216" lon="2.45069">
        <ele>578</ele>
        <time>2010-01-01T01:39:11Z</time>
      </trkpt>
      <trkpt lat="42.09211" lon="2.45061">
        <ele>578</ele>
        <time>2010-01-01T01:39:14Z</time>
      </trkpt>
      <trkpt lat="42.09205" lon="2.45053">
        <ele>578</ele>
        <time>2010-01-01T01:39:18Z</time>
      </trkpt>
      <trkpt lat="42.09198" lon="2.4504">
        <ele>580</ele>
        <time>2010-01-01T01:39:23Z</time>
      </trkpt>
      <trkpt lat="42.09178" lon="2.45016">
        <ele>580</ele>
        <time>2010-01-01T01:39:33Z</time>
      </trkpt>
      <trkpt lat="42.09168" lon="2.44992">
        <ele>582</ele>
        <time>2010-01-01T01:39:41Z</time>
      </trkpt>
      <trkpt lat="42.09159" lon="2.44982">
        <ele>582</ele>
        <time>2010-01-01T01:39:46Z</time>
      </trkpt>
      <trkpt lat="42.09155" lon="2.44973">
        <ele>583</ele>
        <time>2010-01-01T01:39:49Z</time>
      </trkpt>
      <trkpt lat="42.09144" lon="2.44958">
        <ele>584</ele>
        <time>2010-01-01T01:39:55Z</time>
      </trkpt>
      <trkpt lat="42.09118" lon="2.4494">
        <ele>583</ele>
        <time>2010-01-01T01:40:07Z</time>
      </trkpt>
      <trkpt lat="42.0911" lon="2.44931">
        <ele>584</ele>
        <time>2010-01-01T01:40:11Z</time>
      </trkpt>
      <trkpt lat="42.09102" lon="2.44926">
        <ele>584</ele>
        <time>2010-01-01T01:40:15Z</time>
      </trkpt>
      <trkpt lat="42.09088" lon="2.44923">
        <ele>583</ele>
        <time>2010-01-01T01:40:20Z</time>
      </trkpt>
      <trkpt lat="42.09073" lon="2.44912">
        <ele>585</ele>
        <time>2010-01-01T01:40:27Z</time>
      </trkpt>
      <trkpt lat="42.0906" lon="2.44908">
        <ele>585</ele>
        <time>2010-01-01T01:40:33Z</time>
      </trkpt>
      <trkpt lat="42.09054" lon="2.44904">
        <ele>586</ele>
        <time>2010-01-01T01:40:35Z</time>
      </trkpt>
      <trkpt lat="42.09045" lon="2.44901">
        <ele>587</ele>
        <time>2010-01-01T01:40:39Z</time>
      </trkpt>
      <trkpt lat="42.09016" lon="2.44885">
        <ele>593</ele>
        <time>2010-01-01T01:40:52Z</time>
      </trkpt>
      <trkpt lat="42.08989" lon="2.44877">
        <ele>593</ele>
        <time>2010-01-01T01:41:03Z</time>
      </trkpt>
      <trkpt lat="42.08978" lon="2.4488">
        <ele>591</ele>
        <time>2010-01-01T01:41:07Z</time>
      </trkpt>
      <trkpt lat="42.0897" lon="2.4488">
        <ele>590</ele>
        <time>2010-01-01T01:41:10Z</time>
      </trkpt>
      <trkpt lat="42.08959" lon="2.44879">
        <ele>590</ele>
        <time>2010-01-01T01:41:15Z</time>
      </trkpt>
      <trkpt lat="42.08937" lon="2.44872">
        <ele>592</ele>
        <time>2010-01-01T01:41:24Z</time>
      </trkpt>
      <trkpt lat="42.08926" lon="2.44872">
        <ele>591</ele>
        <time>2010-01-01T01:41:28Z</time>
      </trkpt>
      <trkpt lat="42.08914" lon="2.44875">
        <ele>589</ele>
        <time>2010-01-01T01:41:33Z</time>
      </trkpt>
      <trkpt lat="42.089" lon="2.44873">
        <ele>588</ele>
        <time>2010-01-01T01:41:39Z</time>
      </trkpt>
      <trkpt lat="42.08889" lon="2.44877">
        <ele>585</ele>
        <time>2010-01-01T01:41:43Z</time>
      </trkpt>
      <trkpt lat="42.08883" lon="2.44876">
        <ele>586</ele>
        <time>2010-01-01T01:41:46Z</time>
      </trkpt>
      <trkpt lat="42.08874" lon="2.44885">
        <ele>583</ele>
        <time>2010-01-01T01:41:50Z</time>
      </trkpt>
      <trkpt lat="42.08868" lon="2.44887">
        <ele>583</ele>
        <time>2010-01-01T01:41:53Z</time>
      </trkpt>
      <trkpt lat="42.08852" lon="2.44887">
        <ele>584</ele>
        <time>2010-01-01T01:41:59Z</time>
      </trkpt>
      <trkpt lat="42.08844" lon="2.44883">
        <ele>585</ele>
        <time>2010-01-01T01:42:03Z</time>
      </trkpt>
      <trkpt lat="42.08839" lon="2.44878">
        <ele>587</ele>
        <time>2010-01-01T01:42:05Z</time>
      </trkpt>
      <trkpt lat="42.08825" lon="2.44861">
        <ele>593</ele>
        <time>2010-01-01T01:42:13Z</time>
      </trkpt>
      <trkpt lat="42.08817" lon="2.44848">
        <ele>601</ele>
        <time>2010-01-01T01:42:18Z</time>
      </trkpt>
      <trkpt lat="42.08808" lon="2.44843">
        <ele>604</ele>
        <time>2010-01-01T01:42:21Z</time>
      </trkpt>
      <trkpt lat="42.088" lon="2.44841">
        <ele>605</ele>
        <time>2010-01-01T01:42:25Z</time>
      </trkpt>
      <trkpt lat="42.08793" lon="2.44841">
        <ele>605</ele>
        <time>2010-01-01T01:42:28Z</time>
      </trkpt>
      <trkpt lat="42.08778" lon="2.44835">
        <ele>607</ele>
        <time>2010-01-01T01:42:34Z</time>
      </trkpt>
      <trkpt lat="42.08767" lon="2.44834">
        <ele>607</ele>
        <time>2010-01-01T01:42:38Z</time>
      </trkpt>
      <trkpt lat="42.08755" lon="2.44828">
        <ele>610</ele>
        <time>2010-01-01T01:42:43Z</time>
      </trkpt>
      <trkpt lat="42.08731" lon="2.44823">
        <ele>610</ele>
        <time>2010-01-01T01:42:53Z</time>
      </trkpt>
      <trkpt lat="42.08704" lon="2.44815">
        <ele>612</ele>
        <time>2010-01-01T01:43:04Z</time>
      </trkpt>
      <trkpt lat="42.08669" lon="2.4481">
        <ele>613</ele>
        <time>2010-01-01T01:43:18Z</time>
      </trkpt>
      <trkpt lat="42.08662" lon="2.44801">
        <ele>615</ele>
        <time>2010-01-01T01:43:22Z</time>
      </trkpt>
      <trkpt lat="42.08659" lon="2.448">
        <ele>616</ele>
        <time>2010-01-01T01:43:23Z</time>
      </trkpt>
      <trkpt lat="42.08652" lon="2.44791">
        <ele>618</ele>
        <time>2010-01-01T01:43:27Z</time>
      </trkpt>
      <trkpt lat="42.08645" lon="2.44787">
        <ele>618</ele>
        <time>2010-01-01T01:43:30Z</time>
      </trkpt>
      <trkpt lat="42.08631" lon="2.44774">
        <ele>623</ele>
        <time>2010-01-01T01:43:37Z</time>
      </trkpt>
      <trkpt lat="42.08629" lon="2.44769">
        <ele>625</ele>
        <time>2010-01-01T01:43:39Z</time>
      </trkpt>
      <trkpt lat="42.08624" lon="2.44751">
        <ele>631</ele>
        <time>2010-01-01T01:43:44Z</time>
      </trkpt>
      <trkpt lat="42.0862" lon="2.44745">
        <ele>632</ele>
        <time>2010-01-01T01:43:47Z</time>
      </trkpt>
      <trkpt lat="42.08613" lon="2.44712">
        <ele>636</ele>
        <time>2010-01-01T01:43:57Z</time>
      </trkpt>
      <trkpt lat="42.08608" lon="2.44696">
        <ele>637</ele>
        <time>2010-01-01T01:44:02Z</time>
      </trkpt>
      <trkpt lat="42.08608" lon="2.4469">
        <ele>637</ele>
        <time>2010-01-01T01:44:04Z</time>
      </trkpt>
      <trkpt lat="42.08606" lon="2.44684">
        <ele>638</ele>
        <time>2010-01-01T01:44:06Z</time>
      </trkpt>
      <trkpt lat="42.08613" lon="2.44658">
        <ele>640</ele>
        <time>2010-01-01T01:44:14Z</time>
      </trkpt>
      <trkpt lat="42.08618" lon="2.44651">
        <ele>643</ele>
        <time>2010-01-01T01:44:17Z</time>
      </trkpt>
      <trkpt lat="42.08618" lon="2.44647">
        <ele>643</ele>
        <time>2010-01-01T01:44:18Z</time>
      </trkpt>
      <trkpt lat="42.08617" lon="2.44641">
        <ele>644</ele>
        <time>2010-01-01T01:44:20Z</time>
      </trkpt>
      <trkpt lat="42.08612" lon="2.44629">
        <ele>645</ele>
        <time>2010-01-01T01:44:24Z</time>
      </trkpt>
      <trkpt lat="42.08611" lon="2.44619">
        <ele>648</ele>
        <time>2010-01-01T01:44:27Z</time>
      </trkpt>
      <trkpt lat="42.08605" lon="2.44605">
        <ele>650</ele>
        <time>2010-01-01T01:44:32Z</time>
      </trkpt>
      <trkpt lat="42.08599" lon="2.44604">
        <ele>649</ele>
        <time>2010-01-01T01:44:34Z</time>
      </trkpt>
      <trkpt lat="42.08588" lon="2.446">
        <ele>649</ele>
        <time>2010-01-01T01:44:39Z</time>
      </trkpt>
      <trkpt lat="42.08582" lon="2.44601">
        <ele>649</ele>
        <time>2010-01-01T01:44:41Z</time>
      </trkpt>
      <trkpt lat="42.08578" lon="2.44603">
        <ele>649</ele>
        <time>2010-01-01T01:44:43Z</time>
      </trkpt>
      <trkpt lat="42.08573" lon="2.44592">
        <ele>652</ele>
        <time>2010-01-01T01:44:47Z</time>
      </trkpt>
      <trkpt lat="42.08556" lon="2.44577">
        <ele>656</ele>
        <time>2010-01-01T01:44:55Z</time>
      </trkpt>
      <trkpt lat="42.08547" lon="2.4458">
        <ele>660</ele>
        <time>2010-01-01T01:44:59Z</time>
      </trkpt>
      <trkpt lat="42.0854" lon="2.4458">
        <ele>663</ele>
        <time>2010-01-01T01:45:02Z</time>
      </trkpt>
      <trkpt lat="42.08535" lon="2.44578">
        <ele>665</ele>
        <time>2010-01-01T01:45:03Z</time>
      </trkpt>
      <trkpt lat="42.08532" lon="2.44574">
        <ele>666</ele>
        <time>2010-01-01T01:45:05Z</time>
      </trkpt>
      <trkpt lat="42.08528" lon="2.44586">
        <ele>668</ele>
        <time>2010-01-01T01:45:09Z</time>
      </trkpt>
      <trkpt lat="42.08523" lon="2.44586">
        <ele>671</ele>
        <time>2010-01-01T01:45:11Z</time>
      </trkpt>
      <trkpt lat="42.08519" lon="2.44583">
        <ele>673</ele>
        <time>2010-01-01T01:45:13Z</time>
      </trkpt>
      <trkpt lat="42.08514" lon="2.44573">
        <ele>676</ele>
        <time>2010-01-01T01:45:16Z</time>
      </trkpt>
      <trkpt lat="42.08509" lon="2.44568">
        <ele>678</ele>
        <time>2010-01-01T01:45:19Z</time>
      </trkpt>
      <trkpt lat="42.08509" lon="2.44575">
        <ele>679</ele>
        <time>2010-01-01T01:45:21Z</time>
      </trkpt>
      <trkpt lat="42.08505" lon="2.44573">
        <ele>680</ele>
        <time>2010-01-01T01:45:22Z</time>
      </trkpt>
      <trkpt lat="42.08496" lon="2.44562">
        <ele>684</ele>
        <time>2010-01-01T01:45:27Z</time>
      </trkpt>
      <trkpt lat="42.08498" lon="2.44574">
        <ele>684</ele>
        <time>2010-01-01T01:45:31Z</time>
      </trkpt>
      <trkpt lat="42.08495" lon="2.44586">
        <ele>687</ele>
        <time>2010-01-01T01:45:35Z</time>
      </trkpt>
      <trkpt lat="42.08494" lon="2.44602">
        <ele>688</ele>
        <time>2010-01-01T01:45:39Z</time>
      </trkpt>
      <trkpt lat="42.08479" lon="2.44617">
        <ele>696</ele>
        <time>2010-01-01T01:45:47Z</time>
      </trkpt>
      <trkpt lat="42.08462" lon="2.44608">
        <ele>705</ele>
        <time>2010-01-01T01:45:54Z</time>
      </trkpt>
      <trkpt lat="42.08453" lon="2.44608">
        <ele>711</ele>
        <time>2010-01-01T01:45:58Z</time>
      </trkpt>
      <trkpt lat="42.08445" lon="2.44624">
        <ele>715</ele>
        <time>2010-01-01T01:46:04Z</time>
      </trkpt>
      <trkpt lat="42.0844" lon="2.44624">
        <ele>717</ele>
        <time>2010-01-01T01:46:06Z</time>
      </trkpt>
      <trkpt lat="42.08437" lon="2.44622">
        <ele>718</ele>
        <time>2010-01-01T01:46:07Z</time>
      </trkpt>
      <trkpt lat="42.08434" lon="2.44596">
        <ele>718</ele>
        <time>2010-01-01T01:46:15Z</time>
      </trkpt>
      <trkpt lat="42.08419" lon="2.44548">
        <ele>725</ele>
        <time>2010-01-01T01:46:30Z</time>
      </trkpt>
      <trkpt lat="42.08414" lon="2.44537">
        <ele>728</ele>
        <time>2010-01-01T01:46:34Z</time>
      </trkpt>
      <trkpt lat="42.08412" lon="2.44525">
        <ele>729</ele>
        <time>2010-01-01T01:46:38Z</time>
      </trkpt>
      <trkpt lat="42.08399" lon="2.44505">
        <ele>734</ele>
        <time>2010-01-01T01:46:46Z</time>
      </trkpt>
      <trkpt lat="42.08384" lon="2.44487">
        <ele>737</ele>
        <time>2010-01-01T01:46:54Z</time>
      </trkpt>
      <trkpt lat="42.08392" lon="2.44497">
        <ele>736</ele>
        <time>2010-01-01T01:46:58Z</time>
      </trkpt>
      <trkpt lat="42.08386" lon="2.44507">
        <ele>741</ele>
        <time>2010-01-01T01:47:01Z</time>
      </trkpt>
      <trkpt lat="42.0838" lon="2.445">
        <ele>743</ele>
        <time>2010-01-01T01:47:04Z</time>
      </trkpt>
      <trkpt lat="42.08372" lon="2.44497">
        <ele>747</ele>
        <time>2010-01-01T01:47:08Z</time>
      </trkpt>
      <trkpt lat="42.08367" lon="2.44489">
        <ele>748</ele>
        <time>2010-01-01T01:47:11Z</time>
      </trkpt>
      <trkpt lat="42.0835" lon="2.44483">
        <ele>757</ele>
        <time>2010-01-01T01:47:18Z</time>
      </trkpt>
      <trkpt lat="42.08342" lon="2.44472">
        <ele>760</ele>
        <time>2010-01-01T01:47:23Z</time>
      </trkpt>
      <trkpt lat="42.08332" lon="2.44452">
        <ele>766</ele>
        <time>2010-01-01T01:47:30Z</time>
      </trkpt>
      <trkpt lat="42.0833" lon="2.44453">
        <ele>768</ele>
        <time>2010-01-01T01:47:30Z</time>
      </trkpt>
      <trkpt lat="42.08325" lon="2.44448">
        <ele>770</ele>
        <time>2010-01-01T01:47:33Z</time>
      </trkpt>
      <trkpt lat="42.08317" lon="2.44444">
        <ele>774</ele>
        <time>2010-01-01T01:47:36Z</time>
      </trkpt>
      <trkpt lat="42.08292" lon="2.44423">
        <ele>786</ele>
        <time>2010-01-01T01:47:48Z</time>
      </trkpt>
      <trkpt lat="42.08285" lon="2.44415">
        <ele>788</ele>
        <time>2010-01-01T01:47:52Z</time>
      </trkpt>
      <trkpt lat="42.0828" lon="2.44399">
        <ele>791</ele>
        <time>2010-01-01T01:47:57Z</time>
      </trkpt>
      <trkpt lat="42.08284" lon="2.44387">
        <ele>790</ele>
        <time>2010-01-01T01:48:01Z</time>
      </trkpt>
      <trkpt lat="42.08298" lon="2.44369">
        <ele>787</ele>
        <time>2010-01-01T01:48:08Z</time>
      </trkpt>
      <trkpt lat="42.08303" lon="2.44358">
        <ele>787</ele>
        <time>2010-01-01T01:48:12Z</time>
      </trkpt>
      <trkpt lat="42.08309" lon="2.44352">
        <ele>785</ele>
        <time>2010-01-01T01:48:15Z</time>
      </trkpt>
      <trkpt lat="42.08303" lon="2.44351">
        <ele>788</ele>
        <time>2010-01-01T01:48:18Z</time>
      </trkpt>
      <trkpt lat="42.083" lon="2.44351">
        <ele>789</ele>
        <time>2010-01-01T01:48:19Z</time>
      </trkpt>
      <trkpt lat="42.08299" lon="2.44356">
        <ele>789</ele>
        <time>2010-01-01T01:48:20Z</time>
      </trkpt>
      <trkpt lat="42.08293" lon="2.44365">
        <ele>789</ele>
        <time>2010-01-01T01:48:23Z</time>
      </trkpt>
      <trkpt lat="42.08281" lon="2.4437">
        <ele>793</ele>
        <time>2010-01-01T01:48:28Z</time>
      </trkpt>
      <trkpt lat="42.08275" lon="2.44369">
        <ele>796</ele>
        <time>2010-01-01T01:48:31Z</time>
      </trkpt>
      <trkpt lat="42.08257" lon="2.44375">
        <ele>804</ele>
        <time>2010-01-01T01:48:38Z</time>
      </trkpt>
      <trkpt lat="42.08243" lon="2.44388">
        <ele>811</ele>
        <time>2010-01-01T01:48:45Z</time>
      </trkpt>
      <trkpt lat="42.08234" lon="2.44389">
        <ele>817</ele>
        <time>2010-01-01T01:48:49Z</time>
      </trkpt>
      <trkpt lat="42.0823" lon="2.44384">
        <ele>820</ele>
        <time>2010-01-01T01:48:51Z</time>
      </trkpt>
      <trkpt lat="42.08236" lon="2.44369">
        <ele>818</ele>
        <time>2010-01-01T01:48:56Z</time>
      </trkpt>
      <trkpt lat="42.08235" lon="2.44363">
        <ele>819</ele>
        <time>2010-01-01T01:48:58Z</time>
      </trkpt>
      <trkpt lat="42.08234" lon="2.44365">
        <ele>819</ele>
        <time>2010-01-01T01:48:58Z</time>
      </trkpt>
      <trkpt lat="42.08227" lon="2.44368">
        <ele>824</ele>
        <time>2010-01-01T01:49:01Z</time>
      </trkpt>
      <trkpt lat="42.08221" lon="2.44373">
        <ele>827</ele>
        <time>2010-01-01T01:49:04Z</time>
      </trkpt>
      <trkpt lat="42.08219" lon="2.44373">
        <ele>829</ele>
        <time>2010-01-01T01:49:05Z</time>
      </trkpt>
      <trkpt lat="42.08215" lon="2.4437">
        <ele>833</ele>
        <time>2010-01-01T01:49:07Z</time>
      </trkpt>
      <trkpt lat="42.08211" lon="2.44376">
        <ele>837</ele>
        <time>2010-01-01T01:49:09Z</time>
      </trkpt>
      <trkpt lat="42.082" lon="2.44379">
        <ele>845</ele>
        <time>2010-01-01T01:49:14Z</time>
      </trkpt>
      <trkpt lat="42.08194" lon="2.44385">
        <ele>850</ele>
        <time>2010-01-01T01:49:17Z</time>
      </trkpt>
      <trkpt lat="42.08189" lon="2.44394">
        <ele>852</ele>
        <time>2010-01-01T01:49:20Z</time>
      </trkpt>
      <trkpt lat="42.08183" lon="2.44383">
        <ele>857</ele>
        <time>2010-01-01T01:49:24Z</time>
      </trkpt>
      <trkpt lat="42.08182" lon="2.44396">
        <ele>856</ele>
        <time>2010-01-01T01:49:28Z</time>
      </trkpt>
      <trkpt lat="42.08163" lon="2.44397">
        <ele>865</ele>
        <time>2010-01-01T01:49:35Z</time>
      </trkpt>
      <trkpt lat="42.08146" lon="2.44407">
        <ele>867</ele>
        <time>2010-01-01T01:49:43Z</time>
      </trkpt>
      <trkpt lat="42.08139" lon="2.44415">
        <ele>867</ele>
        <time>2010-01-01T01:49:46Z</time>
      </trkpt>
      <trkpt lat="42.08132" lon="2.44419">
        <ele>868</ele>
        <time>2010-01-01T01:49:49Z</time>
      </trkpt>
      <trkpt lat="42.08131" lon="2.4442">
        <ele>868</ele>
        <time>2010-01-01T01:49:50Z</time>
      </trkpt>
      <trkpt lat="42.08126" lon="2.44417">
        <ele>869</ele>
        <time>2010-01-01T01:49:52Z</time>
      </trkpt>
      <trkpt lat="42.08122" lon="2.44416">
        <ele>870</ele>
        <time>2010-01-01T01:49:54Z</time>
      </trkpt>
      <trkpt lat="42.08116" lon="2.4442">
        <ele>871</ele>
        <time>2010-01-01T01:49:57Z</time>
      </trkpt>
      <trkpt lat="42.08103" lon="2.44418">
        <ele>873</ele>
        <time>2010-01-01T01:50:02Z</time>
      </trkpt>
      <trkpt lat="42.08101" lon="2.44421">
        <ele>873</ele>
        <time>2010-01-01T01:50:03Z</time>
      </trkpt>
      <trkpt lat="42.08094" lon="2.44427">
        <ele>874</ele>
        <time>2010-01-01T01:50:06Z</time>
      </trkpt>
      <trkpt lat="42.08089" lon="2.44425">
        <ele>875</ele>
        <time>2010-01-01T01:50:08Z</time>
      </trkpt>
      <trkpt lat="42.08087" lon="2.44426">
        <ele>876</ele>
        <time>2010-01-01T01:50:09Z</time>
      </trkpt>
      <trkpt lat="42.0808" lon="2.44433">
        <ele>876</ele>
        <time>2010-01-01T01:50:13Z</time>
      </trkpt>
      <trkpt lat="42.08086" lon="2.44429">
        <ele>876</ele>
        <time>2010-01-01T01:50:15Z</time>
      </trkpt>
      <trkpt lat="42.08097" lon="2.44429">
        <ele>874</ele>
        <time>2010-01-01T01:50:20Z</time>
      </trkpt>
      <trkpt lat="42.08108" lon="2.4444">
        <ele>871</ele>
        <time>2010-01-01T01:50:25Z</time>
      </trkpt>
      <trkpt lat="42.08111" lon="2.44446">
        <ele>871</ele>
        <time>2010-01-01T01:50:27Z</time>
      </trkpt>
      <trkpt lat="42.08109" lon="2.44466">
        <ele>873</ele>
        <time>2010-01-01T01:50:33Z</time>
      </trkpt>
      <trkpt lat="42.08103" lon="2.44478">
        <ele>874</ele>
        <time>2010-01-01T01:50:38Z</time>
      </trkpt>
      <trkpt lat="42.08101" lon="2.44479">
        <ele>874</ele>
        <time>2010-01-01T01:50:38Z</time>
      </trkpt>
      <trkpt lat="42.08089" lon="2.44481">
        <ele>874</ele>
        <time>2010-01-01T01:50:43Z</time>
      </trkpt>
      <trkpt lat="42.08086" lon="2.4448">
        <ele>874</ele>
        <time>2010-01-01T01:50:44Z</time>
      </trkpt>
      <trkpt lat="42.08083" lon="2.44476">
        <ele>874</ele>
        <time>2010-01-01T01:50:46Z</time>
      </trkpt>
      <trkpt lat="42.08064" lon="2.44472">
        <ele>875</ele>
        <time>2010-01-01T01:50:54Z</time>
      </trkpt>
      <trkpt lat="42.08059" lon="2.44475">
        <ele>875</ele>
        <time>2010-01-01T01:50:56Z</time>
      </trkpt>
      <trkpt lat="42.08046" lon="2.44489">
        <ele>876</ele>
        <time>2010-01-01T01:51:03Z</time>
      </trkpt>
      <trkpt lat="42.08043" lon="2.4449">
        <ele>877</ele>
        <time>2010-01-01T01:51:04Z</time>
      </trkpt>
      <trkpt lat="42.08026" lon="2.4449">
        <ele>878</ele>
        <time>2010-01-01T01:51:11Z</time>
      </trkpt>
      <trkpt lat="42.08007" lon="2.44484">
        <ele>878</ele>
        <time>2010-01-01T01:51:18Z</time>
      </trkpt>
      <trkpt lat="42.08" lon="2.44489">
        <ele>878</ele>
        <time>2010-01-01T01:51:22Z</time>
      </trkpt>
      <trkpt lat="42.07994" lon="2.44485">
        <ele>879</ele>
        <time>2010-01-01T01:51:24Z</time>
      </trkpt>
      <trkpt lat="42.07993" lon="2.44488">
        <ele>879</ele>
        <time>2010-01-01T01:51:25Z</time>
      </trkpt>
      <trkpt lat="42.07995" lon="2.4449">
        <ele>879</ele>
        <time>2010-01-01T01:51:26Z</time>
      </trkpt>
      <trkpt lat="42.07995" lon="2.44494">
        <ele>879</ele>
        <time>2010-01-01T01:51:27Z</time>
      </trkpt>
      <trkpt lat="42.07992" lon="2.445">
        <ele>878</ele>
        <time>2010-01-01T01:51:29Z</time>
      </trkpt>
      <trkpt lat="42.07993" lon="2.44502">
        <ele>878</ele>
        <time>2010-01-01T01:51:30Z</time>
      </trkpt>
      <trkpt lat="42.07998" lon="2.44506">
        <ele>878</ele>
        <time>2010-01-01T01:51:32Z</time>
      </trkpt>
      <trkpt lat="42.08007" lon="2.4451">
        <ele>878</ele>
        <time>2010-01-01T01:51:36Z</time>
      </trkpt>
      <trkpt lat="42.0801" lon="2.44516">
        <ele>878</ele>
        <time>2010-01-01T01:51:38Z</time>
      </trkpt>
      <trkpt lat="42.0801" lon="2.44528">
        <ele>878</ele>
        <time>2010-01-01T01:51:42Z</time>
      </trkpt>
      <trkpt lat="42.08012" lon="2.44536">
        <ele>879</ele>
        <time>2010-01-01T01:51:44Z</time>
      </trkpt>
      <trkpt lat="42.08017" lon="2.44553">
        <ele>882</ele>
        <time>2010-01-01T01:51:50Z</time>
      </trkpt>
      <trkpt lat="42.08025" lon="2.44569">
        <ele>885</ele>
        <time>2010-01-01T01:51:55Z</time>
      </trkpt>
      <trkpt lat="42.08025" lon="2.44589">
        <ele>888</ele>
        <time>2010-01-01T01:52:02Z</time>
      </trkpt>
      <trkpt lat="42.08038" lon="2.44604">
        <ele>892</ele>
        <time>2010-01-01T01:52:09Z</time>
      </trkpt>
      <trkpt lat="42.0804" lon="2.4461">
        <ele>893</ele>
        <time>2010-01-01T01:52:11Z</time>
      </trkpt>
      <trkpt lat="42.08053" lon="2.44628">
        <ele>896</ele>
        <time>2010-01-01T01:52:18Z</time>
      </trkpt>
      <trkpt lat="42.08055" lon="2.4463">
        <ele>897</ele>
        <time>2010-01-01T01:52:19Z</time>
      </trkpt>
      <trkpt lat="42.08059" lon="2.44637">
        <ele>898</ele>
        <time>2010-01-01T01:52:22Z</time>
      </trkpt>
      <trkpt lat="42.08076" lon="2.44654">
        <ele>903</ele>
        <time>2010-01-01T01:52:30Z</time>
      </trkpt>
      <trkpt lat="42.08084" lon="2.44651">
        <ele>905</ele>
        <time>2010-01-01T01:52:33Z</time>
      </trkpt>
      <trkpt lat="42.08102" lon="2.44657">
        <ele>909</ele>
        <time>2010-01-01T01:52:41Z</time>
      </trkpt>
      <trkpt lat="42.08127" lon="2.44695">
        <ele>918</ele>
        <time>2010-01-01T01:52:56Z</time>
      </trkpt>
      <trkpt lat="42.0814" lon="2.44696">
        <ele>922</ele>
        <time>2010-01-01T01:53:01Z</time>
      </trkpt>
      <trkpt lat="42.08144" lon="2.44695">
        <ele>923</ele>
        <time>2010-01-01T01:53:03Z</time>
      </trkpt>
      <trkpt lat="42.08146" lon="2.44693">
        <ele>923</ele>
        <time>2010-01-01T01:53:04Z</time>
      </trkpt>
      <trkpt lat="42.0815" lon="2.44693">
        <ele>924</ele>
        <time>2010-01-01T01:53:05Z</time>
      </trkpt>
      <trkpt lat="42.08155" lon="2.44698">
        <ele>925</ele>
        <time>2010-01-01T01:53:08Z</time>
      </trkpt>
      <trkpt lat="42.08166" lon="2.44697">
        <ele>927</ele>
        <time>2010-01-01T01:53:12Z</time>
      </trkpt>
      <trkpt lat="42.08171" lon="2.44702">
        <ele>928</ele>
        <time>2010-01-01T01:53:15Z</time>
      </trkpt>
      <trkpt lat="42.08178" lon="2.44702">
        <ele>928</ele>
        <time>2010-01-01T01:53:17Z</time>
      </trkpt>
      <trkpt lat="42.08179" lon="2.44704">
        <ele>929</ele>
        <time>2010-01-01T01:53:18Z</time>
      </trkpt>
      <trkpt lat="42.08184" lon="2.44704">
        <ele>929</ele>
        <time>2010-01-01T01:53:20Z</time>
      </trkpt>
      <trkpt lat="42.08187" lon="2.44709">
        <ele>929</ele>
        <time>2010-01-01T01:53:22Z</time>
      </trkpt>
      <trkpt lat="42.08189" lon="2.4471">
        <ele>930</ele>
        <time>2010-01-01T01:53:23Z</time>
      </trkpt>
      <trkpt lat="42.08199" lon="2.44708">
        <ele>925</ele>
        <time>2010-01-01T01:53:27Z</time>
      </trkpt>
      <trkpt lat="42.082" lon="2.4471">
        <ele>925</ele>
        <time>2010-01-01T01:53:28Z</time>
      </trkpt>
      <trkpt lat="42.08199" lon="2.44721">
        <ele>927</ele>
        <time>2010-01-01T01:53:31Z</time>
      </trkpt>
      <trkpt lat="42.08196" lon="2.44727">
        <ele>930</ele>
        <time>2010-01-01T01:53:33Z</time>
      </trkpt>
      <trkpt lat="42.08192" lon="2.44731">
        <ele>931</ele>
        <time>2010-01-01T01:53:36Z</time>
      </trkpt>
      <trkpt lat="42.08189" lon="2.44742">
        <ele>931</ele>
        <time>2010-01-01T01:53:39Z</time>
      </trkpt>
      <trkpt lat="42.08195" lon="2.44762">
        <ele>930</ele>
        <time>2010-01-01T01:53:45Z</time>
      </trkpt>
      <trkpt lat="42.08197" lon="2.44775">
        <ele>929</ele>
        <time>2010-01-01T01:53:49Z</time>
      </trkpt>
      <trkpt lat="42.08196" lon="2.44778">
        <ele>929</ele>
        <time>2010-01-01T01:53:50Z</time>
      </trkpt>
      <trkpt lat="42.08185" lon="2.4479">
        <ele>929</ele>
        <time>2010-01-01T01:53:56Z</time>
      </trkpt>
      <trkpt lat="42.08179" lon="2.44801">
        <ele>929</ele>
        <time>2010-01-01T01:54:00Z</time>
      </trkpt>
      <trkpt lat="42.08172" lon="2.44808">
        <ele>929</ele>
        <time>2010-01-01T01:54:03Z</time>
      </trkpt>
      <trkpt lat="42.08169" lon="2.44816">
        <ele>929</ele>
        <time>2010-01-01T01:54:06Z</time>
      </trkpt>
      <trkpt lat="42.08169" lon="2.44828">
        <ele>929</ele>
        <time>2010-01-01T01:54:10Z</time>
      </trkpt>
      <trkpt lat="42.08177" lon="2.4485">
        <ele>930</ele>
        <time>2010-01-01T01:54:17Z</time>
      </trkpt>
      <trkpt lat="42.0818" lon="2.44855">
        <ele>930</ele>
        <time>2010-01-01T01:54:19Z</time>
      </trkpt>
      <trkpt lat="42.08191" lon="2.44866">
        <ele>932</ele>
        <time>2010-01-01T01:54:25Z</time>
      </trkpt>
      <trkpt lat="42.08194" lon="2.44867">
        <ele>932</ele>
        <time>2010-01-01T01:54:25Z</time>
      </trkpt>
      <trkpt lat="42.08211" lon="2.44869">
        <ele>923</ele>
        <time>2010-01-01T01:54:33Z</time>
      </trkpt>
      <trkpt lat="42.08217" lon="2.44873">
        <ele>920</ele>
        <time>2010-01-01T01:54:35Z</time>
      </trkpt>
      <trkpt lat="42.08227" lon="2.44903">
        <ele>909</ele>
        <time>2010-01-01T01:54:45Z</time>
      </trkpt>
      <trkpt lat="42.08228" lon="2.44938">
        <ele>899</ele>
        <time>2010-01-01T01:54:55Z</time>
      </trkpt>
      <trkpt lat="42.08228" lon="2.4494">
        <ele>899</ele>
        <time>2010-01-01T01:54:56Z</time>
      </trkpt>
      <trkpt lat="42.08223" lon="2.4494">
        <ele>904</ele>
        <time>2010-01-01T01:54:58Z</time>
      </trkpt>
      <trkpt lat="42.08219" lon="2.44944">
        <ele>906</ele>
        <time>2010-01-01T01:55:00Z</time>
      </trkpt>
      <trkpt lat="42.08215" lon="2.44945">
        <ele>908</ele>
        <time>2010-01-01T01:55:02Z</time>
      </trkpt>
      <trkpt lat="42.08201" lon="2.44944">
        <ele>918</ele>
        <time>2010-01-01T01:55:07Z</time>
      </trkpt>
      <trkpt lat="42.08196" lon="2.44941">
        <ele>923</ele>
        <time>2010-01-01T01:55:10Z</time>
      </trkpt>
      <trkpt lat="42.08187" lon="2.44939">
        <ele>923</ele>
        <time>2010-01-01T01:55:13Z</time>
      </trkpt>
      <trkpt lat="42.08178" lon="2.44946">
        <ele>919</ele>
        <time>2010-01-01T01:55:17Z</time>
      </trkpt>
      <trkpt lat="42.08168" lon="2.44948">
        <ele>917</ele>
        <time>2010-01-01T01:55:21Z</time>
      </trkpt>
      <trkpt lat="42.08163" lon="2.4495">
        <ele>915</ele>
        <time>2010-01-01T01:55:23Z</time>
      </trkpt>
      <trkpt lat="42.08158" lon="2.44949">
        <ele>914</ele>
        <time>2010-01-01T01:55:25Z</time>
      </trkpt>
      <trkpt lat="42.08154" lon="2.44945">
        <ele>915</ele>
        <time>2010-01-01T01:55:27Z</time>
      </trkpt>
      <trkpt lat="42.08147" lon="2.44945">
        <ele>913</ele>
        <time>2010-01-01T01:55:30Z</time>
      </trkpt>
      <trkpt lat="42.08143" lon="2.44943">
        <ele>913</ele>
        <time>2010-01-01T01:55:32Z</time>
      </trkpt>
      <trkpt lat="42.08136" lon="2.44943">
        <ele>911</ele>
        <time>2010-01-01T01:55:35Z</time>
      </trkpt>
      <trkpt lat="42.08127" lon="2.44945">
        <ele>909</ele>
        <time>2010-01-01T01:55:38Z</time>
      </trkpt>
      <trkpt lat="42.08119" lon="2.44944">
        <ele>908</ele>
        <time>2010-01-01T01:55:42Z</time>
      </trkpt>
      <trkpt lat="42.08094" lon="2.44933">
        <ele>907</ele>
        <time>2010-01-01T01:55:52Z</time>
      </trkpt>
      <trkpt lat="42.08072" lon="2.44932">
        <ele>904</ele>
        <time>2010-01-01T01:56:01Z</time>
      </trkpt>
      <trkpt lat="42.08063" lon="2.44927">
        <ele>903</ele>
        <time>2010-01-01T01:56:05Z</time>
      </trkpt>
      <trkpt lat="42.08059" lon="2.44927">
        <ele>902</ele>
        <time>2010-01-01T01:56:07Z</time>
      </trkpt>
      <trkpt lat="42.08054" lon="2.4493">
        <ele>900</ele>
        <time>2010-01-01T01:56:09Z</time>
      </trkpt>
      <trkpt lat="42.08042" lon="2.44934">
        <ele>896</ele>
        <time>2010-01-01T01:56:13Z</time>
      </trkpt>
      <trkpt lat="42.08035" lon="2.44939">
        <ele>893</ele>
        <time>2010-01-01T01:56:17Z</time>
      </trkpt>
      <trkpt lat="42.08016" lon="2.44938">
        <ele>886</ele>
        <time>2010-01-01T01:56:24Z</time>
      </trkpt>
      <trkpt lat="42.0801" lon="2.44937">
        <ele>884</ele>
        <time>2010-01-01T01:56:27Z</time>
      </trkpt>
      <trkpt lat="42.08001" lon="2.44938">
        <ele>881</ele>
        <time>2010-01-01T01:56:30Z</time>
      </trkpt>
      <trkpt lat="42.07995" lon="2.44935">
        <ele>879</ele>
        <time>2010-01-01T01:56:33Z</time>
      </trkpt>
      <trkpt lat="42.07985" lon="2.44934">
        <ele>876</ele>
        <time>2010-01-01T01:56:37Z</time>
      </trkpt>
      <trkpt lat="42.07967" lon="2.44928">
        <ele>873</ele>
        <time>2010-01-01T01:56:44Z</time>
      </trkpt>
      <trkpt lat="42.07947" lon="2.44934">
        <ele>871</ele>
        <time>2010-01-01T01:56:52Z</time>
      </trkpt>
      <trkpt lat="42.07933" lon="2.44927">
        <ele>873</ele>
        <time>2010-01-01T01:56:58Z</time>
      </trkpt>
      <trkpt lat="42.07919" lon="2.44914">
        <ele>876</ele>
        <time>2010-01-01T01:57:05Z</time>
      </trkpt>
      <trkpt lat="42.07911" lon="2.44917">
        <ele>875</ele>
        <time>2010-01-01T01:57:09Z</time>
      </trkpt>
      <trkpt lat="42.07905" lon="2.44916">
        <ele>874</ele>
        <time>2010-01-01T01:57:11Z</time>
      </trkpt>
      <trkpt lat="42.079" lon="2.44912">
        <ele>873</ele>
        <time>2010-01-01T01:57:13Z</time>
      </trkpt>
      <trkpt lat="42.07889" lon="2.44907">
        <ele>872</ele>
        <time>2010-01-01T01:57:18Z</time>
      </trkpt>
      <trkpt lat="42.07884" lon="2.44907">
        <ele>872</ele>
        <time>2010-01-01T01:57:20Z</time>
      </trkpt>
      <trkpt lat="42.07871" lon="2.44904">
        <ele>870</ele>
        <time>2010-01-01T01:57:25Z</time>
      </trkpt>
      <trkpt lat="42.07862" lon="2.44904">
        <ele>869</ele>
        <time>2010-01-01T01:57:29Z</time>
      </trkpt>
      <trkpt lat="42.07858" lon="2.44902">
        <ele>868</ele>
        <time>2010-01-01T01:57:30Z</time>
      </trkpt>
      <trkpt lat="42.07856" lon="2.44897">
        <ele>869</ele>
        <time>2010-01-01T01:57:32Z</time>
      </trkpt>
      <trkpt lat="42.07853" lon="2.44897">
        <ele>869</ele>
        <time>2010-01-01T01:57:33Z</time>
      </trkpt>
      <trkpt lat="42.07851" lon="2.44897">
        <ele>868</ele>
        <time>2010-01-01T01:57:34Z</time>
      </trkpt>
      <trkpt lat="42.07846" lon="2.44902">
        <ele>868</ele>
        <time>2010-01-01T01:57:37Z</time>
      </trkpt>
      <trkpt lat="42.07841" lon="2.4491">
        <ele>867</ele>
        <time>2010-01-01T01:57:40Z</time>
      </trkpt>
      <trkpt lat="42.07837" lon="2.44915">
        <ele>866</ele>
        <time>2010-01-01T01:57:42Z</time>
      </trkpt>
      <trkpt lat="42.07824" lon="2.44916">
        <ele>866</ele>
        <time>2010-01-01T01:57:47Z</time>
      </trkpt>
      <trkpt lat="42.07806" lon="2.44925">
        <ele>865</ele>
        <time>2010-01-01T01:57:54Z</time>
      </trkpt>
      <trkpt lat="42.078" lon="2.4493">
        <ele>865</ele>
        <time>2010-01-01T01:57:57Z</time>
      </trkpt>
      <trkpt lat="42.07795" lon="2.44931">
        <ele>864</ele>
        <time>2010-01-01T01:58:00Z</time>
      </trkpt>
      <trkpt lat="42.07786" lon="2.44932">
        <ele>864</ele>
        <time>2010-01-01T01:58:03Z</time>
      </trkpt>
      <trkpt lat="42.07763" lon="2.44927">
        <ele>862</ele>
        <time>2010-01-01T01:58:13Z</time>
      </trkpt>
      <trkpt lat="42.07752" lon="2.44929">
        <ele>861</ele>
        <time>2010-01-01T01:58:17Z</time>
      </trkpt>
      <trkpt lat="42.07708" lon="2.44926">
        <ele>857</ele>
        <time>2010-01-01T01:58:34Z</time>
      </trkpt>
      <trkpt lat="42.07701" lon="2.44924">
        <ele>856</ele>
        <time>2010-01-01T01:58:38Z</time>
      </trkpt>
      <trkpt lat="42.07696" lon="2.4492">
        <ele>856</ele>
        <time>2010-01-01T01:58:40Z</time>
      </trkpt>
      <trkpt lat="42.07683" lon="2.44921">
        <ele>856</ele>
        <time>2010-01-01T01:58:45Z</time>
      </trkpt>
      <trkpt lat="42.07676" lon="2.44925">
        <ele>856</ele>
        <time>2010-01-01T01:58:48Z</time>
      </trkpt>
      <trkpt lat="42.07669" lon="2.44961">
        <ele>860</ele>
        <time>2010-01-01T01:58:59Z</time>
      </trkpt>
      <trkpt lat="42.07668" lon="2.44976">
        <ele>862</ele>
        <time>2010-01-01T01:59:04Z</time>
      </trkpt>
      <trkpt lat="42.0767" lon="2.44984">
        <ele>863</ele>
        <time>2010-01-01T01:59:06Z</time>
      </trkpt>
      <trkpt lat="42.07675" lon="2.44992">
        <ele>864</ele>
        <time>2010-01-01T01:59:09Z</time>
      </trkpt>
      <trkpt lat="42.07684" lon="2.45002">
        <ele>864</ele>
        <time>2010-01-01T01:59:14Z</time>
      </trkpt>
      <trkpt lat="42.07698" lon="2.45023">
        <ele>865</ele>
        <time>2010-01-01T01:59:22Z</time>
      </trkpt>
      <trkpt lat="42.07705" lon="2.45042">
        <ele>867</ele>
        <time>2010-01-01T01:59:29Z</time>
      </trkpt>
      <trkpt lat="42.07707" lon="2.45062">
        <ele>869</ele>
        <time>2010-01-01T01:59:34Z</time>
      </trkpt>
      <trkpt lat="42.07706" lon="2.45093">
        <ele>870</ele>
        <time>2010-01-01T01:59:44Z</time>
      </trkpt>
      <trkpt lat="42.07686" lon="2.45138">
        <ele>875</ele>
        <time>2010-01-01T01:59:59Z</time>
      </trkpt>
      <trkpt lat="42.07678" lon="2.45168">
        <ele>878</ele>
        <time>2010-01-01T02:00:09Z</time>
      </trkpt>
      <trkpt lat="42.07679" lon="2.45199">
        <ele>878</ele>
        <time>2010-01-01T02:00:18Z</time>
      </trkpt>
      <trkpt lat="42.07681" lon="2.45225">
        <ele>877</ele>
        <time>2010-01-01T02:00:26Z</time>
      </trkpt>
      <trkpt lat="42.07686" lon="2.45245">
        <ele>876</ele>
        <time>2010-01-01T02:00:32Z</time>
      </trkpt>
      <trkpt lat="42.07686" lon="2.45265">
        <ele>875</ele>
        <time>2010-01-01T02:00:38Z</time>
      </trkpt>
      <trkpt lat="42.07684" lon="2.45271">
        <ele>875</ele>
        <time>2010-01-01T02:00:40Z</time>
      </trkpt>
      <trkpt lat="42.07681" lon="2.45273">
        <ele>875</ele>
        <time>2010-01-01T02:00:41Z</time>
      </trkpt>
      <trkpt lat="42.07661" lon="2.45281">
        <ele>877</ele>
        <time>2010-01-01T02:00:50Z</time>
      </trkpt>
      <trkpt lat="42.07644" lon="2.45286">
        <ele>879</ele>
        <time>2010-01-01T02:00:57Z</time>
      </trkpt>
      <trkpt lat="42.07644" lon="2.45288">
        <ele>879</ele>
        <time>2010-01-01T02:00:57Z</time>
      </trkpt>
      <trkpt lat="42.07621" lon="2.45314">
        <ele>878</ele>
        <time>2010-01-01T02:01:09Z</time>
      </trkpt>
      <trkpt lat="42.07615" lon="2.45318">
        <ele>879</ele>
        <time>2010-01-01T02:01:12Z</time>
      </trkpt>
      <trkpt lat="42.07608" lon="2.4532">
        <ele>880</ele>
        <time>2010-01-01T02:01:15Z</time>
      </trkpt>
      <trkpt lat="42.07605" lon="2.45319">
        <ele>880</ele>
        <time>2010-01-01T02:01:16Z</time>
      </trkpt>
      <trkpt lat="42.07603" lon="2.45327">
        <ele>881</ele>
        <time>2010-01-01T02:01:18Z</time>
      </trkpt>
      <trkpt lat="42.07602" lon="2.45325">
        <ele>881</ele>
        <time>2010-01-01T02:01:19Z</time>
      </trkpt>
      <trkpt lat="42.07607" lon="2.45318">
        <ele>880</ele>
        <time>2010-01-01T02:01:22Z</time>
      </trkpt>
      <trkpt lat="42.07612" lon="2.45317">
        <ele>879</ele>
        <time>2010-01-01T02:01:24Z</time>
      </trkpt>
      <trkpt lat="42.0762" lon="2.45323">
        <ele>879</ele>
        <time>2010-01-01T02:01:28Z</time>
      </trkpt>
      <trkpt lat="42.07628" lon="2.45331">
        <ele>878</ele>
        <time>2010-01-01T02:01:32Z</time>
      </trkpt>
      <trkpt lat="42.07632" lon="2.45331">
        <ele>877</ele>
        <time>2010-01-01T02:01:33Z</time>
      </trkpt>
      <trkpt lat="42.07634" lon="2.45333">
        <ele>877</ele>
        <time>2010-01-01T02:01:34Z</time>
      </trkpt>
      <trkpt lat="42.07637" lon="2.45335">
        <ele>877</ele>
        <time>2010-01-01T02:01:36Z</time>
      </trkpt>
      <trkpt lat="42.07641" lon="2.45345">
        <ele>878</ele>
        <time>2010-01-01T02:01:39Z</time>
      </trkpt>
      <trkpt lat="42.07643" lon="2.45355">
        <ele>880</ele>
        <time>2010-01-01T02:01:42Z</time>
      </trkpt>
      <trkpt lat="42.0764" lon="2.45365">
        <ele>882</ele>
        <time>2010-01-01T02:01:45Z</time>
      </trkpt>
      <trkpt lat="42.07634" lon="2.45368">
        <ele>884</ele>
        <time>2010-01-01T02:01:48Z</time>
      </trkpt>
      <trkpt lat="42.07627" lon="2.45367">
        <ele>885</ele>
        <time>2010-01-01T02:01:51Z</time>
      </trkpt>
      <trkpt lat="42.07622" lon="2.45368">
        <ele>886</ele>
        <time>2010-01-01T02:01:53Z</time>
      </trkpt>
      <trkpt lat="42.07618" lon="2.45367">
        <ele>886</ele>
        <time>2010-01-01T02:01:54Z</time>
      </trkpt>
      <trkpt lat="42.07613" lon="2.45369">
        <ele>887</ele>
        <time>2010-01-01T02:01:56Z</time>
      </trkpt>
      <trkpt lat="42.07628" lon="2.45378">
        <ele>887</ele>
        <time>2010-01-01T02:02:03Z</time>
      </trkpt>
      <trkpt lat="42.07633" lon="2.45384">
        <ele>888</ele>
        <time>2010-01-01T02:02:06Z</time>
      </trkpt>
      <trkpt lat="42.07634" lon="2.45401">
        <ele>892</ele>
        <time>2010-01-01T02:02:11Z</time>
      </trkpt>
      <trkpt lat="42.07636" lon="2.45414">
        <ele>895</ele>
        <time>2010-01-01T02:02:15Z</time>
      </trkpt>
      <trkpt lat="42.07636" lon="2.45436">
        <ele>899</ele>
        <time>2010-01-01T02:02:21Z</time>
      </trkpt>
      <trkpt lat="42.07633" lon="2.4544">
        <ele>900</ele>
        <time>2010-01-01T02:02:23Z</time>
      </trkpt>
      <trkpt lat="42.07629" lon="2.45464">
        <ele>902</ele>
        <time>2010-01-01T02:02:30Z</time>
      </trkpt>
      <trkpt lat="42.07621" lon="2.45463">
        <ele>905</ele>
        <time>2010-01-01T02:02:33Z</time>
      </trkpt>
      <trkpt lat="42.07614" lon="2.45464">
        <ele>907</ele>
        <time>2010-01-01T02:02:36Z</time>
      </trkpt>
      <trkpt lat="42.07606" lon="2.45463">
        <ele>909</ele>
        <time>2010-01-01T02:02:39Z</time>
      </trkpt>
      <trkpt lat="42.07604" lon="2.45464">
        <ele>909</ele>
        <time>2010-01-01T02:02:40Z</time>
      </trkpt>
      <trkpt lat="42.07603" lon="2.45471">
        <ele>910</ele>
        <time>2010-01-01T02:02:42Z</time>
      </trkpt>
      <trkpt lat="42.07606" lon="2.45485">
        <ele>910</ele>
        <time>2010-01-01T02:02:47Z</time>
      </trkpt>
      <trkpt lat="42.07605" lon="2.45488">
        <ele>910</ele>
        <time>2010-01-01T02:02:48Z</time>
      </trkpt>
      <trkpt lat="42.07588" lon="2.45502">
        <ele>914</ele>
        <time>2010-01-01T02:02:56Z</time>
      </trkpt>
      <trkpt lat="42.07574" lon="2.4551">
        <ele>916</ele>
        <time>2010-01-01T02:03:02Z</time>
      </trkpt>
      <trkpt lat="42.07567" lon="2.45522">
        <ele>916</ele>
        <time>2010-01-01T02:03:06Z</time>
      </trkpt>
      <trkpt lat="42.07569" lon="2.45529">
        <ele>916</ele>
        <time>2010-01-01T02:03:08Z</time>
      </trkpt>
      <trkpt lat="42.07582" lon="2.45556">
        <ele>915</ele>
        <time>2010-01-01T02:03:18Z</time>
      </trkpt>
      <trkpt lat="42.07597" lon="2.45601">
        <ele>915</ele>
        <time>2010-01-01T02:03:33Z</time>
      </trkpt>
      <trkpt lat="42.07602" lon="2.45611">
        <ele>915</ele>
        <time>2010-01-01T02:03:36Z</time>
      </trkpt>
      <trkpt lat="42.07613" lon="2.45626">
        <ele>915</ele>
        <time>2010-01-01T02:03:42Z</time>
      </trkpt>
      <trkpt lat="42.07618" lon="2.45628">
        <ele>914</ele>
        <time>2010-01-01T02:03:44Z</time>
      </trkpt>
      <trkpt lat="42.07634" lon="2.45622">
        <ele>913</ele>
        <time>2010-01-01T02:03:51Z</time>
      </trkpt>
      <trkpt lat="42.0765" lon="2.45612">
        <ele>909</ele>
        <time>2010-01-01T02:03:58Z</time>
      </trkpt>
      <trkpt lat="42.0766" lon="2.45614">
        <ele>905</ele>
        <time>2010-01-01T02:04:02Z</time>
      </trkpt>
      <trkpt lat="42.07672" lon="2.45611">
        <ele>902</ele>
        <time>2010-01-01T02:04:07Z</time>
      </trkpt>
      <trkpt lat="42.07696" lon="2.45617">
        <ele>897</ele>
        <time>2010-01-01T02:04:17Z</time>
      </trkpt>
      <trkpt lat="42.07713" lon="2.45614">
        <ele>893</ele>
        <time>2010-01-01T02:04:24Z</time>
      </trkpt>
      <trkpt lat="42.07715" lon="2.45618">
        <ele>892</ele>
        <time>2010-01-01T02:04:25Z</time>
      </trkpt>
      <trkpt lat="42.07715" lon="2.45621">
        <ele>892</ele>
        <time>2010-01-01T02:04:26Z</time>
      </trkpt>
      <trkpt lat="42.07712" lon="2.45628">
        <ele>892</ele>
        <time>2010-01-01T02:04:28Z</time>
      </trkpt>
      <trkpt lat="42.07704" lon="2.45639">
        <ele>894</ele>
        <time>2010-01-01T02:04:33Z</time>
      </trkpt>
      <trkpt lat="42.07702" lon="2.45645">
        <ele>894</ele>
        <time>2010-01-01T02:04:35Z</time>
      </trkpt>
      <trkpt lat="42.07707" lon="2.45668">
        <ele>892</ele>
        <time>2010-01-01T02:04:42Z</time>
      </trkpt>
      <trkpt lat="42.07713" lon="2.45664">
        <ele>890</ele>
        <time>2010-01-01T02:04:45Z</time>
      </trkpt>
      <trkpt lat="42.07732" lon="2.45659">
        <ele>885</ele>
        <time>2010-01-01T02:04:53Z</time>
      </trkpt>
      <trkpt lat="42.0773" lon="2.45659">
        <ele>885</ele>
        <time>2010-01-01T02:04:54Z</time>
      </trkpt>
      <trkpt lat="42.07729" lon="2.45651">
        <ele>886</ele>
        <time>2010-01-01T02:04:56Z</time>
      </trkpt>
      <trkpt lat="42.0773" lon="2.45644">
        <ele>886</ele>
        <time>2010-01-01T02:04:58Z</time>
      </trkpt>
      <trkpt lat="42.07735" lon="2.4564">
        <ele>884</ele>
        <time>2010-01-01T02:05:00Z</time>
      </trkpt>
      <trkpt lat="42.07745" lon="2.45635">
        <ele>881</ele>
        <time>2010-01-01T02:05:04Z</time>
      </trkpt>
      <trkpt lat="42.07753" lon="2.4563">
        <ele>878</ele>
        <time>2010-01-01T02:05:08Z</time>
      </trkpt>
      <trkpt lat="42.07761" lon="2.45634">
        <ele>874</ele>
        <time>2010-01-01T02:05:12Z</time>
      </trkpt>
      <trkpt lat="42.07759" lon="2.45652">
        <ele>876</ele>
        <time>2010-01-01T02:05:17Z</time>
      </trkpt>
      <trkpt lat="42.07761" lon="2.45625">
        <ele>874</ele>
        <time>2010-01-01T02:05:25Z</time>
      </trkpt>
      <trkpt lat="42.07774" lon="2.45605">
        <ele>869</ele>
        <time>2010-01-01T02:05:33Z</time>
      </trkpt>
      <trkpt lat="42.0778" lon="2.45597">
        <ele>868</ele>
        <time>2010-01-01T02:05:36Z</time>
      </trkpt>
      <trkpt lat="42.0779" lon="2.45592">
        <ele>863</ele>
        <time>2010-01-01T02:05:41Z</time>
      </trkpt>
      <trkpt lat="42.07793" lon="2.45604">
        <ele>860</ele>
        <time>2010-01-01T02:05:44Z</time>
      </trkpt>
      <trkpt lat="42.0779" lon="2.45622">
        <ele>861</ele>
        <time>2010-01-01T02:05:50Z</time>
      </trkpt>
      <trkpt lat="42.07792" lon="2.45637">
        <ele>859</ele>
        <time>2010-01-01T02:05:54Z</time>
      </trkpt>
      <trkpt lat="42.0779" lon="2.45624">
        <ele>860</ele>
        <time>2010-01-01T02:05:58Z</time>
      </trkpt>
      <trkpt lat="42.07792" lon="2.45612">
        <ele>860</ele>
        <time>2010-01-01T02:06:02Z</time>
      </trkpt>
      <trkpt lat="42.07803" lon="2.45588">
        <ele>857</ele>
        <time>2010-01-01T02:06:11Z</time>
      </trkpt>
      <trkpt lat="42.07808" lon="2.456">
        <ele>853</ele>
        <time>2010-01-01T02:06:15Z</time>
      </trkpt>
      <trkpt lat="42.07818" lon="2.45602">
        <ele>846</ele>
        <time>2010-01-01T02:06:19Z</time>
      </trkpt>
      <trkpt lat="42.07828" lon="2.45607">
        <ele>839</ele>
        <time>2010-01-01T02:06:23Z</time>
      </trkpt>
      <trkpt lat="42.07836" lon="2.45614">
        <ele>835</ele>
        <time>2010-01-01T02:06:27Z</time>
      </trkpt>
      <trkpt lat="42.07854" lon="2.45624">
        <ele>823</ele>
        <time>2010-01-01T02:06:34Z</time>
      </trkpt>
      <trkpt lat="42.07859" lon="2.45634">
        <ele>822</ele>
        <time>2010-01-01T02:06:38Z</time>
      </trkpt>
      <trkpt lat="42.07869" lon="2.45637">
        <ele>817</ele>
        <time>2010-01-01T02:06:42Z</time>
      </trkpt>
      <trkpt lat="42.07877" lon="2.45644">
        <ele>815</ele>
        <time>2010-01-01T02:06:46Z</time>
      </trkpt>
      <trkpt lat="42.07886" lon="2.45647">
        <ele>810</ele>
        <time>2010-01-01T02:06:50Z</time>
      </trkpt>
      <trkpt lat="42.07896" lon="2.45647">
        <ele>805</ele>
        <time>2010-01-01T02:06:54Z</time>
      </trkpt>
      <trkpt lat="42.07914" lon="2.45657">
        <ele>800</ele>
        <time>2010-01-01T02:07:01Z</time>
      </trkpt>
      <trkpt lat="42.07942" lon="2.4566">
        <ele>788</ele>
        <time>2010-01-01T02:07:13Z</time>
      </trkpt>
      <trkpt lat="42.07948" lon="2.45663">
        <ele>787</ele>
        <time>2010-01-01T02:07:15Z</time>
      </trkpt>
      <trkpt lat="42.07955" lon="2.45663">
        <ele>784</ele>
        <time>2010-01-01T02:07:18Z</time>
      </trkpt>
      <trkpt lat="42.07965" lon="2.45667">
        <ele>783</ele>
        <time>2010-01-01T02:07:22Z</time>
      </trkpt>
      <trkpt lat="42.07975" lon="2.45665">
        <ele>779</ele>
        <time>2010-01-01T02:07:26Z</time>
      </trkpt>
      <trkpt lat="42.07984" lon="2.45672">
        <ele>778</ele>
        <time>2010-01-01T02:07:31Z</time>
      </trkpt>
      <trkpt lat="42.0799" lon="2.45671">
        <ele>776</ele>
        <time>2010-01-01T02:07:33Z</time>
      </trkpt>
      <trkpt lat="42.07996" lon="2.45677">
        <ele>775</ele>
        <time>2010-01-01T02:07:36Z</time>
      </trkpt>
      <trkpt lat="42.08005" lon="2.4569">
        <ele>775</ele>
        <time>2010-01-01T02:07:41Z</time>
      </trkpt>
      <trkpt lat="42.08016" lon="2.45714">
        <ele>775</ele>
        <time>2010-01-01T02:07:50Z</time>
      </trkpt>
      <trkpt lat="42.08023" lon="2.45735">
        <ele>775</ele>
        <time>2010-01-01T02:07:57Z</time>
      </trkpt>
      <trkpt lat="42.08036" lon="2.45754">
        <ele>771</ele>
        <time>2010-01-01T02:08:04Z</time>
      </trkpt>
      <trkpt lat="42.08041" lon="2.45764">
        <ele>769</ele>
        <time>2010-01-01T02:08:08Z</time>
      </trkpt>
      <trkpt lat="42.08056" lon="2.4578">
        <ele>764</ele>
        <time>2010-01-01T02:08:15Z</time>
      </trkpt>
      <trkpt lat="42.08064" lon="2.45786">
        <ele>761</ele>
        <time>2010-01-01T02:08:19Z</time>
      </trkpt>
      <trkpt lat="42.08069" lon="2.45786">
        <ele>759</ele>
        <time>2010-01-01T02:08:21Z</time>
      </trkpt>
      <trkpt lat="42.0808" lon="2.45797">
        <ele>756</ele>
        <time>2010-01-01T02:08:26Z</time>
      </trkpt>
      <trkpt lat="42.08087" lon="2.45807">
        <ele>755</ele>
        <time>2010-01-01T02:08:31Z</time>
      </trkpt>
      <trkpt lat="42.0809" lon="2.45818">
        <ele>757</ele>
        <time>2010-01-01T02:08:34Z</time>
      </trkpt>
      <trkpt lat="42.08094" lon="2.45824">
        <ele>756</ele>
        <time>2010-01-01T02:08:36Z</time>
      </trkpt>
      <trkpt lat="42.08097" lon="2.45834">
        <ele>757</ele>
        <time>2010-01-01T02:08:39Z</time>
      </trkpt>
      <trkpt lat="42.08102" lon="2.45844">
        <ele>755</ele>
        <time>2010-01-01T02:08:43Z</time>
      </trkpt>
      <trkpt lat="42.08124" lon="2.45869">
        <ele>748</ele>
        <time>2010-01-01T02:08:55Z</time>
      </trkpt>
      <trkpt lat="42.08136" lon="2.45876">
        <ele>744</ele>
        <time>2010-01-01T02:09:00Z</time>
      </trkpt>
      <trkpt lat="42.08152" lon="2.45896">
        <ele>741</ele>
        <time>2010-01-01T02:09:08Z</time>
      </trkpt>
      <trkpt lat="42.08168" lon="2.4591">
        <ele>734</ele>
        <time>2010-01-01T02:09:16Z</time>
      </trkpt>
      <trkpt lat="42.08173" lon="2.45918">
        <ele>732</ele>
        <time>2010-01-01T02:09:19Z</time>
      </trkpt>
      <trkpt lat="42.0818" lon="2.45934">
        <ele>730</ele>
        <time>2010-01-01T02:09:25Z</time>
      </trkpt>
      <trkpt lat="42.08181" lon="2.45956">
        <ele>730</ele>
        <time>2010-01-01T02:09:32Z</time>
      </trkpt>
      <trkpt lat="42.08183" lon="2.45955">
        <ele>729</ele>
        <time>2010-01-01T02:09:32Z</time>
      </trkpt>
      <trkpt lat="42.08185" lon="2.45951">
        <ele>728</ele>
        <time>2010-01-01T02:09:34Z</time>
      </trkpt>
      <trkpt lat="42.08187" lon="2.45956">
        <ele>727</ele>
        <time>2010-01-01T02:09:36Z</time>
      </trkpt>
      <trkpt lat="42.08187" lon="2.45968">
        <ele>727</ele>
        <time>2010-01-01T02:09:39Z</time>
      </trkpt>
      <trkpt lat="42.08194" lon="2.45951">
        <ele>725</ele>
        <time>2010-01-01T02:09:45Z</time>
      </trkpt>
      <trkpt lat="42.08198" lon="2.45946">
        <ele>724</ele>
        <time>2010-01-01T02:09:47Z</time>
      </trkpt>
      <trkpt lat="42.08201" lon="2.45944">
        <ele>723</ele>
        <time>2010-01-01T02:09:49Z</time>
      </trkpt>
      <trkpt lat="42.08204" lon="2.45945">
        <ele>722</ele>
        <time>2010-01-01T02:09:50Z</time>
      </trkpt>
      <trkpt lat="42.08205" lon="2.45948">
        <ele>722</ele>
        <time>2010-01-01T02:09:51Z</time>
      </trkpt>
      <trkpt lat="42.08206" lon="2.45959">
        <ele>722</ele>
        <time>2010-01-01T02:09:54Z</time>
      </trkpt>
      <trkpt lat="42.08205" lon="2.4597">
        <ele>722</ele>
        <time>2010-01-01T02:09:58Z</time>
      </trkpt>
      <trkpt lat="42.08206" lon="2.45974">
        <ele>722</ele>
        <time>2010-01-01T02:09:59Z</time>
      </trkpt>
      <trkpt lat="42.08208" lon="2.45974">
        <ele>721</ele>
        <time>2010-01-01T02:10:00Z</time>
      </trkpt>
      <trkpt lat="42.08218" lon="2.45965">
        <ele>719</ele>
        <time>2010-01-01T02:10:05Z</time>
      </trkpt>
      <trkpt lat="42.08231" lon="2.45957">
        <ele>715</ele>
        <time>2010-01-01T02:10:10Z</time>
      </trkpt>
      <trkpt lat="42.0824" lon="2.45956">
        <ele>713</ele>
        <time>2010-01-01T02:10:14Z</time>
      </trkpt>
      <trkpt lat="42.08246" lon="2.45954">
        <ele>711</ele>
        <time>2010-01-01T02:10:16Z</time>
      </trkpt>
      <trkpt lat="42.08251" lon="2.45951">
        <ele>709</ele>
        <time>2010-01-01T02:10:19Z</time>
      </trkpt>
      <trkpt lat="42.08256" lon="2.45946">
        <ele>708</ele>
        <time>2010-01-01T02:10:21Z</time>
      </trkpt>
      <trkpt lat="42.08264" lon="2.45941">
        <ele>706</ele>
        <time>2010-01-01T02:10:25Z</time>
      </trkpt>
      <trkpt lat="42.08266" lon="2.45939">
        <ele>705</ele>
        <time>2010-01-01T02:10:26Z</time>
      </trkpt>
      <trkpt lat="42.08274" lon="2.4594">
        <ele>703</ele>
        <time>2010-01-01T02:10:29Z</time>
      </trkpt>
      <trkpt lat="42.08277" lon="2.45938">
        <ele>702</ele>
        <time>2010-01-01T02:10:30Z</time>
      </trkpt>
      <trkpt lat="42.08287" lon="2.45931">
        <ele>699</ele>
        <time>2010-01-01T02:10:35Z</time>
      </trkpt>
      <trkpt lat="42.08289" lon="2.45928">
        <ele>698</ele>
        <time>2010-01-01T02:10:36Z</time>
      </trkpt>
      <trkpt lat="42.08288" lon="2.45908">
        <ele>694</ele>
        <time>2010-01-01T02:10:42Z</time>
      </trkpt>
      <trkpt lat="42.08289" lon="2.45903">
        <ele>692</ele>
        <time>2010-01-01T02:10:44Z</time>
      </trkpt>
      <trkpt lat="42.08294" lon="2.459">
        <ele>691</ele>
        <time>2010-01-01T02:10:46Z</time>
      </trkpt>
      <trkpt lat="42.08305" lon="2.45902">
        <ele>690</ele>
        <time>2010-01-01T02:10:50Z</time>
      </trkpt>
      <trkpt lat="42.08309" lon="2.45901">
        <ele>689</ele>
        <time>2010-01-01T02:10:52Z</time>
      </trkpt>
      <trkpt lat="42.08313" lon="2.45903">
        <ele>689</ele>
        <time>2010-01-01T02:10:54Z</time>
      </trkpt>
      <trkpt lat="42.08322" lon="2.45918">
        <ele>691</ele>
        <time>2010-01-01T02:10:59Z</time>
      </trkpt>
      <trkpt lat="42.08327" lon="2.45934">
        <ele>691</ele>
        <time>2010-01-01T02:11:04Z</time>
      </trkpt>
      <trkpt lat="42.08328" lon="2.4594">
        <ele>691</ele>
        <time>2010-01-01T02:11:06Z</time>
      </trkpt>
      <trkpt lat="42.08322" lon="2.45946">
        <ele>692</ele>
        <time>2010-01-01T02:11:09Z</time>
      </trkpt>
      <trkpt lat="42.08317" lon="2.45961">
        <ele>692</ele>
        <time>2010-01-01T02:11:14Z</time>
      </trkpt>
      <trkpt lat="42.08316" lon="2.45969">
        <ele>692</ele>
        <time>2010-01-01T02:11:17Z</time>
      </trkpt>
      <trkpt lat="42.08317" lon="2.45971">
        <ele>691</ele>
        <time>2010-01-01T02:11:17Z</time>
      </trkpt>
      <trkpt lat="42.08325" lon="2.45965">
        <ele>690</ele>
        <time>2010-01-01T02:11:21Z</time>
      </trkpt>
      <trkpt lat="42.08331" lon="2.45966">
        <ele>688</ele>
        <time>2010-01-01T02:11:23Z</time>
      </trkpt>
      <trkpt lat="42.08334" lon="2.45961">
        <ele>688</ele>
        <time>2010-01-01T02:11:25Z</time>
      </trkpt>
      <trkpt lat="42.0834" lon="2.45956">
        <ele>686</ele>
        <time>2010-01-01T02:11:28Z</time>
      </trkpt>
      <trkpt lat="42.08342" lon="2.45959">
        <ele>685</ele>
        <time>2010-01-01T02:11:29Z</time>
      </trkpt>
      <trkpt lat="42.08344" lon="2.45972">
        <ele>682</ele>
        <time>2010-01-01T02:11:33Z</time>
      </trkpt>
      <trkpt lat="42.08344" lon="2.4599">
        <ele>679</ele>
        <time>2010-01-01T02:11:39Z</time>
      </trkpt>
      <trkpt lat="42.08348" lon="2.45986">
        <ele>678</ele>
        <time>2010-01-01T02:11:40Z</time>
      </trkpt>
      <trkpt lat="42.08354" lon="2.4597">
        <ele>679</ele>
        <time>2010-01-01T02:11:46Z</time>
      </trkpt>
      <trkpt lat="42.08361" lon="2.45963">
        <ele>677</ele>
        <time>2010-01-01T02:11:49Z</time>
      </trkpt>
      <trkpt lat="42.08364" lon="2.45964">
        <ele>676</ele>
        <time>2010-01-01T02:11:51Z</time>
      </trkpt>
      <trkpt lat="42.08368" lon="2.45972">
        <ele>673</ele>
        <time>2010-01-01T02:11:53Z</time>
      </trkpt>
      <trkpt lat="42.08371" lon="2.45983">
        <ele>670</ele>
        <time>2010-01-01T02:11:57Z</time>
      </trkpt>
      <trkpt lat="42.08369" lon="2.45993">
        <ele>669</ele>
        <time>2010-01-01T02:12:00Z</time>
      </trkpt>
      <trkpt lat="42.08363" lon="2.4601">
        <ele>668</ele>
        <time>2010-01-01T02:12:05Z</time>
      </trkpt>
      <trkpt lat="42.08361" lon="2.46021">
        <ele>666</ele>
        <time>2010-01-01T02:12:09Z</time>
      </trkpt>
      <trkpt lat="42.08363" lon="2.46027">
        <ele>664</ele>
        <time>2010-01-01T02:12:11Z</time>
      </trkpt>
      <trkpt lat="42.08369" lon="2.4602">
        <ele>663</ele>
        <time>2010-01-01T02:12:14Z</time>
      </trkpt>
      <trkpt lat="42.08387" lon="2.45988">
        <ele>663</ele>
        <time>2010-01-01T02:12:26Z</time>
      </trkpt>
      <trkpt lat="42.0839" lon="2.45985">
        <ele>663</ele>
        <time>2010-01-01T02:12:27Z</time>
      </trkpt>
      <trkpt lat="42.08399" lon="2.45981">
        <ele>661</ele>
        <time>2010-01-01T02:12:31Z</time>
      </trkpt>
      <trkpt lat="42.08399" lon="2.46003">
        <ele>657</ele>
        <time>2010-01-01T02:12:38Z</time>
      </trkpt>
      <trkpt lat="42.08401" lon="2.46004">
        <ele>657</ele>
        <time>2010-01-01T02:12:39Z</time>
      </trkpt>
      <trkpt lat="42.08408" lon="2.46001">
        <ele>656</ele>
        <time>2010-01-01T02:12:41Z</time>
      </trkpt>
      <trkpt lat="42.0841" lon="2.46002">
        <ele>655</ele>
        <time>2010-01-01T02:12:42Z</time>
      </trkpt>
      <trkpt lat="42.08413" lon="2.46015">
        <ele>652</ele>
        <time>2010-01-01T02:12:46Z</time>
      </trkpt>
      <trkpt lat="42.08413" lon="2.4602">
        <ele>652</ele>
        <time>2010-01-01T02:12:48Z</time>
      </trkpt>
      <trkpt lat="42.08419" lon="2.46033">
        <ele>648</ele>
        <time>2010-01-01T02:12:53Z</time>
      </trkpt>
      <trkpt lat="42.08427" lon="2.46037">
        <ele>646</ele>
        <time>2010-01-01T02:12:56Z</time>
      </trkpt>
      <trkpt lat="42.08441" lon="2.46032">
        <ele>644</ele>
        <time>2010-01-01T02:13:02Z</time>
      </trkpt>
      <trkpt lat="42.08445" lon="2.46034">
        <ele>643</ele>
        <time>2010-01-01T02:13:03Z</time>
      </trkpt>
      <trkpt lat="42.08448" lon="2.46041">
        <ele>641</ele>
        <time>2010-01-01T02:13:06Z</time>
      </trkpt>
      <trkpt lat="42.08455" lon="2.46045">
        <ele>639</ele>
        <time>2010-01-01T02:13:09Z</time>
      </trkpt>
      <trkpt lat="42.08462" lon="2.46042">
        <ele>638</ele>
        <time>2010-01-01T02:13:12Z</time>
      </trkpt>
      <trkpt lat="42.08469" lon="2.46033">
        <ele>637</ele>
        <time>2010-01-01T02:13:16Z</time>
      </trkpt>
      <trkpt lat="42.08481" lon="2.46021">
        <ele>635</ele>
        <time>2010-01-01T02:13:22Z</time>
      </trkpt>
      <trkpt lat="42.08491" lon="2.46014">
        <ele>633</ele>
        <time>2010-01-01T02:13:26Z</time>
      </trkpt>
      <trkpt lat="42.08495" lon="2.46008">
        <ele>632</ele>
        <time>2010-01-01T02:13:29Z</time>
      </trkpt>
      <trkpt lat="42.08504" lon="2.45988">
        <ele>629</ele>
        <time>2010-01-01T02:13:35Z</time>
      </trkpt>
      <trkpt lat="42.08503" lon="2.45982">
        <ele>629</ele>
        <time>2010-01-01T02:13:37Z</time>
      </trkpt>
      <trkpt lat="42.08494" lon="2.45962">
        <ele>630</ele>
        <time>2010-01-01T02:13:44Z</time>
      </trkpt>
      <trkpt lat="42.08498" lon="2.45951">
        <ele>628</ele>
        <time>2010-01-01T02:13:48Z</time>
      </trkpt>
      <trkpt lat="42.08501" lon="2.4595">
        <ele>627</ele>
        <time>2010-01-01T02:13:49Z</time>
      </trkpt>
      <trkpt lat="42.08506" lon="2.45952">
        <ele>626</ele>
        <time>2010-01-01T02:13:51Z</time>
      </trkpt>
      <trkpt lat="42.0852" lon="2.45969">
        <ele>624</ele>
        <time>2010-01-01T02:13:58Z</time>
      </trkpt>
      <trkpt lat="42.08529" lon="2.45978">
        <ele>621</ele>
        <time>2010-01-01T02:14:03Z</time>
      </trkpt>
      <trkpt lat="42.08532" lon="2.45984">
        <ele>620</ele>
        <time>2010-01-01T02:14:05Z</time>
      </trkpt>
      <trkpt lat="42.08541" lon="2.46012">
        <ele>617</ele>
        <time>2010-01-01T02:14:14Z</time>
      </trkpt>
      <trkpt lat="42.08541" lon="2.46019">
        <ele>616</ele>
        <time>2010-01-01T02:14:16Z</time>
      </trkpt>
      <trkpt lat="42.08544" lon="2.46028">
        <ele>615</ele>
        <time>2010-01-01T02:14:19Z</time>
      </trkpt>
      <trkpt lat="42.08544" lon="2.46036">
        <ele>615</ele>
        <time>2010-01-01T02:14:21Z</time>
      </trkpt>
      <trkpt lat="42.08538" lon="2.46054">
        <ele>617</ele>
        <time>2010-01-01T02:14:27Z</time>
      </trkpt>
      <trkpt lat="42.08533" lon="2.46083">
        <ele>614</ele>
        <time>2010-01-01T02:14:36Z</time>
      </trkpt>
      <trkpt lat="42.08529" lon="2.46091">
        <ele>614</ele>
        <time>2010-01-01T02:14:39Z</time>
      </trkpt>
      <trkpt lat="42.08529" lon="2.46098">
        <ele>613</ele>
        <time>2010-01-01T02:14:41Z</time>
      </trkpt>
      <trkpt lat="42.08535" lon="2.46117">
        <ele>610</ele>
        <time>2010-01-01T02:14:47Z</time>
      </trkpt>
      <trkpt lat="42.08539" lon="2.4612">
        <ele>610</ele>
        <time>2010-01-01T02:14:49Z</time>
      </trkpt>
      <trkpt lat="42.08542" lon="2.46124">
        <ele>610</ele>
        <time>2010-01-01T02:14:51Z</time>
      </trkpt>
      <trkpt lat="42.08546" lon="2.46126">
        <ele>610</ele>
        <time>2010-01-01T02:14:52Z</time>
      </trkpt>
      <trkpt lat="42.0856" lon="2.46123">
        <ele>610</ele>
        <time>2010-01-01T02:14:58Z</time>
      </trkpt>
      <trkpt lat="42.08593" lon="2.46122">
        <ele>610</ele>
        <time>2010-01-01T02:15:11Z</time>
      </trkpt>
      <trkpt lat="42.0861" lon="2.46114">
        <ele>609</ele>
        <time>2010-01-01T02:15:18Z</time>
      </trkpt>
      <trkpt lat="42.08621" lon="2.46113">
        <ele>608</ele>
        <time>2010-01-01T02:15:23Z</time>
      </trkpt>
      <trkpt lat="42.08635" lon="2.46115">
        <ele>607</ele>
        <time>2010-01-01T02:15:28Z</time>
      </trkpt>
      <trkpt lat="42.08681" lon="2.46092">
        <ele>599</ele>
        <time>2010-01-01T02:15:48Z</time>
      </trkpt>
      <trkpt lat="42.08698" lon="2.46078">
        <ele>594</ele>
        <time>2010-01-01T02:15:56Z</time>
      </trkpt>
      <trkpt lat="42.08736" lon="2.46065">
        <ele>593</ele>
        <time>2010-01-01T02:16:12Z</time>
      </trkpt>
      <trkpt lat="42.08753" lon="2.46053">
        <ele>591</ele>
        <time>2010-01-01T02:16:19Z</time>
      </trkpt>
      <trkpt lat="42.08782" lon="2.46051">
        <ele>588</ele>
        <time>2010-01-01T02:16:31Z</time>
      </trkpt>
      <trkpt lat="42.08806" lon="2.46045">
        <ele>584</ele>
        <time>2010-01-01T02:16:41Z</time>
      </trkpt>
      <trkpt lat="42.08815" lon="2.46046">
        <ele>582</ele>
        <time>2010-01-01T02:16:44Z</time>
      </trkpt>
      <trkpt lat="42.08826" lon="2.46042">
        <ele>577</ele>
        <time>2010-01-01T02:16:49Z</time>
      </trkpt>
      <trkpt lat="42.08831" lon="2.46041">
        <ele>576</ele>
        <time>2010-01-01T02:16:51Z</time>
      </trkpt>
      <trkpt lat="42.08834" lon="2.46042">
        <ele>575</ele>
        <time>2010-01-01T02:16:52Z</time>
      </trkpt>
      <trkpt lat="42.08843" lon="2.46054">
        <ele>577</ele>
        <time>2010-01-01T02:16:57Z</time>
      </trkpt>
      <trkpt lat="42.08852" lon="2.46061">
        <ele>575</ele>
        <time>2010-01-01T02:17:01Z</time>
      </trkpt>
      <trkpt lat="42.08858" lon="2.46088">
        <ele>574</ele>
        <time>2010-01-01T02:17:10Z</time>
      </trkpt>
      <trkpt lat="42.08862" lon="2.46076">
        <ele>573</ele>
        <time>2010-01-01T02:17:13Z</time>
      </trkpt>
      <trkpt lat="42.08883" lon="2.46062">
        <ele>568</ele>
        <time>2010-01-01T02:17:23Z</time>
      </trkpt>
      <trkpt lat="42.0889" lon="2.46079">
        <ele>565</ele>
        <time>2010-01-01T02:17:29Z</time>
      </trkpt>
      <trkpt lat="42.08889" lon="2.46089">
        <ele>565</ele>
        <time>2010-01-01T02:17:31Z</time>
      </trkpt>
      <trkpt lat="42.08892" lon="2.46103">
        <ele>562</ele>
        <time>2010-01-01T02:17:36Z</time>
      </trkpt>
      <trkpt lat="42.08894" lon="2.46121">
        <ele>559</ele>
        <time>2010-01-01T02:17:41Z</time>
      </trkpt>
      <trkpt lat="42.08898" lon="2.46135">
        <ele>556</ele>
        <time>2010-01-01T02:17:46Z</time>
      </trkpt>
      <trkpt lat="42.089" lon="2.46132">
        <ele>556</ele>
        <time>2010-01-01T02:17:47Z</time>
      </trkpt>
      <trkpt lat="42.08904" lon="2.46122">
        <ele>556</ele>
        <time>2010-01-01T02:17:50Z</time>
      </trkpt>
      <trkpt lat="42.0891" lon="2.46114">
        <ele>554</ele>
        <time>2010-01-01T02:17:54Z</time>
      </trkpt>
      <trkpt lat="42.08916" lon="2.46102">
        <ele>554</ele>
        <time>2010-01-01T02:17:58Z</time>
      </trkpt>
      <trkpt lat="42.08924" lon="2.46095">
        <ele>552</ele>
        <time>2010-01-01T02:18:02Z</time>
      </trkpt>
      <trkpt lat="42.08933" lon="2.46077">
        <ele>551</ele>
        <time>2010-01-01T02:18:08Z</time>
      </trkpt>
      <trkpt lat="42.08942" lon="2.46066">
        <ele>550</ele>
        <time>2010-01-01T02:18:13Z</time>
      </trkpt>
      <trkpt lat="42.08949" lon="2.46046">
        <ele>549</ele>
        <time>2010-01-01T02:18:20Z</time>
      </trkpt>
      <trkpt lat="42.08957" lon="2.46037">
        <ele>547</ele>
        <time>2010-01-01T02:18:24Z</time>
      </trkpt>
      <trkpt lat="42.08981" lon="2.46022">
        <ele>539</ele>
        <time>2010-01-01T02:18:34Z</time>
      </trkpt>
      <trkpt lat="42.08987" lon="2.46015">
        <ele>537</ele>
        <time>2010-01-01T02:18:38Z</time>
      </trkpt>
      <trkpt lat="42.08998" lon="2.46007">
        <ele>533</ele>
        <time>2010-01-01T02:18:43Z</time>
      </trkpt>
      <trkpt lat="42.09014" lon="2.45989">
        <ele>527</ele>
        <time>2010-01-01T02:18:51Z</time>
      </trkpt>
      <trkpt lat="42.09019" lon="2.4599">
        <ele>525</ele>
        <time>2010-01-01T02:18:53Z</time>
      </trkpt>
      <trkpt lat="42.09023" lon="2.45995">
        <ele>525</ele>
        <time>2010-01-01T02:18:55Z</time>
      </trkpt>
      <trkpt lat="42.09026" lon="2.46003">
        <ele>524</ele>
        <time>2010-01-01T02:18:58Z</time>
      </trkpt>
      <trkpt lat="42.09028" lon="2.46039">
        <ele>520</ele>
        <time>2010-01-01T02:19:08Z</time>
      </trkpt>
      <trkpt lat="42.09027" lon="2.46049">
        <ele>519</ele>
        <time>2010-01-01T02:19:12Z</time>
      </trkpt>
      <trkpt lat="42.09024" lon="2.46058">
        <ele>519</ele>
        <time>2010-01-01T02:19:14Z</time>
      </trkpt>
      <trkpt lat="42.09027" lon="2.46072">
        <ele>517</ele>
        <time>2010-01-01T02:19:19Z</time>
      </trkpt>
      <trkpt lat="42.09035" lon="2.46064">
        <ele>516</ele>
        <time>2010-01-01T02:19:23Z</time>
      </trkpt>
      <trkpt lat="42.09041" lon="2.46061">
        <ele>515</ele>
        <time>2010-01-01T02:19:25Z</time>
      </trkpt>
      <trkpt lat="42.09062" lon="2.46056">
        <ele>512</ele>
        <time>2010-01-01T02:19:34Z</time>
      </trkpt>
      <trkpt lat="42.0909" lon="2.46052">
        <ele>509</ele>
        <time>2010-01-01T02:19:45Z</time>
      </trkpt>
      <trkpt lat="42.09096" lon="2.46049">
        <ele>509</ele>
        <time>2010-01-01T02:19:47Z</time>
      </trkpt>
      <trkpt lat="42.09125" lon="2.4604">
        <ele>508</ele>
        <time>2010-01-01T02:19:59Z</time>
      </trkpt>
      <trkpt lat="42.09155" lon="2.4603">
        <ele>507</ele>
        <time>2010-01-01T02:20:12Z</time>
      </trkpt>
      <trkpt lat="42.09172" lon="2.46019">
        <ele>507</ele>
        <time>2010-01-01T02:20:20Z</time>
      </trkpt>
      <trkpt lat="42.09207" lon="2.46012">
        <ele>505</ele>
        <time>2010-01-01T02:20:34Z</time>
      </trkpt>
      <trkpt lat="42.09224" lon="2.45999">
        <ele>505</ele>
        <time>2010-01-01T02:20:41Z</time>
      </trkpt>
      <trkpt lat="42.09257" lon="2.45978">
        <ele>505</ele>
        <time>2010-01-01T02:20:56Z</time>
      </trkpt>
      <trkpt lat="42.09267" lon="2.45974">
        <ele>505</ele>
        <time>2010-01-01T02:21:00Z</time>
      </trkpt>
      <trkpt lat="42.09275" lon="2.45968">
        <ele>505</ele>
        <time>2010-01-01T02:21:04Z</time>
      </trkpt>
      <trkpt lat="42.09283" lon="2.45957">
        <ele>504</ele>
        <time>2010-01-01T02:21:08Z</time>
      </trkpt>
      <trkpt lat="42.09286" lon="2.45953">
        <ele>504</ele>
        <time>2010-01-01T02:21:10Z</time>
      </trkpt>
      <trkpt lat="42.0929" lon="2.45952">
        <ele>504</ele>
        <time>2010-01-01T02:21:12Z</time>
      </trkpt>
      <trkpt lat="42.09295" lon="2.45954">
        <ele>504</ele>
        <time>2010-01-01T02:21:14Z</time>
      </trkpt>
      <trkpt lat="42.09307" lon="2.45971">
        <ele>503</ele>
        <time>2010-01-01T02:21:21Z</time>
      </trkpt>
      <trkpt lat="42.09308" lon="2.45976">
        <ele>503</ele>
        <time>2010-01-01T02:21:22Z</time>
      </trkpt>
      <trkpt lat="42.09308" lon="2.45985">
        <ele>503</ele>
        <time>2010-01-01T02:21:25Z</time>
      </trkpt>
      <trkpt lat="42.09306" lon="2.45988">
        <ele>503</ele>
        <time>2010-01-01T02:21:26Z</time>
      </trkpt>
      <trkpt lat="42.09298" lon="2.45994">
        <ele>503</ele>
        <time>2010-01-01T02:21:30Z</time>
      </trkpt>
      <trkpt lat="42.09297" lon="2.45997">
        <ele>503</ele>
        <time>2010-01-01T02:21:31Z</time>
      </trkpt>
      <trkpt lat="42.09295" lon="2.46006">
        <ele>503</ele>
        <time>2010-01-01T02:21:34Z</time>
      </trkpt>
      <trkpt lat="42.09299" lon="2.46018">
        <ele>503</ele>
        <time>2010-01-01T02:21:37Z</time>
      </trkpt>
      <trkpt lat="42.09298" lon="2.46023">
        <ele>503</ele>
        <time>2010-01-01T02:21:39Z</time>
      </trkpt>
      <trkpt lat="42.09273" lon="2.46049">
        <ele>504</ele>
        <time>2010-01-01T02:21:52Z</time>
      </trkpt>
      <trkpt lat="42.09267" lon="2.46057">
        <ele>504</ele>
        <time>2010-01-01T02:21:55Z</time>
      </trkpt>
      <trkpt lat="42.09257" lon="2.46062">
        <ele>504</ele>
        <time>2010-01-01T02:21:59Z</time>
      </trkpt>
      <trkpt lat="42.09253" lon="2.4607">
        <ele>505</ele>
        <time>2010-01-01T02:22:02Z</time>
      </trkpt>
      <trkpt lat="42.09253" lon="2.46082">
        <ele>505</ele>
        <time>2010-01-01T02:22:05Z</time>
      </trkpt>
      <trkpt lat="42.09256" lon="2.4611">
        <ele>506</ele>
        <time>2010-01-01T02:22:14Z</time>
      </trkpt>
      <trkpt lat="42.09258" lon="2.46123">
        <ele>507</ele>
        <time>2010-01-01T02:22:18Z</time>
      </trkpt>
      <trkpt lat="42.09257" lon="2.4614">
        <ele>508</ele>
        <time>2010-01-01T02:22:23Z</time>
      </trkpt>
      <trkpt lat="42.0925" lon="2.46163">
        <ele>510</ele>
        <time>2010-01-01T02:22:30Z</time>
      </trkpt>
      <trkpt lat="42.09247" lon="2.46178">
        <ele>511</ele>
        <time>2010-01-01T02:22:35Z</time>
      </trkpt>
      <trkpt lat="42.09237" lon="2.46187">
        <ele>512</ele>
        <time>2010-01-01T02:22:40Z</time>
      </trkpt>
      <trkpt lat="42.09235" lon="2.46192">
        <ele>512</ele>
        <time>2010-01-01T02:22:42Z</time>
      </trkpt>
      <trkpt lat="42.09228" lon="2.46202">
        <ele>513</ele>
        <time>2010-01-01T02:22:46Z</time>
      </trkpt>
      <trkpt lat="42.09222" lon="2.46205">
        <ele>513</ele>
        <time>2010-01-01T02:22:48Z</time>
      </trkpt>
      <trkpt lat="42.09215" lon="2.46213">
        <ele>513</ele>
        <time>2010-01-01T02:22:52Z</time>
      </trkpt>
      <trkpt lat="42.09201" lon="2.46222">
        <ele>512</ele>
        <time>2010-01-01T02:22:58Z</time>
      </trkpt>
      <trkpt lat="42.09191" lon="2.46224">
        <ele>512</ele>
        <time>2010-01-01T02:23:02Z</time>
      </trkpt>
      <trkpt lat="42.09171" lon="2.46232">
        <ele>512</ele>
        <time>2010-01-01T02:23:10Z</time>
      </trkpt>
      <trkpt lat="42.09169" lon="2.46235">
        <ele>512</ele>
        <time>2010-01-01T02:23:12Z</time>
      </trkpt>
      <trkpt lat="42.09167" lon="2.46235">
        <ele>512</ele>
        <time>2010-01-01T02:23:12Z</time>
      </trkpt>
      <trkpt lat="42.09163" lon="2.4624">
        <ele>512</ele>
        <time>2010-01-01T02:23:15Z</time>
      </trkpt>
      <trkpt lat="42.09156" lon="2.46252">
        <ele>512</ele>
        <time>2010-01-01T02:23:19Z</time>
      </trkpt>
      <trkpt lat="42.09146" lon="2.46255">
        <ele>513</ele>
        <time>2010-01-01T02:23:23Z</time>
      </trkpt>
      <trkpt lat="42.09119" lon="2.46271">
        <ele>514</ele>
        <time>2010-01-01T02:23:35Z</time>
      </trkpt>
      <trkpt lat="42.0911" lon="2.46282">
        <ele>514</ele>
        <time>2010-01-01T02:23:40Z</time>
      </trkpt>
      <trkpt lat="42.09103" lon="2.46299">
        <ele>513</ele>
        <time>2010-01-01T02:23:46Z</time>
      </trkpt>
      <trkpt lat="42.09085" lon="2.46313">
        <ele>513</ele>
        <time>2010-01-01T02:23:54Z</time>
      </trkpt>
      <trkpt lat="42.09075" lon="2.46324">
        <ele>513</ele>
        <time>2010-01-01T02:23:59Z</time>
      </trkpt>
      <trkpt lat="42.09069" lon="2.46334">
        <ele>514</ele>
        <time>2010-01-01T02:24:03Z</time>
      </trkpt>
      <trkpt lat="42.09045" lon="2.46351">
        <ele>516</ele>
        <time>2010-01-01T02:24:14Z</time>
      </trkpt>
      <trkpt lat="42.09039" lon="2.46359">
        <ele>516</ele>
        <time>2010-01-01T02:24:17Z</time>
      </trkpt>
      <trkpt lat="42.09036" lon="2.4637">
        <ele>518</ele>
        <time>2010-01-01T02:24:21Z</time>
      </trkpt>
      <trkpt lat="42.09027" lon="2.46377">
        <ele>519</ele>
        <time>2010-01-01T02:24:25Z</time>
      </trkpt>
      <trkpt lat="42.09016" lon="2.46393">
        <ele>520</ele>
        <time>2010-01-01T02:24:31Z</time>
      </trkpt>
      <trkpt lat="42.09005" lon="2.46395">
        <ele>520</ele>
        <time>2010-01-01T02:24:36Z</time>
      </trkpt>
      <trkpt lat="42.09002" lon="2.46402">
        <ele>521</ele>
        <time>2010-01-01T02:24:38Z</time>
      </trkpt>
      <trkpt lat="42.08984" lon="2.46417">
        <ele>522</ele>
        <time>2010-01-01T02:24:46Z</time>
      </trkpt>
      <trkpt lat="42.08973" lon="2.4644">
        <ele>524</ele>
        <time>2010-01-01T02:24:54Z</time>
      </trkpt>
      <trkpt lat="42.08971" lon="2.46447">
        <ele>525</ele>
        <time>2010-01-01T02:24:57Z</time>
      </trkpt>
      <trkpt lat="42.08964" lon="2.46461">
        <ele>527</ele>
        <time>2010-01-01T02:25:02Z</time>
      </trkpt>
      <trkpt lat="42.08964" lon="2.46474">
        <ele>529</ele>
        <time>2010-01-01T02:25:06Z</time>
      </trkpt>
      <trkpt lat="42.08955" lon="2.46486">
        <ele>531</ele>
        <time>2010-01-01T02:25:11Z</time>
      </trkpt>
      <trkpt lat="42.08952" lon="2.46495">
        <ele>533</ele>
        <time>2010-01-01T02:25:14Z</time>
      </trkpt>
      <trkpt lat="42.08947" lon="2.465">
        <ele>533</ele>
        <time>2010-01-01T02:25:16Z</time>
      </trkpt>
      <trkpt lat="42.08927" lon="2.4651">
        <ele>533</ele>
        <time>2010-01-01T02:25:25Z</time>
      </trkpt>
      <trkpt lat="42.08913" lon="2.46521">
        <ele>533</ele>
        <time>2010-01-01T02:25:31Z</time>
      </trkpt>
      <trkpt lat="42.08904" lon="2.46525">
        <ele>532</ele>
        <time>2010-01-01T02:25:35Z</time>
      </trkpt>
      <trkpt lat="42.08872" lon="2.4655">
        <ele>530</ele>
        <time>2010-01-01T02:25:50Z</time>
      </trkpt>
      <trkpt lat="42.08849" lon="2.46555">
        <ele>528</ele>
        <time>2010-01-01T02:25:59Z</time>
      </trkpt>
      <trkpt lat="42.08831" lon="2.46562">
        <ele>527</ele>
        <time>2010-01-01T02:26:07Z</time>
      </trkpt>
      <trkpt lat="42.08792" lon="2.46568">
        <ele>527</ele>
        <time>2010-01-01T02:26:22Z</time>
      </trkpt>
      <trkpt lat="42.0876" lon="2.46566">
        <ele>528</ele>
        <time>2010-01-01T02:26:35Z</time>
      </trkpt>
      <trkpt lat="42.08739" lon="2.46574">
        <ele>529</ele>
        <time>2010-01-01T02:26:44Z</time>
      </trkpt>
      <trkpt lat="42.08723" lon="2.46574">
        <ele>530</ele>
        <time>2010-01-01T02:26:50Z</time>
      </trkpt>
      <trkpt lat="42.08715" lon="2.46579">
        <ele>531</ele>
        <time>2010-01-01T02:26:54Z</time>
      </trkpt>
      <trkpt lat="42.08704" lon="2.46598">
        <ele>532</ele>
        <time>2010-01-01T02:27:01Z</time>
      </trkpt>
      <trkpt lat="42.08696" lon="2.46606">
        <ele>533</ele>
        <time>2010-01-01T02:27:05Z</time>
      </trkpt>
      <trkpt lat="42.08678" lon="2.46604">
        <ele>535</ele>
        <time>2010-01-01T02:27:12Z</time>
      </trkpt>
      <trkpt lat="42.08651" lon="2.46606">
        <ele>536</ele>
        <time>2010-01-01T02:27:23Z</time>
      </trkpt>
      <trkpt lat="42.08645" lon="2.46606">
        <ele>536</ele>
        <time>2010-01-01T02:27:25Z</time>
      </trkpt>
      <trkpt lat="42.0864" lon="2.46603">
        <ele>537</ele>
        <time>2010-01-01T02:27:28Z</time>
      </trkpt>
      <trkpt lat="42.08625" lon="2.46609">
        <ele>537</ele>
        <time>2010-01-01T02:27:34Z</time>
      </trkpt>
      <trkpt lat="42.08622" lon="2.46609">
        <ele>537</ele>
        <time>2010-01-01T02:27:35Z</time>
      </trkpt>
      <trkpt lat="42.08613" lon="2.46597">
        <ele>538</ele>
        <time>2010-01-01T02:27:40Z</time>
      </trkpt>
      <trkpt lat="42.0861" lon="2.4659">
        <ele>538</ele>
        <time>2010-01-01T02:27:43Z</time>
      </trkpt>
      <trkpt lat="42.0861" lon="2.46583">
        <ele>539</ele>
        <time>2010-01-01T02:27:45Z</time>
      </trkpt>
      <trkpt lat="42.08614" lon="2.46577">
        <ele>539</ele>
        <time>2010-01-01T02:27:47Z</time>
      </trkpt>
      <trkpt lat="42.08616" lon="2.46577">
        <ele>539</ele>
        <time>2010-01-01T02:27:48Z</time>
      </trkpt>
      <trkpt lat="42.08605" lon="2.46553">
        <ele>540</ele>
        <time>2010-01-01T02:27:56Z</time>
      </trkpt>
      <trkpt lat="42.08603" lon="2.46552">
        <ele>540</ele>
        <time>2010-01-01T02:27:57Z</time>
      </trkpt>
      <trkpt lat="42.08598" lon="2.46558">
        <ele>540</ele>
        <time>2010-01-01T02:28:00Z</time>
      </trkpt>
      <trkpt lat="42.08595" lon="2.46565">
        <ele>540</ele>
        <time>2010-01-01T02:28:02Z</time>
      </trkpt>
      <trkpt lat="42.08593" lon="2.46565">
        <ele>540</ele>
        <time>2010-01-01T02:28:03Z</time>
      </trkpt>
      <trkpt lat="42.08589" lon="2.46561">
        <ele>540</ele>
        <time>2010-01-01T02:28:05Z</time>
      </trkpt>
      <trkpt lat="42.08583" lon="2.4656">
        <ele>540</ele>
        <time>2010-01-01T02:28:08Z</time>
      </trkpt>
      <trkpt lat="42.0856" lon="2.46549">
        <ele>543</ele>
        <time>2010-01-01T02:28:17Z</time>
      </trkpt>
      <trkpt lat="42.08544" lon="2.46535">
        <ele>545</ele>
        <time>2010-01-01T02:28:25Z</time>
      </trkpt>
      <trkpt lat="42.08521" lon="2.46529">
        <ele>546</ele>
        <time>2010-01-01T02:28:34Z</time>
      </trkpt>
      <trkpt lat="42.08512" lon="2.46531">
        <ele>548</ele>
        <time>2010-01-01T02:28:38Z</time>
      </trkpt>
      <trkpt lat="42.08511" lon="2.46533">
        <ele>548</ele>
        <time>2010-01-01T02:28:39Z</time>
      </trkpt>
      <trkpt lat="42.08512" lon="2.46539">
        <ele>548</ele>
        <time>2010-01-01T02:28:40Z</time>
      </trkpt>
      <trkpt lat="42.085" lon="2.46549">
        <ele>550</ele>
        <time>2010-01-01T02:28:46Z</time>
      </trkpt>
      <trkpt lat="42.08486" lon="2.46557">
        <ele>555</ele>
        <time>2010-01-01T02:28:52Z</time>
      </trkpt>
      <trkpt lat="42.08485" lon="2.4656">
        <ele>556</ele>
        <time>2010-01-01T02:28:53Z</time>
      </trkpt>
      <trkpt lat="42.08469" lon="2.46563">
        <ele>561</ele>
        <time>2010-01-01T02:29:00Z</time>
      </trkpt>
      <trkpt lat="42.08463" lon="2.46566">
        <ele>564</ele>
        <time>2010-01-01T02:29:02Z</time>
      </trkpt>
      <trkpt lat="42.08449" lon="2.46565">
        <ele>570</ele>
        <time>2010-01-01T02:29:08Z</time>
      </trkpt>
      <trkpt lat="42.08445" lon="2.4657">
        <ele>572</ele>
        <time>2010-01-01T02:29:10Z</time>
      </trkpt>
      <trkpt lat="42.08442" lon="2.46577">
        <ele>573</ele>
        <time>2010-01-01T02:29:12Z</time>
      </trkpt>
      <trkpt lat="42.08436" lon="2.46583">
        <ele>576</ele>
        <time>2010-01-01T02:29:16Z</time>
      </trkpt>
      <trkpt lat="42.08423" lon="2.46574">
        <ele>580</ele>
        <time>2010-01-01T02:29:21Z</time>
      </trkpt>
      <trkpt lat="42.08414" lon="2.46579">
        <ele>584</ele>
        <time>2010-01-01T02:29:25Z</time>
      </trkpt>
      <trkpt lat="42.08406" lon="2.46577">
        <ele>586</ele>
        <time>2010-01-01T02:29:28Z</time>
      </trkpt>
      <trkpt lat="42.08391" lon="2.46581">
        <ele>592</ele>
        <time>2010-01-01T02:29:34Z</time>
      </trkpt>
      <trkpt lat="42.08388" lon="2.46574">
        <ele>593</ele>
        <time>2010-01-01T02:29:37Z</time>
      </trkpt>
      <trkpt lat="42.08384" lon="2.46572">
        <ele>594</ele>
        <time>2010-01-01T02:29:39Z</time>
      </trkpt>
      <trkpt lat="42.08379" lon="2.46575">
        <ele>596</ele>
        <time>2010-01-01T02:29:41Z</time>
      </trkpt>
      <trkpt lat="42.0837" lon="2.46575">
        <ele>599</ele>
        <time>2010-01-01T02:29:44Z</time>
      </trkpt>
      <trkpt lat="42.08361" lon="2.46578">
        <ele>603</ele>
        <time>2010-01-01T02:29:48Z</time>
      </trkpt>
      <trkpt lat="42.08361" lon="2.46561">
        <ele>603</ele>
        <time>2010-01-01T02:29:53Z</time>
      </trkpt>
      <trkpt lat="42.08367" lon="2.46563">
        <ele>600</ele>
        <time>2010-01-01T02:29:56Z</time>
      </trkpt>
      <trkpt lat="42.0836" lon="2.46555">
        <ele>603</ele>
        <time>2010-01-01T02:30:00Z</time>
      </trkpt>
      <trkpt lat="42.08351" lon="2.46556">
        <ele>608</ele>
        <time>2010-01-01T02:30:03Z</time>
      </trkpt>
      <trkpt lat="42.0835" lon="2.46543">
        <ele>608</ele>
        <time>2010-01-01T02:30:07Z</time>
      </trkpt>
      <trkpt lat="42.08344" lon="2.46533">
        <ele>611</ele>
        <time>2010-01-01T02:30:11Z</time>
      </trkpt>
      <trkpt lat="42.08333" lon="2.46496">
        <ele>615</ele>
        <time>2010-01-01T02:30:23Z</time>
      </trkpt>
      <trkpt lat="42.08324" lon="2.4649">
        <ele>620</ele>
        <time>2010-01-01T02:30:27Z</time>
      </trkpt>
      <trkpt lat="42.08318" lon="2.4648">
        <ele>621</ele>
        <time>2010-01-01T02:30:30Z</time>
      </trkpt>
      <trkpt lat="42.08301" lon="2.46471">
        <ele>628</ele>
        <time>2010-01-01T02:30:38Z</time>
      </trkpt>
      <trkpt lat="42.08294" lon="2.46469">
        <ele>629</ele>
        <time>2010-01-01T02:30:41Z</time>
      </trkpt>
      <trkpt lat="42.0827" lon="2.46469">
        <ele>637</ele>
        <time>2010-01-01T02:30:50Z</time>
      </trkpt>
      <trkpt lat="42.08259" lon="2.46467">
        <ele>639</ele>
        <time>2010-01-01T02:30:55Z</time>
      </trkpt>
      <trkpt lat="42.08249" lon="2.46471">
        <ele>643</ele>
        <time>2010-01-01T02:30:59Z</time>
      </trkpt>
      <trkpt lat="42.08244" lon="2.4647">
        <ele>643</ele>
        <time>2010-01-01T02:31:01Z</time>
      </trkpt>
      <trkpt lat="42.08225" lon="2.46482">
        <ele>649</ele>
        <time>2010-01-01T02:31:09Z</time>
      </trkpt>
      <trkpt lat="42.08214" lon="2.46486">
        <ele>649</ele>
        <time>2010-01-01T02:31:14Z</time>
      </trkpt>
      <trkpt lat="42.08202" lon="2.465">
        <ele>654</ele>
        <time>2010-01-01T02:31:20Z</time>
      </trkpt>
      <trkpt lat="42.08195" lon="2.46503">
        <ele>655</ele>
        <time>2010-01-01T02:31:23Z</time>
      </trkpt>
      <trkpt lat="42.08192" lon="2.4651">
        <ele>657</ele>
        <time>2010-01-01T02:31:26Z</time>
      </trkpt>
      <trkpt lat="42.08192" lon="2.46517">
        <ele>660</ele>
        <time>2010-01-01T02:31:28Z</time>
      </trkpt>
      <trkpt lat="42.08194" lon="2.46521">
        <ele>662</ele>
        <time>2010-01-01T02:31:29Z</time>
      </trkpt>
      <trkpt lat="42.08196" lon="2.46521">
        <ele>662</ele>
        <time>2010-01-01T02:31:30Z</time>
      </trkpt>
      <trkpt lat="42.082" lon="2.46519">
        <ele>661</ele>
        <time>2010-01-01T02:31:32Z</time>
      </trkpt>
      <trkpt lat="42.08202" lon="2.46519">
        <ele>661</ele>
        <time>2010-01-01T02:31:33Z</time>
      </trkpt>
      <trkpt lat="42.08205" lon="2.46527">
        <ele>664</ele>
        <time>2010-01-01T02:31:35Z</time>
      </trkpt>
      <trkpt lat="42.08207" lon="2.46539">
        <ele>668</ele>
        <time>2010-01-01T02:31:39Z</time>
      </trkpt>
      <trkpt lat="42.08213" lon="2.46555">
        <ele>671</ele>
        <time>2010-01-01T02:31:44Z</time>
      </trkpt>
      <trkpt lat="42.08214" lon="2.46558">
        <ele>672</ele>
        <time>2010-01-01T02:31:45Z</time>
      </trkpt>
      <trkpt lat="42.08213" lon="2.46572">
        <ele>675</ele>
        <time>2010-01-01T02:31:49Z</time>
      </trkpt>
      <trkpt lat="42.0821" lon="2.4658">
        <ele>677</ele>
        <time>2010-01-01T02:31:52Z</time>
      </trkpt>
      <trkpt lat="42.08211" lon="2.46585">
        <ele>678</ele>
        <time>2010-01-01T02:31:53Z</time>
      </trkpt>
      <trkpt lat="42.08203" lon="2.46607">
        <ele>684</ele>
        <time>2010-01-01T02:32:01Z</time>
      </trkpt>
      <trkpt lat="42.082" lon="2.46619">
        <ele>688</ele>
        <time>2010-01-01T02:32:05Z</time>
      </trkpt>
      <trkpt lat="42.08201" lon="2.46634">
        <ele>691</ele>
        <time>2010-01-01T02:32:09Z</time>
      </trkpt>
      <trkpt lat="42.08195" lon="2.46657">
        <ele>697</ele>
        <time>2010-01-01T02:32:16Z</time>
      </trkpt>
      <trkpt lat="42.08197" lon="2.46669">
        <ele>699</ele>
        <time>2010-01-01T02:32:20Z</time>
      </trkpt>
      <trkpt lat="42.08195" lon="2.46684">
        <ele>701</ele>
        <time>2010-01-01T02:32:24Z</time>
      </trkpt>
      <trkpt lat="42.08196" lon="2.46689">
        <ele>701</ele>
        <time>2010-01-01T02:32:26Z</time>
      </trkpt>
      <trkpt lat="42.08195" lon="2.46716">
        <ele>704</ele>
        <time>2010-01-01T02:32:34Z</time>
      </trkpt>
      <trkpt lat="42.08197" lon="2.46722">
        <ele>704</ele>
        <time>2010-01-01T02:32:36Z</time>
      </trkpt>
      <trkpt lat="42.08195" lon="2.46724">
        <ele>704</ele>
        <time>2010-01-01T02:32:37Z</time>
      </trkpt>
      <trkpt lat="42.08197" lon="2.46734">
        <ele>704</ele>
        <time>2010-01-01T02:32:40Z</time>
      </trkpt>
      <trkpt lat="42.08195" lon="2.46736">
        <ele>704</ele>
        <time>2010-01-01T02:32:40Z</time>
      </trkpt>
      <trkpt lat="42.08196" lon="2.46742">
        <ele>703</ele>
        <time>2010-01-01T02:32:42Z</time>
      </trkpt>
      <trkpt lat="42.08193" lon="2.46752">
        <ele>703</ele>
        <time>2010-01-01T02:32:46Z</time>
      </trkpt>
      <trkpt lat="42.08187" lon="2.4676">
        <ele>704</ele>
        <time>2010-01-01T02:32:49Z</time>
      </trkpt>
      <trkpt lat="42.08178" lon="2.46765">
        <ele>705</ele>
        <time>2010-01-01T02:32:53Z</time>
      </trkpt>
      <trkpt lat="42.08166" lon="2.46764">
        <ele>708</ele>
        <time>2010-01-01T02:32:58Z</time>
      </trkpt>
      <trkpt lat="42.08164" lon="2.4676">
        <ele>709</ele>
        <time>2010-01-01T02:32:59Z</time>
      </trkpt>
      <trkpt lat="42.08159" lon="2.46759">
        <ele>710</ele>
        <time>2010-01-01T02:33:01Z</time>
      </trkpt>
      <trkpt lat="42.08153" lon="2.46751">
        <ele>713</ele>
        <time>2010-01-01T02:33:04Z</time>
      </trkpt>
      <trkpt lat="42.08146" lon="2.46747">
        <ele>715</ele>
        <time>2010-01-01T02:33:07Z</time>
      </trkpt>
      <trkpt lat="42.08141" lon="2.46738">
        <ele>717</ele>
        <time>2010-01-01T02:33:11Z</time>
      </trkpt>
      <trkpt lat="42.0813" lon="2.46732">
        <ele>720</ele>
        <time>2010-01-01T02:33:15Z</time>
      </trkpt>
      <trkpt lat="42.08108" lon="2.46725">
        <ele>725</ele>
        <time>2010-01-01T02:33:25Z</time>
      </trkpt>
      <trkpt lat="42.08099" lon="2.46719">
        <ele>727</ele>
        <time>2010-01-01T02:33:29Z</time>
      </trkpt>
      <trkpt lat="42.08094" lon="2.4672">
        <ele>728</ele>
        <time>2010-01-01T02:33:31Z</time>
      </trkpt>
      <trkpt lat="42.08088" lon="2.46717">
        <ele>728</ele>
        <time>2010-01-01T02:33:33Z</time>
      </trkpt>
      <trkpt lat="42.08078" lon="2.46721">
        <ele>731</ele>
        <time>2010-01-01T02:33:37Z</time>
      </trkpt>
      <trkpt lat="42.08067" lon="2.46722">
        <ele>732</ele>
        <time>2010-01-01T02:33:41Z</time>
      </trkpt>
      <trkpt lat="42.08055" lon="2.46734">
        <ele>735</ele>
        <time>2010-01-01T02:33:47Z</time>
      </trkpt>
      <trkpt lat="42.08051" lon="2.46735">
        <ele>735</ele>
        <time>2010-01-01T02:33:49Z</time>
      </trkpt>
      <trkpt lat="42.08047" lon="2.46741">
        <ele>737</ele>
        <time>2010-01-01T02:33:52Z</time>
      </trkpt>
      <trkpt lat="42.08036" lon="2.46746">
        <ele>739</ele>
        <time>2010-01-01T02:33:56Z</time>
      </trkpt>
      <trkpt lat="42.08031" lon="2.46754">
        <ele>742</ele>
        <time>2010-01-01T02:34:00Z</time>
      </trkpt>
      <trkpt lat="42.0802" lon="2.46762">
        <ele>746</ele>
        <time>2010-01-01T02:34:04Z</time>
      </trkpt>
      <trkpt lat="42.08005" lon="2.46768">
        <ele>750</ele>
        <time>2010-01-01T02:34:11Z</time>
      </trkpt>
      <trkpt lat="42.07998" lon="2.46774">
        <ele>754</ele>
        <time>2010-01-01T02:34:14Z</time>
      </trkpt>
      <trkpt lat="42.07992" lon="2.46777">
        <ele>758</ele>
        <time>2010-01-01T02:34:17Z</time>
      </trkpt>
      <trkpt lat="42.0799" lon="2.46776">
        <ele>758</ele>
        <time>2010-01-01T02:34:18Z</time>
      </trkpt>
      <trkpt lat="42.07984" lon="2.4678">
        <ele>761</ele>
        <time>2010-01-01T02:34:20Z</time>
      </trkpt>
      <trkpt lat="42.0798" lon="2.46781">
        <ele>763</ele>
        <time>2010-01-01T02:34:22Z</time>
      </trkpt>
      <trkpt lat="42.07967" lon="2.46781">
        <ele>766</ele>
        <time>2010-01-01T02:34:27Z</time>
      </trkpt>
      <trkpt lat="42.07957" lon="2.46783">
        <ele>767</ele>
        <time>2010-01-01T02:34:31Z</time>
      </trkpt>
      <trkpt lat="42.07939" lon="2.46792">
        <ele>771</ele>
        <time>2010-01-01T02:34:39Z</time>
      </trkpt>
      <trkpt lat="42.07932" lon="2.46797">
        <ele>773</ele>
        <time>2010-01-01T02:34:42Z</time>
      </trkpt>
      <trkpt lat="42.07925" lon="2.46799">
        <ele>774</ele>
        <time>2010-01-01T02:34:45Z</time>
      </trkpt>
      <trkpt lat="42.07903" lon="2.46817">
        <ele>784</ele>
        <time>2010-01-01T02:34:55Z</time>
      </trkpt>
      <trkpt lat="42.07894" lon="2.46822">
        <ele>786</ele>
        <time>2010-01-01T02:34:59Z</time>
      </trkpt>
      <trkpt lat="42.07883" lon="2.46826">
        <ele>789</ele>
        <time>2010-01-01T02:35:04Z</time>
      </trkpt>
      <trkpt lat="42.07874" lon="2.46833">
        <ele>791</ele>
        <time>2010-01-01T02:35:08Z</time>
      </trkpt>
      <trkpt lat="42.07874" lon="2.46836">
        <ele>792</ele>
        <time>2010-01-01T02:35:08Z</time>
      </trkpt>
      <trkpt lat="42.07861" lon="2.46837">
        <ele>793</ele>
        <time>2010-01-01T02:35:13Z</time>
      </trkpt>
      <trkpt lat="42.07854" lon="2.46844">
        <ele>795</ele>
        <time>2010-01-01T02:35:17Z</time>
      </trkpt>
      <trkpt lat="42.07855" lon="2.46847">
        <ele>796</ele>
        <time>2010-01-01T02:35:18Z</time>
      </trkpt>
      <trkpt lat="42.0785" lon="2.46854">
        <ele>798</ele>
        <time>2010-01-01T02:35:21Z</time>
      </trkpt>
      <trkpt lat="42.07848" lon="2.46863">
        <ele>800</ele>
        <time>2010-01-01T02:35:24Z</time>
      </trkpt>
      <trkpt lat="42.07847" lon="2.46864">
        <ele>800</ele>
        <time>2010-01-01T02:35:24Z</time>
      </trkpt>
      <trkpt lat="42.07843" lon="2.46872">
        <ele>802</ele>
        <time>2010-01-01T02:35:27Z</time>
      </trkpt>
      <trkpt lat="42.0784" lon="2.46875">
        <ele>803</ele>
        <time>2010-01-01T02:35:29Z</time>
      </trkpt>
      <trkpt lat="42.0784" lon="2.46887">
        <ele>806</ele>
        <time>2010-01-01T02:35:32Z</time>
      </trkpt>
      <trkpt lat="42.07835" lon="2.46897">
        <ele>809</ele>
        <time>2010-01-01T02:35:36Z</time>
      </trkpt>
      <trkpt lat="42.07836" lon="2.46905">
        <ele>810</ele>
        <time>2010-01-01T02:35:38Z</time>
      </trkpt>
      <trkpt lat="42.07834" lon="2.46918">
        <ele>813</ele>
        <time>2010-01-01T02:35:42Z</time>
      </trkpt>
      <trkpt lat="42.07829" lon="2.46926">
        <ele>815</ele>
        <time>2010-01-01T02:35:45Z</time>
      </trkpt>
      <trkpt lat="42.07816" lon="2.46935">
        <ele>820</ele>
        <time>2010-01-01T02:35:51Z</time>
      </trkpt>
      <trkpt lat="42.07808" lon="2.46936">
        <ele>823</ele>
        <time>2010-01-01T02:35:54Z</time>
      </trkpt>
      <trkpt lat="42.078" lon="2.46941">
        <ele>826</ele>
        <time>2010-01-01T02:35:58Z</time>
      </trkpt>
      <trkpt lat="42.07791" lon="2.46939">
        <ele>827</ele>
        <time>2010-01-01T02:36:01Z</time>
      </trkpt>
      <trkpt lat="42.07786" lon="2.46939">
        <ele>828</ele>
        <time>2010-01-01T02:36:03Z</time>
      </trkpt>
      <trkpt lat="42.07769" lon="2.46947">
        <ele>833</ele>
        <time>2010-01-01T02:36:11Z</time>
      </trkpt>
      <trkpt lat="42.07765" lon="2.46947">
        <ele>834</ele>
        <time>2010-01-01T02:36:12Z</time>
      </trkpt>
      <trkpt lat="42.07762" lon="2.46946">
        <ele>835</ele>
        <time>2010-01-01T02:36:14Z</time>
      </trkpt>
      <trkpt lat="42.07752" lon="2.46951">
        <ele>838</ele>
        <time>2010-01-01T02:36:18Z</time>
      </trkpt>
      <trkpt lat="42.0772" lon="2.46958">
        <ele>846</ele>
        <time>2010-01-01T02:36:31Z</time>
      </trkpt>
      <trkpt lat="42.07712" lon="2.46962">
        <ele>848</ele>
        <time>2010-01-01T02:36:34Z</time>
      </trkpt>
      <trkpt lat="42.07704" lon="2.46961">
        <ele>849</ele>
        <time>2010-01-01T02:36:38Z</time>
      </trkpt>
      <trkpt lat="42.07694" lon="2.46964">
        <ele>851</ele>
        <time>2010-01-01T02:36:42Z</time>
      </trkpt>
      <trkpt lat="42.07673" lon="2.46975">
        <ele>855</ele>
        <time>2010-01-01T02:36:51Z</time>
      </trkpt>
      <trkpt lat="42.07658" lon="2.46977">
        <ele>856</ele>
        <time>2010-01-01T02:36:57Z</time>
      </trkpt>
      <trkpt lat="42.07653" lon="2.46982">
        <ele>858</ele>
        <time>2010-01-01T02:36:59Z</time>
      </trkpt>
      <trkpt lat="42.07644" lon="2.46984">
        <ele>859</ele>
        <time>2010-01-01T02:37:03Z</time>
      </trkpt>
      <trkpt lat="42.07631" lon="2.46991">
        <ele>861</ele>
        <time>2010-01-01T02:37:09Z</time>
      </trkpt>
      <trkpt lat="42.0761" lon="2.4699">
        <ele>864</ele>
        <time>2010-01-01T02:37:17Z</time>
      </trkpt>
      <trkpt lat="42.07604" lon="2.46992">
        <ele>866</ele>
        <time>2010-01-01T02:37:19Z</time>
      </trkpt>
      <trkpt lat="42.07602" lon="2.4699">
        <ele>866</ele>
        <time>2010-01-01T02:37:20Z</time>
      </trkpt>
      <trkpt lat="42.07594" lon="2.46992">
        <ele>867</ele>
        <time>2010-01-01T02:37:24Z</time>
      </trkpt>
      <trkpt lat="42.07592" lon="2.46991">
        <ele>867</ele>
        <time>2010-01-01T02:37:25Z</time>
      </trkpt>
      <trkpt lat="42.07584" lon="2.46991">
        <ele>868</ele>
        <time>2010-01-01T02:37:28Z</time>
      </trkpt>
      <trkpt lat="42.0757" lon="2.46994">
        <ele>873</ele>
        <time>2010-01-01T02:37:33Z</time>
      </trkpt>
      <trkpt lat="42.07564" lon="2.46997">
        <ele>875</ele>
        <time>2010-01-01T02:37:36Z</time>
      </trkpt>
      <trkpt lat="42.0756" lon="2.46997">
        <ele>876</ele>
        <time>2010-01-01T02:37:38Z</time>
      </trkpt>
      <trkpt lat="42.07551" lon="2.46999">
        <ele>879</ele>
        <time>2010-01-01T02:37:41Z</time>
      </trkpt>
      <trkpt lat="42.07547" lon="2.47002">
        <ele>881</ele>
        <time>2010-01-01T02:37:43Z</time>
      </trkpt>
      <trkpt lat="42.07542" lon="2.47002">
        <ele>882</ele>
        <time>2010-01-01T02:37:45Z</time>
      </trkpt>
      <trkpt lat="42.07528" lon="2.47007">
        <ele>886</ele>
        <time>2010-01-01T02:37:51Z</time>
      </trkpt>
      <trkpt lat="42.07522" lon="2.47007">
        <ele>887</ele>
        <time>2010-01-01T02:37:53Z</time>
      </trkpt>
      <trkpt lat="42.07513" lon="2.47004">
        <ele>888</ele>
        <time>2010-01-01T02:37:57Z</time>
      </trkpt>
      <trkpt lat="42.07498" lon="2.47004">
        <ele>890</ele>
        <time>2010-01-01T02:38:03Z</time>
      </trkpt>
      <trkpt lat="42.0749" lon="2.47012">
        <ele>892</ele>
        <time>2010-01-01T02:38:07Z</time>
      </trkpt>
      <trkpt lat="42.07472" lon="2.47021">
        <ele>894</ele>
        <time>2010-01-01T02:38:15Z</time>
      </trkpt>
      <trkpt lat="42.07462" lon="2.47032">
        <ele>896</ele>
        <time>2010-01-01T02:38:20Z</time>
      </trkpt>
      <trkpt lat="42.07453" lon="2.47034">
        <ele>896</ele>
        <time>2010-01-01T02:38:23Z</time>
      </trkpt>
      <trkpt lat="42.0744" lon="2.47043">
        <ele>898</ele>
        <time>2010-01-01T02:38:29Z</time>
      </trkpt>
      <trkpt lat="42.07431" lon="2.47048">
        <ele>898</ele>
        <time>2010-01-01T02:38:33Z</time>
      </trkpt>
      <trkpt lat="42.07422" lon="2.47051">
        <ele>899</ele>
        <time>2010-01-01T02:38:37Z</time>
      </trkpt>
      <trkpt lat="42.07413" lon="2.4705">
        <ele>899</ele>
        <time>2010-01-01T02:38:40Z</time>
      </trkpt>
      <trkpt lat="42.07396" lon="2.47053">
        <ele>898</ele>
        <time>2010-01-01T02:38:47Z</time>
      </trkpt>
      <trkpt lat="42.07386" lon="2.47056">
        <ele>898</ele>
        <time>2010-01-01T02:38:51Z</time>
      </trkpt>
      <trkpt lat="42.07381" lon="2.47056">
        <ele>898</ele>
        <time>2010-01-01T02:38:53Z</time>
      </trkpt>
      <trkpt lat="42.07372" lon="2.47059">
        <ele>898</ele>
        <time>2010-01-01T02:38:57Z</time>
      </trkpt>
      <trkpt lat="42.07369" lon="2.47064">
        <ele>899</ele>
        <time>2010-01-01T02:38:59Z</time>
      </trkpt>
      <trkpt lat="42.07378" lon="2.47078">
        <ele>903</ele>
        <time>2010-01-01T02:39:05Z</time>
      </trkpt>
      <trkpt lat="42.07398" lon="2.47103">
        <ele>912</ele>
        <time>2010-01-01T02:39:15Z</time>
      </trkpt>
      <trkpt lat="42.07413" lon="2.47116">
        <ele>917</ele>
        <time>2010-01-01T02:39:23Z</time>
      </trkpt>
      <trkpt lat="42.07448" lon="2.47141">
        <ele>923</ele>
        <time>2010-01-01T02:39:38Z</time>
      </trkpt>
      <trkpt lat="42.07459" lon="2.4716">
        <ele>928</ele>
        <time>2010-01-01T02:39:46Z</time>
      </trkpt>
      <trkpt lat="42.07463" lon="2.47171">
        <ele>930</ele>
        <time>2010-01-01T02:39:49Z</time>
      </trkpt>
      <trkpt lat="42.07463" lon="2.47176">
        <ele>931</ele>
        <time>2010-01-01T02:39:51Z</time>
      </trkpt>
      <trkpt lat="42.07471" lon="2.47199">
        <ele>934</ele>
        <time>2010-01-01T02:39:58Z</time>
      </trkpt>
      <trkpt lat="42.07469" lon="2.47206">
        <ele>934</ele>
        <time>2010-01-01T02:40:00Z</time>
      </trkpt>
      <trkpt lat="42.07469" lon="2.47218">
        <ele>935</ele>
        <time>2010-01-01T02:40:04Z</time>
      </trkpt>
      <trkpt lat="42.0746" lon="2.47242">
        <ele>936</ele>
        <time>2010-01-01T02:40:12Z</time>
      </trkpt>
      <trkpt lat="42.07449" lon="2.47256">
        <ele>937</ele>
        <time>2010-01-01T02:40:18Z</time>
      </trkpt>
      <trkpt lat="42.07444" lon="2.47259">
        <ele>937</ele>
        <time>2010-01-01T02:40:20Z</time>
      </trkpt>
      <trkpt lat="42.07437" lon="2.4726">
        <ele>938</ele>
        <time>2010-01-01T02:40:23Z</time>
      </trkpt>
      <trkpt lat="42.07421" lon="2.47252">
        <ele>942</ele>
        <time>2010-01-01T02:40:30Z</time>
      </trkpt>
      <trkpt lat="42.07413" lon="2.47247">
        <ele>943</ele>
        <time>2010-01-01T02:40:33Z</time>
      </trkpt>
      <trkpt lat="42.07407" lon="2.4724">
        <ele>944</ele>
        <time>2010-01-01T02:40:36Z</time>
      </trkpt>
      <trkpt lat="42.07401" lon="2.47237">
        <ele>946</ele>
        <time>2010-01-01T02:40:39Z</time>
      </trkpt>
      <trkpt lat="42.0739" lon="2.47236">
        <ele>948</ele>
        <time>2010-01-01T02:40:43Z</time>
      </trkpt>
      <trkpt lat="42.07375" lon="2.4724">
        <ele>950</ele>
        <time>2010-01-01T02:40:50Z</time>
      </trkpt>
      <trkpt lat="42.07359" lon="2.47255">
        <ele>954</ele>
        <time>2010-01-01T02:40:58Z</time>
      </trkpt>
      <trkpt lat="42.07353" lon="2.47254">
        <ele>954</ele>
        <time>2010-01-01T02:41:00Z</time>
      </trkpt>
      <trkpt lat="42.07344" lon="2.47258">
        <ele>955</ele>
        <time>2010-01-01T02:41:04Z</time>
      </trkpt>
      <trkpt lat="42.07341" lon="2.47262">
        <ele>956</ele>
        <time>2010-01-01T02:41:05Z</time>
      </trkpt>
      <trkpt lat="42.07332" lon="2.47279">
        <ele>959</ele>
        <time>2010-01-01T02:41:11Z</time>
      </trkpt>
      <trkpt lat="42.07323" lon="2.47306">
        <ele>958</ele>
        <time>2010-01-01T02:41:20Z</time>
      </trkpt>
      <trkpt lat="42.07315" lon="2.47314">
        <ele>957</ele>
        <time>2010-01-01T02:41:24Z</time>
      </trkpt>
      <trkpt lat="42.07301" lon="2.47319">
        <ele>960</ele>
        <time>2010-01-01T02:41:30Z</time>
      </trkpt>
      <trkpt lat="42.07284" lon="2.47313">
        <ele>965</ele>
        <time>2010-01-01T02:41:37Z</time>
      </trkpt>
      <trkpt lat="42.07278" lon="2.47316">
        <ele>966</ele>
        <time>2010-01-01T02:41:40Z</time>
      </trkpt>
      <trkpt lat="42.07269" lon="2.47315">
        <ele>968</ele>
        <time>2010-01-01T02:41:43Z</time>
      </trkpt>
      <trkpt lat="42.07262" lon="2.47318">
        <ele>969</ele>
        <time>2010-01-01T02:41:46Z</time>
      </trkpt>
      <trkpt lat="42.07255" lon="2.47324">
        <ele>971</ele>
        <time>2010-01-01T02:41:50Z</time>
      </trkpt>
      <trkpt lat="42.07254" lon="2.47327">
        <ele>971</ele>
        <time>2010-01-01T02:41:51Z</time>
      </trkpt>
      <trkpt lat="42.07246" lon="2.47336">
        <ele>973</ele>
        <time>2010-01-01T02:41:55Z</time>
      </trkpt>
      <trkpt lat="42.07242" lon="2.47342">
        <ele>973</ele>
        <time>2010-01-01T02:41:57Z</time>
      </trkpt>
      <trkpt lat="42.07226" lon="2.4736">
        <ele>974</ele>
        <time>2010-01-01T02:42:06Z</time>
      </trkpt>
      <trkpt lat="42.07216" lon="2.47368">
        <ele>974</ele>
        <time>2010-01-01T02:42:10Z</time>
      </trkpt>
      <trkpt lat="42.07195" lon="2.47382">
        <ele>975</ele>
        <time>2010-01-01T02:42:20Z</time>
      </trkpt>
      <trkpt lat="42.0719" lon="2.47387">
        <ele>975</ele>
        <time>2010-01-01T02:42:22Z</time>
      </trkpt>
      <trkpt lat="42.07175" lon="2.47398">
        <ele>975</ele>
        <time>2010-01-01T02:42:29Z</time>
      </trkpt>
      <trkpt lat="42.07151" lon="2.4741">
        <ele>977</ele>
        <time>2010-01-01T02:42:39Z</time>
      </trkpt>
      <trkpt lat="42.07115" lon="2.47435">
        <ele>976</ele>
        <time>2010-01-01T02:42:55Z</time>
      </trkpt>
      <trkpt lat="42.07101" lon="2.47442">
        <ele>976</ele>
        <time>2010-01-01T02:43:02Z</time>
      </trkpt>
      <trkpt lat="42.07089" lon="2.47452">
        <ele>976</ele>
        <time>2010-01-01T02:43:07Z</time>
      </trkpt>
      <trkpt lat="42.07056" lon="2.4747">
        <ele>980</ele>
        <time>2010-01-01T02:43:21Z</time>
      </trkpt>
      <trkpt lat="42.07046" lon="2.47483">
        <ele>981</ele>
        <time>2010-01-01T02:43:27Z</time>
      </trkpt>
      <trkpt lat="42.07023" lon="2.47506">
        <ele>985</ele>
        <time>2010-01-01T02:43:38Z</time>
      </trkpt>
      <trkpt lat="42.0702" lon="2.47512">
        <ele>984</ele>
        <time>2010-01-01T02:43:41Z</time>
      </trkpt>
      <trkpt lat="42.07018" lon="2.4752">
        <ele>984</ele>
        <time>2010-01-01T02:43:43Z</time>
      </trkpt>
      <trkpt lat="42.0701" lon="2.47531">
        <ele>984</ele>
        <time>2010-01-01T02:43:48Z</time>
      </trkpt>
      <trkpt lat="42.07001" lon="2.47553">
        <ele>984</ele>
        <time>2010-01-01T02:43:55Z</time>
      </trkpt>
      <trkpt lat="42.06997" lon="2.4756">
        <ele>983</ele>
        <time>2010-01-01T02:43:58Z</time>
      </trkpt>
      <trkpt lat="42.06995" lon="2.47562">
        <ele>983</ele>
        <time>2010-01-01T02:43:59Z</time>
      </trkpt>
      <trkpt lat="42.06987" lon="2.47591">
        <ele>984</ele>
        <time>2010-01-01T02:44:08Z</time>
      </trkpt>
      <trkpt lat="42.06987" lon="2.47594">
        <ele>984</ele>
        <time>2010-01-01T02:44:09Z</time>
      </trkpt>
      <trkpt lat="42.0699" lon="2.476">
        <ele>985</ele>
        <time>2010-01-01T02:44:11Z</time>
      </trkpt>
      <trkpt lat="42.06987" lon="2.47612">
        <ele>986</ele>
        <time>2010-01-01T02:44:15Z</time>
      </trkpt>
      <trkpt lat="42.06987" lon="2.47629">
        <ele>987</ele>
        <time>2010-01-01T02:44:20Z</time>
      </trkpt>
      <trkpt lat="42.06993" lon="2.47648">
        <ele>988</ele>
        <time>2010-01-01T02:44:26Z</time>
      </trkpt>
      <trkpt lat="42.06997" lon="2.47667">
        <ele>988</ele>
        <time>2010-01-01T02:44:32Z</time>
      </trkpt>
      <trkpt lat="42.06996" lon="2.47678">
        <ele>988</ele>
        <time>2010-01-01T02:44:35Z</time>
      </trkpt>
      <trkpt lat="42.06991" lon="2.47703">
        <ele>987</ele>
        <time>2010-01-01T02:44:43Z</time>
      </trkpt>
      <trkpt lat="42.06984" lon="2.47724">
        <ele>986</ele>
        <time>2010-01-01T02:44:50Z</time>
      </trkpt>
      <trkpt lat="42.06973" lon="2.4775">
        <ele>986</ele>
        <time>2010-01-01T02:44:59Z</time>
      </trkpt>
      <trkpt lat="42.06969" lon="2.47756">
        <ele>987</ele>
        <time>2010-01-01T02:45:01Z</time>
      </trkpt>
      <trkpt lat="42.06966" lon="2.47762">
        <ele>987</ele>
        <time>2010-01-01T02:45:03Z</time>
      </trkpt>
      <trkpt lat="42.06953" lon="2.47801">
        <ele>986</ele>
        <time>2010-01-01T02:45:16Z</time>
      </trkpt>
      <trkpt lat="42.06943" lon="2.47823">
        <ele>985</ele>
        <time>2010-01-01T02:45:24Z</time>
      </trkpt>
      <trkpt lat="42.06939" lon="2.47828">
        <ele>984</ele>
        <time>2010-01-01T02:45:26Z</time>
      </trkpt>
      <trkpt lat="42.06932" lon="2.4783">
        <ele>984</ele>
        <time>2010-01-01T02:45:29Z</time>
      </trkpt>
      <trkpt lat="42.06923" lon="2.47824">
        <ele>984</ele>
        <time>2010-01-01T02:45:33Z</time>
      </trkpt>
      <trkpt lat="42.06914" lon="2.47813">
        <ele>984</ele>
        <time>2010-01-01T02:45:38Z</time>
      </trkpt>
      <trkpt lat="42.06909" lon="2.47803">
        <ele>984</ele>
        <time>2010-01-01T02:45:41Z</time>
      </trkpt>
      <trkpt lat="42.06897" lon="2.47786">
        <ele>985</ele>
        <time>2010-01-01T02:45:48Z</time>
      </trkpt>
      <trkpt lat="42.06861" lon="2.47747">
        <ele>991</ele>
        <time>2010-01-01T02:46:07Z</time>
      </trkpt>
      <trkpt lat="42.0685" lon="2.47731">
        <ele>993</ele>
        <time>2010-01-01T02:46:13Z</time>
      </trkpt>
      <trkpt lat="42.06848" lon="2.47719">
        <ele>994</ele>
        <time>2010-01-01T02:46:17Z</time>
      </trkpt>
      <trkpt lat="42.06849" lon="2.477">
        <ele>994</ele>
        <time>2010-01-01T02:46:22Z</time>
      </trkpt>
      <trkpt lat="42.06846" lon="2.47694">
        <ele>995</ele>
        <time>2010-01-01T02:46:24Z</time>
      </trkpt>
      <trkpt lat="42.06842" lon="2.47692">
        <ele>997</ele>
        <time>2010-01-01T02:46:26Z</time>
      </trkpt>
      <trkpt lat="42.06834" lon="2.47689">
        <ele>1000</ele>
        <time>2010-01-01T02:46:30Z</time>
      </trkpt>
      <trkpt lat="42.06819" lon="2.47696">
        <ele>1003</ele>
        <time>2010-01-01T02:46:36Z</time>
      </trkpt>
      <trkpt lat="42.06809" lon="2.47695">
        <ele>1006</ele>
        <time>2010-01-01T02:46:40Z</time>
      </trkpt>
      <trkpt lat="42.06806" lon="2.47699">
        <ele>1007</ele>
        <time>2010-01-01T02:46:41Z</time>
      </trkpt>
      <trkpt lat="42.06807" lon="2.47699">
        <ele>1006</ele>
        <time>2010-01-01T02:46:42Z</time>
      </trkpt>
      <trkpt lat="42.06797" lon="2.47706">
        <ele>1007</ele>
        <time>2010-01-01T02:46:47Z</time>
      </trkpt>
      <trkpt lat="42.06784" lon="2.47722">
        <ele>1007</ele>
        <time>2010-01-01T02:46:53Z</time>
      </trkpt>
      <trkpt lat="42.06772" lon="2.47723">
        <ele>1009</ele>
        <time>2010-01-01T02:46:59Z</time>
      </trkpt>
      <trkpt lat="42.06766" lon="2.47726">
        <ele>1009</ele>
        <time>2010-01-01T02:47:01Z</time>
      </trkpt>
      <trkpt lat="42.06748" lon="2.47729">
        <ele>1010</ele>
        <time>2010-01-01T02:47:08Z</time>
      </trkpt>
      <trkpt lat="42.06739" lon="2.47726">
        <ele>1010</ele>
        <time>2010-01-01T02:47:12Z</time>
      </trkpt>
      <trkpt lat="42.06704" lon="2.47717">
        <ele>1013</ele>
        <time>2010-01-01T02:47:26Z</time>
      </trkpt>
      <trkpt lat="42.06675" lon="2.47705">
        <ele>1015</ele>
        <time>2010-01-01T02:47:38Z</time>
      </trkpt>
      <trkpt lat="42.06656" lon="2.47699">
        <ele>1017</ele>
        <time>2010-01-01T02:47:46Z</time>
      </trkpt>
      <trkpt lat="42.06639" lon="2.47688">
        <ele>1018</ele>
        <time>2010-01-01T02:47:54Z</time>
      </trkpt>
      <trkpt lat="42.06623" lon="2.47673">
        <ele>1020</ele>
        <time>2010-01-01T02:48:02Z</time>
      </trkpt>
      <trkpt lat="42.0661" lon="2.47669">
        <ele>1022</ele>
        <time>2010-01-01T02:48:07Z</time>
      </trkpt>
      <trkpt lat="42.06602" lon="2.47665">
        <ele>1022</ele>
        <time>2010-01-01T02:48:11Z</time>
      </trkpt>
      <trkpt lat="42.06591" lon="2.47649">
        <ele>1021</ele>
        <time>2010-01-01T02:48:17Z</time>
      </trkpt>
      <trkpt lat="42.06587" lon="2.47645">
        <ele>1022</ele>
        <time>2010-01-01T02:48:19Z</time>
      </trkpt>
      <trkpt lat="42.06582" lon="2.47643">
        <ele>1022</ele>
        <time>2010-01-01T02:48:21Z</time>
      </trkpt>
      <trkpt lat="42.06574" lon="2.47645">
        <ele>1022</ele>
        <time>2010-01-01T02:48:24Z</time>
      </trkpt>
      <trkpt lat="42.06574" lon="2.47651">
        <ele>1023</ele>
        <time>2010-01-01T02:48:26Z</time>
      </trkpt>
      <trkpt lat="42.06582" lon="2.47683">
        <ele>1024</ele>
        <time>2010-01-01T02:48:36Z</time>
      </trkpt>
      <trkpt lat="42.06582" lon="2.47695">
        <ele>1025</ele>
        <time>2010-01-01T02:48:40Z</time>
      </trkpt>
      <trkpt lat="42.06577" lon="2.47738">
        <ele>1025</ele>
        <time>2010-01-01T02:48:53Z</time>
      </trkpt>
      <trkpt lat="42.06565" lon="2.47773">
        <ele>1026</ele>
        <time>2010-01-01T02:49:04Z</time>
      </trkpt>
      <trkpt lat="42.06561" lon="2.47792">
        <ele>1026</ele>
        <time>2010-01-01T02:49:10Z</time>
      </trkpt>
      <trkpt lat="42.06557" lon="2.47803">
        <ele>1026</ele>
        <time>2010-01-01T02:49:13Z</time>
      </trkpt>
      <trkpt lat="42.06542" lon="2.47831">
        <ele>1027</ele>
        <time>2010-01-01T02:49:24Z</time>
      </trkpt>
      <trkpt lat="42.06534" lon="2.4785">
        <ele>1029</ele>
        <time>2010-01-01T02:49:30Z</time>
      </trkpt>
      <trkpt lat="42.06517" lon="2.47874">
        <ele>1031</ele>
        <time>2010-01-01T02:49:40Z</time>
      </trkpt>
      <trkpt lat="42.06504" lon="2.47888">
        <ele>1030</ele>
        <time>2010-01-01T02:49:47Z</time>
      </trkpt>
      <trkpt lat="42.06495" lon="2.47905">
        <ele>1030</ele>
        <time>2010-01-01T02:49:53Z</time>
      </trkpt>
      <trkpt lat="42.06493" lon="2.47914">
        <ele>1030</ele>
        <time>2010-01-01T02:49:56Z</time>
      </trkpt>
      <trkpt lat="42.06491" lon="2.47932">
        <ele>1031</ele>
        <time>2010-01-01T02:50:01Z</time>
      </trkpt>
      <trkpt lat="42.06494" lon="2.47948">
        <ele>1032</ele>
        <time>2010-01-01T02:50:06Z</time>
      </trkpt>
      <trkpt lat="42.06506" lon="2.47972">
        <ele>1033</ele>
        <time>2010-01-01T02:50:14Z</time>
      </trkpt>
      <trkpt lat="42.06509" lon="2.47987">
        <ele>1033</ele>
        <time>2010-01-01T02:50:19Z</time>
      </trkpt>
      <trkpt lat="42.06501" lon="2.48048">
        <ele>1031</ele>
        <time>2010-01-01T02:50:38Z</time>
      </trkpt>
      <trkpt lat="42.06506" lon="2.48064">
        <ele>1030</ele>
        <time>2010-01-01T02:50:43Z</time>
      </trkpt>
      <trkpt lat="42.06514" lon="2.48079">
        <ele>1028</ele>
        <time>2010-01-01T02:50:48Z</time>
      </trkpt>
      <trkpt lat="42.06517" lon="2.48095">
        <ele>1026</ele>
        <time>2010-01-01T02:50:53Z</time>
      </trkpt>
      <trkpt lat="42.06516" lon="2.48105">
        <ele>1025</ele>
        <time>2010-01-01T02:50:56Z</time>
      </trkpt>
      <trkpt lat="42.06509" lon="2.4812">
        <ele>1025</ele>
        <time>2010-01-01T02:51:01Z</time>
      </trkpt>
      <trkpt lat="42.06506" lon="2.48151">
        <ele>1022</ele>
        <time>2010-01-01T02:51:11Z</time>
      </trkpt>
      <trkpt lat="42.06508" lon="2.48164">
        <ele>1021</ele>
        <time>2010-01-01T02:51:15Z</time>
      </trkpt>
      <trkpt lat="42.06507" lon="2.48178">
        <ele>1021</ele>
        <time>2010-01-01T02:51:19Z</time>
      </trkpt>
      <trkpt lat="42.06514" lon="2.48237">
        <ele>1022</ele>
        <time>2010-01-01T02:51:36Z</time>
      </trkpt>
      <trkpt lat="42.06513" lon="2.48253">
        <ele>1024</ele>
        <time>2010-01-01T02:51:41Z</time>
      </trkpt>
      <trkpt lat="42.06508" lon="2.48293">
        <ele>1029</ele>
        <time>2010-01-01T02:51:53Z</time>
      </trkpt>
      <trkpt lat="42.06502" lon="2.48323">
        <ele>1032</ele>
        <time>2010-01-01T02:52:03Z</time>
      </trkpt>
      <trkpt lat="42.06495" lon="2.48337">
        <ele>1034</ele>
        <time>2010-01-01T02:52:07Z</time>
      </trkpt>
      <trkpt lat="42.06484" lon="2.48354">
        <ele>1035</ele>
        <time>2010-01-01T02:52:14Z</time>
      </trkpt>
      <trkpt lat="42.06472" lon="2.4838">
        <ele>1037</ele>
        <time>2010-01-01T02:52:23Z</time>
      </trkpt>
      <trkpt lat="42.06465" lon="2.4841">
        <ele>1038</ele>
        <time>2010-01-01T02:52:33Z</time>
      </trkpt>
      <trkpt lat="42.06464" lon="2.48428">
        <ele>1038</ele>
        <time>2010-01-01T02:52:38Z</time>
      </trkpt>
      <trkpt lat="42.06456" lon="2.48452">
        <ele>1039</ele>
        <time>2010-01-01T02:52:46Z</time>
      </trkpt>
      <trkpt lat="42.06453" lon="2.48465">
        <ele>1040</ele>
        <time>2010-01-01T02:52:50Z</time>
      </trkpt>
      <trkpt lat="42.06451" lon="2.48488">
        <ele>1041</ele>
        <time>2010-01-01T02:52:57Z</time>
      </trkpt>
      <trkpt lat="42.06448" lon="2.485">
        <ele>1042</ele>
        <time>2010-01-01T02:53:01Z</time>
      </trkpt>
      <trkpt lat="42.06445" lon="2.48524">
        <ele>1042</ele>
        <time>2010-01-01T02:53:08Z</time>
      </trkpt>
      <trkpt lat="42.0644" lon="2.48541">
        <ele>1043</ele>
        <time>2010-01-01T02:53:13Z</time>
      </trkpt>
      <trkpt lat="42.06429" lon="2.48563">
        <ele>1043</ele>
        <time>2010-01-01T02:53:21Z</time>
      </trkpt>
      <trkpt lat="42.06428" lon="2.48599">
        <ele>1044</ele>
        <time>2010-01-01T02:53:32Z</time>
      </trkpt>
      <trkpt lat="42.06425" lon="2.48618">
        <ele>1043</ele>
        <time>2010-01-01T02:53:38Z</time>
      </trkpt>
      <trkpt lat="42.06427" lon="2.4865">
        <ele>1042</ele>
        <time>2010-01-01T02:53:47Z</time>
      </trkpt>
      <trkpt lat="42.06431" lon="2.48662">
        <ele>1042</ele>
        <time>2010-01-01T02:53:51Z</time>
      </trkpt>
      <trkpt lat="42.06431" lon="2.48682">
        <ele>1041</ele>
        <time>2010-01-01T02:53:57Z</time>
      </trkpt>
      <trkpt lat="42.06422" lon="2.48737">
        <ele>1039</ele>
        <time>2010-01-01T02:54:14Z</time>
      </trkpt>
      <trkpt lat="42.06429" lon="2.48801">
        <ele>1041</ele>
        <time>2010-01-01T02:54:33Z</time>
      </trkpt>
      <trkpt lat="42.06424" lon="2.48833">
        <ele>1043</ele>
        <time>2010-01-01T02:54:43Z</time>
      </trkpt>
      <trkpt lat="42.06415" lon="2.4887">
        <ele>1045</ele>
        <time>2010-01-01T02:54:54Z</time>
      </trkpt>
      <trkpt lat="42.06415" lon="2.48895">
        <ele>1047</ele>
        <time>2010-01-01T02:55:01Z</time>
      </trkpt>
      <trkpt lat="42.06412" lon="2.48904">
        <ele>1048</ele>
        <time>2010-01-01T02:55:04Z</time>
      </trkpt>
      <trkpt lat="42.06403" lon="2.48916">
        <ele>1050</ele>
        <time>2010-01-01T02:55:09Z</time>
      </trkpt>
      <trkpt lat="42.06404" lon="2.48929">
        <ele>1051</ele>
        <time>2010-01-01T02:55:13Z</time>
      </trkpt>
      <trkpt lat="42.06398" lon="2.48945">
        <ele>1054</ele>
        <time>2010-01-01T02:55:19Z</time>
      </trkpt>
      <trkpt lat="42.06389" lon="2.48987">
        <ele>1057</ele>
        <time>2010-01-01T02:55:31Z</time>
      </trkpt>
      <trkpt lat="42.06386" lon="2.48994">
        <ele>1058</ele>
        <time>2010-01-01T02:55:34Z</time>
      </trkpt>
      <trkpt lat="42.06381" lon="2.49003">
        <ele>1060</ele>
        <time>2010-01-01T02:55:37Z</time>
      </trkpt>
      <trkpt lat="42.06355" lon="2.49043">
        <ele>1067</ele>
        <time>2010-01-01T02:55:53Z</time>
      </trkpt>
      <trkpt lat="42.06329" lon="2.49077">
        <ele>1070</ele>
        <time>2010-01-01T02:56:08Z</time>
      </trkpt>
      <trkpt lat="42.06315" lon="2.49105">
        <ele>1068</ele>
        <time>2010-01-01T02:56:18Z</time>
      </trkpt>
      <trkpt lat="42.06307" lon="2.49132">
        <ele>1068</ele>
        <time>2010-01-01T02:56:26Z</time>
      </trkpt>
      <trkpt lat="42.06299" lon="2.49198">
        <ele>1067</ele>
        <time>2010-01-01T02:56:46Z</time>
      </trkpt>
      <trkpt lat="42.06294" lon="2.49233">
        <ele>1067</ele>
        <time>2010-01-01T02:56:57Z</time>
      </trkpt>
      <trkpt lat="42.06289" lon="2.49256">
        <ele>1067</ele>
        <time>2010-01-01T02:57:04Z</time>
      </trkpt>
      <trkpt lat="42.06283" lon="2.49273">
        <ele>1068</ele>
        <time>2010-01-01T02:57:09Z</time>
      </trkpt>
      <trkpt lat="42.0628" lon="2.49287">
        <ele>1068</ele>
        <time>2010-01-01T02:57:14Z</time>
      </trkpt>
      <trkpt lat="42.06276" lon="2.49294">
        <ele>1069</ele>
        <time>2010-01-01T02:57:16Z</time>
      </trkpt>
      <trkpt lat="42.06269" lon="2.49304">
        <ele>1069</ele>
        <time>2010-01-01T02:57:21Z</time>
      </trkpt>
      <trkpt lat="42.06253" lon="2.49318">
        <ele>1070</ele>
        <time>2010-01-01T02:57:28Z</time>
      </trkpt>
      <trkpt lat="42.0624" lon="2.49331">
        <ele>1070</ele>
        <time>2010-01-01T02:57:35Z</time>
      </trkpt>
      <trkpt lat="42.06232" lon="2.49348">
        <ele>1071</ele>
        <time>2010-01-01T02:57:41Z</time>
      </trkpt>
      <trkpt lat="42.06227" lon="2.49367">
        <ele>1072</ele>
        <time>2010-01-01T02:57:47Z</time>
      </trkpt>
      <trkpt lat="42.06219" lon="2.49413">
        <ele>1072</ele>
        <time>2010-01-01T02:58:01Z</time>
      </trkpt>
      <trkpt lat="42.06215" lon="2.49427">
        <ele>1071</ele>
        <time>2010-01-01T02:58:05Z</time>
      </trkpt>
      <trkpt lat="42.06204" lon="2.49442">
        <ele>1070</ele>
        <time>2010-01-01T02:58:11Z</time>
      </trkpt>
      <trkpt lat="42.06197" lon="2.4945">
        <ele>1070</ele>
        <time>2010-01-01T02:58:15Z</time>
      </trkpt>
      <trkpt lat="42.06187" lon="2.49458">
        <ele>1069</ele>
        <time>2010-01-01T02:58:20Z</time>
      </trkpt>
      <trkpt lat="42.06179" lon="2.49469">
        <ele>1069</ele>
        <time>2010-01-01T02:58:24Z</time>
      </trkpt>
      <trkpt lat="42.06162" lon="2.49482">
        <ele>1069</ele>
        <time>2010-01-01T02:58:32Z</time>
      </trkpt>
      <trkpt lat="42.06155" lon="2.49494">
        <ele>1069</ele>
        <time>2010-01-01T02:58:36Z</time>
      </trkpt>
      <trkpt lat="42.06156" lon="2.49499">
        <ele>1069</ele>
        <time>2010-01-01T02:58:38Z</time>
      </trkpt>
      <trkpt lat="42.06168" lon="2.495">
        <ele>1069</ele>
        <time>2010-01-01T02:58:43Z</time>
      </trkpt>
      <trkpt lat="42.06178" lon="2.49505">
        <ele>1069</ele>
        <time>2010-01-01T02:58:47Z</time>
      </trkpt>
      <trkpt lat="42.0619" lon="2.49507">
        <ele>1069</ele>
        <time>2010-01-01T02:58:52Z</time>
      </trkpt>
      <trkpt lat="42.06197" lon="2.49504">
        <ele>1068</ele>
        <time>2010-01-01T02:58:55Z</time>
      </trkpt>
      <trkpt lat="42.06208" lon="2.49494">
        <ele>1067</ele>
        <time>2010-01-01T02:59:00Z</time>
      </trkpt>
      <trkpt lat="42.06214" lon="2.49501">
        <ele>1066</ele>
        <time>2010-01-01T02:59:03Z</time>
      </trkpt>
      <trkpt lat="42.06216" lon="2.49502">
        <ele>1066</ele>
        <time>2010-01-01T02:59:04Z</time>
      </trkpt>
      <trkpt lat="42.06222" lon="2.49503">
        <ele>1066</ele>
        <time>2010-01-01T02:59:07Z</time>
      </trkpt>
      <trkpt lat="42.06233" lon="2.49498">
        <ele>1064</ele>
        <time>2010-01-01T02:59:11Z</time>
      </trkpt>
      <trkpt lat="42.0624" lon="2.49498">
        <ele>1063</ele>
        <time>2010-01-01T02:59:14Z</time>
      </trkpt>
      <trkpt lat="42.06246" lon="2.49499">
        <ele>1062</ele>
        <time>2010-01-01T02:59:16Z</time>
      </trkpt>
      <trkpt lat="42.06254" lon="2.49509">
        <ele>1061</ele>
        <time>2010-01-01T02:59:21Z</time>
      </trkpt>
      <trkpt lat="42.0626" lon="2.4952">
        <ele>1058</ele>
        <time>2010-01-01T02:59:25Z</time>
      </trkpt>
      <trkpt lat="42.06263" lon="2.49534">
        <ele>1056</ele>
        <time>2010-01-01T02:59:29Z</time>
      </trkpt>
      <trkpt lat="42.06269" lon="2.49543">
        <ele>1053</ele>
        <time>2010-01-01T02:59:33Z</time>
      </trkpt>
      <trkpt lat="42.06271" lon="2.49549">
        <ele>1052</ele>
        <time>2010-01-01T02:59:35Z</time>
      </trkpt>
      <trkpt lat="42.06281" lon="2.49558">
        <ele>1047</ele>
        <time>2010-01-01T02:59:39Z</time>
      </trkpt>
      <trkpt lat="42.06286" lon="2.49571">
        <ele>1043</ele>
        <time>2010-01-01T02:59:44Z</time>
      </trkpt>
      <trkpt lat="42.06291" lon="2.49578">
        <ele>1040</ele>
        <time>2010-01-01T02:59:47Z</time>
      </trkpt>
      <trkpt lat="42.06294" lon="2.49579">
        <ele>1039</ele>
        <time>2010-01-01T02:59:48Z</time>
      </trkpt>
      <trkpt lat="42.06294" lon="2.49574">
        <ele>1039</ele>
        <time>2010-01-01T02:59:50Z</time>
      </trkpt>
      <trkpt lat="42.06296" lon="2.49576">
        <ele>1038</ele>
        <time>2010-01-01T02:59:51Z</time>
      </trkpt>
      <trkpt lat="42.06294" lon="2.49592">
        <ele>1037</ele>
        <time>2010-01-01T02:59:56Z</time>
      </trkpt>
      <trkpt lat="42.06296" lon="2.49604">
        <ele>1035</ele>
        <time>2010-01-01T02:59:59Z</time>
      </trkpt>
      <trkpt lat="42.06299" lon="2.49618">
        <ele>1032</ele>
        <time>2010-01-01T03:00:03Z</time>
      </trkpt>
      <trkpt lat="42.06303" lon="2.49626">
        <ele>1030</ele>
        <time>2010-01-01T03:00:06Z</time>
      </trkpt>
      <trkpt lat="42.06311" lon="2.49636">
        <ele>1026</ele>
        <time>2010-01-01T03:00:11Z</time>
      </trkpt>
      <trkpt lat="42.06317" lon="2.4963">
        <ele>1026</ele>
        <time>2010-01-01T03:00:14Z</time>
      </trkpt>
      <trkpt lat="42.06313" lon="2.49629">
        <ele>1027</ele>
        <time>2010-01-01T03:00:15Z</time>
      </trkpt>
      <trkpt lat="42.06313" lon="2.49626">
        <ele>1027</ele>
        <time>2010-01-01T03:00:16Z</time>
      </trkpt>
      <trkpt lat="42.06314" lon="2.49627">
        <ele>1027</ele>
        <time>2010-01-01T03:00:17Z</time>
      </trkpt>
      <trkpt lat="42.06307" lon="2.49625">
        <ele>1029</ele>
        <time>2010-01-01T03:00:19Z</time>
      </trkpt>
      <trkpt lat="42.06303" lon="2.49629">
        <ele>1030</ele>
        <time>2010-01-01T03:00:21Z</time>
      </trkpt>
      <trkpt lat="42.06294" lon="2.49627">
        <ele>1033</ele>
        <time>2010-01-01T03:00:25Z</time>
      </trkpt>
      <trkpt lat="42.06289" lon="2.49625">
        <ele>1034</ele>
        <time>2010-01-01T03:00:27Z</time>
      </trkpt>
      <trkpt lat="42.06282" lon="2.49619">
        <ele>1038</ele>
        <time>2010-01-01T03:00:30Z</time>
      </trkpt>
      <trkpt lat="42.06285" lon="2.49632">
        <ele>1034</ele>
        <time>2010-01-01T03:00:34Z</time>
      </trkpt>
      <trkpt lat="42.06286" lon="2.49633">
        <ele>1034</ele>
        <time>2010-01-01T03:00:35Z</time>
      </trkpt>
      <trkpt lat="42.06279" lon="2.49646">
        <ele>1032</ele>
        <time>2010-01-01T03:00:40Z</time>
      </trkpt>
      <trkpt lat="42.0625" lon="2.49676">
        <ele>1035</ele>
        <time>2010-01-01T03:00:54Z</time>
      </trkpt>
      <trkpt lat="42.06228" lon="2.49694">
        <ele>1037</ele>
        <time>2010-01-01T03:01:05Z</time>
      </trkpt>
      <trkpt lat="42.06222" lon="2.49701">
        <ele>1037</ele>
        <time>2010-01-01T03:01:08Z</time>
      </trkpt>
      <trkpt lat="42.06229" lon="2.49701">
        <ele>1035</ele>
        <time>2010-01-01T03:01:11Z</time>
      </trkpt>
      <trkpt lat="42.0623" lon="2.49704">
        <ele>1034</ele>
        <time>2010-01-01T03:01:12Z</time>
      </trkpt>
      <trkpt lat="42.06224" lon="2.49716">
        <ele>1032</ele>
        <time>2010-01-01T03:01:16Z</time>
      </trkpt>
      <trkpt lat="42.06218" lon="2.49723">
        <ele>1032</ele>
        <time>2010-01-01T03:01:19Z</time>
      </trkpt>
      <trkpt lat="42.06218" lon="2.49725">
        <ele>1030</ele>
        <time>2010-01-01T03:01:20Z</time>
      </trkpt>
      <trkpt lat="42.06221" lon="2.49726">
        <ele>1030</ele>
        <time>2010-01-01T03:01:21Z</time>
      </trkpt>
      <trkpt lat="42.06233" lon="2.49717">
        <ele>1029</ele>
        <time>2010-01-01T03:01:27Z</time>
      </trkpt>
      <trkpt lat="42.06247" lon="2.49713">
        <ele>1026</ele>
        <time>2010-01-01T03:01:32Z</time>
      </trkpt>
      <trkpt lat="42.06256" lon="2.49708">
        <ele>1025</ele>
        <time>2010-01-01T03:01:36Z</time>
      </trkpt>
      <trkpt lat="42.06262" lon="2.4971">
        <ele>1023</ele>
        <time>2010-01-01T03:01:39Z</time>
      </trkpt>
      <trkpt lat="42.06264" lon="2.49715">
        <ele>1022</ele>
        <time>2010-01-01T03:01:40Z</time>
      </trkpt>
      <trkpt lat="42.06265" lon="2.49721">
        <ele>1020</ele>
        <time>2010-01-01T03:01:42Z</time>
      </trkpt>
      <trkpt lat="42.06254" lon="2.49744">
        <ele>1014</ele>
        <time>2010-01-01T03:01:50Z</time>
      </trkpt>
      <trkpt lat="42.06253" lon="2.49751">
        <ele>1012</ele>
        <time>2010-01-01T03:01:52Z</time>
      </trkpt>
      <trkpt lat="42.06247" lon="2.49757">
        <ele>1010</ele>
        <time>2010-01-01T03:01:55Z</time>
      </trkpt>
      <trkpt lat="42.06241" lon="2.49767">
        <ele>1006</ele>
        <time>2010-01-01T03:01:59Z</time>
      </trkpt>
      <trkpt lat="42.06237" lon="2.49778">
        <ele>1000</ele>
        <time>2010-01-01T03:02:03Z</time>
      </trkpt>
      <trkpt lat="42.06228" lon="2.4979">
        <ele>997</ele>
        <time>2010-01-01T03:02:08Z</time>
      </trkpt>
      <trkpt lat="42.0623" lon="2.49789">
        <ele>997</ele>
        <time>2010-01-01T03:02:09Z</time>
      </trkpt>
      <trkpt lat="42.06235" lon="2.49777">
        <ele>1001</ele>
        <time>2010-01-01T03:02:13Z</time>
      </trkpt>
      <trkpt lat="42.06253" lon="2.49765">
        <ele>1004</ele>
        <time>2010-01-01T03:02:21Z</time>
      </trkpt>
      <trkpt lat="42.06262" lon="2.49768">
        <ele>1000</ele>
        <time>2010-01-01T03:02:25Z</time>
      </trkpt>
      <trkpt lat="42.06267" lon="2.4978">
        <ele>992</ele>
        <time>2010-01-01T03:02:29Z</time>
      </trkpt>
      <trkpt lat="42.06264" lon="2.49799">
        <ele>984</ele>
        <time>2010-01-01T03:02:35Z</time>
      </trkpt>
      <trkpt lat="42.06259" lon="2.49803">
        <ele>984</ele>
        <time>2010-01-01T03:02:37Z</time>
      </trkpt>
      <trkpt lat="42.06257" lon="2.49809">
        <ele>982</ele>
        <time>2010-01-01T03:02:39Z</time>
      </trkpt>
      <trkpt lat="42.06247" lon="2.49826">
        <ele>978</ele>
        <time>2010-01-01T03:02:45Z</time>
      </trkpt>
      <trkpt lat="42.0623" lon="2.49847">
        <ele>977</ele>
        <time>2010-01-01T03:02:54Z</time>
      </trkpt>
      <trkpt lat="42.06226" lon="2.49854">
        <ele>976</ele>
        <time>2010-01-01T03:02:57Z</time>
      </trkpt>
      <trkpt lat="42.06219" lon="2.49861">
        <ele>977</ele>
        <time>2010-01-01T03:03:01Z</time>
      </trkpt>
      <trkpt lat="42.06219" lon="2.49855">
        <ele>978</ele>
        <time>2010-01-01T03:03:02Z</time>
      </trkpt>
      <trkpt lat="42.06225" lon="2.49843">
        <ele>979</ele>
        <time>2010-01-01T03:03:06Z</time>
      </trkpt>
      <trkpt lat="42.06236" lon="2.49829">
        <ele>980</ele>
        <time>2010-01-01T03:03:13Z</time>
      </trkpt>
      <trkpt lat="42.06244" lon="2.49824">
        <ele>980</ele>
        <time>2010-01-01T03:03:16Z</time>
      </trkpt>
      <trkpt lat="42.06255" lon="2.49821">
        <ele>978</ele>
        <time>2010-01-01T03:03:21Z</time>
      </trkpt>
      <trkpt lat="42.06262" lon="2.49817">
        <ele>978</ele>
        <time>2010-01-01T03:03:23Z</time>
      </trkpt>
      <trkpt lat="42.06271" lon="2.49808">
        <ele>979</ele>
        <time>2010-01-01T03:03:28Z</time>
      </trkpt>
      <trkpt lat="42.06277" lon="2.49807">
        <ele>978</ele>
        <time>2010-01-01T03:03:31Z</time>
      </trkpt>
      <trkpt lat="42.06286" lon="2.49815">
        <ele>973</ele>
        <time>2010-01-01T03:03:35Z</time>
      </trkpt>
      <trkpt lat="42.06292" lon="2.49827">
        <ele>968</ele>
        <time>2010-01-01T03:03:39Z</time>
      </trkpt>
      <trkpt lat="42.06291" lon="2.49837">
        <ele>964</ele>
        <time>2010-01-01T03:03:42Z</time>
      </trkpt>
      <trkpt lat="42.06299" lon="2.49856">
        <ele>954</ele>
        <time>2010-01-01T03:03:49Z</time>
      </trkpt>
      <trkpt lat="42.06297" lon="2.4986">
        <ele>952</ele>
        <time>2010-01-01T03:03:50Z</time>
      </trkpt>
      <trkpt lat="42.06298" lon="2.49868">
        <ele>949</ele>
        <time>2010-01-01T03:03:53Z</time>
      </trkpt>
      <trkpt lat="42.063" lon="2.49867">
        <ele>949</ele>
        <time>2010-01-01T03:03:53Z</time>
      </trkpt>
      <trkpt lat="42.06299" lon="2.49865">
        <ele>950</ele>
        <time>2010-01-01T03:03:54Z</time>
      </trkpt>
      <trkpt lat="42.06306" lon="2.49873">
        <ele>945</ele>
        <time>2010-01-01T03:03:58Z</time>
      </trkpt>
      <trkpt lat="42.06309" lon="2.49877">
        <ele>943</ele>
        <time>2010-01-01T03:04:00Z</time>
      </trkpt>
      <trkpt lat="42.06308" lon="2.49882">
        <ele>941</ele>
        <time>2010-01-01T03:04:01Z</time>
      </trkpt>
      <trkpt lat="42.06317" lon="2.49893">
        <ele>935</ele>
        <time>2010-01-01T03:04:06Z</time>
      </trkpt>
      <trkpt lat="42.0632" lon="2.49897">
        <ele>933</ele>
        <time>2010-01-01T03:04:08Z</time>
      </trkpt>
      <trkpt lat="42.06314" lon="2.49924">
        <ele>927</ele>
        <time>2010-01-01T03:04:16Z</time>
      </trkpt>
      <trkpt lat="42.06307" lon="2.49937">
        <ele>925</ele>
        <time>2010-01-01T03:04:21Z</time>
      </trkpt>
      <trkpt lat="42.06306" lon="2.49944">
        <ele>924</ele>
        <time>2010-01-01T03:04:23Z</time>
      </trkpt>
      <trkpt lat="42.06305" lon="2.49955">
        <ele>921</ele>
        <time>2010-01-01T03:04:26Z</time>
      </trkpt>
      <trkpt lat="42.06307" lon="2.4996">
        <ele>918</ele>
        <time>2010-01-01T03:04:28Z</time>
      </trkpt>
      <trkpt lat="42.06306" lon="2.49967">
        <ele>917</ele>
        <time>2010-01-01T03:04:30Z</time>
      </trkpt>
      <trkpt lat="42.06309" lon="2.49976">
        <ele>913</ele>
        <time>2010-01-01T03:04:33Z</time>
      </trkpt>
      <trkpt lat="42.06309" lon="2.4999">
        <ele>910</ele>
        <time>2010-01-01T03:04:37Z</time>
      </trkpt>
      <trkpt lat="42.06307" lon="2.5">
        <ele>909</ele>
        <time>2010-01-01T03:04:40Z</time>
      </trkpt>
      <trkpt lat="42.06301" lon="2.5001">
        <ele>909</ele>
        <time>2010-01-01T03:04:44Z</time>
      </trkpt>
      <trkpt lat="42.06299" lon="2.50016">
        <ele>908</ele>
        <time>2010-01-01T03:04:46Z</time>
      </trkpt>
      <trkpt lat="42.06297" lon="2.50029">
        <ele>905</ele>
        <time>2010-01-01T03:04:50Z</time>
      </trkpt>
      <trkpt lat="42.06292" lon="2.50045">
        <ele>902</ele>
        <time>2010-01-01T03:04:55Z</time>
      </trkpt>
      <trkpt lat="42.06289" lon="2.50064">
        <ele>899</ele>
        <time>2010-01-01T03:05:01Z</time>
      </trkpt>
      <trkpt lat="42.06289" lon="2.50073">
        <ele>897</ele>
        <time>2010-01-01T03:05:03Z</time>
      </trkpt>
      <trkpt lat="42.0629" lon="2.50075">
        <ele>896</ele>
        <time>2010-01-01T03:05:04Z</time>
      </trkpt>
      <trkpt lat="42.06293" lon="2.5007">
        <ele>896</ele>
        <time>2010-01-01T03:05:06Z</time>
      </trkpt>
      <trkpt lat="42.06297" lon="2.50047">
        <ele>900</ele>
        <time>2010-01-01T03:05:13Z</time>
      </trkpt>
      <trkpt lat="42.06302" lon="2.50036">
        <ele>901</ele>
        <time>2010-01-01T03:05:17Z</time>
      </trkpt>
      <trkpt lat="42.0631" lon="2.50027">
        <ele>900</ele>
        <time>2010-01-01T03:05:21Z</time>
      </trkpt>
      <trkpt lat="42.06313" lon="2.50028">
        <ele>898</ele>
        <time>2010-01-01T03:05:23Z</time>
      </trkpt>
      <trkpt lat="42.06318" lon="2.50034">
        <ele>894</ele>
        <time>2010-01-01T03:05:25Z</time>
      </trkpt>
      <trkpt lat="42.06322" lon="2.50045">
        <ele>890</ele>
        <time>2010-01-01T03:05:29Z</time>
      </trkpt>
      <trkpt lat="42.06327" lon="2.50069">
        <ele>882</ele>
        <time>2010-01-01T03:05:36Z</time>
      </trkpt>
      <trkpt lat="42.06326" lon="2.50091">
        <ele>875</ele>
        <time>2010-01-01T03:05:43Z</time>
      </trkpt>
      <trkpt lat="42.06329" lon="2.50097">
        <ele>872</ele>
        <time>2010-01-01T03:05:45Z</time>
      </trkpt>
      <trkpt lat="42.06333" lon="2.50093">
        <ele>871</ele>
        <time>2010-01-01T03:05:47Z</time>
      </trkpt>
      <trkpt lat="42.06337" lon="2.5008">
        <ele>873</ele>
        <time>2010-01-01T03:05:51Z</time>
      </trkpt>
      <trkpt lat="42.06344" lon="2.5007">
        <ele>873</ele>
        <time>2010-01-01T03:05:55Z</time>
      </trkpt>
      <trkpt lat="42.06349" lon="2.50065">
        <ele>872</ele>
        <time>2010-01-01T03:05:57Z</time>
      </trkpt>
      <trkpt lat="42.06362" lon="2.50055">
        <ele>868</ele>
        <time>2010-01-01T03:06:03Z</time>
      </trkpt>
      <trkpt lat="42.06367" lon="2.50048">
        <ele>866</ele>
        <time>2010-01-01T03:06:06Z</time>
      </trkpt>
      <trkpt lat="42.06371" lon="2.50042">
        <ele>865</ele>
        <time>2010-01-01T03:06:09Z</time>
      </trkpt>
      <trkpt lat="42.06377" lon="2.50026">
        <ele>865</ele>
        <time>2010-01-01T03:06:14Z</time>
      </trkpt>
      <trkpt lat="42.06386" lon="2.5001">
        <ele>864</ele>
        <time>2010-01-01T03:06:20Z</time>
      </trkpt>
      <trkpt lat="42.06398" lon="2.50004">
        <ele>860</ele>
        <time>2010-01-01T03:06:25Z</time>
      </trkpt>
      <trkpt lat="42.06416" lon="2.50002">
        <ele>853</ele>
        <time>2010-01-01T03:06:32Z</time>
      </trkpt>
      <trkpt lat="42.06433" lon="2.49984">
        <ele>855</ele>
        <time>2010-01-01T03:06:41Z</time>
      </trkpt>
      <trkpt lat="42.06439" lon="2.49985">
        <ele>852</ele>
        <time>2010-01-01T03:06:44Z</time>
      </trkpt>
      <trkpt lat="42.06452" lon="2.4998">
        <ele>850</ele>
        <time>2010-01-01T03:06:49Z</time>
      </trkpt>
      <trkpt lat="42.06462" lon="2.49983">
        <ele>846</ele>
        <time>2010-01-01T03:06:53Z</time>
      </trkpt>
      <trkpt lat="42.06466" lon="2.49981">
        <ele>845</ele>
        <time>2010-01-01T03:06:55Z</time>
      </trkpt>
      <trkpt lat="42.0647" lon="2.49982">
        <ele>843</ele>
        <time>2010-01-01T03:06:56Z</time>
      </trkpt>
      <trkpt lat="42.06473" lon="2.4998">
        <ele>843</ele>
        <time>2010-01-01T03:06:57Z</time>
      </trkpt>
      <trkpt lat="42.06477" lon="2.49979">
        <ele>842</ele>
        <time>2010-01-01T03:06:59Z</time>
      </trkpt>
      <trkpt lat="42.0648" lon="2.49984">
        <ele>839</ele>
        <time>2010-01-01T03:07:01Z</time>
      </trkpt>
      <trkpt lat="42.06484" lon="2.49987">
        <ele>837</ele>
        <time>2010-01-01T03:07:03Z</time>
      </trkpt>
      <trkpt lat="42.0649" lon="2.49984">
        <ele>837</ele>
        <time>2010-01-01T03:07:06Z</time>
      </trkpt>
      <trkpt lat="42.06497" lon="2.49985">
        <ele>834</ele>
        <time>2010-01-01T03:07:08Z</time>
      </trkpt>
      <trkpt lat="42.06498" lon="2.49988">
        <ele>833</ele>
        <time>2010-01-01T03:07:09Z</time>
      </trkpt>
      <trkpt lat="42.06504" lon="2.49986">
        <ele>832</ele>
        <time>2010-01-01T03:07:12Z</time>
      </trkpt>
      <trkpt lat="42.06516" lon="2.49987">
        <ele>830</ele>
        <time>2010-01-01T03:07:17Z</time>
      </trkpt>
      <trkpt lat="42.06521" lon="2.49983">
        <ele>830</ele>
        <time>2010-01-01T03:07:19Z</time>
      </trkpt>
      <trkpt lat="42.06526" lon="2.49982">
        <ele>829</ele>
        <time>2010-01-01T03:07:21Z</time>
      </trkpt>
      <trkpt lat="42.0653" lon="2.49985">
        <ele>827</ele>
        <time>2010-01-01T03:07:23Z</time>
      </trkpt>
      <trkpt lat="42.06546" lon="2.49986">
        <ele>824</ele>
        <time>2010-01-01T03:07:29Z</time>
      </trkpt>
      <trkpt lat="42.06553" lon="2.49991">
        <ele>821</ele>
        <time>2010-01-01T03:07:32Z</time>
      </trkpt>
      <trkpt lat="42.06557" lon="2.49991">
        <ele>820</ele>
        <time>2010-01-01T03:07:34Z</time>
      </trkpt>
      <trkpt lat="42.06565" lon="2.5">
        <ele>815</ele>
        <time>2010-01-01T03:07:38Z</time>
      </trkpt>
      <trkpt lat="42.06575" lon="2.50002">
        <ele>812</ele>
        <time>2010-01-01T03:07:42Z</time>
      </trkpt>
      <trkpt lat="42.06579" lon="2.50006">
        <ele>810</ele>
        <time>2010-01-01T03:07:44Z</time>
      </trkpt>
      <trkpt lat="42.06582" lon="2.50012">
        <ele>807</ele>
        <time>2010-01-01T03:07:46Z</time>
      </trkpt>
      <trkpt lat="42.06592" lon="2.50021">
        <ele>803</ele>
        <time>2010-01-01T03:07:51Z</time>
      </trkpt>
      <trkpt lat="42.066" lon="2.50032">
        <ele>798</ele>
        <time>2010-01-01T03:07:56Z</time>
      </trkpt>
      <trkpt lat="42.06604" lon="2.50032">
        <ele>798</ele>
        <time>2010-01-01T03:07:57Z</time>
      </trkpt>
      <trkpt lat="42.06608" lon="2.50042">
        <ele>795</ele>
        <time>2010-01-01T03:08:01Z</time>
      </trkpt>
      <trkpt lat="42.06618" lon="2.5005">
        <ele>792</ele>
        <time>2010-01-01T03:08:05Z</time>
      </trkpt>
      <trkpt lat="42.06619" lon="2.50059">
        <ele>789</ele>
        <time>2010-01-01T03:08:08Z</time>
      </trkpt>
      <trkpt lat="42.06629" lon="2.50067">
        <ele>785</ele>
        <time>2010-01-01T03:08:13Z</time>
      </trkpt>
      <trkpt lat="42.06633" lon="2.50074">
        <ele>782</ele>
        <time>2010-01-01T03:08:15Z</time>
      </trkpt>
      <trkpt lat="42.06638" lon="2.50084">
        <ele>778</ele>
        <time>2010-01-01T03:08:19Z</time>
      </trkpt>
      <trkpt lat="42.06649" lon="2.50084">
        <ele>775</ele>
        <time>2010-01-01T03:08:23Z</time>
      </trkpt>
      <trkpt lat="42.06651" lon="2.50092">
        <ele>772</ele>
        <time>2010-01-01T03:08:26Z</time>
      </trkpt>
      <trkpt lat="42.0665" lon="2.501">
        <ele>769</ele>
        <time>2010-01-01T03:08:28Z</time>
      </trkpt>
      <trkpt lat="42.06652" lon="2.50105">
        <ele>768</ele>
        <time>2010-01-01T03:08:30Z</time>
      </trkpt>
      <trkpt lat="42.06654" lon="2.50106">
        <ele>767</ele>
        <time>2010-01-01T03:08:31Z</time>
      </trkpt>
      <trkpt lat="42.0666" lon="2.50103">
        <ele>766</ele>
        <time>2010-01-01T03:08:33Z</time>
      </trkpt>
      <trkpt lat="42.06667" lon="2.50111">
        <ele>763</ele>
        <time>2010-01-01T03:08:37Z</time>
      </trkpt>
      <trkpt lat="42.06669" lon="2.50118">
        <ele>760</ele>
        <time>2010-01-01T03:08:39Z</time>
      </trkpt>
      <trkpt lat="42.06668" lon="2.50126">
        <ele>758</ele>
        <time>2010-01-01T03:08:42Z</time>
      </trkpt>
      <trkpt lat="42.06662" lon="2.50134">
        <ele>756</ele>
        <time>2010-01-01T03:08:45Z</time>
      </trkpt>
      <trkpt lat="42.06656" lon="2.50138">
        <ele>756</ele>
        <time>2010-01-01T03:08:48Z</time>
      </trkpt>
      <trkpt lat="42.06656" lon="2.50141">
        <ele>755</ele>
        <time>2010-01-01T03:08:49Z</time>
      </trkpt>
      <trkpt lat="42.06663" lon="2.50142">
        <ele>754</ele>
        <time>2010-01-01T03:08:51Z</time>
      </trkpt>
      <trkpt lat="42.06679" lon="2.50123">
        <ele>754</ele>
        <time>2010-01-01T03:09:00Z</time>
      </trkpt>
      <trkpt lat="42.06697" lon="2.50089">
        <ele>754</ele>
        <time>2010-01-01T03:09:13Z</time>
      </trkpt>
      <trkpt lat="42.067" lon="2.50079">
        <ele>754</ele>
        <time>2010-01-01T03:09:16Z</time>
      </trkpt>
      <trkpt lat="42.06701" lon="2.5006">
        <ele>758</ele>
        <time>2010-01-01T03:09:21Z</time>
      </trkpt>
      <trkpt lat="42.06712" lon="2.50023">
        <ele>762</ele>
        <time>2010-01-01T03:09:33Z</time>
      </trkpt>
      <trkpt lat="42.06712" lon="2.50006">
        <ele>765</ele>
        <time>2010-01-01T03:09:38Z</time>
      </trkpt>
      <trkpt lat="42.06711" lon="2.5">
        <ele>766</ele>
        <time>2010-01-01T03:09:40Z</time>
      </trkpt>
      <trkpt lat="42.06714" lon="2.49995">
        <ele>766</ele>
        <time>2010-01-01T03:09:42Z</time>
      </trkpt>
      <trkpt lat="42.06714" lon="2.49988">
        <ele>766</ele>
        <time>2010-01-01T03:09:44Z</time>
      </trkpt>
      <trkpt lat="42.06719" lon="2.49975">
        <ele>765</ele>
        <time>2010-01-01T03:09:48Z</time>
      </trkpt>
      <trkpt lat="42.06722" lon="2.49971">
        <ele>765</ele>
        <time>2010-01-01T03:09:50Z</time>
      </trkpt>
      <trkpt lat="42.06727" lon="2.49972">
        <ele>762</ele>
        <time>2010-01-01T03:09:52Z</time>
      </trkpt>
      <trkpt lat="42.0673" lon="2.4997">
        <ele>761</ele>
        <time>2010-01-01T03:09:53Z</time>
      </trkpt>
      <trkpt lat="42.06734" lon="2.49961">
        <ele>760</ele>
        <time>2010-01-01T03:09:56Z</time>
      </trkpt>
      <trkpt lat="42.06736" lon="2.49951">
        <ele>759</ele>
        <time>2010-01-01T03:09:59Z</time>
      </trkpt>
      <trkpt lat="42.0674" lon="2.4994">
        <ele>758</ele>
        <time>2010-01-01T03:10:03Z</time>
      </trkpt>
      <trkpt lat="42.06745" lon="2.49909">
        <ele>756</ele>
        <time>2010-01-01T03:10:12Z</time>
      </trkpt>
      <trkpt lat="42.06745" lon="2.4989">
        <ele>755</ele>
        <time>2010-01-01T03:10:18Z</time>
      </trkpt>
      <trkpt lat="42.06752" lon="2.49877">
        <ele>753</ele>
        <time>2010-01-01T03:10:23Z</time>
      </trkpt>
      <trkpt lat="42.06755" lon="2.49863">
        <ele>753</ele>
        <time>2010-01-01T03:10:27Z</time>
      </trkpt>
      <trkpt lat="42.06756" lon="2.4985">
        <ele>755</ele>
        <time>2010-01-01T03:10:31Z</time>
      </trkpt>
      <trkpt lat="42.06763" lon="2.49834">
        <ele>753</ele>
        <time>2010-01-01T03:10:37Z</time>
      </trkpt>
      <trkpt lat="42.06766" lon="2.49819">
        <ele>755</ele>
        <time>2010-01-01T03:10:42Z</time>
      </trkpt>
      <trkpt lat="42.06773" lon="2.49803">
        <ele>754</ele>
        <time>2010-01-01T03:10:47Z</time>
      </trkpt>
      <trkpt lat="42.06785" lon="2.49767">
        <ele>755</ele>
        <time>2010-01-01T03:10:59Z</time>
      </trkpt>
      <trkpt lat="42.06784" lon="2.49758">
        <ele>757</ele>
        <time>2010-01-01T03:11:01Z</time>
      </trkpt>
      <trkpt lat="42.06778" lon="2.49745">
        <ele>762</ele>
        <time>2010-01-01T03:11:06Z</time>
      </trkpt>
      <trkpt lat="42.06774" lon="2.49714">
        <ele>768</ele>
        <time>2010-01-01T03:11:15Z</time>
      </trkpt>
      <trkpt lat="42.06774" lon="2.49703">
        <ele>769</ele>
        <time>2010-01-01T03:11:18Z</time>
      </trkpt>
      <trkpt lat="42.0678" lon="2.49683">
        <ele>769</ele>
        <time>2010-01-01T03:11:25Z</time>
      </trkpt>
      <trkpt lat="42.06784" lon="2.49673">
        <ele>768</ele>
        <time>2010-01-01T03:11:29Z</time>
      </trkpt>
      <trkpt lat="42.0679" lon="2.49665">
        <ele>767</ele>
        <time>2010-01-01T03:11:32Z</time>
      </trkpt>
      <trkpt lat="42.06798" lon="2.49657">
        <ele>764</ele>
        <time>2010-01-01T03:11:36Z</time>
      </trkpt>
      <trkpt lat="42.06824" lon="2.49625">
        <ele>761</ele>
        <time>2010-01-01T03:11:50Z</time>
      </trkpt>
      <trkpt lat="42.06831" lon="2.49609">
        <ele>764</ele>
        <time>2010-01-01T03:11:55Z</time>
      </trkpt>
      <trkpt lat="42.06837" lon="2.49603">
        <ele>765</ele>
        <time>2010-01-01T03:11:58Z</time>
      </trkpt>
      <trkpt lat="42.06855" lon="2.496">
        <ele>762</ele>
        <time>2010-01-01T03:12:06Z</time>
      </trkpt>
      <trkpt lat="42.06863" lon="2.49603">
        <ele>759</ele>
        <time>2010-01-01T03:12:09Z</time>
      </trkpt>
      <trkpt lat="42.06873" lon="2.49602">
        <ele>757</ele>
        <time>2010-01-01T03:12:13Z</time>
      </trkpt>
      <trkpt lat="42.06888" lon="2.49595">
        <ele>757</ele>
        <time>2010-01-01T03:12:19Z</time>
      </trkpt>
      <trkpt lat="42.06897" lon="2.49594">
        <ele>755</ele>
        <time>2010-01-01T03:12:23Z</time>
      </trkpt>
      <trkpt lat="42.06929" lon="2.49571">
        <ele>759</ele>
        <time>2010-01-01T03:12:37Z</time>
      </trkpt>
      <trkpt lat="42.06937" lon="2.49571">
        <ele>758</ele>
        <time>2010-01-01T03:12:41Z</time>
      </trkpt>
      <trkpt lat="42.0696" lon="2.49561">
        <ele>760</ele>
        <time>2010-01-01T03:12:50Z</time>
      </trkpt>
      <trkpt lat="42.06973" lon="2.49557">
        <ele>760</ele>
        <time>2010-01-01T03:12:55Z</time>
      </trkpt>
      <trkpt lat="42.06978" lon="2.49554">
        <ele>760</ele>
        <time>2010-01-01T03:12:58Z</time>
      </trkpt>
      <trkpt lat="42.06983" lon="2.49547">
        <ele>761</ele>
        <time>2010-01-01T03:13:01Z</time>
      </trkpt>
      <trkpt lat="42.06991" lon="2.49541">
        <ele>761</ele>
        <time>2010-01-01T03:13:04Z</time>
      </trkpt>
      <trkpt lat="42.07017" lon="2.49507">
        <ele>766</ele>
        <time>2010-01-01T03:13:19Z</time>
      </trkpt>
      <trkpt lat="42.07042" lon="2.49495">
        <ele>766</ele>
        <time>2010-01-01T03:13:29Z</time>
      </trkpt>
      <trkpt lat="42.07047" lon="2.49495">
        <ele>766</ele>
        <time>2010-01-01T03:13:31Z</time>
      </trkpt>
      <trkpt lat="42.07058" lon="2.49499">
        <ele>764</ele>
        <time>2010-01-01T03:13:36Z</time>
      </trkpt>
      <trkpt lat="42.07066" lon="2.49497">
        <ele>764</ele>
        <time>2010-01-01T03:13:39Z</time>
      </trkpt>
      <trkpt lat="42.07079" lon="2.49501">
        <ele>761</ele>
        <time>2010-01-01T03:13:44Z</time>
      </trkpt>
      <trkpt lat="42.07098" lon="2.49506">
        <ele>759</ele>
        <time>2010-01-01T03:13:52Z</time>
      </trkpt>
      <trkpt lat="42.07115" lon="2.49505">
        <ele>760</ele>
        <time>2010-01-01T03:13:59Z</time>
      </trkpt>
      <trkpt lat="42.07123" lon="2.49502">
        <ele>761</ele>
        <time>2010-01-01T03:14:02Z</time>
      </trkpt>
      <trkpt lat="42.07126" lon="2.49504">
        <ele>760</ele>
        <time>2010-01-01T03:14:03Z</time>
      </trkpt>
      <trkpt lat="42.07142" lon="2.49504">
        <ele>760</ele>
        <time>2010-01-01T03:14:10Z</time>
      </trkpt>
      <trkpt lat="42.07147" lon="2.49503">
        <ele>760</ele>
        <time>2010-01-01T03:14:12Z</time>
      </trkpt>
      <trkpt lat="42.07153" lon="2.49503">
        <ele>759</ele>
        <time>2010-01-01T03:14:14Z</time>
      </trkpt>
      <trkpt lat="42.07165" lon="2.49508">
        <ele>756</ele>
        <time>2010-01-01T03:14:19Z</time>
      </trkpt>
      <trkpt lat="42.07179" lon="2.49508">
        <ele>753</ele>
        <time>2010-01-01T03:14:25Z</time>
      </trkpt>
      <trkpt lat="42.07188" lon="2.49503">
        <ele>752</ele>
        <time>2010-01-01T03:14:29Z</time>
      </trkpt>
      <trkpt lat="42.07208" lon="2.4948">
        <ele>752</ele>
        <time>2010-01-01T03:14:39Z</time>
      </trkpt>
      <trkpt lat="42.0722" lon="2.49472">
        <ele>750</ele>
        <time>2010-01-01T03:14:45Z</time>
      </trkpt>
      <trkpt lat="42.07235" lon="2.49466">
        <ele>746</ele>
        <time>2010-01-01T03:14:51Z</time>
      </trkpt>
      <trkpt lat="42.07238" lon="2.49463">
        <ele>746</ele>
        <time>2010-01-01T03:14:52Z</time>
      </trkpt>
      <trkpt lat="42.07247" lon="2.49445">
        <ele>746</ele>
        <time>2010-01-01T03:14:59Z</time>
      </trkpt>
      <trkpt lat="42.0726" lon="2.49406">
        <ele>745</ele>
        <time>2010-01-01T03:15:12Z</time>
      </trkpt>
      <trkpt lat="42.0727" lon="2.49386">
        <ele>743</ele>
        <time>2010-01-01T03:15:19Z</time>
      </trkpt>
      <trkpt lat="42.07273" lon="2.49372">
        <ele>743</ele>
        <time>2010-01-01T03:15:23Z</time>
      </trkpt>
      <trkpt lat="42.07275" lon="2.49358">
        <ele>744</ele>
        <time>2010-01-01T03:15:27Z</time>
      </trkpt>
      <trkpt lat="42.07288" lon="2.49349">
        <ele>738</ele>
        <time>2010-01-01T03:15:33Z</time>
      </trkpt>
      <trkpt lat="42.07293" lon="2.49336">
        <ele>737</ele>
        <time>2010-01-01T03:15:38Z</time>
      </trkpt>
      <trkpt lat="42.07296" lon="2.49315">
        <ele>737</ele>
        <time>2010-01-01T03:15:44Z</time>
      </trkpt>
      <trkpt lat="42.07302" lon="2.49291">
        <ele>736</ele>
        <time>2010-01-01T03:15:52Z</time>
      </trkpt>
      <trkpt lat="42.07303" lon="2.49267">
        <ele>736</ele>
        <time>2010-01-01T03:15:58Z</time>
      </trkpt>
      <trkpt lat="42.07307" lon="2.4925">
        <ele>735</ele>
        <time>2010-01-01T03:16:04Z</time>
      </trkpt>
      <trkpt lat="42.07306" lon="2.49241">
        <ele>736</ele>
        <time>2010-01-01T03:16:07Z</time>
      </trkpt>
      <trkpt lat="42.0731" lon="2.4921">
        <ele>736</ele>
        <time>2010-01-01T03:16:16Z</time>
      </trkpt>
      <trkpt lat="42.0731" lon="2.49197">
        <ele>737</ele>
        <time>2010-01-01T03:16:20Z</time>
      </trkpt>
      <trkpt lat="42.07316" lon="2.4918">
        <ele>736</ele>
        <time>2010-01-01T03:16:26Z</time>
      </trkpt>
      <trkpt lat="42.07325" lon="2.49165">
        <ele>733</ele>
        <time>2010-01-01T03:16:31Z</time>
      </trkpt>
      <trkpt lat="42.07325" lon="2.49162">
        <ele>733</ele>
        <time>2010-01-01T03:16:32Z</time>
      </trkpt>
      <trkpt lat="42.07328" lon="2.49154">
        <ele>733</ele>
        <time>2010-01-01T03:16:35Z</time>
      </trkpt>
      <trkpt lat="42.07341" lon="2.49133">
        <ele>731</ele>
        <time>2010-01-01T03:16:43Z</time>
      </trkpt>
      <trkpt lat="42.07346" lon="2.49117">
        <ele>734</ele>
        <time>2010-01-01T03:16:48Z</time>
      </trkpt>
      <trkpt lat="42.07374" lon="2.49085">
        <ele>734</ele>
        <time>2010-01-01T03:17:03Z</time>
      </trkpt>
      <trkpt lat="42.07382" lon="2.49068">
        <ele>736</ele>
        <time>2010-01-01T03:17:09Z</time>
      </trkpt>
      <trkpt lat="42.0739" lon="2.49061">
        <ele>735</ele>
        <time>2010-01-01T03:17:12Z</time>
      </trkpt>
      <trkpt lat="42.07395" lon="2.49051">
        <ele>734</ele>
        <time>2010-01-01T03:17:16Z</time>
      </trkpt>
      <trkpt lat="42.07405" lon="2.49039">
        <ele>731</ele>
        <time>2010-01-01T03:17:21Z</time>
      </trkpt>
      <trkpt lat="42.07417" lon="2.49022">
        <ele>728</ele>
        <time>2010-01-01T03:17:28Z</time>
      </trkpt>
      <trkpt lat="42.07456" lon="2.48934">
        <ele>732</ele>
        <time>2010-01-01T03:17:59Z</time>
      </trkpt>
      <trkpt lat="42.07466" lon="2.48914">
        <ele>731</ele>
        <time>2010-01-01T03:18:06Z</time>
      </trkpt>
      <trkpt lat="42.07472" lon="2.48908">
        <ele>730</ele>
        <time>2010-01-01T03:18:09Z</time>
      </trkpt>
      <trkpt lat="42.07478" lon="2.48894">
        <ele>729</ele>
        <time>2010-01-01T03:18:13Z</time>
      </trkpt>
      <trkpt lat="42.07487" lon="2.48882">
        <ele>727</ele>
        <time>2010-01-01T03:18:19Z</time>
      </trkpt>
      <trkpt lat="42.07494" lon="2.48861">
        <ele>727</ele>
        <time>2010-01-01T03:18:26Z</time>
      </trkpt>
      <trkpt lat="42.07495" lon="2.48848">
        <ele>728</ele>
        <time>2010-01-01T03:18:29Z</time>
      </trkpt>
      <trkpt lat="42.07501" lon="2.48817">
        <ele>726</ele>
        <time>2010-01-01T03:18:39Z</time>
      </trkpt>
      <trkpt lat="42.0751" lon="2.48796">
        <ele>719</ele>
        <time>2010-01-01T03:18:46Z</time>
      </trkpt>
      <trkpt lat="42.07512" lon="2.48786">
        <ele>717</ele>
        <time>2010-01-01T03:18:49Z</time>
      </trkpt>
      <trkpt lat="42.07514" lon="2.48753">
        <ele>710</ele>
        <time>2010-01-01T03:18:59Z</time>
      </trkpt>
      <trkpt lat="42.07511" lon="2.48741">
        <ele>710</ele>
        <time>2010-01-01T03:19:03Z</time>
      </trkpt>
      <trkpt lat="42.07516" lon="2.4873">
        <ele>704</ele>
        <time>2010-01-01T03:19:07Z</time>
      </trkpt>
      <trkpt lat="42.07514" lon="2.48713">
        <ele>702</ele>
        <time>2010-01-01T03:19:12Z</time>
      </trkpt>
      <trkpt lat="42.07516" lon="2.48701">
        <ele>699</ele>
        <time>2010-01-01T03:19:16Z</time>
      </trkpt>
      <trkpt lat="42.07515" lon="2.48682">
        <ele>695</ele>
        <time>2010-01-01T03:19:21Z</time>
      </trkpt>
      <trkpt lat="42.07516" lon="2.48679">
        <ele>694</ele>
        <time>2010-01-01T03:19:22Z</time>
      </trkpt>
      <trkpt lat="42.07516" lon="2.48673">
        <ele>692</ele>
        <time>2010-01-01T03:19:24Z</time>
      </trkpt>
      <trkpt lat="42.07518" lon="2.48668">
        <ele>690</ele>
        <time>2010-01-01T03:19:26Z</time>
      </trkpt>
      <trkpt lat="42.07519" lon="2.48654">
        <ele>686</ele>
        <time>2010-01-01T03:19:30Z</time>
      </trkpt>
      <trkpt lat="42.07518" lon="2.48636">
        <ele>683</ele>
        <time>2010-01-01T03:19:35Z</time>
      </trkpt>
      <trkpt lat="42.0751" lon="2.48617">
        <ele>683</ele>
        <time>2010-01-01T03:19:42Z</time>
      </trkpt>
      <trkpt lat="42.07506" lon="2.48598">
        <ele>681</ele>
        <time>2010-01-01T03:19:48Z</time>
      </trkpt>
      <trkpt lat="42.075" lon="2.48591">
        <ele>682</ele>
        <time>2010-01-01T03:19:51Z</time>
      </trkpt>
      <trkpt lat="42.07491" lon="2.48583">
        <ele>684</ele>
        <time>2010-01-01T03:19:55Z</time>
      </trkpt>
      <trkpt lat="42.07487" lon="2.48578">
        <ele>684</ele>
        <time>2010-01-01T03:19:57Z</time>
      </trkpt>
      <trkpt lat="42.07487" lon="2.48571">
        <ele>683</ele>
        <time>2010-01-01T03:19:59Z</time>
      </trkpt>
      <trkpt lat="42.07494" lon="2.48562">
        <ele>679</ele>
        <time>2010-01-01T03:20:03Z</time>
      </trkpt>
      <trkpt lat="42.075" lon="2.4856">
        <ele>677</ele>
        <time>2010-01-01T03:20:05Z</time>
      </trkpt>
      <trkpt lat="42.07506" lon="2.48564">
        <ele>676</ele>
        <time>2010-01-01T03:20:08Z</time>
      </trkpt>
      <trkpt lat="42.0752" lon="2.48568">
        <ele>672</ele>
        <time>2010-01-01T03:20:14Z</time>
      </trkpt>
      <trkpt lat="42.07533" lon="2.48582">
        <ele>668</ele>
        <time>2010-01-01T03:20:20Z</time>
      </trkpt>
      <trkpt lat="42.07549" lon="2.48589">
        <ele>662</ele>
        <time>2010-01-01T03:20:27Z</time>
      </trkpt>
      <trkpt lat="42.07553" lon="2.48589">
        <ele>661</ele>
        <time>2010-01-01T03:20:29Z</time>
      </trkpt>
      <trkpt lat="42.07566" lon="2.48591">
        <ele>657</ele>
        <time>2010-01-01T03:20:34Z</time>
      </trkpt>
      <trkpt lat="42.07574" lon="2.48605">
        <ele>655</ele>
        <time>2010-01-01T03:20:39Z</time>
      </trkpt>
      <trkpt lat="42.07578" lon="2.48619">
        <ele>655</ele>
        <time>2010-01-01T03:20:44Z</time>
      </trkpt>
      <trkpt lat="42.07582" lon="2.48622">
        <ele>654</ele>
        <time>2010-01-01T03:20:45Z</time>
      </trkpt>
      <trkpt lat="42.07588" lon="2.48622">
        <ele>652</ele>
        <time>2010-01-01T03:20:48Z</time>
      </trkpt>
      <trkpt lat="42.07596" lon="2.48627">
        <ele>650</ele>
        <time>2010-01-01T03:20:51Z</time>
      </trkpt>
      <trkpt lat="42.07608" lon="2.4864">
        <ele>646</ele>
        <time>2010-01-01T03:20:58Z</time>
      </trkpt>
      <trkpt lat="42.07612" lon="2.48646">
        <ele>645</ele>
        <time>2010-01-01T03:21:00Z</time>
      </trkpt>
      <trkpt lat="42.07619" lon="2.48651">
        <ele>642</ele>
        <time>2010-01-01T03:21:03Z</time>
      </trkpt>
      <trkpt lat="42.07625" lon="2.48669">
        <ele>641</ele>
        <time>2010-01-01T03:21:09Z</time>
      </trkpt>
      <trkpt lat="42.07633" lon="2.48674">
        <ele>638</ele>
        <time>2010-01-01T03:21:12Z</time>
      </trkpt>
      <trkpt lat="42.07634" lon="2.48682">
        <ele>638</ele>
        <time>2010-01-01T03:21:15Z</time>
      </trkpt>
      <trkpt lat="42.07637" lon="2.4869">
        <ele>638</ele>
        <time>2010-01-01T03:21:17Z</time>
      </trkpt>
      <trkpt lat="42.07642" lon="2.48692">
        <ele>636</ele>
        <time>2010-01-01T03:21:19Z</time>
      </trkpt>
      <trkpt lat="42.07638" lon="2.48695">
        <ele>638</ele>
        <time>2010-01-01T03:21:21Z</time>
      </trkpt>
      <trkpt lat="42.07646" lon="2.48699">
        <ele>635</ele>
        <time>2010-01-01T03:21:25Z</time>
      </trkpt>
      <trkpt lat="42.07649" lon="2.48703">
        <ele>635</ele>
        <time>2010-01-01T03:21:26Z</time>
      </trkpt>
      <trkpt lat="42.07667" lon="2.48713">
        <ele>629</ele>
        <time>2010-01-01T03:21:34Z</time>
      </trkpt>
      <trkpt lat="42.07675" lon="2.48723">
        <ele>626</ele>
        <time>2010-01-01T03:21:39Z</time>
      </trkpt>
      <trkpt lat="42.07677" lon="2.4873">
        <ele>626</ele>
        <time>2010-01-01T03:21:41Z</time>
      </trkpt>
      <trkpt lat="42.07682" lon="2.48736">
        <ele>624</ele>
        <time>2010-01-01T03:21:43Z</time>
      </trkpt>
      <trkpt lat="42.07689" lon="2.48752">
        <ele>621</ele>
        <time>2010-01-01T03:21:49Z</time>
      </trkpt>
      <trkpt lat="42.07692" lon="2.48754">
        <ele>620</ele>
        <time>2010-01-01T03:21:50Z</time>
      </trkpt>
      <trkpt lat="42.07696" lon="2.48753">
        <ele>618</ele>
        <time>2010-01-01T03:21:52Z</time>
      </trkpt>
      <trkpt lat="42.07698" lon="2.4876">
        <ele>617</ele>
        <time>2010-01-01T03:21:54Z</time>
      </trkpt>
      <trkpt lat="42.07703" lon="2.48785">
        <ele>613</ele>
        <time>2010-01-01T03:22:01Z</time>
      </trkpt>
      <trkpt lat="42.07704" lon="2.48807">
        <ele>610</ele>
        <time>2010-01-01T03:22:08Z</time>
      </trkpt>
      <trkpt lat="42.07707" lon="2.48821">
        <ele>608</ele>
        <time>2010-01-01T03:22:13Z</time>
      </trkpt>
      <trkpt lat="42.07709" lon="2.48824">
        <ele>607</ele>
        <time>2010-01-01T03:22:14Z</time>
      </trkpt>
      <trkpt lat="42.07713" lon="2.48841">
        <ele>605</ele>
        <time>2010-01-01T03:22:19Z</time>
      </trkpt>
      <trkpt lat="42.07718" lon="2.48852">
        <ele>601</ele>
        <time>2010-01-01T03:22:23Z</time>
      </trkpt>
      <trkpt lat="42.07722" lon="2.48867">
        <ele>597</ele>
        <time>2010-01-01T03:22:27Z</time>
      </trkpt>
      <trkpt lat="42.07728" lon="2.48876">
        <ele>595</ele>
        <time>2010-01-01T03:22:31Z</time>
      </trkpt>
      <trkpt lat="42.07735" lon="2.48901">
        <ele>592</ele>
        <time>2010-01-01T03:22:39Z</time>
      </trkpt>
      <trkpt lat="42.07742" lon="2.48949">
        <ele>588</ele>
        <time>2010-01-01T03:22:53Z</time>
      </trkpt>
      <trkpt lat="42.07744" lon="2.48974">
        <ele>588</ele>
        <time>2010-01-01T03:23:01Z</time>
      </trkpt>
      <trkpt lat="42.07743" lon="2.48991">
        <ele>587</ele>
        <time>2010-01-01T03:23:06Z</time>
      </trkpt>
      <trkpt lat="42.07748" lon="2.49022">
        <ele>582</ele>
        <time>2010-01-01T03:23:16Z</time>
      </trkpt>
      <trkpt lat="42.07751" lon="2.49034">
        <ele>580</ele>
        <time>2010-01-01T03:23:19Z</time>
      </trkpt>
      <trkpt lat="42.07757" lon="2.49071">
        <ele>575</ele>
        <time>2010-01-01T03:23:31Z</time>
      </trkpt>
      <trkpt lat="42.07766" lon="2.49065">
        <ele>571</ele>
        <time>2010-01-01T03:23:35Z</time>
      </trkpt>
      <trkpt lat="42.07784" lon="2.49064">
        <ele>564</ele>
        <time>2010-01-01T03:23:42Z</time>
      </trkpt>
      <trkpt lat="42.07794" lon="2.4906">
        <ele>563</ele>
        <time>2010-01-01T03:23:46Z</time>
      </trkpt>
      <trkpt lat="42.07802" lon="2.49063">
        <ele>562</ele>
        <time>2010-01-01T03:23:49Z</time>
      </trkpt>
      <trkpt lat="42.0781" lon="2.49062">
        <ele>563</ele>
        <time>2010-01-01T03:23:53Z</time>
      </trkpt>
      <trkpt lat="42.07813" lon="2.49064">
        <ele>562</ele>
        <time>2010-01-01T03:23:54Z</time>
      </trkpt>
      <trkpt lat="42.07821" lon="2.49103">
        <ele>557</ele>
        <time>2010-01-01T03:24:06Z</time>
      </trkpt>
      <trkpt lat="42.07824" lon="2.49109">
        <ele>556</ele>
        <time>2010-01-01T03:24:08Z</time>
      </trkpt>
      <trkpt lat="42.07826" lon="2.49109">
        <ele>556</ele>
        <time>2010-01-01T03:24:09Z</time>
      </trkpt>
      <trkpt lat="42.07835" lon="2.49099">
        <ele>558</ele>
        <time>2010-01-01T03:24:14Z</time>
      </trkpt>
      <trkpt lat="42.07837" lon="2.49092">
        <ele>560</ele>
        <time>2010-01-01T03:24:16Z</time>
      </trkpt>
      <trkpt lat="42.07835" lon="2.49085">
        <ele>561</ele>
        <time>2010-01-01T03:24:18Z</time>
      </trkpt>
      <trkpt lat="42.07837" lon="2.49079">
        <ele>562</ele>
        <time>2010-01-01T03:24:20Z</time>
      </trkpt>
      <trkpt lat="42.07839" lon="2.49079">
        <ele>562</ele>
        <time>2010-01-01T03:24:21Z</time>
      </trkpt>
      <trkpt lat="42.07846" lon="2.49085">
        <ele>562</ele>
        <time>2010-01-01T03:24:24Z</time>
      </trkpt>
      <trkpt lat="42.07851" lon="2.49086">
        <ele>562</ele>
        <time>2010-01-01T03:24:26Z</time>
      </trkpt>
      <trkpt lat="42.07858" lon="2.49106">
        <ele>561</ele>
        <time>2010-01-01T03:24:33Z</time>
      </trkpt>
      <trkpt lat="42.07861" lon="2.4911">
        <ele>561</ele>
        <time>2010-01-01T03:24:35Z</time>
      </trkpt>
      <trkpt lat="42.07863" lon="2.49111">
        <ele>561</ele>
        <time>2010-01-01T03:24:35Z</time>
      </trkpt>
      <trkpt lat="42.07867" lon="2.491">
        <ele>563</ele>
        <time>2010-01-01T03:24:39Z</time>
      </trkpt>
      <trkpt lat="42.07866" lon="2.49091">
        <ele>564</ele>
        <time>2010-01-01T03:24:42Z</time>
      </trkpt>
      <trkpt lat="42.07869" lon="2.49089">
        <ele>565</ele>
        <time>2010-01-01T03:24:43Z</time>
      </trkpt>
      <trkpt lat="42.07871" lon="2.49091">
        <ele>565</ele>
        <time>2010-01-01T03:24:44Z</time>
      </trkpt>
      <trkpt lat="42.07872" lon="2.49102">
        <ele>565</ele>
        <time>2010-01-01T03:24:47Z</time>
      </trkpt>
      <trkpt lat="42.07878" lon="2.49108">
        <ele>565</ele>
        <time>2010-01-01T03:24:50Z</time>
      </trkpt>
      <trkpt lat="42.07882" lon="2.49109">
        <ele>566</ele>
        <time>2010-01-01T03:24:52Z</time>
      </trkpt>
      <trkpt lat="42.07886" lon="2.49078">
        <ele>572</ele>
        <time>2010-01-01T03:25:01Z</time>
      </trkpt>
      <trkpt lat="42.07884" lon="2.49048">
        <ele>579</ele>
        <time>2010-01-01T03:25:10Z</time>
      </trkpt>
      <trkpt lat="42.0788" lon="2.49033">
        <ele>580</ele>
        <time>2010-01-01T03:25:15Z</time>
      </trkpt>
      <trkpt lat="42.07871" lon="2.49015">
        <ele>580</ele>
        <time>2010-01-01T03:25:21Z</time>
      </trkpt>
      <trkpt lat="42.07866" lon="2.49">
        <ele>580</ele>
        <time>2010-01-01T03:25:26Z</time>
      </trkpt>
      <trkpt lat="42.07863" lon="2.48987">
        <ele>581</ele>
        <time>2010-01-01T03:25:30Z</time>
      </trkpt>
      <trkpt lat="42.07855" lon="2.48966">
        <ele>581</ele>
        <time>2010-01-01T03:25:37Z</time>
      </trkpt>
      <trkpt lat="42.07857" lon="2.48893">
        <ele>593</ele>
        <time>2010-01-01T03:25:59Z</time>
      </trkpt>
      <trkpt lat="42.07855" lon="2.48883">
        <ele>593</ele>
        <time>2010-01-01T03:26:02Z</time>
      </trkpt>
      <trkpt lat="42.07855" lon="2.48874">
        <ele>594</ele>
        <time>2010-01-01T03:26:05Z</time>
      </trkpt>
      <trkpt lat="42.0786" lon="2.4888">
        <ele>595</ele>
        <time>2010-01-01T03:26:07Z</time>
      </trkpt>
      <trkpt lat="42.07877" lon="2.4891">
        <ele>597</ele>
        <time>2010-01-01T03:26:19Z</time>
      </trkpt>
      <trkpt lat="42.07882" lon="2.48921">
        <ele>597</ele>
        <time>2010-01-01T03:26:22Z</time>
      </trkpt>
      <trkpt lat="42.07885" lon="2.48936">
        <ele>596</ele>
        <time>2010-01-01T03:26:27Z</time>
      </trkpt>
      <trkpt lat="42.07895" lon="2.48953">
        <ele>596</ele>
        <time>2010-01-01T03:26:34Z</time>
      </trkpt>
      <trkpt lat="42.07899" lon="2.48963">
        <ele>596</ele>
        <time>2010-01-01T03:26:37Z</time>
      </trkpt>
      <trkpt lat="42.07907" lon="2.48974">
        <ele>597</ele>
        <time>2010-01-01T03:26:41Z</time>
      </trkpt>
      <trkpt lat="42.07913" lon="2.48985">
        <ele>598</ele>
        <time>2010-01-01T03:26:46Z</time>
      </trkpt>
      <trkpt lat="42.07919" lon="2.48989">
        <ele>600</ele>
        <time>2010-01-01T03:26:48Z</time>
      </trkpt>
      <trkpt lat="42.0792" lon="2.48986">
        <ele>600</ele>
        <time>2010-01-01T03:26:49Z</time>
      </trkpt>
      <trkpt lat="42.07915" lon="2.48979">
        <ele>599</ele>
        <time>2010-01-01T03:26:52Z</time>
      </trkpt>
      <trkpt lat="42.07912" lon="2.48971">
        <ele>599</ele>
        <time>2010-01-01T03:26:55Z</time>
      </trkpt>
      <trkpt lat="42.07909" lon="2.48957">
        <ele>599</ele>
        <time>2010-01-01T03:26:59Z</time>
      </trkpt>
      <trkpt lat="42.07908" lon="2.48947">
        <ele>600</ele>
        <time>2010-01-01T03:27:02Z</time>
      </trkpt>
      <trkpt lat="42.07893" lon="2.48895">
        <ele>601</ele>
        <time>2010-01-01T03:27:19Z</time>
      </trkpt>
      <trkpt lat="42.07885" lon="2.48858">
        <ele>603</ele>
        <time>2010-01-01T03:27:30Z</time>
      </trkpt>
      <trkpt lat="42.07883" lon="2.48838">
        <ele>604</ele>
        <time>2010-01-01T03:27:36Z</time>
      </trkpt>
      <trkpt lat="42.0788" lon="2.48824">
        <ele>605</ele>
        <time>2010-01-01T03:27:40Z</time>
      </trkpt>
      <trkpt lat="42.0788" lon="2.48812">
        <ele>607</ele>
        <time>2010-01-01T03:27:44Z</time>
      </trkpt>
      <trkpt lat="42.07886" lon="2.48792">
        <ele>610</ele>
        <time>2010-01-01T03:27:50Z</time>
      </trkpt>
      <trkpt lat="42.07886" lon="2.48783">
        <ele>612</ele>
        <time>2010-01-01T03:27:53Z</time>
      </trkpt>
      <trkpt lat="42.07877" lon="2.48745">
        <ele>613</ele>
        <time>2010-01-01T03:28:05Z</time>
      </trkpt>
      <trkpt lat="42.07875" lon="2.4871">
        <ele>616</ele>
        <time>2010-01-01T03:28:15Z</time>
      </trkpt>
      <trkpt lat="42.07869" lon="2.48688">
        <ele>619</ele>
        <time>2010-01-01T03:28:22Z</time>
      </trkpt>
      <trkpt lat="42.07869" lon="2.48663">
        <ele>621</ele>
        <time>2010-01-01T03:28:29Z</time>
      </trkpt>
      <trkpt lat="42.07863" lon="2.48647">
        <ele>623</ele>
        <time>2010-01-01T03:28:35Z</time>
      </trkpt>
      <trkpt lat="42.07846" lon="2.48633">
        <ele>625</ele>
        <time>2010-01-01T03:28:43Z</time>
      </trkpt>
      <trkpt lat="42.07842" lon="2.48625">
        <ele>626</ele>
        <time>2010-01-01T03:28:46Z</time>
      </trkpt>
      <trkpt lat="42.07838" lon="2.48622">
        <ele>627</ele>
        <time>2010-01-01T03:28:47Z</time>
      </trkpt>
      <trkpt lat="42.07831" lon="2.4862">
        <ele>628</ele>
        <time>2010-01-01T03:28:50Z</time>
      </trkpt>
      <trkpt lat="42.07823" lon="2.48622">
        <ele>628</ele>
        <time>2010-01-01T03:28:53Z</time>
      </trkpt>
      <trkpt lat="42.07825" lon="2.48621">
        <ele>629</ele>
        <time>2010-01-01T03:28:54Z</time>
      </trkpt>
      <trkpt lat="42.07824" lon="2.48618">
        <ele>629</ele>
        <time>2010-01-01T03:28:55Z</time>
      </trkpt>
      <trkpt lat="42.0782" lon="2.48616">
        <ele>630</ele>
        <time>2010-01-01T03:28:57Z</time>
      </trkpt>
      <trkpt lat="42.07815" lon="2.48617">
        <ele>630</ele>
        <time>2010-01-01T03:28:58Z</time>
      </trkpt>
      <trkpt lat="42.07805" lon="2.48612">
        <ele>632</ele>
        <time>2010-01-01T03:29:03Z</time>
      </trkpt>
      <trkpt lat="42.078" lon="2.48607">
        <ele>634</ele>
        <time>2010-01-01T03:29:05Z</time>
      </trkpt>
      <trkpt lat="42.07794" lon="2.48605">
        <ele>635</ele>
        <time>2010-01-01T03:29:08Z</time>
      </trkpt>
      <trkpt lat="42.07786" lon="2.48599">
        <ele>638</ele>
        <time>2010-01-01T03:29:11Z</time>
      </trkpt>
      <trkpt lat="42.07777" lon="2.48598">
        <ele>639</ele>
        <time>2010-01-01T03:29:15Z</time>
      </trkpt>
      <trkpt lat="42.07762" lon="2.48592">
        <ele>642</ele>
        <time>2010-01-01T03:29:21Z</time>
      </trkpt>
      <trkpt lat="42.07754" lon="2.48584">
        <ele>644</ele>
        <time>2010-01-01T03:29:25Z</time>
      </trkpt>
      <trkpt lat="42.07752" lon="2.48579">
        <ele>646</ele>
        <time>2010-01-01T03:29:27Z</time>
      </trkpt>
      <trkpt lat="42.07753" lon="2.48577">
        <ele>647</ele>
        <time>2010-01-01T03:29:28Z</time>
      </trkpt>
      <trkpt lat="42.07757" lon="2.48575">
        <ele>647</ele>
        <time>2010-01-01T03:29:29Z</time>
      </trkpt>
      <trkpt lat="42.07777" lon="2.48576">
        <ele>646</ele>
        <time>2010-01-01T03:29:37Z</time>
      </trkpt>
      <trkpt lat="42.07804" lon="2.48569">
        <ele>643</ele>
        <time>2010-01-01T03:29:48Z</time>
      </trkpt>
      <trkpt lat="42.07816" lon="2.48558">
        <ele>643</ele>
        <time>2010-01-01T03:29:54Z</time>
      </trkpt>
      <trkpt lat="42.07823" lon="2.48543">
        <ele>645</ele>
        <time>2010-01-01T03:29:59Z</time>
      </trkpt>
      <trkpt lat="42.07828" lon="2.48506">
        <ele>653</ele>
        <time>2010-01-01T03:30:11Z</time>
      </trkpt>
      <trkpt lat="42.07833" lon="2.48494">
        <ele>654</ele>
        <time>2010-01-01T03:30:14Z</time>
      </trkpt>
      <trkpt lat="42.07838" lon="2.48464">
        <ele>656</ele>
        <time>2010-01-01T03:30:24Z</time>
      </trkpt>
      <trkpt lat="42.07845" lon="2.48445">
        <ele>656</ele>
        <time>2010-01-01T03:30:30Z</time>
      </trkpt>
      <trkpt lat="42.07844" lon="2.48435">
        <ele>657</ele>
        <time>2010-01-01T03:30:33Z</time>
      </trkpt>
      <trkpt lat="42.07839" lon="2.48419">
        <ele>659</ele>
        <time>2010-01-01T03:30:38Z</time>
      </trkpt>
      <trkpt lat="42.07831" lon="2.48395">
        <ele>666</ele>
        <time>2010-01-01T03:30:46Z</time>
      </trkpt>
      <trkpt lat="42.07828" lon="2.48365">
        <ele>671</ele>
        <time>2010-01-01T03:30:55Z</time>
      </trkpt>
      <trkpt lat="42.07824" lon="2.48354">
        <ele>675</ele>
        <time>2010-01-01T03:30:59Z</time>
      </trkpt>
      <trkpt lat="42.07822" lon="2.48341">
        <ele>678</ele>
        <time>2010-01-01T03:31:03Z</time>
      </trkpt>
      <trkpt lat="42.0783" lon="2.48318">
        <ele>676</ele>
        <time>2010-01-01T03:31:10Z</time>
      </trkpt>
      <trkpt lat="42.07831" lon="2.48304">
        <ele>678</ele>
        <time>2010-01-01T03:31:14Z</time>
      </trkpt>
      <trkpt lat="42.07851" lon="2.48275">
        <ele>673</ele>
        <time>2010-01-01T03:31:26Z</time>
      </trkpt>
      <trkpt lat="42.07856" lon="2.48261">
        <ele>673</ele>
        <time>2010-01-01T03:31:31Z</time>
      </trkpt>
      <trkpt lat="42.07857" lon="2.48244">
        <ele>674</ele>
        <time>2010-01-01T03:31:36Z</time>
      </trkpt>
      <trkpt lat="42.07856" lon="2.48216">
        <ele>677</ele>
        <time>2010-01-01T03:31:44Z</time>
      </trkpt>
      <trkpt lat="42.0786" lon="2.48191">
        <ele>677</ele>
        <time>2010-01-01T03:31:52Z</time>
      </trkpt>
      <trkpt lat="42.07863" lon="2.48178">
        <ele>677</ele>
        <time>2010-01-01T03:31:56Z</time>
      </trkpt>
      <trkpt lat="42.07863" lon="2.48164">
        <ele>678</ele>
        <time>2010-01-01T03:32:00Z</time>
      </trkpt>
      <trkpt lat="42.0786" lon="2.4814">
        <ele>682</ele>
        <time>2010-01-01T03:32:07Z</time>
      </trkpt>
      <trkpt lat="42.07862" lon="2.48113">
        <ele>684</ele>
        <time>2010-01-01T03:32:15Z</time>
      </trkpt>
      <trkpt lat="42.07871" lon="2.48093">
        <ele>681</ele>
        <time>2010-01-01T03:32:22Z</time>
      </trkpt>
      <trkpt lat="42.0788" lon="2.48057">
        <ele>681</ele>
        <time>2010-01-01T03:32:33Z</time>
      </trkpt>
      <trkpt lat="42.07888" lon="2.48035">
        <ele>681</ele>
        <time>2010-01-01T03:32:41Z</time>
      </trkpt>
      <trkpt lat="42.07893" lon="2.48013">
        <ele>682</ele>
        <time>2010-01-01T03:32:48Z</time>
      </trkpt>
      <trkpt lat="42.07889" lon="2.47997">
        <ele>687</ele>
        <time>2010-01-01T03:32:53Z</time>
      </trkpt>
      <trkpt lat="42.07885" lon="2.47988">
        <ele>690</ele>
        <time>2010-01-01T03:32:56Z</time>
      </trkpt>
      <trkpt lat="42.07885" lon="2.47976">
        <ele>692</ele>
        <time>2010-01-01T03:32:59Z</time>
      </trkpt>
      <trkpt lat="42.0789" lon="2.47959">
        <ele>694</ele>
        <time>2010-01-01T03:33:05Z</time>
      </trkpt>
      <trkpt lat="42.07899" lon="2.47942">
        <ele>695</ele>
        <time>2010-01-01T03:33:11Z</time>
      </trkpt>
      <trkpt lat="42.07902" lon="2.4793">
        <ele>697</ele>
        <time>2010-01-01T03:33:15Z</time>
      </trkpt>
      <trkpt lat="42.07913" lon="2.47906">
        <ele>697</ele>
        <time>2010-01-01T03:33:23Z</time>
      </trkpt>
      <trkpt lat="42.07923" lon="2.47895">
        <ele>695</ele>
        <time>2010-01-01T03:33:28Z</time>
      </trkpt>
      <trkpt lat="42.07937" lon="2.47886">
        <ele>692</ele>
        <time>2010-01-01T03:33:34Z</time>
      </trkpt>
      <trkpt lat="42.07954" lon="2.47863">
        <ele>692</ele>
        <time>2010-01-01T03:33:44Z</time>
      </trkpt>
      <trkpt lat="42.07964" lon="2.47842">
        <ele>694</ele>
        <time>2010-01-01T03:33:51Z</time>
      </trkpt>
      <trkpt lat="42.07965" lon="2.47834">
        <ele>696</ele>
        <time>2010-01-01T03:33:54Z</time>
      </trkpt>
      <trkpt lat="42.07971" lon="2.47818">
        <ele>698</ele>
        <time>2010-01-01T03:33:59Z</time>
      </trkpt>
      <trkpt lat="42.07977" lon="2.4781">
        <ele>698</ele>
        <time>2010-01-01T03:34:03Z</time>
      </trkpt>
      <trkpt lat="42.07992" lon="2.47801">
        <ele>695</ele>
        <time>2010-01-01T03:34:09Z</time>
      </trkpt>
      <trkpt lat="42.08" lon="2.47803">
        <ele>693</ele>
        <time>2010-01-01T03:34:12Z</time>
      </trkpt>
      <trkpt lat="42.08004" lon="2.47805">
        <ele>692</ele>
        <time>2010-01-01T03:34:14Z</time>
      </trkpt>
      <trkpt lat="42.08011" lon="2.47813">
        <ele>691</ele>
        <time>2010-01-01T03:34:18Z</time>
      </trkpt>
      <trkpt lat="42.08031" lon="2.4783">
        <ele>690</ele>
        <time>2010-01-01T03:34:27Z</time>
      </trkpt>
      <trkpt lat="42.08037" lon="2.47833">
        <ele>690</ele>
        <time>2010-01-01T03:34:30Z</time>
      </trkpt>
      <trkpt lat="42.08044" lon="2.47835">
        <ele>691</ele>
        <time>2010-01-01T03:34:32Z</time>
      </trkpt>
      <trkpt lat="42.08052" lon="2.47833">
        <ele>691</ele>
        <time>2010-01-01T03:34:36Z</time>
      </trkpt>
      <trkpt lat="42.08057" lon="2.47835">
        <ele>692</ele>
        <time>2010-01-01T03:34:38Z</time>
      </trkpt>
      <trkpt lat="42.08061" lon="2.47834">
        <ele>692</ele>
        <time>2010-01-01T03:34:40Z</time>
      </trkpt>
      <trkpt lat="42.08068" lon="2.47836">
        <ele>693</ele>
        <time>2010-01-01T03:34:42Z</time>
      </trkpt>
      <trkpt lat="42.08074" lon="2.47831">
        <ele>693</ele>
        <time>2010-01-01T03:34:45Z</time>
      </trkpt>
      <trkpt lat="42.08083" lon="2.47828">
        <ele>694</ele>
        <time>2010-01-01T03:34:49Z</time>
      </trkpt>
      <trkpt lat="42.08096" lon="2.47833">
        <ele>697</ele>
        <time>2010-01-01T03:34:54Z</time>
      </trkpt>
      <trkpt lat="42.08101" lon="2.47831">
        <ele>698</ele>
        <time>2010-01-01T03:34:57Z</time>
      </trkpt>
      <trkpt lat="42.08106" lon="2.47825">
        <ele>698</ele>
        <time>2010-01-01T03:34:59Z</time>
      </trkpt>
      <trkpt lat="42.0811" lon="2.47823">
        <ele>699</ele>
        <time>2010-01-01T03:35:01Z</time>
      </trkpt>
      <trkpt lat="42.08121" lon="2.47821">
        <ele>701</ele>
        <time>2010-01-01T03:35:05Z</time>
      </trkpt>
      <trkpt lat="42.08132" lon="2.47823">
        <ele>703</ele>
        <time>2010-01-01T03:35:10Z</time>
      </trkpt>
      <trkpt lat="42.08146" lon="2.47822">
        <ele>704</ele>
        <time>2010-01-01T03:35:15Z</time>
      </trkpt>
      <trkpt lat="42.08148" lon="2.47823">
        <ele>705</ele>
        <time>2010-01-01T03:35:16Z</time>
      </trkpt>
      <trkpt lat="42.08159" lon="2.47833">
        <ele>707</ele>
        <time>2010-01-01T03:35:22Z</time>
      </trkpt>
      <trkpt lat="42.08164" lon="2.47843">
        <ele>708</ele>
        <time>2010-01-01T03:35:25Z</time>
      </trkpt>
      <trkpt lat="42.08185" lon="2.47861">
        <ele>709</ele>
        <time>2010-01-01T03:35:35Z</time>
      </trkpt>
      <trkpt lat="42.08191" lon="2.47863">
        <ele>709</ele>
        <time>2010-01-01T03:35:38Z</time>
      </trkpt>
      <trkpt lat="42.08199" lon="2.47857">
        <ele>711</ele>
        <time>2010-01-01T03:35:42Z</time>
      </trkpt>
      <trkpt lat="42.0821" lon="2.47859">
        <ele>713</ele>
        <time>2010-01-01T03:35:46Z</time>
      </trkpt>
      <trkpt lat="42.0822" lon="2.47871">
        <ele>715</ele>
        <time>2010-01-01T03:35:51Z</time>
      </trkpt>
      <trkpt lat="42.08224" lon="2.4788">
        <ele>716</ele>
        <time>2010-01-01T03:35:54Z</time>
      </trkpt>
      <trkpt lat="42.08233" lon="2.47892">
        <ele>717</ele>
        <time>2010-01-01T03:35:59Z</time>
      </trkpt>
      <trkpt lat="42.08242" lon="2.47895">
        <ele>719</ele>
        <time>2010-01-01T03:36:03Z</time>
      </trkpt>
      <trkpt lat="42.08249" lon="2.47903">
        <ele>721</ele>
        <time>2010-01-01T03:36:07Z</time>
      </trkpt>
      <trkpt lat="42.08267" lon="2.47919">
        <ele>727</ele>
        <time>2010-01-01T03:36:15Z</time>
      </trkpt>
      <trkpt lat="42.08271" lon="2.47928">
        <ele>728</ele>
        <time>2010-01-01T03:36:19Z</time>
      </trkpt>
      <trkpt lat="42.08287" lon="2.47948">
        <ele>733</ele>
        <time>2010-01-01T03:36:27Z</time>
      </trkpt>
      <trkpt lat="42.08291" lon="2.47958">
        <ele>733</ele>
        <time>2010-01-01T03:36:31Z</time>
      </trkpt>
      <trkpt lat="42.08301" lon="2.47968">
        <ele>736</ele>
        <time>2010-01-01T03:36:36Z</time>
      </trkpt>
      <trkpt lat="42.08311" lon="2.47988">
        <ele>737</ele>
        <time>2010-01-01T03:36:43Z</time>
      </trkpt>
      <trkpt lat="42.08315" lon="2.48001">
        <ele>737</ele>
        <time>2010-01-01T03:36:47Z</time>
      </trkpt>
      <trkpt lat="42.08321" lon="2.48025">
        <ele>737</ele>
        <time>2010-01-01T03:36:54Z</time>
      </trkpt>
      <trkpt lat="42.08326" lon="2.4806">
        <ele>736</ele>
        <time>2010-01-01T03:37:05Z</time>
      </trkpt>
      <trkpt lat="42.0834" lon="2.48099">
        <ele>737</ele>
        <time>2010-01-01T03:37:18Z</time>
      </trkpt>
      <trkpt lat="42.08344" lon="2.48117">
        <ele>737</ele>
        <time>2010-01-01T03:37:23Z</time>
      </trkpt>
      <trkpt lat="42.0835" lon="2.48132">
        <ele>738</ele>
        <time>2010-01-01T03:37:28Z</time>
      </trkpt>
      <trkpt lat="42.08353" lon="2.48164">
        <ele>736</ele>
        <time>2010-01-01T03:37:38Z</time>
      </trkpt>
      <trkpt lat="42.08359" lon="2.48195">
        <ele>736</ele>
        <time>2010-01-01T03:37:47Z</time>
      </trkpt>
      <trkpt lat="42.08364" lon="2.48208">
        <ele>735</ele>
        <time>2010-01-01T03:37:52Z</time>
      </trkpt>
      <trkpt lat="42.08373" lon="2.48222">
        <ele>734</ele>
        <time>2010-01-01T03:37:57Z</time>
      </trkpt>
      <trkpt lat="42.08379" lon="2.48229">
        <ele>733</ele>
        <time>2010-01-01T03:38:01Z</time>
      </trkpt>
      <trkpt lat="42.08391" lon="2.48234">
        <ele>734</ele>
        <time>2010-01-01T03:38:06Z</time>
      </trkpt>
      <trkpt lat="42.08401" lon="2.48242">
        <ele>733</ele>
        <time>2010-01-01T03:38:10Z</time>
      </trkpt>
      <trkpt lat="42.08422" lon="2.4824">
        <ele>736</ele>
        <time>2010-01-01T03:38:19Z</time>
      </trkpt>
      <trkpt lat="42.08429" lon="2.48242">
        <ele>735</ele>
        <time>2010-01-01T03:38:21Z</time>
      </trkpt>
      <trkpt lat="42.08432" lon="2.48242">
        <ele>735</ele>
        <time>2010-01-01T03:38:23Z</time>
      </trkpt>
      <trkpt lat="42.08445" lon="2.48237">
        <ele>736</ele>
        <time>2010-01-01T03:38:28Z</time>
      </trkpt>
      <trkpt lat="42.08452" lon="2.48236">
        <ele>735</ele>
        <time>2010-01-01T03:38:31Z</time>
      </trkpt>
      <trkpt lat="42.08463" lon="2.48232">
        <ele>736</ele>
        <time>2010-01-01T03:38:35Z</time>
      </trkpt>
      <trkpt lat="42.08466" lon="2.48231">
        <ele>736</ele>
        <time>2010-01-01T03:38:37Z</time>
      </trkpt>
      <trkpt lat="42.0848" lon="2.48235">
        <ele>734</ele>
        <time>2010-01-01T03:38:42Z</time>
      </trkpt>
      <trkpt lat="42.08493" lon="2.48231">
        <ele>735</ele>
        <time>2010-01-01T03:38:48Z</time>
      </trkpt>
      <trkpt lat="42.08502" lon="2.4823">
        <ele>734</ele>
        <time>2010-01-01T03:38:51Z</time>
      </trkpt>
      <trkpt lat="42.08512" lon="2.48239">
        <ele>732</ele>
        <time>2010-01-01T03:38:56Z</time>
      </trkpt>
      <trkpt lat="42.08515" lon="2.4824">
        <ele>731</ele>
        <time>2010-01-01T03:38:57Z</time>
      </trkpt>
      <trkpt lat="42.08521" lon="2.48236">
        <ele>732</ele>
        <time>2010-01-01T03:39:00Z</time>
      </trkpt>
      <trkpt lat="42.08524" lon="2.48236">
        <ele>732</ele>
        <time>2010-01-01T03:39:01Z</time>
      </trkpt>
      <trkpt lat="42.08533" lon="2.48242">
        <ele>730</ele>
        <time>2010-01-01T03:39:05Z</time>
      </trkpt>
      <trkpt lat="42.08544" lon="2.48247">
        <ele>730</ele>
        <time>2010-01-01T03:39:10Z</time>
      </trkpt>
      <trkpt lat="42.08565" lon="2.48268">
        <ele>727</ele>
        <time>2010-01-01T03:39:20Z</time>
      </trkpt>
      <trkpt lat="42.08571" lon="2.48267">
        <ele>727</ele>
        <time>2010-01-01T03:39:23Z</time>
      </trkpt>
      <trkpt lat="42.08584" lon="2.48276">
        <ele>727</ele>
        <time>2010-01-01T03:39:29Z</time>
      </trkpt>
      <trkpt lat="42.08593" lon="2.48278">
        <ele>727</ele>
        <time>2010-01-01T03:39:33Z</time>
      </trkpt>
      <trkpt lat="42.08608" lon="2.48278">
        <ele>728</ele>
        <time>2010-01-01T03:39:39Z</time>
      </trkpt>
      <trkpt lat="42.08616" lon="2.48282">
        <ele>727</ele>
        <time>2010-01-01T03:39:42Z</time>
      </trkpt>
      <trkpt lat="42.08622" lon="2.48282">
        <ele>727</ele>
        <time>2010-01-01T03:39:44Z</time>
      </trkpt>
      <trkpt lat="42.08645" lon="2.48287">
        <ele>726</ele>
        <time>2010-01-01T03:39:54Z</time>
      </trkpt>
      <trkpt lat="42.08666" lon="2.48284">
        <ele>727</ele>
        <time>2010-01-01T03:40:02Z</time>
      </trkpt>
      <trkpt lat="42.08674" lon="2.48279">
        <ele>729</ele>
        <time>2010-01-01T03:40:06Z</time>
      </trkpt>
      <trkpt lat="42.08688" lon="2.48274">
        <ele>730</ele>
        <time>2010-01-01T03:40:11Z</time>
      </trkpt>
      <trkpt lat="42.08698" lon="2.48268">
        <ele>731</ele>
        <time>2010-01-01T03:40:16Z</time>
      </trkpt>
      <trkpt lat="42.08705" lon="2.48267">
        <ele>731</ele>
        <time>2010-01-01T03:40:19Z</time>
      </trkpt>
      <trkpt lat="42.08719" lon="2.48268">
        <ele>730</ele>
        <time>2010-01-01T03:40:24Z</time>
      </trkpt>
      <trkpt lat="42.08742" lon="2.48266">
        <ele>729</ele>
        <time>2010-01-01T03:40:33Z</time>
      </trkpt>
      <trkpt lat="42.08757" lon="2.48275">
        <ele>726</ele>
        <time>2010-01-01T03:40:40Z</time>
      </trkpt>
      <trkpt lat="42.08776" lon="2.4828">
        <ele>724</ele>
        <time>2010-01-01T03:40:48Z</time>
      </trkpt>
      <trkpt lat="42.08789" lon="2.48278">
        <ele>723</ele>
        <time>2010-01-01T03:40:53Z</time>
      </trkpt>
      <trkpt lat="42.08802" lon="2.48272">
        <ele>722</ele>
        <time>2010-01-01T03:40:58Z</time>
      </trkpt>
      <trkpt lat="42.08805" lon="2.48273">
        <ele>721</ele>
        <time>2010-01-01T03:40:59Z</time>
      </trkpt>
      <trkpt lat="42.08809" lon="2.48267">
        <ele>721</ele>
        <time>2010-01-01T03:41:02Z</time>
      </trkpt>
      <trkpt lat="42.08814" lon="2.48271">
        <ele>720</ele>
        <time>2010-01-01T03:41:04Z</time>
      </trkpt>
      <trkpt lat="42.08827" lon="2.48268">
        <ele>718</ele>
        <time>2010-01-01T03:41:09Z</time>
      </trkpt>
      <trkpt lat="42.08837" lon="2.48273">
        <ele>717</ele>
        <time>2010-01-01T03:41:14Z</time>
      </trkpt>
      <trkpt lat="42.08843" lon="2.48271">
        <ele>716</ele>
        <time>2010-01-01T03:41:16Z</time>
      </trkpt>
      <trkpt lat="42.08853" lon="2.48249">
        <ele>716</ele>
        <time>2010-01-01T03:41:24Z</time>
      </trkpt>
      <trkpt lat="42.08856" lon="2.48232">
        <ele>715</ele>
        <time>2010-01-01T03:41:29Z</time>
      </trkpt>
      <trkpt lat="42.0887" lon="2.48204">
        <ele>711</ele>
        <time>2010-01-01T03:41:39Z</time>
      </trkpt>
      <trkpt lat="42.08872" lon="2.4819">
        <ele>710</ele>
        <time>2010-01-01T03:41:43Z</time>
      </trkpt>
      <trkpt lat="42.08892" lon="2.48156">
        <ele>703</ele>
        <time>2010-01-01T03:41:56Z</time>
      </trkpt>
      <trkpt lat="42.08895" lon="2.48141">
        <ele>701</ele>
        <time>2010-01-01T03:42:01Z</time>
      </trkpt>
      <trkpt lat="42.0889" lon="2.48119">
        <ele>699</ele>
        <time>2010-01-01T03:42:08Z</time>
      </trkpt>
      <trkpt lat="42.08895" lon="2.48117">
        <ele>697</ele>
        <time>2010-01-01T03:42:10Z</time>
      </trkpt>
      <trkpt lat="42.08897" lon="2.48114">
        <ele>697</ele>
        <time>2010-01-01T03:42:11Z</time>
      </trkpt>
      <trkpt lat="42.08896" lon="2.48078">
        <ele>695</ele>
        <time>2010-01-01T03:42:22Z</time>
      </trkpt>
      <trkpt lat="42.08898" lon="2.48071">
        <ele>695</ele>
        <time>2010-01-01T03:42:24Z</time>
      </trkpt>
      <trkpt lat="42.08898" lon="2.48064">
        <ele>695</ele>
        <time>2010-01-01T03:42:26Z</time>
      </trkpt>
      <trkpt lat="42.08886" lon="2.4804">
        <ele>698</ele>
        <time>2010-01-01T03:42:35Z</time>
      </trkpt>
      <trkpt lat="42.08887" lon="2.48034">
        <ele>698</ele>
        <time>2010-01-01T03:42:37Z</time>
      </trkpt>
      <trkpt lat="42.08885" lon="2.4802">
        <ele>699</ele>
        <time>2010-01-01T03:42:41Z</time>
      </trkpt>
      <trkpt lat="42.08887" lon="2.48003">
        <ele>700</ele>
        <time>2010-01-01T03:42:46Z</time>
      </trkpt>
      <trkpt lat="42.08892" lon="2.47996">
        <ele>700</ele>
        <time>2010-01-01T03:42:49Z</time>
      </trkpt>
      <trkpt lat="42.08897" lon="2.47994">
        <ele>700</ele>
        <time>2010-01-01T03:42:51Z</time>
      </trkpt>
      <trkpt lat="42.08902" lon="2.47988">
        <ele>700</ele>
        <time>2010-01-01T03:42:54Z</time>
      </trkpt>
      <trkpt lat="42.08912" lon="2.47973">
        <ele>701</ele>
        <time>2010-01-01T03:43:00Z</time>
      </trkpt>
      <trkpt lat="42.08918" lon="2.47954">
        <ele>702</ele>
        <time>2010-01-01T03:43:06Z</time>
      </trkpt>
      <trkpt lat="42.08932" lon="2.47921">
        <ele>702</ele>
        <time>2010-01-01T03:43:17Z</time>
      </trkpt>
      <trkpt lat="42.08947" lon="2.47892">
        <ele>699</ele>
        <time>2010-01-01T03:43:28Z</time>
      </trkpt>
      <trkpt lat="42.08951" lon="2.47879">
        <ele>699</ele>
        <time>2010-01-01T03:43:32Z</time>
      </trkpt>
      <trkpt lat="42.08956" lon="2.4787">
        <ele>698</ele>
        <time>2010-01-01T03:43:35Z</time>
      </trkpt>
      <trkpt lat="42.08973" lon="2.47853">
        <ele>696</ele>
        <time>2010-01-01T03:43:43Z</time>
      </trkpt>
      <trkpt lat="42.0898" lon="2.47835">
        <ele>697</ele>
        <time>2010-01-01T03:43:49Z</time>
      </trkpt>
      <trkpt lat="42.08982" lon="2.47827">
        <ele>697</ele>
        <time>2010-01-01T03:43:52Z</time>
      </trkpt>
      <trkpt lat="42.08989" lon="2.4782">
        <ele>697</ele>
        <time>2010-01-01T03:43:56Z</time>
      </trkpt>
      <trkpt lat="42.09002" lon="2.4782">
        <ele>696</ele>
        <time>2010-01-01T03:44:01Z</time>
      </trkpt>
      <trkpt lat="42.09015" lon="2.47817">
        <ele>695</ele>
        <time>2010-01-01T03:44:06Z</time>
      </trkpt>
      <trkpt lat="42.0902" lon="2.47815">
        <ele>695</ele>
        <time>2010-01-01T03:44:08Z</time>
      </trkpt>
      <trkpt lat="42.0903" lon="2.47803">
        <ele>695</ele>
        <time>2010-01-01T03:44:14Z</time>
      </trkpt>
      <trkpt lat="42.09043" lon="2.47778">
        <ele>698</ele>
        <time>2010-01-01T03:44:23Z</time>
      </trkpt>
      <trkpt lat="42.09058" lon="2.47754">
        <ele>697</ele>
        <time>2010-01-01T03:44:32Z</time>
      </trkpt>
      <trkpt lat="42.09064" lon="2.47749">
        <ele>697</ele>
        <time>2010-01-01T03:44:35Z</time>
      </trkpt>
      <trkpt lat="42.09077" lon="2.47742">
        <ele>697</ele>
        <time>2010-01-01T03:44:40Z</time>
      </trkpt>
      <trkpt lat="42.09084" lon="2.47739">
        <ele>697</ele>
        <time>2010-01-01T03:44:43Z</time>
      </trkpt>
      <trkpt lat="42.09092" lon="2.47741">
        <ele>698</ele>
        <time>2010-01-01T03:44:46Z</time>
      </trkpt>
      <trkpt lat="42.09121" lon="2.47763">
        <ele>698</ele>
        <time>2010-01-01T03:45:00Z</time>
      </trkpt>
      <trkpt lat="42.09126" lon="2.47765">
        <ele>698</ele>
        <time>2010-01-01T03:45:02Z</time>
      </trkpt>
      <trkpt lat="42.09144" lon="2.47767">
        <ele>698</ele>
        <time>2010-01-01T03:45:09Z</time>
      </trkpt>
      <trkpt lat="42.09151" lon="2.47769">
        <ele>697</ele>
        <time>2010-01-01T03:45:12Z</time>
      </trkpt>
      <trkpt lat="42.09162" lon="2.47766">
        <ele>697</ele>
        <time>2010-01-01T03:45:16Z</time>
      </trkpt>
      <trkpt lat="42.09174" lon="2.47761">
        <ele>696</ele>
        <time>2010-01-01T03:45:21Z</time>
      </trkpt>
      <trkpt lat="42.09194" lon="2.47758">
        <ele>693</ele>
        <time>2010-01-01T03:45:30Z</time>
      </trkpt>
      <trkpt lat="42.09203" lon="2.47751">
        <ele>692</ele>
        <time>2010-01-01T03:45:34Z</time>
      </trkpt>
      <trkpt lat="42.09207" lon="2.47746">
        <ele>691</ele>
        <time>2010-01-01T03:45:36Z</time>
      </trkpt>
      <trkpt lat="42.09217" lon="2.47722">
        <ele>690</ele>
        <time>2010-01-01T03:45:44Z</time>
      </trkpt>
      <trkpt lat="42.09218" lon="2.47711">
        <ele>690</ele>
        <time>2010-01-01T03:45:47Z</time>
      </trkpt>
      <trkpt lat="42.09233" lon="2.47685">
        <ele>687</ele>
        <time>2010-01-01T03:45:57Z</time>
      </trkpt>
      <trkpt lat="42.09236" lon="2.47683">
        <ele>687</ele>
        <time>2010-01-01T03:45:58Z</time>
      </trkpt>
      <trkpt lat="42.09241" lon="2.47684">
        <ele>686</ele>
        <time>2010-01-01T03:46:01Z</time>
      </trkpt>
      <trkpt lat="42.09253" lon="2.47679">
        <ele>685</ele>
        <time>2010-01-01T03:46:05Z</time>
      </trkpt>
      <trkpt lat="42.09265" lon="2.4768">
        <ele>684</ele>
        <time>2010-01-01T03:46:10Z</time>
      </trkpt>
      <trkpt lat="42.09277" lon="2.47688">
        <ele>684</ele>
        <time>2010-01-01T03:46:16Z</time>
      </trkpt>
      <trkpt lat="42.09284" lon="2.47695">
        <ele>683</ele>
        <time>2010-01-01T03:46:19Z</time>
      </trkpt>
      <trkpt lat="42.09318" lon="2.47736">
        <ele>680</ele>
        <time>2010-01-01T03:46:37Z</time>
      </trkpt>
      <trkpt lat="42.09348" lon="2.47788">
        <ele>676</ele>
        <time>2010-01-01T03:46:57Z</time>
      </trkpt>
      <trkpt lat="42.09356" lon="2.47798">
        <ele>676</ele>
        <time>2010-01-01T03:47:01Z</time>
      </trkpt>
      <trkpt lat="42.09362" lon="2.47799">
        <ele>677</ele>
        <time>2010-01-01T03:47:04Z</time>
      </trkpt>
      <trkpt lat="42.09367" lon="2.47802">
        <ele>677</ele>
        <time>2010-01-01T03:47:06Z</time>
      </trkpt>
      <trkpt lat="42.09377" lon="2.47821">
        <ele>675</ele>
        <time>2010-01-01T03:47:13Z</time>
      </trkpt>
      <trkpt lat="42.09393" lon="2.47847">
        <ele>674</ele>
        <time>2010-01-01T03:47:23Z</time>
      </trkpt>
      <trkpt lat="42.09422" lon="2.47871">
        <ele>673</ele>
        <time>2010-01-01T03:47:37Z</time>
      </trkpt>
      <trkpt lat="42.09446" lon="2.47877">
        <ele>672</ele>
        <time>2010-01-01T03:47:46Z</time>
      </trkpt>
      <trkpt lat="42.09477" lon="2.47892">
        <ele>672</ele>
        <time>2010-01-01T03:48:00Z</time>
      </trkpt>
      <trkpt lat="42.09489" lon="2.47903">
        <ele>672</ele>
        <time>2010-01-01T03:48:05Z</time>
      </trkpt>
      <trkpt lat="42.09504" lon="2.47912">
        <ele>674</ele>
        <time>2010-01-01T03:48:12Z</time>
      </trkpt>
      <trkpt lat="42.09512" lon="2.47921">
        <ele>675</ele>
        <time>2010-01-01T03:48:16Z</time>
      </trkpt>
      <trkpt lat="42.09528" lon="2.47945">
        <ele>673</ele>
        <time>2010-01-01T03:48:26Z</time>
      </trkpt>
      <trkpt lat="42.09534" lon="2.47944">
        <ele>675</ele>
        <time>2010-01-01T03:48:28Z</time>
      </trkpt>
      <trkpt lat="42.09535" lon="2.47936">
        <ele>677</ele>
        <time>2010-01-01T03:48:30Z</time>
      </trkpt>
      <trkpt lat="42.09534" lon="2.47931">
        <ele>678</ele>
        <time>2010-01-01T03:48:32Z</time>
      </trkpt>
      <trkpt lat="42.09534" lon="2.47928">
        <ele>678</ele>
        <time>2010-01-01T03:48:33Z</time>
      </trkpt>
      <trkpt lat="42.0954" lon="2.4792">
        <ele>681</ele>
        <time>2010-01-01T03:48:36Z</time>
      </trkpt>
      <trkpt lat="42.09546" lon="2.47918">
        <ele>682</ele>
        <time>2010-01-01T03:48:39Z</time>
      </trkpt>
      <trkpt lat="42.09547" lon="2.47916">
        <ele>683</ele>
        <time>2010-01-01T03:48:39Z</time>
      </trkpt>
      <trkpt lat="42.09547" lon="2.47911">
        <ele>684</ele>
        <time>2010-01-01T03:48:41Z</time>
      </trkpt>
      <trkpt lat="42.09556" lon="2.47901">
        <ele>686</ele>
        <time>2010-01-01T03:48:45Z</time>
      </trkpt>
      <trkpt lat="42.0957" lon="2.47875">
        <ele>691</ele>
        <time>2010-01-01T03:48:55Z</time>
      </trkpt>
      <trkpt lat="42.09574" lon="2.47872">
        <ele>692</ele>
        <time>2010-01-01T03:48:57Z</time>
      </trkpt>
      <trkpt lat="42.09578" lon="2.47872">
        <ele>692</ele>
        <time>2010-01-01T03:48:58Z</time>
      </trkpt>
      <trkpt lat="42.09584" lon="2.47862">
        <ele>694</ele>
        <time>2010-01-01T03:49:02Z</time>
      </trkpt>
      <trkpt lat="42.0959" lon="2.47859">
        <ele>695</ele>
        <time>2010-01-01T03:49:05Z</time>
      </trkpt>
      <trkpt lat="42.09596" lon="2.47844">
        <ele>698</ele>
        <time>2010-01-01T03:49:10Z</time>
      </trkpt>
      <trkpt lat="42.09597" lon="2.47832">
        <ele>701</ele>
        <time>2010-01-01T03:49:13Z</time>
      </trkpt>
      <trkpt lat="42.09602" lon="2.47827">
        <ele>702</ele>
        <time>2010-01-01T03:49:16Z</time>
      </trkpt>
      <trkpt lat="42.09605" lon="2.47817">
        <ele>703</ele>
        <time>2010-01-01T03:49:19Z</time>
      </trkpt>
      <trkpt lat="42.09604" lon="2.47808">
        <ele>704</ele>
        <time>2010-01-01T03:49:22Z</time>
      </trkpt>
      <trkpt lat="42.09607" lon="2.47799">
        <ele>705</ele>
        <time>2010-01-01T03:49:25Z</time>
      </trkpt>
      <trkpt lat="42.09618" lon="2.47788">
        <ele>707</ele>
        <time>2010-01-01T03:49:30Z</time>
      </trkpt>
      <trkpt lat="42.0964" lon="2.47782">
        <ele>712</ele>
        <time>2010-01-01T03:49:39Z</time>
      </trkpt>
      <trkpt lat="42.09646" lon="2.47776">
        <ele>714</ele>
        <time>2010-01-01T03:49:42Z</time>
      </trkpt>
      <trkpt lat="42.09655" lon="2.47771">
        <ele>715</ele>
        <time>2010-01-01T03:49:46Z</time>
      </trkpt>
      <trkpt lat="42.09662" lon="2.47758">
        <ele>718</ele>
        <time>2010-01-01T03:49:51Z</time>
      </trkpt>
      <trkpt lat="42.09667" lon="2.47753">
        <ele>719</ele>
        <time>2010-01-01T03:49:53Z</time>
      </trkpt>
      <trkpt lat="42.0967" lon="2.47741">
        <ele>720</ele>
        <time>2010-01-01T03:49:57Z</time>
      </trkpt>
      <trkpt lat="42.09678" lon="2.47734">
        <ele>720</ele>
        <time>2010-01-01T03:50:01Z</time>
      </trkpt>
      <trkpt lat="42.09686" lon="2.4773">
        <ele>721</ele>
        <time>2010-01-01T03:50:04Z</time>
      </trkpt>
      <trkpt lat="42.0969" lon="2.47722">
        <ele>723</ele>
        <time>2010-01-01T03:50:07Z</time>
      </trkpt>
      <trkpt lat="42.0969" lon="2.47716">
        <ele>724</ele>
        <time>2010-01-01T03:50:09Z</time>
      </trkpt>
      <trkpt lat="42.097" lon="2.4769">
        <ele>727</ele>
        <time>2010-01-01T03:50:18Z</time>
      </trkpt>
      <trkpt lat="42.09704" lon="2.47684">
        <ele>727</ele>
        <time>2010-01-01T03:50:20Z</time>
      </trkpt>
      <trkpt lat="42.09712" lon="2.47676">
        <ele>728</ele>
        <time>2010-01-01T03:50:24Z</time>
      </trkpt>
      <trkpt lat="42.09715" lon="2.47668">
        <ele>728</ele>
        <time>2010-01-01T03:50:27Z</time>
      </trkpt>
      <trkpt lat="42.09721" lon="2.47666">
        <ele>728</ele>
        <time>2010-01-01T03:50:29Z</time>
      </trkpt>
      <trkpt lat="42.09731" lon="2.47644">
        <ele>728</ele>
        <time>2010-01-01T03:50:37Z</time>
      </trkpt>
      <trkpt lat="42.09734" lon="2.47632">
        <ele>728</ele>
        <time>2010-01-01T03:50:40Z</time>
      </trkpt>
      <trkpt lat="42.09739" lon="2.47622">
        <ele>729</ele>
        <time>2010-01-01T03:50:44Z</time>
      </trkpt>
      <trkpt lat="42.09753" lon="2.47612">
        <ele>730</ele>
        <time>2010-01-01T03:50:50Z</time>
      </trkpt>
      <trkpt lat="42.09765" lon="2.47593">
        <ele>731</ele>
        <time>2010-01-01T03:50:58Z</time>
      </trkpt>
      <trkpt lat="42.09775" lon="2.47587">
        <ele>732</ele>
        <time>2010-01-01T03:51:02Z</time>
      </trkpt>
      <trkpt lat="42.09789" lon="2.47573">
        <ele>732</ele>
        <time>2010-01-01T03:51:09Z</time>
      </trkpt>
      <trkpt lat="42.09802" lon="2.47565">
        <ele>732</ele>
        <time>2010-01-01T03:51:15Z</time>
      </trkpt>
      <trkpt lat="42.09813" lon="2.47556">
        <ele>733</ele>
        <time>2010-01-01T03:51:20Z</time>
      </trkpt>
      <trkpt lat="42.09823" lon="2.4755">
        <ele>733</ele>
        <time>2010-01-01T03:51:24Z</time>
      </trkpt>
      <trkpt lat="42.09827" lon="2.47546">
        <ele>733</ele>
        <time>2010-01-01T03:51:27Z</time>
      </trkpt>
      <trkpt lat="42.09834" lon="2.47543">
        <ele>733</ele>
        <time>2010-01-01T03:51:29Z</time>
      </trkpt>
      <trkpt lat="42.09849" lon="2.4753">
        <ele>733</ele>
        <time>2010-01-01T03:51:37Z</time>
      </trkpt>
      <trkpt lat="42.09857" lon="2.47528">
        <ele>733</ele>
        <time>2010-01-01T03:51:40Z</time>
      </trkpt>
      <trkpt lat="42.09871" lon="2.4752">
        <ele>732</ele>
        <time>2010-01-01T03:51:46Z</time>
      </trkpt>
      <trkpt lat="42.09885" lon="2.47518">
        <ele>731</ele>
        <time>2010-01-01T03:51:52Z</time>
      </trkpt>
      <trkpt lat="42.09891" lon="2.47512">
        <ele>730</ele>
        <time>2010-01-01T03:51:54Z</time>
      </trkpt>
      <trkpt lat="42.099" lon="2.47512">
        <ele>730</ele>
        <time>2010-01-01T03:51:58Z</time>
      </trkpt>
      <trkpt lat="42.09914" lon="2.47509">
        <ele>729</ele>
        <time>2010-01-01T03:52:04Z</time>
      </trkpt>
      <trkpt lat="42.09919" lon="2.47505">
        <ele>728</ele>
        <time>2010-01-01T03:52:06Z</time>
      </trkpt>
      <trkpt lat="42.09925" lon="2.47505">
        <ele>727</ele>
        <time>2010-01-01T03:52:08Z</time>
      </trkpt>
      <trkpt lat="42.09933" lon="2.475">
        <ele>725</ele>
        <time>2010-01-01T03:52:12Z</time>
      </trkpt>
      <trkpt lat="42.09948" lon="2.47486">
        <ele>721</ele>
        <time>2010-01-01T03:52:19Z</time>
      </trkpt>
      <trkpt lat="42.09955" lon="2.47474">
        <ele>718</ele>
        <time>2010-01-01T03:52:24Z</time>
      </trkpt>
      <trkpt lat="42.0996" lon="2.47473">
        <ele>717</ele>
        <time>2010-01-01T03:52:26Z</time>
      </trkpt>
      <trkpt lat="42.09967" lon="2.47465">
        <ele>714</ele>
        <time>2010-01-01T03:52:30Z</time>
      </trkpt>
      <trkpt lat="42.09973" lon="2.47465">
        <ele>713</ele>
        <time>2010-01-01T03:52:32Z</time>
      </trkpt>
      <trkpt lat="42.09982" lon="2.47461">
        <ele>712</ele>
        <time>2010-01-01T03:52:36Z</time>
      </trkpt>
      <trkpt lat="42.09991" lon="2.4746">
        <ele>710</ele>
        <time>2010-01-01T03:52:39Z</time>
      </trkpt>
      <trkpt lat="42.1001" lon="2.47443">
        <ele>708</ele>
        <time>2010-01-01T03:52:48Z</time>
      </trkpt>
      <trkpt lat="42.10027" lon="2.47433">
        <ele>708</ele>
        <time>2010-01-01T03:52:56Z</time>
      </trkpt>
      <trkpt lat="42.10037" lon="2.47422">
        <ele>708</ele>
        <time>2010-01-01T03:53:01Z</time>
      </trkpt>
      <trkpt lat="42.10038" lon="2.47424">
        <ele>708</ele>
        <time>2010-01-01T03:53:02Z</time>
      </trkpt>
      <trkpt lat="42.10044" lon="2.47416">
        <ele>709</ele>
        <time>2010-01-01T03:53:05Z</time>
      </trkpt>
      <trkpt lat="42.10069" lon="2.47405">
        <ele>708</ele>
        <time>2010-01-01T03:53:16Z</time>
      </trkpt>
      <trkpt lat="42.10079" lon="2.47392">
        <ele>707</ele>
        <time>2010-01-01T03:53:21Z</time>
      </trkpt>
      <trkpt lat="42.10086" lon="2.47387">
        <ele>707</ele>
        <time>2010-01-01T03:53:24Z</time>
      </trkpt>
      <trkpt lat="42.101" lon="2.47363">
        <ele>705</ele>
        <time>2010-01-01T03:53:33Z</time>
      </trkpt>
      <trkpt lat="42.1013" lon="2.47338">
        <ele>703</ele>
        <time>2010-01-01T03:53:48Z</time>
      </trkpt>
      <trkpt lat="42.1014" lon="2.47333">
        <ele>702</ele>
        <time>2010-01-01T03:53:52Z</time>
      </trkpt>
      <trkpt lat="42.10152" lon="2.47315">
        <ele>698</ele>
        <time>2010-01-01T03:53:59Z</time>
      </trkpt>
      <trkpt lat="42.10155" lon="2.47315">
        <ele>698</ele>
        <time>2010-01-01T03:54:00Z</time>
      </trkpt>
      <trkpt lat="42.10161" lon="2.47318">
        <ele>697</ele>
        <time>2010-01-01T03:54:03Z</time>
      </trkpt>
      <trkpt lat="42.1017" lon="2.47317">
        <ele>695</ele>
        <time>2010-01-01T03:54:06Z</time>
      </trkpt>
      <trkpt lat="42.10177" lon="2.47313">
        <ele>692</ele>
        <time>2010-01-01T03:54:09Z</time>
      </trkpt>
      <trkpt lat="42.10181" lon="2.47303">
        <ele>691</ele>
        <time>2010-01-01T03:54:13Z</time>
      </trkpt>
      <trkpt lat="42.10183" lon="2.47295">
        <ele>691</ele>
        <time>2010-01-01T03:54:15Z</time>
      </trkpt>
      <trkpt lat="42.10183" lon="2.47282">
        <ele>690</ele>
        <time>2010-01-01T03:54:19Z</time>
      </trkpt>
      <trkpt lat="42.10185" lon="2.47278">
        <ele>690</ele>
        <time>2010-01-01T03:54:20Z</time>
      </trkpt>
      <trkpt lat="42.10187" lon="2.47278">
        <ele>689</ele>
        <time>2010-01-01T03:54:21Z</time>
      </trkpt>
      <trkpt lat="42.10196" lon="2.47291">
        <ele>687</ele>
        <time>2010-01-01T03:54:26Z</time>
      </trkpt>
      <trkpt lat="42.102" lon="2.47293">
        <ele>685</ele>
        <time>2010-01-01T03:54:28Z</time>
      </trkpt>
      <trkpt lat="42.10204" lon="2.47297">
        <ele>684</ele>
        <time>2010-01-01T03:54:30Z</time>
      </trkpt>
      <trkpt lat="42.10209" lon="2.47295">
        <ele>681</ele>
        <time>2010-01-01T03:54:32Z</time>
      </trkpt>
      <trkpt lat="42.10212" lon="2.47295">
        <ele>680</ele>
        <time>2010-01-01T03:54:33Z</time>
      </trkpt>
      <trkpt lat="42.10217" lon="2.47297">
        <ele>678</ele>
        <time>2010-01-01T03:54:35Z</time>
      </trkpt>
      <trkpt lat="42.10221" lon="2.47303">
        <ele>676</ele>
        <time>2010-01-01T03:54:38Z</time>
      </trkpt>
      <trkpt lat="42.10223" lon="2.47302">
        <ele>675</ele>
        <time>2010-01-01T03:54:39Z</time>
      </trkpt>
      <trkpt lat="42.10225" lon="2.47297">
        <ele>675</ele>
        <time>2010-01-01T03:54:40Z</time>
      </trkpt>
      <trkpt lat="42.10228" lon="2.47296">
        <ele>674</ele>
        <time>2010-01-01T03:54:42Z</time>
      </trkpt>
      <trkpt lat="42.10235" lon="2.473">
        <ele>671</ele>
        <time>2010-01-01T03:54:44Z</time>
      </trkpt>
      <trkpt lat="42.10244" lon="2.47308">
        <ele>667</ele>
        <time>2010-01-01T03:54:49Z</time>
      </trkpt>
      <trkpt lat="42.10249" lon="2.47308">
        <ele>666</ele>
        <time>2010-01-01T03:54:51Z</time>
      </trkpt>
      <trkpt lat="42.10254" lon="2.47313">
        <ele>664</ele>
        <time>2010-01-01T03:54:53Z</time>
      </trkpt>
      <trkpt lat="42.10257" lon="2.47312">
        <ele>663</ele>
        <time>2010-01-01T03:54:54Z</time>
      </trkpt>
      <trkpt lat="42.10265" lon="2.47309">
        <ele>662</ele>
        <time>2010-01-01T03:54:58Z</time>
      </trkpt>
      <trkpt lat="42.1027" lon="2.473">
        <ele>662</ele>
        <time>2010-01-01T03:55:01Z</time>
      </trkpt>
      <trkpt lat="42.10268" lon="2.47281">
        <ele>663</ele>
        <time>2010-01-01T03:55:07Z</time>
      </trkpt>
      <trkpt lat="42.1027" lon="2.47268">
        <ele>663</ele>
        <time>2010-01-01T03:55:10Z</time>
      </trkpt>
      <trkpt lat="42.10272" lon="2.47265">
        <ele>662</ele>
        <time>2010-01-01T03:55:12Z</time>
      </trkpt>
      <trkpt lat="42.10283" lon="2.47255">
        <ele>661</ele>
        <time>2010-01-01T03:55:17Z</time>
      </trkpt>
      <trkpt lat="42.10291" lon="2.4725">
        <ele>662</ele>
        <time>2010-01-01T03:55:21Z</time>
      </trkpt>
      <trkpt lat="42.10294" lon="2.4725">
        <ele>662</ele>
        <time>2010-01-01T03:55:22Z</time>
      </trkpt>
      <trkpt lat="42.10299" lon="2.47255">
        <ele>662</ele>
        <time>2010-01-01T03:55:24Z</time>
      </trkpt>
      <trkpt lat="42.10303" lon="2.47257">
        <ele>661</ele>
        <time>2010-01-01T03:55:26Z</time>
      </trkpt>
      <trkpt lat="42.10307" lon="2.47257">
        <ele>662</ele>
        <time>2010-01-01T03:55:28Z</time>
      </trkpt>
      <trkpt lat="42.10327" lon="2.47233">
        <ele>666</ele>
        <time>2010-01-01T03:55:38Z</time>
      </trkpt>
      <trkpt lat="42.10328" lon="2.47208">
        <ele>668</ele>
        <time>2010-01-01T03:55:46Z</time>
      </trkpt>
      <trkpt lat="42.10326" lon="2.47192">
        <ele>668</ele>
        <time>2010-01-01T03:55:51Z</time>
      </trkpt>
      <trkpt lat="42.10326" lon="2.47171">
        <ele>669</ele>
        <time>2010-01-01T03:55:57Z</time>
      </trkpt>
      <trkpt lat="42.10324" lon="2.47149">
        <ele>666</ele>
        <time>2010-01-01T03:56:04Z</time>
      </trkpt>
      <trkpt lat="42.10329" lon="2.47133">
        <ele>666</ele>
        <time>2010-01-01T03:56:09Z</time>
      </trkpt>
      <trkpt lat="42.10329" lon="2.47113">
        <ele>664</ele>
        <time>2010-01-01T03:56:15Z</time>
      </trkpt>
      <trkpt lat="42.10336" lon="2.47099">
        <ele>666</ele>
        <time>2010-01-01T03:56:20Z</time>
      </trkpt>
      <trkpt lat="42.10339" lon="2.47087">
        <ele>666</ele>
        <time>2010-01-01T03:56:23Z</time>
      </trkpt>
      <trkpt lat="42.1034" lon="2.47052">
        <ele>664</ele>
        <time>2010-01-01T03:56:34Z</time>
      </trkpt>
      <trkpt lat="42.10338" lon="2.47036">
        <ele>663</ele>
        <time>2010-01-01T03:56:39Z</time>
      </trkpt>
      <trkpt lat="42.10332" lon="2.47019">
        <ele>660</ele>
        <time>2010-01-01T03:56:44Z</time>
      </trkpt>
      <trkpt lat="42.10332" lon="2.46998">
        <ele>660</ele>
        <time>2010-01-01T03:56:50Z</time>
      </trkpt>
      <trkpt lat="42.10325" lon="2.46947">
        <ele>653</ele>
        <time>2010-01-01T03:57:06Z</time>
      </trkpt>
      <trkpt lat="42.10328" lon="2.46938">
        <ele>653</ele>
        <time>2010-01-01T03:57:09Z</time>
      </trkpt>
      <trkpt lat="42.10333" lon="2.4693">
        <ele>655</ele>
        <time>2010-01-01T03:57:12Z</time>
      </trkpt>
      <trkpt lat="42.10336" lon="2.46923">
        <ele>655</ele>
        <time>2010-01-01T03:57:14Z</time>
      </trkpt>
      <trkpt lat="42.10337" lon="2.46912">
        <ele>654</ele>
        <time>2010-01-01T03:57:18Z</time>
      </trkpt>
      <trkpt lat="42.10332" lon="2.46891">
        <ele>650</ele>
        <time>2010-01-01T03:57:24Z</time>
      </trkpt>
      <trkpt lat="42.10337" lon="2.46869">
        <ele>650</ele>
        <time>2010-01-01T03:57:31Z</time>
      </trkpt>
      <trkpt lat="42.10348" lon="2.46838">
        <ele>653</ele>
        <time>2010-01-01T03:57:41Z</time>
      </trkpt>
      <trkpt lat="42.10352" lon="2.46815">
        <ele>652</ele>
        <time>2010-01-01T03:57:48Z</time>
      </trkpt>
      <trkpt lat="42.10351" lon="2.46809">
        <ele>652</ele>
        <time>2010-01-01T03:57:50Z</time>
      </trkpt>
      <trkpt lat="42.1034" lon="2.4681">
        <ele>647</ele>
        <time>2010-01-01T03:57:54Z</time>
      </trkpt>
      <trkpt lat="42.10337" lon="2.46809">
        <ele>646</ele>
        <time>2010-01-01T03:57:56Z</time>
      </trkpt>
      <trkpt lat="42.10335" lon="2.46803">
        <ele>645</ele>
        <time>2010-01-01T03:57:57Z</time>
      </trkpt>
      <trkpt lat="42.10335" lon="2.46791">
        <ele>643</ele>
        <time>2010-01-01T03:58:01Z</time>
      </trkpt>
      <trkpt lat="42.10343" lon="2.46775">
        <ele>643</ele>
        <time>2010-01-01T03:58:07Z</time>
      </trkpt>
      <trkpt lat="42.10344" lon="2.46759">
        <ele>639</ele>
        <time>2010-01-01T03:58:12Z</time>
      </trkpt>
      <trkpt lat="42.10348" lon="2.46747">
        <ele>637</ele>
        <time>2010-01-01T03:58:15Z</time>
      </trkpt>
      <trkpt lat="42.10364" lon="2.46718">
        <ele>637</ele>
        <time>2010-01-01T03:58:26Z</time>
      </trkpt>
      <trkpt lat="42.10375" lon="2.46705">
        <ele>638</ele>
        <time>2010-01-01T03:58:32Z</time>
      </trkpt>
      <trkpt lat="42.1038" lon="2.46685">
        <ele>635</ele>
        <time>2010-01-01T03:58:38Z</time>
      </trkpt>
      <trkpt lat="42.1038" lon="2.46673">
        <ele>633</ele>
        <time>2010-01-01T03:58:42Z</time>
      </trkpt>
      <trkpt lat="42.10375" lon="2.46624">
        <ele>623</ele>
        <time>2010-01-01T03:58:57Z</time>
      </trkpt>
      <trkpt lat="42.10377" lon="2.46608">
        <ele>622</ele>
        <time>2010-01-01T03:59:01Z</time>
      </trkpt>
      <trkpt lat="42.10373" lon="2.46594">
        <ele>619</ele>
        <time>2010-01-01T03:59:06Z</time>
      </trkpt>
      <trkpt lat="42.10369" lon="2.46551">
        <ele>614</ele>
        <time>2010-01-01T03:59:19Z</time>
      </trkpt>
      <trkpt lat="42.10373" lon="2.46545">
        <ele>614</ele>
        <time>2010-01-01T03:59:21Z</time>
      </trkpt>
      <trkpt lat="42.10376" lon="2.46543">
        <ele>615</ele>
        <time>2010-01-01T03:59:22Z</time>
      </trkpt>
      <trkpt lat="42.10381" lon="2.46548">
        <ele>616</ele>
        <time>2010-01-01T03:59:25Z</time>
      </trkpt>
      <trkpt lat="42.10387" lon="2.46546">
        <ele>617</ele>
        <time>2010-01-01T03:59:27Z</time>
      </trkpt>
      <trkpt lat="42.10396" lon="2.46547">
        <ele>617</ele>
        <time>2010-01-01T03:59:31Z</time>
      </trkpt>
      <trkpt lat="42.10401" lon="2.4655">
        <ele>618</ele>
        <time>2010-01-01T03:59:33Z</time>
      </trkpt>
      <trkpt lat="42.10407" lon="2.46552">
        <ele>618</ele>
        <time>2010-01-01T03:59:35Z</time>
      </trkpt>
      <trkpt lat="42.10426" lon="2.46547">
        <ele>618</ele>
        <time>2010-01-01T03:59:43Z</time>
      </trkpt>
      <trkpt lat="42.10434" lon="2.46541">
        <ele>618</ele>
        <time>2010-01-01T03:59:47Z</time>
      </trkpt>
      <trkpt lat="42.1044" lon="2.46533">
        <ele>616</ele>
        <time>2010-01-01T03:59:50Z</time>
      </trkpt>
      <trkpt lat="42.10448" lon="2.46508">
        <ele>612</ele>
        <time>2010-01-01T03:59:58Z</time>
      </trkpt>
      <trkpt lat="42.10456" lon="2.46497">
        <ele>610</ele>
        <time>2010-01-01T04:00:03Z</time>
      </trkpt>
      <trkpt lat="42.1046" lon="2.46481">
        <ele>608</ele>
        <time>2010-01-01T04:00:08Z</time>
      </trkpt>
      <trkpt lat="42.10472" lon="2.46454">
        <ele>606</ele>
        <time>2010-01-01T04:00:17Z</time>
      </trkpt>
      <trkpt lat="42.1048" lon="2.46421">
        <ele>604</ele>
        <time>2010-01-01T04:00:27Z</time>
      </trkpt>
      <trkpt lat="42.10475" lon="2.46397">
        <ele>603</ele>
        <time>2010-01-01T04:00:35Z</time>
      </trkpt>
      <trkpt lat="42.10475" lon="2.46372">
        <ele>601</ele>
        <time>2010-01-01T04:00:42Z</time>
      </trkpt>
      <trkpt lat="42.10472" lon="2.4636">
        <ele>600</ele>
        <time>2010-01-01T04:00:46Z</time>
      </trkpt>
      <trkpt lat="42.10466" lon="2.46349">
        <ele>598</ele>
        <time>2010-01-01T04:00:50Z</time>
      </trkpt>
      <trkpt lat="42.10468" lon="2.46336">
        <ele>597</ele>
        <time>2010-01-01T04:00:54Z</time>
      </trkpt>
      <trkpt lat="42.10471" lon="2.46328">
        <ele>596</ele>
        <time>2010-01-01T04:00:56Z</time>
      </trkpt>
      <trkpt lat="42.10482" lon="2.46318">
        <ele>595</ele>
        <time>2010-01-01T04:01:02Z</time>
      </trkpt>
      <trkpt lat="42.1049" lon="2.46316">
        <ele>594</ele>
        <time>2010-01-01T04:01:05Z</time>
      </trkpt>
      <trkpt lat="42.10499" lon="2.46318">
        <ele>594</ele>
        <time>2010-01-01T04:01:09Z</time>
      </trkpt>
      <trkpt lat="42.10502" lon="2.46316">
        <ele>594</ele>
        <time>2010-01-01T04:01:10Z</time>
      </trkpt>
      <trkpt lat="42.10512" lon="2.46304">
        <ele>591</ele>
        <time>2010-01-01T04:01:15Z</time>
      </trkpt>
      <trkpt lat="42.10516" lon="2.46294">
        <ele>590</ele>
        <time>2010-01-01T04:01:19Z</time>
      </trkpt>
      <trkpt lat="42.10515" lon="2.46253">
        <ele>587</ele>
        <time>2010-01-01T04:01:31Z</time>
      </trkpt>
      <trkpt lat="42.10515" lon="2.46249">
        <ele>587</ele>
        <time>2010-01-01T04:01:32Z</time>
      </trkpt>
      <trkpt lat="42.1052" lon="2.46242">
        <ele>587</ele>
        <time>2010-01-01T04:01:35Z</time>
      </trkpt>
      <trkpt lat="42.10523" lon="2.46235">
        <ele>586</ele>
        <time>2010-01-01T04:01:37Z</time>
      </trkpt>
      <trkpt lat="42.10526" lon="2.46206">
        <ele>582</ele>
        <time>2010-01-01T04:01:46Z</time>
      </trkpt>
      <trkpt lat="42.10535" lon="2.46184">
        <ele>581</ele>
        <time>2010-01-01T04:01:53Z</time>
      </trkpt>
      <trkpt lat="42.10537" lon="2.46171">
        <ele>580</ele>
        <time>2010-01-01T04:01:57Z</time>
      </trkpt>
      <trkpt lat="42.10542" lon="2.46156">
        <ele>579</ele>
        <time>2010-01-01T04:02:03Z</time>
      </trkpt>
      <trkpt lat="42.10543" lon="2.46148">
        <ele>578</ele>
        <time>2010-01-01T04:02:05Z</time>
      </trkpt>
      <trkpt lat="42.10539" lon="2.46133">
        <ele>576</ele>
        <time>2010-01-01T04:02:10Z</time>
      </trkpt>
      <trkpt lat="42.1054" lon="2.46128">
        <ele>575</ele>
        <time>2010-01-01T04:02:11Z</time>
      </trkpt>
      <trkpt lat="42.10544" lon="2.4612">
        <ele>575</ele>
        <time>2010-01-01T04:02:14Z</time>
      </trkpt>
      <trkpt lat="42.10557" lon="2.46106">
        <ele>573</ele>
        <time>2010-01-01T04:02:21Z</time>
      </trkpt>
      <trkpt lat="42.10587" lon="2.4609">
        <ele>571</ele>
        <time>2010-01-01T04:02:33Z</time>
      </trkpt>
      <trkpt lat="42.10598" lon="2.4609">
        <ele>571</ele>
        <time>2010-01-01T04:02:38Z</time>
      </trkpt>
      <trkpt lat="42.10602" lon="2.46088">
        <ele>570</ele>
        <time>2010-01-01T04:02:39Z</time>
      </trkpt>
      <trkpt lat="42.1061" lon="2.46075">
        <ele>569</ele>
        <time>2010-01-01T04:02:45Z</time>
      </trkpt>
      <trkpt lat="42.10615" lon="2.46064">
        <ele>567</ele>
        <time>2010-01-01T04:02:49Z</time>
      </trkpt>
      <trkpt lat="42.10621" lon="2.46044">
        <ele>564</ele>
        <time>2010-01-01T04:02:55Z</time>
      </trkpt>
      <trkpt lat="42.10624" lon="2.4602">
        <ele>560</ele>
        <time>2010-01-01T04:03:02Z</time>
      </trkpt>
      <trkpt lat="42.10617" lon="2.46011">
        <ele>559</ele>
        <time>2010-01-01T04:03:06Z</time>
      </trkpt>
      <trkpt lat="42.10609" lon="2.46007">
        <ele>559</ele>
        <time>2010-01-01T04:03:09Z</time>
      </trkpt>
      <trkpt lat="42.10603" lon="2.46008">
        <ele>559</ele>
        <time>2010-01-01T04:03:12Z</time>
      </trkpt>
      <trkpt lat="42.10594" lon="2.46012">
        <ele>560</ele>
        <time>2010-01-01T04:03:15Z</time>
      </trkpt>
      <trkpt lat="42.10588" lon="2.46012">
        <ele>559</ele>
        <time>2010-01-01T04:03:18Z</time>
      </trkpt>
      <trkpt lat="42.10583" lon="2.46008">
        <ele>558</ele>
        <time>2010-01-01T04:03:20Z</time>
      </trkpt>
      <trkpt lat="42.10581" lon="2.46001">
        <ele>556</ele>
        <time>2010-01-01T04:03:23Z</time>
      </trkpt>
      <trkpt lat="42.10588" lon="2.45986">
        <ele>552</ele>
        <time>2010-01-01T04:03:28Z</time>
      </trkpt>
      <trkpt lat="42.10612" lon="2.45967">
        <ele>547</ele>
        <time>2010-01-01T04:03:39Z</time>
      </trkpt>
      <trkpt lat="42.10624" lon="2.45964">
        <ele>545</ele>
        <time>2010-01-01T04:03:44Z</time>
      </trkpt>
      <trkpt lat="42.10647" lon="2.45952">
        <ele>540</ele>
        <time>2010-01-01T04:03:54Z</time>
      </trkpt>
      <trkpt lat="42.10654" lon="2.4595">
        <ele>538</ele>
        <time>2010-01-01T04:03:56Z</time>
      </trkpt>
      <trkpt lat="42.10667" lon="2.45954">
        <ele>537</ele>
        <time>2010-01-01T04:04:02Z</time>
      </trkpt>
      <trkpt lat="42.10684" lon="2.45953">
        <ele>536</ele>
        <time>2010-01-01T04:04:09Z</time>
      </trkpt>
      <trkpt lat="42.10701" lon="2.45963">
        <ele>535</ele>
        <time>2010-01-01T04:04:16Z</time>
      </trkpt>
      <trkpt lat="42.10706" lon="2.45962">
        <ele>534</ele>
        <time>2010-01-01T04:04:18Z</time>
      </trkpt>
      <trkpt lat="42.10715" lon="2.45957">
        <ele>533</ele>
        <time>2010-01-01T04:04:22Z</time>
      </trkpt>
      <trkpt lat="42.10725" lon="2.45956">
        <ele>531</ele>
        <time>2010-01-01T04:04:26Z</time>
      </trkpt>
      <trkpt lat="42.1073" lon="2.45959">
        <ele>530</ele>
        <time>2010-01-01T04:04:28Z</time>
      </trkpt>
      <trkpt lat="42.10737" lon="2.45966">
        <ele>530</ele>
        <time>2010-01-01T04:04:32Z</time>
      </trkpt>
      <trkpt lat="42.10743" lon="2.45969">
        <ele>529</ele>
        <time>2010-01-01T04:04:34Z</time>
      </trkpt>
      <trkpt lat="42.10755" lon="2.45969">
        <ele>527</ele>
        <time>2010-01-01T04:04:39Z</time>
      </trkpt>
      <trkpt lat="42.10761" lon="2.45968">
        <ele>526</ele>
        <time>2010-01-01T04:04:42Z</time>
      </trkpt>
      <trkpt lat="42.10767" lon="2.45966">
        <ele>525</ele>
        <time>2010-01-01T04:04:44Z</time>
      </trkpt>
      <trkpt lat="42.1077" lon="2.45966">
        <ele>524</ele>
        <time>2010-01-01T04:04:45Z</time>
      </trkpt>
      <trkpt lat="42.10791" lon="2.45984">
        <ele>522</ele>
        <time>2010-01-01T04:04:55Z</time>
      </trkpt>
      <trkpt lat="42.10803" lon="2.45989">
        <ele>520</ele>
        <time>2010-01-01T04:05:00Z</time>
      </trkpt>
      <trkpt lat="42.1081" lon="2.45989">
        <ele>518</ele>
        <time>2010-01-01T04:05:03Z</time>
      </trkpt>
      <trkpt lat="42.10815" lon="2.45984">
        <ele>517</ele>
        <time>2010-01-01T04:05:06Z</time>
      </trkpt>
      <trkpt lat="42.10817" lon="2.45972">
        <ele>516</ele>
        <time>2010-01-01T04:05:09Z</time>
      </trkpt>
      <trkpt lat="42.10814" lon="2.45952">
        <ele>514</ele>
        <time>2010-01-01T04:05:16Z</time>
      </trkpt>
      <trkpt lat="42.10818" lon="2.45944">
        <ele>513</ele>
        <time>2010-01-01T04:05:18Z</time>
      </trkpt>
      <trkpt lat="42.10818" lon="2.45937">
        <ele>512</ele>
        <time>2010-01-01T04:05:20Z</time>
      </trkpt>
      <trkpt lat="42.10813" lon="2.45926">
        <ele>512</ele>
        <time>2010-01-01T04:05:24Z</time>
      </trkpt>
      <trkpt lat="42.10805" lon="2.45917">
        <ele>513</ele>
        <time>2010-01-01T04:05:28Z</time>
      </trkpt>
      <trkpt lat="42.10805" lon="2.45913">
        <ele>512</ele>
        <time>2010-01-01T04:05:30Z</time>
      </trkpt>
      <trkpt lat="42.10811" lon="2.45897">
        <ele>510</ele>
        <time>2010-01-01T04:05:35Z</time>
      </trkpt>
      <trkpt lat="42.1081" lon="2.4589">
        <ele>510</ele>
        <time>2010-01-01T04:05:37Z</time>
      </trkpt>
      <trkpt lat="42.10797" lon="2.45863">
        <ele>509</ele>
        <time>2010-01-01T04:05:47Z</time>
      </trkpt>
      <trkpt lat="42.10774" lon="2.4581">
        <ele>506</ele>
        <time>2010-01-01T04:06:05Z</time>
      </trkpt>
      <trkpt lat="42.10769" lon="2.45781">
        <ele>504</ele>
        <time>2010-01-01T04:06:13Z</time>
      </trkpt>
      <trkpt lat="42.1077" lon="2.45774">
        <ele>504</ele>
        <time>2010-01-01T04:06:16Z</time>
      </trkpt>
      <trkpt lat="42.10772" lon="2.4577">
        <ele>503</ele>
        <time>2010-01-01T04:06:17Z</time>
      </trkpt>
      <trkpt lat="42.10792" lon="2.4574">
        <ele>500</ele>
        <time>2010-01-01T04:06:29Z</time>
      </trkpt>
      <trkpt lat="42.10804" lon="2.45726">
        <ele>498</ele>
        <time>2010-01-01T04:06:35Z</time>
      </trkpt>
      <trkpt lat="42.10816" lon="2.45697">
        <ele>493</ele>
        <time>2010-01-01T04:06:45Z</time>
      </trkpt>
      <trkpt lat="42.10828" lon="2.45679">
        <ele>489</ele>
        <time>2010-01-01T04:06:52Z</time>
      </trkpt>
      <trkpt lat="42.10831" lon="2.45677">
        <ele>488</ele>
        <time>2010-01-01T04:06:54Z</time>
      </trkpt>
      <trkpt lat="42.10855" lon="2.45672">
        <ele>487</ele>
        <time>2010-01-01T04:07:03Z</time>
      </trkpt>
      <trkpt lat="42.10861" lon="2.4567">
        <ele>487</ele>
        <time>2010-01-01T04:07:06Z</time>
      </trkpt>
      <trkpt lat="42.10879" lon="2.45658">
        <ele>487</ele>
        <time>2010-01-01T04:07:14Z</time>
      </trkpt>
      <trkpt lat="42.10905" lon="2.45637">
        <ele>488</ele>
        <time>2010-01-01T04:07:26Z</time>
      </trkpt>
      <trkpt lat="42.10917" lon="2.45631">
        <ele>488</ele>
        <time>2010-01-01T04:07:31Z</time>
      </trkpt>
      <trkpt lat="42.10936" lon="2.45624">
        <ele>488</ele>
        <time>2010-01-01T04:07:39Z</time>
      </trkpt>
      <trkpt lat="42.10946" lon="2.45624">
        <ele>489</ele>
        <time>2010-01-01T04:07:43Z</time>
      </trkpt>
      <trkpt lat="42.10949" lon="2.45625">
        <ele>489</ele>
        <time>2010-01-01T04:07:44Z</time>
      </trkpt>
      <trkpt lat="42.10954" lon="2.45628">
        <ele>489</ele>
        <time>2010-01-01T04:07:46Z</time>
      </trkpt>
      <trkpt lat="42.10971" lon="2.45654">
        <ele>491</ele>
        <time>2010-01-01T04:07:57Z</time>
      </trkpt>
      <trkpt lat="42.10998" lon="2.45688">
        <ele>493</ele>
        <time>2010-01-01T04:08:12Z</time>
      </trkpt>
      <trkpt lat="42.11029" lon="2.45719">
        <ele>494</ele>
        <time>2010-01-01T04:08:27Z</time>
      </trkpt>
      <trkpt lat="42.11036" lon="2.45728">
        <ele>493</ele>
        <time>2010-01-01T04:08:31Z</time>
      </trkpt>
      <trkpt lat="42.11047" lon="2.45736">
        <ele>492</ele>
        <time>2010-01-01T04:08:36Z</time>
      </trkpt>
      <trkpt lat="42.11061" lon="2.45759">
        <ele>490</ele>
        <time>2010-01-01T04:08:45Z</time>
      </trkpt>
      <trkpt lat="42.11069" lon="2.45766">
        <ele>489</ele>
        <time>2010-01-01T04:08:48Z</time>
      </trkpt>
      <trkpt lat="42.11078" lon="2.45766">
        <ele>487</ele>
        <time>2010-01-01T04:08:52Z</time>
      </trkpt>
      <trkpt lat="42.11083" lon="2.45762">
        <ele>486</ele>
        <time>2010-01-01T04:08:54Z</time>
      </trkpt>
      <trkpt lat="42.11089" lon="2.45752">
        <ele>486</ele>
        <time>2010-01-01T04:08:58Z</time>
      </trkpt>
      <trkpt lat="42.11104" lon="2.45717">
        <ele>485</ele>
        <time>2010-01-01T04:09:10Z</time>
      </trkpt>
      <trkpt lat="42.11107" lon="2.45714">
        <ele>485</ele>
        <time>2010-01-01T04:09:12Z</time>
      </trkpt>
      <trkpt lat="42.1111" lon="2.45714">
        <ele>485</ele>
        <time>2010-01-01T04:09:13Z</time>
      </trkpt>
      <trkpt lat="42.1123" lon="2.4577">
        <ele>482</ele>
        <time>2010-01-01T04:10:04Z</time>
      </trkpt>
      <trkpt lat="42.11245" lon="2.45773">
        <ele>483</ele>
        <time>2010-01-01T04:10:10Z</time>
      </trkpt>
      <trkpt lat="42.11253" lon="2.45771">
        <ele>484</ele>
        <time>2010-01-01T04:10:13Z</time>
      </trkpt>
      <trkpt lat="42.11263" lon="2.45765">
        <ele>484</ele>
        <time>2010-01-01T04:10:17Z</time>
      </trkpt>
      <trkpt lat="42.11265" lon="2.45766">
        <ele>484</ele>
        <time>2010-01-01T04:10:18Z</time>
      </trkpt>
      <trkpt lat="42.11279" lon="2.45802">
        <ele>484</ele>
        <time>2010-01-01T04:10:30Z</time>
      </trkpt>
      <trkpt lat="42.11292" lon="2.45826">
        <ele>484</ele>
        <time>2010-01-01T04:10:39Z</time>
      </trkpt>
      <trkpt lat="42.11309" lon="2.45838">
        <ele>485</ele>
        <time>2010-01-01T04:10:47Z</time>
      </trkpt>
      <trkpt lat="42.11318" lon="2.45849">
        <ele>485</ele>
        <time>2010-01-01T04:10:52Z</time>
      </trkpt>
      <trkpt lat="42.11341" lon="2.45866">
        <ele>485</ele>
        <time>2010-01-01T04:11:02Z</time>
      </trkpt>
      <trkpt lat="42.11358" lon="2.45873">
        <ele>484</ele>
        <time>2010-01-01T04:11:09Z</time>
      </trkpt>
      <trkpt lat="42.1137" lon="2.45882">
        <ele>484</ele>
        <time>2010-01-01T04:11:15Z</time>
      </trkpt>
      <trkpt lat="42.11382" lon="2.45884">
        <ele>484</ele>
        <time>2010-01-01T04:11:20Z</time>
      </trkpt>
      <trkpt lat="42.114" lon="2.45891">
        <ele>485</ele>
        <time>2010-01-01T04:11:27Z</time>
      </trkpt>
      <trkpt lat="42.1141" lon="2.45891">
        <ele>485</ele>
        <time>2010-01-01T04:11:31Z</time>
      </trkpt>
      <trkpt lat="42.11444" lon="2.45905">
        <ele>487</ele>
        <time>2010-01-01T04:11:46Z</time>
      </trkpt>
      <trkpt lat="42.11456" lon="2.45908">
        <ele>487</ele>
        <time>2010-01-01T04:11:50Z</time>
      </trkpt>
      <trkpt lat="42.11468" lon="2.45909">
        <ele>487</ele>
        <time>2010-01-01T04:11:55Z</time>
      </trkpt>
      <trkpt lat="42.11493" lon="2.45906">
        <ele>487</ele>
        <time>2010-01-01T04:12:05Z</time>
      </trkpt>
      <trkpt lat="42.115" lon="2.45903">
        <ele>487</ele>
        <time>2010-01-01T04:12:08Z</time>
      </trkpt>
      <trkpt lat="42.11507" lon="2.45902">
        <ele>487</ele>
        <time>2010-01-01T04:12:11Z</time>
      </trkpt>
      <trkpt lat="42.11533" lon="2.45911">
        <ele>487</ele>
        <time>2010-01-01T04:12:22Z</time>
      </trkpt>
      <trkpt lat="42.11546" lon="2.45918">
        <ele>487</ele>
        <time>2010-01-01T04:12:27Z</time>
      </trkpt>
      <trkpt lat="42.11554" lon="2.45925">
        <ele>487</ele>
        <time>2010-01-01T04:12:31Z</time>
      </trkpt>
      <trkpt lat="42.11576" lon="2.45934">
        <ele>487</ele>
        <time>2010-01-01T04:12:40Z</time>
      </trkpt>
      <trkpt lat="42.11591" lon="2.45943">
        <ele>488</ele>
        <time>2010-01-01T04:12:47Z</time>
      </trkpt>
      <trkpt lat="42.11619" lon="2.45958">
        <ele>489</ele>
        <time>2010-01-01T04:12:59Z</time>
      </trkpt>
      <trkpt lat="42.11654" lon="2.45958">
        <ele>492</ele>
        <time>2010-01-01T04:13:13Z</time>
      </trkpt>
      <trkpt lat="42.11672" lon="2.45956">
        <ele>495</ele>
        <time>2010-01-01T04:13:20Z</time>
      </trkpt>
      <trkpt lat="42.11676" lon="2.45952">
        <ele>495</ele>
        <time>2010-01-01T04:13:22Z</time>
      </trkpt>
      <trkpt lat="42.1168" lon="2.45946">
        <ele>496</ele>
        <time>2010-01-01T04:13:24Z</time>
      </trkpt>
      <trkpt lat="42.11701" lon="2.45931">
        <ele>499</ele>
        <time>2010-01-01T04:13:34Z</time>
      </trkpt>
      <trkpt lat="42.11717" lon="2.4593">
        <ele>503</ele>
        <time>2010-01-01T04:13:40Z</time>
      </trkpt>
      <trkpt lat="42.11723" lon="2.45932">
        <ele>504</ele>
        <time>2010-01-01T04:13:43Z</time>
      </trkpt>
      <trkpt lat="42.11727" lon="2.45931">
        <ele>505</ele>
        <time>2010-01-01T04:13:44Z</time>
      </trkpt>
      <trkpt lat="42.11741" lon="2.45959">
        <ele>505</ele>
        <time>2010-01-01T04:13:55Z</time>
      </trkpt>
      <trkpt lat="42.11745" lon="2.45962">
        <ele>506</ele>
        <time>2010-01-01T04:13:56Z</time>
      </trkpt>
      <trkpt lat="42.11752" lon="2.4596">
        <ele>506</ele>
        <time>2010-01-01T04:13:59Z</time>
      </trkpt>
      <trkpt lat="42.11765" lon="2.4595">
        <ele>509</ele>
        <time>2010-01-01T04:14:05Z</time>
      </trkpt>
      <trkpt lat="42.11774" lon="2.45945">
        <ele>510</ele>
        <time>2010-01-01T04:14:09Z</time>
      </trkpt>
      <trkpt lat="42.11794" lon="2.45931">
        <ele>512</ele>
        <time>2010-01-01T04:14:18Z</time>
      </trkpt>
      <trkpt lat="42.11803" lon="2.45929">
        <ele>513</ele>
        <time>2010-01-01T04:14:22Z</time>
      </trkpt>
      <trkpt lat="42.11792" lon="2.45904">
        <ele>511</ele>
        <time>2010-01-01T04:14:30Z</time>
      </trkpt>
    </trkseg>
  </trk>
</gpx>